<?xml version="1.0" encoding="UTF-8" standalone="no" ?>
<gpx xmlns="http://www.topografix.com/GPX/1/1" xmlns:xsi="http://www.w3.org/2001/XMLSchema-instance" xsi:schemaLocation="http://www.topografix.com/GPX/1/1 http://www.topografix.com/GPX/1/1/gpx.xsd" version="1.1" creator="VisuGPX - https://www.visugpx.com">
  <metadata>
    <name>Reims Mont Bernon </name>
  </metadata>
  <trk>
    <name><![CDATA[Reims Mont Bernon _1]]></name>
    <trkseg>
      <trkpt lat="49.25668" lon="4.03627">
        <ele>90</ele>
        <time>2022-09-20T11:30:30Z</time>
      </trkpt>
      <trkpt lat="49.25664" lon="4.03632">
        <ele>93.8</ele>
        <time>2022-09-20T11:30:31Z</time>
      </trkpt>
      <trkpt lat="49.25658" lon="4.03637">
        <ele>94.8</ele>
        <time>2022-09-20T11:30:33Z</time>
      </trkpt>
      <trkpt lat="49.25644" lon="4.03649">
        <ele>94</ele>
        <time>2022-09-20T11:30:37Z</time>
      </trkpt>
      <trkpt lat="49.2564" lon="4.03651">
        <ele>93.6</ele>
        <time>2022-09-20T11:30:39Z</time>
      </trkpt>
      <trkpt lat="49.2564" lon="4.03652">
        <ele>93.6</ele>
        <time>2022-09-20T11:30:40Z</time>
      </trkpt>
      <trkpt lat="49.25635" lon="4.03653">
        <ele>93.2</ele>
        <time>2022-09-20T11:30:48Z</time>
      </trkpt>
      <trkpt lat="49.25632" lon="4.03645">
        <ele>93</ele>
        <time>2022-09-20T11:30:52Z</time>
      </trkpt>
      <trkpt lat="49.2563" lon="4.03642">
        <ele>92.8</ele>
        <time>2022-09-20T11:30:53Z</time>
      </trkpt>
      <trkpt lat="49.25629" lon="4.03645">
        <ele>92.8</ele>
        <time>2022-09-20T11:30:56Z</time>
      </trkpt>
      <trkpt lat="49.25617" lon="4.03657">
        <ele>92.8</ele>
        <time>2022-09-20T11:30:59Z</time>
      </trkpt>
      <trkpt lat="49.25604" lon="4.03669">
        <ele>92.8</ele>
        <time>2022-09-20T11:31:02Z</time>
      </trkpt>
      <trkpt lat="49.25596" lon="4.03677">
        <ele>93</ele>
        <time>2022-09-20T11:31:04Z</time>
      </trkpt>
      <trkpt lat="49.25593" lon="4.0368">
        <ele>93.2</ele>
        <time>2022-09-20T11:31:05Z</time>
      </trkpt>
      <trkpt lat="49.25586" lon="4.03688">
        <ele>93.4</ele>
        <time>2022-09-20T11:31:07Z</time>
      </trkpt>
      <trkpt lat="49.25574" lon="4.03701">
        <ele>93.8</ele>
        <time>2022-09-20T11:31:11Z</time>
      </trkpt>
      <trkpt lat="49.25561" lon="4.03708">
        <ele>94</ele>
        <time>2022-09-20T11:31:15Z</time>
      </trkpt>
      <trkpt lat="49.25543" lon="4.03703">
        <ele>94</ele>
        <time>2022-09-20T11:31:18Z</time>
      </trkpt>
      <trkpt lat="49.25533" lon="4.03717">
        <ele>94</ele>
        <time>2022-09-20T11:31:22Z</time>
      </trkpt>
      <trkpt lat="49.25517" lon="4.03732">
        <ele>94.4</ele>
        <time>2022-09-20T11:31:27Z</time>
      </trkpt>
      <trkpt lat="49.25511" lon="4.03738">
        <ele>95</ele>
        <time>2022-09-20T11:31:29Z</time>
      </trkpt>
      <trkpt lat="49.25501" lon="4.03754">
        <ele>96</ele>
        <time>2022-09-20T11:31:34Z</time>
      </trkpt>
      <trkpt lat="49.25499" lon="4.03757">
        <ele>96</ele>
        <time>2022-09-20T11:31:35Z</time>
      </trkpt>
      <trkpt lat="49.25495" lon="4.03761">
        <ele>96.4</ele>
        <time>2022-09-20T11:31:37Z</time>
      </trkpt>
      <trkpt lat="49.25489" lon="4.03763">
        <ele>96.4</ele>
        <time>2022-09-20T11:31:39Z</time>
      </trkpt>
      <trkpt lat="49.25479" lon="4.03772">
        <ele>96.6</ele>
        <time>2022-09-20T11:31:42Z</time>
      </trkpt>
      <trkpt lat="49.25477" lon="4.03775">
        <ele>96.6</ele>
        <time>2022-09-20T11:31:43Z</time>
      </trkpt>
      <trkpt lat="49.25475" lon="4.0378">
        <ele>96.6</ele>
        <time>2022-09-20T11:31:44Z</time>
      </trkpt>
      <trkpt lat="49.25465" lon="4.03788">
        <ele>96.6</ele>
        <time>2022-09-20T11:31:46Z</time>
      </trkpt>
      <trkpt lat="49.2546" lon="4.03792">
        <ele>96.6</ele>
        <time>2022-09-20T11:31:47Z</time>
      </trkpt>
      <trkpt lat="49.25439" lon="4.03808">
        <ele>96.8</ele>
        <time>2022-09-20T11:31:52Z</time>
      </trkpt>
      <trkpt lat="49.25427" lon="4.03827">
        <ele>96.6</ele>
        <time>2022-09-20T11:31:57Z</time>
      </trkpt>
      <trkpt lat="49.25409" lon="4.03865">
        <ele>97</ele>
        <time>2022-09-20T11:32:05Z</time>
      </trkpt>
      <trkpt lat="49.25405" lon="4.03873">
        <ele>97.2</ele>
        <time>2022-09-20T11:32:07Z</time>
      </trkpt>
      <trkpt lat="49.25402" lon="4.0388">
        <ele>97.8</ele>
        <time>2022-09-20T11:32:09Z</time>
      </trkpt>
      <trkpt lat="49.25396" lon="4.03891">
        <ele>98.2</ele>
        <time>2022-09-20T11:32:11Z</time>
      </trkpt>
      <trkpt lat="49.25373" lon="4.03934">
        <ele>98.6</ele>
        <time>2022-09-20T11:32:19Z</time>
      </trkpt>
      <trkpt lat="49.25359" lon="4.03942">
        <ele>98.4</ele>
        <time>2022-09-20T11:32:23Z</time>
      </trkpt>
      <trkpt lat="49.25356" lon="4.03945">
        <ele>98.4</ele>
        <time>2022-09-20T11:32:24Z</time>
      </trkpt>
      <trkpt lat="49.2535" lon="4.0395">
        <ele>98.2</ele>
        <time>2022-09-20T11:32:26Z</time>
      </trkpt>
      <trkpt lat="49.25346" lon="4.03953">
        <ele>98.2</ele>
        <time>2022-09-20T11:32:27Z</time>
      </trkpt>
      <trkpt lat="49.25342" lon="4.03955">
        <ele>98.2</ele>
        <time>2022-09-20T11:32:28Z</time>
      </trkpt>
      <trkpt lat="49.25334" lon="4.0396">
        <ele>98.2</ele>
        <time>2022-09-20T11:32:30Z</time>
      </trkpt>
      <trkpt lat="49.25326" lon="4.03964">
        <ele>98</ele>
        <time>2022-09-20T11:32:32Z</time>
      </trkpt>
      <trkpt lat="49.25315" lon="4.0397">
        <ele>98</ele>
        <time>2022-09-20T11:32:34Z</time>
      </trkpt>
      <trkpt lat="49.25301" lon="4.03974">
        <ele>98</ele>
        <time>2022-09-20T11:32:36Z</time>
      </trkpt>
      <trkpt lat="49.25294" lon="4.03976">
        <ele>98</ele>
        <time>2022-09-20T11:32:37Z</time>
      </trkpt>
      <trkpt lat="49.25276" lon="4.03984">
        <ele>98</ele>
        <time>2022-09-20T11:32:40Z</time>
      </trkpt>
      <trkpt lat="49.25238" lon="4.04001">
        <ele>97.6</ele>
        <time>2022-09-20T11:32:46Z</time>
      </trkpt>
      <trkpt lat="49.25231" lon="4.04005">
        <ele>97.6</ele>
        <time>2022-09-20T11:32:47Z</time>
      </trkpt>
      <trkpt lat="49.25204" lon="4.04017">
        <ele>97.4</ele>
        <time>2022-09-20T11:32:51Z</time>
      </trkpt>
      <trkpt lat="49.25183" lon="4.04033">
        <ele>97.2</ele>
        <time>2022-09-20T11:32:54Z</time>
      </trkpt>
      <trkpt lat="49.25168" lon="4.04041">
        <ele>97.2</ele>
        <time>2022-09-20T11:32:56Z</time>
      </trkpt>
      <trkpt lat="49.25132" lon="4.04058">
        <ele>96.8</ele>
        <time>2022-09-20T11:33:02Z</time>
      </trkpt>
      <trkpt lat="49.25122" lon="4.04066">
        <ele>96.8</ele>
        <time>2022-09-20T11:33:04Z</time>
      </trkpt>
      <trkpt lat="49.25112" lon="4.04071">
        <ele>96.6</ele>
        <time>2022-09-20T11:33:07Z</time>
      </trkpt>
      <trkpt lat="49.2511" lon="4.04073">
        <ele>96.4</ele>
        <time>2022-09-20T11:33:11Z</time>
      </trkpt>
      <trkpt lat="49.2511" lon="4.04073">
        <ele>96.2</ele>
        <time>2022-09-20T11:33:22Z</time>
      </trkpt>
      <trkpt lat="49.2511" lon="4.04073">
        <ele>95.6</ele>
        <time>2022-09-20T11:33:31Z</time>
      </trkpt>
      <trkpt lat="49.25101" lon="4.04078">
        <ele>95.4</ele>
        <time>2022-09-20T11:33:35Z</time>
      </trkpt>
      <trkpt lat="49.25081" lon="4.04091">
        <ele>95.6</ele>
        <time>2022-09-20T11:33:39Z</time>
      </trkpt>
      <trkpt lat="49.25048" lon="4.04111">
        <ele>96</ele>
        <time>2022-09-20T11:33:45Z</time>
      </trkpt>
      <trkpt lat="49.25042" lon="4.04114">
        <ele>96.2</ele>
        <time>2022-09-20T11:33:46Z</time>
      </trkpt>
      <trkpt lat="49.25014" lon="4.04132">
        <ele>96.8</ele>
        <time>2022-09-20T11:33:51Z</time>
      </trkpt>
      <trkpt lat="49.24985" lon="4.04155">
        <ele>97.2</ele>
        <time>2022-09-20T11:33:56Z</time>
      </trkpt>
      <trkpt lat="49.24967" lon="4.04166">
        <ele>97.8</ele>
        <time>2022-09-20T11:33:59Z</time>
      </trkpt>
      <trkpt lat="49.24937" lon="4.04183">
        <ele>98.2</ele>
        <time>2022-09-20T11:34:04Z</time>
      </trkpt>
      <trkpt lat="49.24931" lon="4.04187">
        <ele>98.4</ele>
        <time>2022-09-20T11:34:05Z</time>
      </trkpt>
      <trkpt lat="49.24914" lon="4.04199">
        <ele>98.4</ele>
        <time>2022-09-20T11:34:08Z</time>
      </trkpt>
      <trkpt lat="49.24899" lon="4.04214">
        <ele>98.8</ele>
        <time>2022-09-20T11:34:11Z</time>
      </trkpt>
      <trkpt lat="49.24888" lon="4.04224">
        <ele>99.2</ele>
        <time>2022-09-20T11:34:13Z</time>
      </trkpt>
      <trkpt lat="49.24872" lon="4.04237">
        <ele>99.6</ele>
        <time>2022-09-20T11:34:16Z</time>
      </trkpt>
      <trkpt lat="49.24865" lon="4.04242">
        <ele>99.6</ele>
        <time>2022-09-20T11:34:17Z</time>
      </trkpt>
      <trkpt lat="49.24841" lon="4.04259">
        <ele>100</ele>
        <time>2022-09-20T11:34:21Z</time>
      </trkpt>
      <trkpt lat="49.2483" lon="4.04268">
        <ele>100</ele>
        <time>2022-09-20T11:34:23Z</time>
      </trkpt>
      <trkpt lat="49.2482" lon="4.04276">
        <ele>100.4</ele>
        <time>2022-09-20T11:34:25Z</time>
      </trkpt>
      <trkpt lat="49.24809" lon="4.04286">
        <ele>100.6</ele>
        <time>2022-09-20T11:34:28Z</time>
      </trkpt>
      <trkpt lat="49.24805" lon="4.04288">
        <ele>100.8</ele>
        <time>2022-09-20T11:34:31Z</time>
      </trkpt>
      <trkpt lat="49.24802" lon="4.0429">
        <ele>101</ele>
        <time>2022-09-20T11:34:34Z</time>
      </trkpt>
      <trkpt lat="49.24802" lon="4.04292">
        <ele>101</ele>
        <time>2022-09-20T11:34:35Z</time>
      </trkpt>
      <trkpt lat="49.24802" lon="4.04297">
        <ele>101</ele>
        <time>2022-09-20T11:34:37Z</time>
      </trkpt>
      <trkpt lat="49.24806" lon="4.04306">
        <ele>101</ele>
        <time>2022-09-20T11:34:39Z</time>
      </trkpt>
      <trkpt lat="49.24813" lon="4.0432">
        <ele>101</ele>
        <time>2022-09-20T11:34:42Z</time>
      </trkpt>
      <trkpt lat="49.24814" lon="4.04332">
        <ele>101</ele>
        <time>2022-09-20T11:34:44Z</time>
      </trkpt>
      <trkpt lat="49.24813" lon="4.04338">
        <ele>101.2</ele>
        <time>2022-09-20T11:34:45Z</time>
      </trkpt>
      <trkpt lat="49.24811" lon="4.04344">
        <ele>101.2</ele>
        <time>2022-09-20T11:34:46Z</time>
      </trkpt>
      <trkpt lat="49.24808" lon="4.0435">
        <ele>101.4</ele>
        <time>2022-09-20T11:34:47Z</time>
      </trkpt>
      <trkpt lat="49.24804" lon="4.04355">
        <ele>101.4</ele>
        <time>2022-09-20T11:34:48Z</time>
      </trkpt>
      <trkpt lat="49.24796" lon="4.04366">
        <ele>101.8</ele>
        <time>2022-09-20T11:34:50Z</time>
      </trkpt>
      <trkpt lat="49.24786" lon="4.04389">
        <ele>102</ele>
        <time>2022-09-20T11:34:53Z</time>
      </trkpt>
      <trkpt lat="49.2478" lon="4.04403">
        <ele>102.2</ele>
        <time>2022-09-20T11:34:55Z</time>
      </trkpt>
      <trkpt lat="49.24772" lon="4.04414">
        <ele>102.6</ele>
        <time>2022-09-20T11:34:57Z</time>
      </trkpt>
      <trkpt lat="49.24768" lon="4.0442">
        <ele>102.6</ele>
        <time>2022-09-20T11:34:58Z</time>
      </trkpt>
      <trkpt lat="49.24745" lon="4.04456">
        <ele>103.4</ele>
        <time>2022-09-20T11:35:04Z</time>
      </trkpt>
      <trkpt lat="49.24741" lon="4.04462">
        <ele>103.6</ele>
        <time>2022-09-20T11:35:05Z</time>
      </trkpt>
      <trkpt lat="49.24722" lon="4.04489">
        <ele>104.6</ele>
        <time>2022-09-20T11:35:10Z</time>
      </trkpt>
      <trkpt lat="49.24711" lon="4.04507">
        <ele>105</ele>
        <time>2022-09-20T11:35:13Z</time>
      </trkpt>
      <trkpt lat="49.24697" lon="4.04528">
        <ele>105.6</ele>
        <time>2022-09-20T11:35:17Z</time>
      </trkpt>
      <trkpt lat="49.24682" lon="4.04551">
        <ele>106.4</ele>
        <time>2022-09-20T11:35:21Z</time>
      </trkpt>
      <trkpt lat="49.24675" lon="4.04562">
        <ele>106.8</ele>
        <time>2022-09-20T11:35:23Z</time>
      </trkpt>
      <trkpt lat="49.24652" lon="4.04596">
        <ele>107.4</ele>
        <time>2022-09-20T11:35:29Z</time>
      </trkpt>
      <trkpt lat="49.24645" lon="4.04607">
        <ele>107.6</ele>
        <time>2022-09-20T11:35:31Z</time>
      </trkpt>
      <trkpt lat="49.24642" lon="4.04612">
        <ele>107.8</ele>
        <time>2022-09-20T11:35:32Z</time>
      </trkpt>
      <trkpt lat="49.24634" lon="4.04624">
        <ele>108.4</ele>
        <time>2022-09-20T11:35:35Z</time>
      </trkpt>
      <trkpt lat="49.24624" lon="4.04639">
        <ele>108.8</ele>
        <time>2022-09-20T11:35:39Z</time>
      </trkpt>
      <trkpt lat="49.24614" lon="4.04653">
        <ele>109.2</ele>
        <time>2022-09-20T11:35:43Z</time>
      </trkpt>
      <trkpt lat="49.24611" lon="4.04662">
        <ele>109.8</ele>
        <time>2022-09-20T11:35:48Z</time>
      </trkpt>
      <trkpt lat="49.24611" lon="4.04662">
        <ele>109.8</ele>
        <time>2022-09-20T11:35:49Z</time>
      </trkpt>
      <trkpt lat="49.24611" lon="4.04662">
        <ele>109.4</ele>
        <time>2022-09-20T11:36:06Z</time>
      </trkpt>
      <trkpt lat="49.24609" lon="4.04664">
        <ele>109.2</ele>
        <time>2022-09-20T11:36:12Z</time>
      </trkpt>
      <trkpt lat="49.24605" lon="4.04668">
        <ele>109.2</ele>
        <time>2022-09-20T11:36:14Z</time>
      </trkpt>
      <trkpt lat="49.24592" lon="4.0469">
        <ele>109.2</ele>
        <time>2022-09-20T11:36:19Z</time>
      </trkpt>
      <trkpt lat="49.24589" lon="4.04696">
        <ele>109.2</ele>
        <time>2022-09-20T11:36:20Z</time>
      </trkpt>
      <trkpt lat="49.24573" lon="4.04719">
        <ele>109.6</ele>
        <time>2022-09-20T11:36:25Z</time>
      </trkpt>
      <trkpt lat="49.2455" lon="4.04755">
        <ele>110.8</ele>
        <time>2022-09-20T11:36:32Z</time>
      </trkpt>
      <trkpt lat="49.24547" lon="4.0476">
        <ele>111</ele>
        <time>2022-09-20T11:36:33Z</time>
      </trkpt>
      <trkpt lat="49.24523" lon="4.04795">
        <ele>112.4</ele>
        <time>2022-09-20T11:36:40Z</time>
      </trkpt>
      <trkpt lat="49.24517" lon="4.04805">
        <ele>112.6</ele>
        <time>2022-09-20T11:36:42Z</time>
      </trkpt>
      <trkpt lat="49.24506" lon="4.04821">
        <ele>113.6</ele>
        <time>2022-09-20T11:36:45Z</time>
      </trkpt>
      <trkpt lat="49.24496" lon="4.04835">
        <ele>114.6</ele>
        <time>2022-09-20T11:36:48Z</time>
      </trkpt>
      <trkpt lat="49.24485" lon="4.04852">
        <ele>115.2</ele>
        <time>2022-09-20T11:36:51Z</time>
      </trkpt>
      <trkpt lat="49.24471" lon="4.04872">
        <ele>116</ele>
        <time>2022-09-20T11:36:55Z</time>
      </trkpt>
      <trkpt lat="49.24458" lon="4.04892">
        <ele>116.6</ele>
        <time>2022-09-20T11:36:59Z</time>
      </trkpt>
      <trkpt lat="49.24451" lon="4.04898">
        <ele>116.8</ele>
        <time>2022-09-20T11:37:01Z</time>
      </trkpt>
      <trkpt lat="49.24447" lon="4.049">
        <ele>117</ele>
        <time>2022-09-20T11:37:02Z</time>
      </trkpt>
      <trkpt lat="49.24436" lon="4.04913">
        <ele>117.4</ele>
        <time>2022-09-20T11:37:05Z</time>
      </trkpt>
      <trkpt lat="49.24432" lon="4.04918">
        <ele>117.6</ele>
        <time>2022-09-20T11:37:06Z</time>
      </trkpt>
      <trkpt lat="49.24423" lon="4.04923">
        <ele>118</ele>
        <time>2022-09-20T11:37:08Z</time>
      </trkpt>
      <trkpt lat="49.24418" lon="4.04925">
        <ele>118.2</ele>
        <time>2022-09-20T11:37:09Z</time>
      </trkpt>
      <trkpt lat="49.24408" lon="4.04926">
        <ele>118.4</ele>
        <time>2022-09-20T11:37:11Z</time>
      </trkpt>
      <trkpt lat="49.24398" lon="4.04924">
        <ele>118.8</ele>
        <time>2022-09-20T11:37:13Z</time>
      </trkpt>
      <trkpt lat="49.24394" lon="4.04921">
        <ele>119</ele>
        <time>2022-09-20T11:37:14Z</time>
      </trkpt>
      <trkpt lat="49.24389" lon="4.04917">
        <ele>119.2</ele>
        <time>2022-09-20T11:37:15Z</time>
      </trkpt>
      <trkpt lat="49.2437" lon="4.04895">
        <ele>119</ele>
        <time>2022-09-20T11:37:19Z</time>
      </trkpt>
      <trkpt lat="49.24338" lon="4.04858">
        <ele>118.6</ele>
        <time>2022-09-20T11:37:25Z</time>
      </trkpt>
      <trkpt lat="49.24321" lon="4.04838">
        <ele>118</ele>
        <time>2022-09-20T11:37:28Z</time>
      </trkpt>
      <trkpt lat="49.24297" lon="4.0481">
        <ele>117</ele>
        <time>2022-09-20T11:37:32Z</time>
      </trkpt>
      <trkpt lat="49.24291" lon="4.04803">
        <ele>116.6</ele>
        <time>2022-09-20T11:37:33Z</time>
      </trkpt>
      <trkpt lat="49.24267" lon="4.04774">
        <ele>115.8</ele>
        <time>2022-09-20T11:37:37Z</time>
      </trkpt>
      <trkpt lat="49.24237" lon="4.04732">
        <ele>114.4</ele>
        <time>2022-09-20T11:37:42Z</time>
      </trkpt>
      <trkpt lat="49.24205" lon="4.04691">
        <ele>113.4</ele>
        <time>2022-09-20T11:37:47Z</time>
      </trkpt>
      <trkpt lat="49.24194" lon="4.04674">
        <ele>113</ele>
        <time>2022-09-20T11:37:49Z</time>
      </trkpt>
      <trkpt lat="49.24172" lon="4.04644">
        <ele>112.2</ele>
        <time>2022-09-20T11:37:53Z</time>
      </trkpt>
      <trkpt lat="49.24168" lon="4.04636">
        <ele>112.2</ele>
        <time>2022-09-20T11:37:54Z</time>
      </trkpt>
      <trkpt lat="49.24162" lon="4.04619">
        <ele>112</ele>
        <time>2022-09-20T11:37:56Z</time>
      </trkpt>
      <trkpt lat="49.24152" lon="4.04595">
        <ele>110.8</ele>
        <time>2022-09-20T11:37:59Z</time>
      </trkpt>
      <trkpt lat="49.24148" lon="4.04579">
        <ele>110.4</ele>
        <time>2022-09-20T11:38:01Z</time>
      </trkpt>
      <trkpt lat="49.24146" lon="4.04567">
        <ele>109.8</ele>
        <time>2022-09-20T11:38:03Z</time>
      </trkpt>
      <trkpt lat="49.24141" lon="4.04558">
        <ele>109.2</ele>
        <time>2022-09-20T11:38:06Z</time>
      </trkpt>
      <trkpt lat="49.24138" lon="4.04556">
        <ele>109</ele>
        <time>2022-09-20T11:38:07Z</time>
      </trkpt>
      <trkpt lat="49.24134" lon="4.04557">
        <ele>108.8</ele>
        <time>2022-09-20T11:38:09Z</time>
      </trkpt>
      <trkpt lat="49.2413" lon="4.04561">
        <ele>108.2</ele>
        <time>2022-09-20T11:38:11Z</time>
      </trkpt>
      <trkpt lat="49.24124" lon="4.04566">
        <ele>108</ele>
        <time>2022-09-20T11:38:13Z</time>
      </trkpt>
      <trkpt lat="49.24116" lon="4.04568">
        <ele>107.8</ele>
        <time>2022-09-20T11:38:15Z</time>
      </trkpt>
      <trkpt lat="49.24112" lon="4.04567">
        <ele>107.6</ele>
        <time>2022-09-20T11:38:16Z</time>
      </trkpt>
      <trkpt lat="49.24108" lon="4.04566">
        <ele>107.6</ele>
        <time>2022-09-20T11:38:17Z</time>
      </trkpt>
      <trkpt lat="49.241" lon="4.04562">
        <ele>107.6</ele>
        <time>2022-09-20T11:38:19Z</time>
      </trkpt>
      <trkpt lat="49.24096" lon="4.04558">
        <ele>107.6</ele>
        <time>2022-09-20T11:38:20Z</time>
      </trkpt>
      <trkpt lat="49.24091" lon="4.04553">
        <ele>107.6</ele>
        <time>2022-09-20T11:38:21Z</time>
      </trkpt>
      <trkpt lat="49.24079" lon="4.0454">
        <ele>108</ele>
        <time>2022-09-20T11:38:24Z</time>
      </trkpt>
      <trkpt lat="49.24076" lon="4.04535">
        <ele>108</ele>
        <time>2022-09-20T11:38:25Z</time>
      </trkpt>
      <trkpt lat="49.24071" lon="4.04527">
        <ele>108.2</ele>
        <time>2022-09-20T11:38:27Z</time>
      </trkpt>
      <trkpt lat="49.24068" lon="4.04526">
        <ele>108.2</ele>
        <time>2022-09-20T11:38:28Z</time>
      </trkpt>
      <trkpt lat="49.24059" lon="4.04532">
        <ele>108.2</ele>
        <time>2022-09-20T11:38:32Z</time>
      </trkpt>
      <trkpt lat="49.24049" lon="4.04534">
        <ele>108.2</ele>
        <time>2022-09-20T11:38:36Z</time>
      </trkpt>
      <trkpt lat="49.24045" lon="4.04532">
        <ele>108.2</ele>
        <time>2022-09-20T11:38:37Z</time>
      </trkpt>
      <trkpt lat="49.2404" lon="4.04524">
        <ele>108</ele>
        <time>2022-09-20T11:38:40Z</time>
      </trkpt>
      <trkpt lat="49.24033" lon="4.04523">
        <ele>107.8</ele>
        <time>2022-09-20T11:38:42Z</time>
      </trkpt>
      <trkpt lat="49.24029" lon="4.04526">
        <ele>107.8</ele>
        <time>2022-09-20T11:38:43Z</time>
      </trkpt>
      <trkpt lat="49.24019" lon="4.04534">
        <ele>107.6</ele>
        <time>2022-09-20T11:38:47Z</time>
      </trkpt>
      <trkpt lat="49.24017" lon="4.04535">
        <ele>107.4</ele>
        <time>2022-09-20T11:38:48Z</time>
      </trkpt>
      <trkpt lat="49.24015" lon="4.04535">
        <ele>107.2</ele>
        <time>2022-09-20T11:38:51Z</time>
      </trkpt>
      <trkpt lat="49.24015" lon="4.04534">
        <ele>107.2</ele>
        <time>2022-09-20T11:38:58Z</time>
      </trkpt>
      <trkpt lat="49.24017" lon="4.04532">
        <ele>107.4</ele>
        <time>2022-09-20T11:39:48Z</time>
      </trkpt>
      <trkpt lat="49.24017" lon="4.04532">
        <ele>107.2</ele>
        <time>2022-09-20T11:40:22Z</time>
      </trkpt>
      <trkpt lat="49.24017" lon="4.04532">
        <ele>107.6</ele>
        <time>2022-09-20T11:40:51Z</time>
      </trkpt>
      <trkpt lat="49.24017" lon="4.04532">
        <ele>107</ele>
        <time>2022-09-20T11:41:06Z</time>
      </trkpt>
      <trkpt lat="49.24017" lon="4.04532">
        <ele>107.2</ele>
        <time>2022-09-20T11:41:41Z</time>
      </trkpt>
      <trkpt lat="49.24017" lon="4.04533">
        <ele>107.2</ele>
        <time>2022-09-20T11:41:48Z</time>
      </trkpt>
      <trkpt lat="49.24012" lon="4.04537">
        <ele>107</ele>
        <time>2022-09-20T11:41:52Z</time>
      </trkpt>
      <trkpt lat="49.24006" lon="4.04542">
        <ele>107</ele>
        <time>2022-09-20T11:41:54Z</time>
      </trkpt>
      <trkpt lat="49.23999" lon="4.04551">
        <ele>107</ele>
        <time>2022-09-20T11:41:56Z</time>
      </trkpt>
      <trkpt lat="49.23976" lon="4.04576">
        <ele>107.8</ele>
        <time>2022-09-20T11:42:01Z</time>
      </trkpt>
      <trkpt lat="49.23958" lon="4.04595">
        <ele>109</ele>
        <time>2022-09-20T11:42:05Z</time>
      </trkpt>
      <trkpt lat="49.23941" lon="4.04614">
        <ele>109.6</ele>
        <time>2022-09-20T11:42:09Z</time>
      </trkpt>
      <trkpt lat="49.23933" lon="4.04623">
        <ele>110</ele>
        <time>2022-09-20T11:42:11Z</time>
      </trkpt>
      <trkpt lat="49.23909" lon="4.0465">
        <ele>110.6</ele>
        <time>2022-09-20T11:42:17Z</time>
      </trkpt>
      <trkpt lat="49.23887" lon="4.04675">
        <ele>110.8</ele>
        <time>2022-09-20T11:42:23Z</time>
      </trkpt>
      <trkpt lat="49.23869" lon="4.04692">
        <ele>111</ele>
        <time>2022-09-20T11:42:28Z</time>
      </trkpt>
      <trkpt lat="49.23855" lon="4.04709">
        <ele>111.4</ele>
        <time>2022-09-20T11:42:32Z</time>
      </trkpt>
      <trkpt lat="49.23839" lon="4.04733">
        <ele>112.2</ele>
        <time>2022-09-20T11:42:37Z</time>
      </trkpt>
      <trkpt lat="49.23833" lon="4.04744">
        <ele>112.4</ele>
        <time>2022-09-20T11:42:39Z</time>
      </trkpt>
      <trkpt lat="49.23816" lon="4.04773">
        <ele>113.2</ele>
        <time>2022-09-20T11:42:45Z</time>
      </trkpt>
      <trkpt lat="49.23805" lon="4.04793">
        <ele>113.6</ele>
        <time>2022-09-20T11:42:49Z</time>
      </trkpt>
      <trkpt lat="49.23772" lon="4.04838">
        <ele>113.8</ele>
        <time>2022-09-20T11:42:58Z</time>
      </trkpt>
      <trkpt lat="49.2374" lon="4.04881">
        <ele>113.4</ele>
        <time>2022-09-20T11:43:05Z</time>
      </trkpt>
      <trkpt lat="49.23718" lon="4.04909">
        <ele>112.2</ele>
        <time>2022-09-20T11:43:10Z</time>
      </trkpt>
      <trkpt lat="49.23701" lon="4.04933">
        <ele>110.8</ele>
        <time>2022-09-20T11:43:15Z</time>
      </trkpt>
      <trkpt lat="49.23698" lon="4.04938">
        <ele>110.4</ele>
        <time>2022-09-20T11:43:16Z</time>
      </trkpt>
      <trkpt lat="49.23688" lon="4.04958">
        <ele>109.8</ele>
        <time>2022-09-20T11:43:19Z</time>
      </trkpt>
      <trkpt lat="49.23681" lon="4.04973">
        <ele>109</ele>
        <time>2022-09-20T11:43:21Z</time>
      </trkpt>
      <trkpt lat="49.23665" lon="4.05003">
        <ele>108.4</ele>
        <time>2022-09-20T11:43:25Z</time>
      </trkpt>
      <trkpt lat="49.23648" lon="4.05037">
        <ele>107.8</ele>
        <time>2022-09-20T11:43:29Z</time>
      </trkpt>
      <trkpt lat="49.23644" lon="4.05046">
        <ele>107.4</ele>
        <time>2022-09-20T11:43:30Z</time>
      </trkpt>
      <trkpt lat="49.23631" lon="4.05071">
        <ele>106.8</ele>
        <time>2022-09-20T11:43:33Z</time>
      </trkpt>
      <trkpt lat="49.23627" lon="4.05079">
        <ele>106.8</ele>
        <time>2022-09-20T11:43:34Z</time>
      </trkpt>
      <trkpt lat="49.23609" lon="4.05131">
        <ele>106.4</ele>
        <time>2022-09-20T11:43:39Z</time>
      </trkpt>
      <trkpt lat="49.23591" lon="4.05194">
        <ele>106</ele>
        <time>2022-09-20T11:43:45Z</time>
      </trkpt>
      <trkpt lat="49.23587" lon="4.05202">
        <ele>106</ele>
        <time>2022-09-20T11:43:46Z</time>
      </trkpt>
      <trkpt lat="49.23582" lon="4.05206">
        <ele>105.8</ele>
        <time>2022-09-20T11:43:47Z</time>
      </trkpt>
      <trkpt lat="49.23577" lon="4.05204">
        <ele>105.8</ele>
        <time>2022-09-20T11:43:48Z</time>
      </trkpt>
      <trkpt lat="49.23558" lon="4.05185">
        <ele>105.4</ele>
        <time>2022-09-20T11:43:51Z</time>
      </trkpt>
      <trkpt lat="49.23553" lon="4.05177">
        <ele>105.2</ele>
        <time>2022-09-20T11:43:52Z</time>
      </trkpt>
      <trkpt lat="49.2353" lon="4.05145">
        <ele>104</ele>
        <time>2022-09-20T11:43:56Z</time>
      </trkpt>
      <trkpt lat="49.23514" lon="4.05123">
        <ele>102.8</ele>
        <time>2022-09-20T11:43:59Z</time>
      </trkpt>
      <trkpt lat="49.23508" lon="4.05115">
        <ele>102.4</ele>
        <time>2022-09-20T11:44:00Z</time>
      </trkpt>
      <trkpt lat="49.2349" lon="4.05092">
        <ele>101.6</ele>
        <time>2022-09-20T11:44:03Z</time>
      </trkpt>
      <trkpt lat="49.2346" lon="4.05054">
        <ele>100.6</ele>
        <time>2022-09-20T11:44:08Z</time>
      </trkpt>
      <trkpt lat="49.23454" lon="4.05045">
        <ele>100.4</ele>
        <time>2022-09-20T11:44:09Z</time>
      </trkpt>
      <trkpt lat="49.2342" lon="4.04998">
        <ele>99.2</ele>
        <time>2022-09-20T11:44:15Z</time>
      </trkpt>
      <trkpt lat="49.23408" lon="4.04983">
        <ele>98.6</ele>
        <time>2022-09-20T11:44:17Z</time>
      </trkpt>
      <trkpt lat="49.23396" lon="4.04966">
        <ele>98</ele>
        <time>2022-09-20T11:44:19Z</time>
      </trkpt>
      <trkpt lat="49.23368" lon="4.0493">
        <ele>96.8</ele>
        <time>2022-09-20T11:44:24Z</time>
      </trkpt>
      <trkpt lat="49.23346" lon="4.04903">
        <ele>95.6</ele>
        <time>2022-09-20T11:44:29Z</time>
      </trkpt>
      <trkpt lat="49.2334" lon="4.04893">
        <ele>95.2</ele>
        <time>2022-09-20T11:44:31Z</time>
      </trkpt>
      <trkpt lat="49.23331" lon="4.04878">
        <ele>94.6</ele>
        <time>2022-09-20T11:44:35Z</time>
      </trkpt>
      <trkpt lat="49.23329" lon="4.04876">
        <ele>94.2</ele>
        <time>2022-09-20T11:44:36Z</time>
      </trkpt>
      <trkpt lat="49.23312" lon="4.04865">
        <ele>93.4</ele>
        <time>2022-09-20T11:44:41Z</time>
      </trkpt>
      <trkpt lat="49.23309" lon="4.04862">
        <ele>93.4</ele>
        <time>2022-09-20T11:44:42Z</time>
      </trkpt>
      <trkpt lat="49.23305" lon="4.0486">
        <ele>93.4</ele>
        <time>2022-09-20T11:44:43Z</time>
      </trkpt>
      <trkpt lat="49.23283" lon="4.04848">
        <ele>93.4</ele>
        <time>2022-09-20T11:44:49Z</time>
      </trkpt>
      <trkpt lat="49.23262" lon="4.04838">
        <ele>94</ele>
        <time>2022-09-20T11:44:53Z</time>
      </trkpt>
      <trkpt lat="49.23256" lon="4.04836">
        <ele>94</ele>
        <time>2022-09-20T11:44:54Z</time>
      </trkpt>
      <trkpt lat="49.23237" lon="4.04836">
        <ele>93.6</ele>
        <time>2022-09-20T11:44:57Z</time>
      </trkpt>
      <trkpt lat="49.23199" lon="4.04838">
        <ele>93</ele>
        <time>2022-09-20T11:45:02Z</time>
      </trkpt>
      <trkpt lat="49.23174" lon="4.04839">
        <ele>92.6</ele>
        <time>2022-09-20T11:45:05Z</time>
      </trkpt>
      <trkpt lat="49.23156" lon="4.04839">
        <ele>92.2</ele>
        <time>2022-09-20T11:45:07Z</time>
      </trkpt>
      <trkpt lat="49.23121" lon="4.04843">
        <ele>92</ele>
        <time>2022-09-20T11:45:11Z</time>
      </trkpt>
      <trkpt lat="49.23113" lon="4.04846">
        <ele>91.8</ele>
        <time>2022-09-20T11:45:12Z</time>
      </trkpt>
      <trkpt lat="49.23106" lon="4.04851">
        <ele>91.4</ele>
        <time>2022-09-20T11:45:13Z</time>
      </trkpt>
      <trkpt lat="49.231" lon="4.04857">
        <ele>91.2</ele>
        <time>2022-09-20T11:45:14Z</time>
      </trkpt>
      <trkpt lat="49.23092" lon="4.04876">
        <ele>90.8</ele>
        <time>2022-09-20T11:45:16Z</time>
      </trkpt>
      <trkpt lat="49.23088" lon="4.04887">
        <ele>90.8</ele>
        <time>2022-09-20T11:45:17Z</time>
      </trkpt>
      <trkpt lat="49.23075" lon="4.04947">
        <ele>90.6</ele>
        <time>2022-09-20T11:45:22Z</time>
      </trkpt>
      <trkpt lat="49.23057" lon="4.05004">
        <ele>90.6</ele>
        <time>2022-09-20T11:45:27Z</time>
      </trkpt>
      <trkpt lat="49.23032" lon="4.05057">
        <ele>90.2</ele>
        <time>2022-09-20T11:45:32Z</time>
      </trkpt>
      <trkpt lat="49.23027" lon="4.05067">
        <ele>90.2</ele>
        <time>2022-09-20T11:45:33Z</time>
      </trkpt>
      <trkpt lat="49.23007" lon="4.05109">
        <ele>89.6</ele>
        <time>2022-09-20T11:45:37Z</time>
      </trkpt>
      <trkpt lat="49.22982" lon="4.05159">
        <ele>89.4</ele>
        <time>2022-09-20T11:45:42Z</time>
      </trkpt>
      <trkpt lat="49.22978" lon="4.05168">
        <ele>89.2</ele>
        <time>2022-09-20T11:45:43Z</time>
      </trkpt>
      <trkpt lat="49.22955" lon="4.052">
        <ele>89</ele>
        <time>2022-09-20T11:45:47Z</time>
      </trkpt>
      <trkpt lat="49.22916" lon="4.05235">
        <ele>89</ele>
        <time>2022-09-20T11:45:53Z</time>
      </trkpt>
      <trkpt lat="49.2287" lon="4.05271">
        <ele>89.4</ele>
        <time>2022-09-20T11:46:00Z</time>
      </trkpt>
      <trkpt lat="49.22833" lon="4.05297">
        <ele>90.2</ele>
        <time>2022-09-20T11:46:06Z</time>
      </trkpt>
      <trkpt lat="49.22828" lon="4.05301">
        <ele>90.4</ele>
        <time>2022-09-20T11:46:07Z</time>
      </trkpt>
      <trkpt lat="49.22801" lon="4.05316">
        <ele>91.8</ele>
        <time>2022-09-20T11:46:12Z</time>
      </trkpt>
      <trkpt lat="49.22795" lon="4.05319">
        <ele>92.2</ele>
        <time>2022-09-20T11:46:13Z</time>
      </trkpt>
      <trkpt lat="49.22774" lon="4.05327">
        <ele>92.8</ele>
        <time>2022-09-20T11:46:16Z</time>
      </trkpt>
      <trkpt lat="49.22762" lon="4.05331">
        <ele>93</ele>
        <time>2022-09-20T11:46:17Z</time>
      </trkpt>
      <trkpt lat="49.22756" lon="4.05335">
        <ele>93.4</ele>
        <time>2022-09-20T11:46:19Z</time>
      </trkpt>
      <trkpt lat="49.22702" lon="4.05352">
        <ele>93.8</ele>
        <time>2022-09-20T11:46:28Z</time>
      </trkpt>
      <trkpt lat="49.22689" lon="4.05354">
        <ele>93.8</ele>
        <time>2022-09-20T11:46:30Z</time>
      </trkpt>
      <trkpt lat="49.22676" lon="4.05354">
        <ele>93.6</ele>
        <time>2022-09-20T11:46:32Z</time>
      </trkpt>
      <trkpt lat="49.22668" lon="4.05353">
        <ele>93.4</ele>
        <time>2022-09-20T11:46:33Z</time>
      </trkpt>
      <trkpt lat="49.22651" lon="4.05346">
        <ele>93</ele>
        <time>2022-09-20T11:46:35Z</time>
      </trkpt>
      <trkpt lat="49.22634" lon="4.05335">
        <ele>92.4</ele>
        <time>2022-09-20T11:46:37Z</time>
      </trkpt>
      <trkpt lat="49.22625" lon="4.05328">
        <ele>91.8</ele>
        <time>2022-09-20T11:46:38Z</time>
      </trkpt>
      <trkpt lat="49.22604" lon="4.05307">
        <ele>90.4</ele>
        <time>2022-09-20T11:46:41Z</time>
      </trkpt>
      <trkpt lat="49.22598" lon="4.05301">
        <ele>90.2</ele>
        <time>2022-09-20T11:46:42Z</time>
      </trkpt>
      <trkpt lat="49.22565" lon="4.0527">
        <ele>89.4</ele>
        <time>2022-09-20T11:46:47Z</time>
      </trkpt>
      <trkpt lat="49.22558" lon="4.05264">
        <ele>89.2</ele>
        <time>2022-09-20T11:46:48Z</time>
      </trkpt>
      <trkpt lat="49.22524" lon="4.05245">
        <ele>88.4</ele>
        <time>2022-09-20T11:46:53Z</time>
      </trkpt>
      <trkpt lat="49.22518" lon="4.05241">
        <ele>88.4</ele>
        <time>2022-09-20T11:46:54Z</time>
      </trkpt>
      <trkpt lat="49.22473" lon="4.0521">
        <ele>87.6</ele>
        <time>2022-09-20T11:47:01Z</time>
      </trkpt>
      <trkpt lat="49.22448" lon="4.05188">
        <ele>87.4</ele>
        <time>2022-09-20T11:47:06Z</time>
      </trkpt>
      <trkpt lat="49.22441" lon="4.05183">
        <ele>87.4</ele>
        <time>2022-09-20T11:47:09Z</time>
      </trkpt>
      <trkpt lat="49.22441" lon="4.05182">
        <ele>87.4</ele>
        <time>2022-09-20T11:47:11Z</time>
      </trkpt>
      <trkpt lat="49.22441" lon="4.05182">
        <ele>87.2</ele>
        <time>2022-09-20T11:47:13Z</time>
      </trkpt>
      <trkpt lat="49.22438" lon="4.05181">
        <ele>86.8</ele>
        <time>2022-09-20T11:47:29Z</time>
      </trkpt>
      <trkpt lat="49.22418" lon="4.05169">
        <ele>86.8</ele>
        <time>2022-09-20T11:47:34Z</time>
      </trkpt>
      <trkpt lat="49.22391" lon="4.05151">
        <ele>86.8</ele>
        <time>2022-09-20T11:47:39Z</time>
      </trkpt>
      <trkpt lat="49.22347" lon="4.05125">
        <ele>87.4</ele>
        <time>2022-09-20T11:47:47Z</time>
      </trkpt>
      <trkpt lat="49.22316" lon="4.05106">
        <ele>88.4</ele>
        <time>2022-09-20T11:47:55Z</time>
      </trkpt>
      <trkpt lat="49.22306" lon="4.051">
        <ele>89.6</ele>
        <time>2022-09-20T11:47:58Z</time>
      </trkpt>
      <trkpt lat="49.22304" lon="4.05098">
        <ele>90</ele>
        <time>2022-09-20T11:48:00Z</time>
      </trkpt>
      <trkpt lat="49.22297" lon="4.05093">
        <ele>90.6</ele>
        <time>2022-09-20T11:48:06Z</time>
      </trkpt>
      <trkpt lat="49.22294" lon="4.05091">
        <ele>90.8</ele>
        <time>2022-09-20T11:48:08Z</time>
      </trkpt>
      <trkpt lat="49.2229" lon="4.05089">
        <ele>91.2</ele>
        <time>2022-09-20T11:48:15Z</time>
      </trkpt>
      <trkpt lat="49.2229" lon="4.05089">
        <ele>91.6</ele>
        <time>2022-09-20T11:48:23Z</time>
      </trkpt>
      <trkpt lat="49.2229" lon="4.05089">
        <ele>92</ele>
        <time>2022-09-20T11:48:41Z</time>
      </trkpt>
      <trkpt lat="49.2228" lon="4.05082">
        <ele>92.4</ele>
        <time>2022-09-20T11:48:52Z</time>
      </trkpt>
      <trkpt lat="49.2226" lon="4.05067">
        <ele>92.6</ele>
        <time>2022-09-20T11:48:57Z</time>
      </trkpt>
      <trkpt lat="49.22251" lon="4.05062">
        <ele>93.2</ele>
        <time>2022-09-20T11:48:59Z</time>
      </trkpt>
      <trkpt lat="49.22241" lon="4.05059">
        <ele>93.6</ele>
        <time>2022-09-20T11:49:01Z</time>
      </trkpt>
      <trkpt lat="49.22235" lon="4.05059">
        <ele>94</ele>
        <time>2022-09-20T11:49:02Z</time>
      </trkpt>
      <trkpt lat="49.2223" lon="4.05059">
        <ele>94.4</ele>
        <time>2022-09-20T11:49:03Z</time>
      </trkpt>
      <trkpt lat="49.22225" lon="4.0506">
        <ele>94.6</ele>
        <time>2022-09-20T11:49:04Z</time>
      </trkpt>
      <trkpt lat="49.22215" lon="4.05062">
        <ele>95</ele>
        <time>2022-09-20T11:49:06Z</time>
      </trkpt>
      <trkpt lat="49.22196" lon="4.05065">
        <ele>96.2</ele>
        <time>2022-09-20T11:49:10Z</time>
      </trkpt>
      <trkpt lat="49.22181" lon="4.05067">
        <ele>96.6</ele>
        <time>2022-09-20T11:49:13Z</time>
      </trkpt>
      <trkpt lat="49.22172" lon="4.05068">
        <ele>97.2</ele>
        <time>2022-09-20T11:49:15Z</time>
      </trkpt>
      <trkpt lat="49.22148" lon="4.05068">
        <ele>98.2</ele>
        <time>2022-09-20T11:49:20Z</time>
      </trkpt>
      <trkpt lat="49.22143" lon="4.05068">
        <ele>98.4</ele>
        <time>2022-09-20T11:49:21Z</time>
      </trkpt>
      <trkpt lat="49.22134" lon="4.05069">
        <ele>99</ele>
        <time>2022-09-20T11:49:23Z</time>
      </trkpt>
      <trkpt lat="49.22125" lon="4.05069">
        <ele>99.6</ele>
        <time>2022-09-20T11:49:25Z</time>
      </trkpt>
      <trkpt lat="49.22106" lon="4.05069">
        <ele>100.8</ele>
        <time>2022-09-20T11:49:29Z</time>
      </trkpt>
      <trkpt lat="49.22092" lon="4.05069">
        <ele>101.8</ele>
        <time>2022-09-20T11:49:32Z</time>
      </trkpt>
      <trkpt lat="49.22082" lon="4.0507">
        <ele>102.2</ele>
        <time>2022-09-20T11:49:34Z</time>
      </trkpt>
      <trkpt lat="49.22072" lon="4.0507">
        <ele>103</ele>
        <time>2022-09-20T11:49:36Z</time>
      </trkpt>
      <trkpt lat="49.22044" lon="4.05072">
        <ele>104</ele>
        <time>2022-09-20T11:49:42Z</time>
      </trkpt>
      <trkpt lat="49.22031" lon="4.05072">
        <ele>104.6</ele>
        <time>2022-09-20T11:49:45Z</time>
      </trkpt>
      <trkpt lat="49.22026" lon="4.05073">
        <ele>105.2</ele>
        <time>2022-09-20T11:49:47Z</time>
      </trkpt>
      <trkpt lat="49.22025" lon="4.05073">
        <ele>105.2</ele>
        <time>2022-09-20T11:49:48Z</time>
      </trkpt>
      <trkpt lat="49.22025" lon="4.05073">
        <ele>105.8</ele>
        <time>2022-09-20T11:49:56Z</time>
      </trkpt>
      <trkpt lat="49.22019" lon="4.05072">
        <ele>105.8</ele>
        <time>2022-09-20T11:50:14Z</time>
      </trkpt>
      <trkpt lat="49.21998" lon="4.05072">
        <ele>105.6</ele>
        <time>2022-09-20T11:50:18Z</time>
      </trkpt>
      <trkpt lat="49.21954" lon="4.05073">
        <ele>105.6</ele>
        <time>2022-09-20T11:50:25Z</time>
      </trkpt>
      <trkpt lat="49.21897" lon="4.05075">
        <ele>105.4</ele>
        <time>2022-09-20T11:50:33Z</time>
      </trkpt>
      <trkpt lat="49.21835" lon="4.05077">
        <ele>105.2</ele>
        <time>2022-09-20T11:50:41Z</time>
      </trkpt>
      <trkpt lat="49.21827" lon="4.05078">
        <ele>105</ele>
        <time>2022-09-20T11:50:42Z</time>
      </trkpt>
      <trkpt lat="49.21795" lon="4.05078">
        <ele>104</ele>
        <time>2022-09-20T11:50:46Z</time>
      </trkpt>
      <trkpt lat="49.21771" lon="4.05079">
        <ele>103</ele>
        <time>2022-09-20T11:50:49Z</time>
      </trkpt>
      <trkpt lat="49.21746" lon="4.05079">
        <ele>102.4</ele>
        <time>2022-09-20T11:50:52Z</time>
      </trkpt>
      <trkpt lat="49.21721" lon="4.0508">
        <ele>101.6</ele>
        <time>2022-09-20T11:50:55Z</time>
      </trkpt>
      <trkpt lat="49.21682" lon="4.0508">
        <ele>100.4</ele>
        <time>2022-09-20T11:51:00Z</time>
      </trkpt>
      <trkpt lat="49.21675" lon="4.05079">
        <ele>100.4</ele>
        <time>2022-09-20T11:51:01Z</time>
      </trkpt>
      <trkpt lat="49.21662" lon="4.05071">
        <ele>100</ele>
        <time>2022-09-20T11:51:03Z</time>
      </trkpt>
      <trkpt lat="49.21642" lon="4.05056">
        <ele>99.4</ele>
        <time>2022-09-20T11:51:06Z</time>
      </trkpt>
      <trkpt lat="49.21635" lon="4.05053">
        <ele>99.2</ele>
        <time>2022-09-20T11:51:07Z</time>
      </trkpt>
      <trkpt lat="49.21628" lon="4.05053">
        <ele>99</ele>
        <time>2022-09-20T11:51:08Z</time>
      </trkpt>
      <trkpt lat="49.21614" lon="4.0506">
        <ele>98.8</ele>
        <time>2022-09-20T11:51:10Z</time>
      </trkpt>
      <trkpt lat="49.21596" lon="4.05077">
        <ele>98.6</ele>
        <time>2022-09-20T11:51:13Z</time>
      </trkpt>
      <trkpt lat="49.21589" lon="4.05079">
        <ele>98.6</ele>
        <time>2022-09-20T11:51:14Z</time>
      </trkpt>
      <trkpt lat="49.21575" lon="4.05079">
        <ele>98.4</ele>
        <time>2022-09-20T11:51:16Z</time>
      </trkpt>
      <trkpt lat="49.21545" lon="4.0508">
        <ele>98</ele>
        <time>2022-09-20T11:51:21Z</time>
      </trkpt>
      <trkpt lat="49.21517" lon="4.0508">
        <ele>97.6</ele>
        <time>2022-09-20T11:51:24Z</time>
      </trkpt>
      <trkpt lat="49.21503" lon="4.05074">
        <ele>97.6</ele>
        <time>2022-09-20T11:51:26Z</time>
      </trkpt>
      <trkpt lat="49.21496" lon="4.05073">
        <ele>97.6</ele>
        <time>2022-09-20T11:51:27Z</time>
      </trkpt>
      <trkpt lat="49.21482" lon="4.05076">
        <ele>97.6</ele>
        <time>2022-09-20T11:51:29Z</time>
      </trkpt>
      <trkpt lat="49.21462" lon="4.05084">
        <ele>98</ele>
        <time>2022-09-20T11:51:32Z</time>
      </trkpt>
      <trkpt lat="49.21449" lon="4.05084">
        <ele>98.2</ele>
        <time>2022-09-20T11:51:34Z</time>
      </trkpt>
      <trkpt lat="49.21398" lon="4.05085">
        <ele>99.8</ele>
        <time>2022-09-20T11:51:42Z</time>
      </trkpt>
      <trkpt lat="49.21392" lon="4.05085">
        <ele>99.8</ele>
        <time>2022-09-20T11:51:43Z</time>
      </trkpt>
      <trkpt lat="49.21374" lon="4.05086">
        <ele>100.6</ele>
        <time>2022-09-20T11:51:46Z</time>
      </trkpt>
      <trkpt lat="49.21369" lon="4.05086">
        <ele>100.8</ele>
        <time>2022-09-20T11:51:47Z</time>
      </trkpt>
      <trkpt lat="49.21347" lon="4.05086">
        <ele>101.8</ele>
        <time>2022-09-20T11:51:51Z</time>
      </trkpt>
      <trkpt lat="49.21341" lon="4.05086">
        <ele>102</ele>
        <time>2022-09-20T11:51:52Z</time>
      </trkpt>
      <trkpt lat="49.21326" lon="4.05086">
        <ele>103</ele>
        <time>2022-09-20T11:51:55Z</time>
      </trkpt>
      <trkpt lat="49.21295" lon="4.05088">
        <ele>104.2</ele>
        <time>2022-09-20T11:52:01Z</time>
      </trkpt>
      <trkpt lat="49.2127" lon="4.05088">
        <ele>105.2</ele>
        <time>2022-09-20T11:52:06Z</time>
      </trkpt>
      <trkpt lat="49.21251" lon="4.0509">
        <ele>106.4</ele>
        <time>2022-09-20T11:52:10Z</time>
      </trkpt>
      <trkpt lat="49.21246" lon="4.0509">
        <ele>106.6</ele>
        <time>2022-09-20T11:52:11Z</time>
      </trkpt>
      <trkpt lat="49.21225" lon="4.0509">
        <ele>107.6</ele>
        <time>2022-09-20T11:52:16Z</time>
      </trkpt>
      <trkpt lat="49.21199" lon="4.0509">
        <ele>108.4</ele>
        <time>2022-09-20T11:52:20Z</time>
      </trkpt>
      <trkpt lat="49.21194" lon="4.05089">
        <ele>108.4</ele>
        <time>2022-09-20T11:52:21Z</time>
      </trkpt>
      <trkpt lat="49.21194" lon="4.05089">
        <ele>108.6</ele>
        <time>2022-09-20T11:52:22Z</time>
      </trkpt>
      <trkpt lat="49.21183" lon="4.05083">
        <ele>108.6</ele>
        <time>2022-09-20T11:52:23Z</time>
      </trkpt>
      <trkpt lat="49.21178" lon="4.0508">
        <ele>109</ele>
        <time>2022-09-20T11:52:25Z</time>
      </trkpt>
      <trkpt lat="49.21167" lon="4.05077">
        <ele>109</ele>
        <time>2022-09-20T11:52:26Z</time>
      </trkpt>
      <trkpt lat="49.21156" lon="4.05082">
        <ele>109.2</ele>
        <time>2022-09-20T11:52:28Z</time>
      </trkpt>
      <trkpt lat="49.2114" lon="4.05092">
        <ele>109.6</ele>
        <time>2022-09-20T11:52:31Z</time>
      </trkpt>
      <trkpt lat="49.21134" lon="4.05093">
        <ele>109.6</ele>
        <time>2022-09-20T11:52:32Z</time>
      </trkpt>
      <trkpt lat="49.21128" lon="4.05093">
        <ele>109.8</ele>
        <time>2022-09-20T11:52:33Z</time>
      </trkpt>
      <trkpt lat="49.21072" lon="4.05094">
        <ele>110.8</ele>
        <time>2022-09-20T11:52:43Z</time>
      </trkpt>
      <trkpt lat="49.21012" lon="4.05096">
        <ele>111.8</ele>
        <time>2022-09-20T11:52:53Z</time>
      </trkpt>
      <trkpt lat="49.21005" lon="4.05096">
        <ele>111.8</ele>
        <time>2022-09-20T11:52:54Z</time>
      </trkpt>
      <trkpt lat="49.20988" lon="4.05097">
        <ele>112</ele>
        <time>2022-09-20T11:52:57Z</time>
      </trkpt>
      <trkpt lat="49.20982" lon="4.05096">
        <ele>112</ele>
        <time>2022-09-20T11:52:58Z</time>
      </trkpt>
      <trkpt lat="49.20972" lon="4.05092">
        <ele>112</ele>
        <time>2022-09-20T11:53:00Z</time>
      </trkpt>
      <trkpt lat="49.20963" lon="4.0508">
        <ele>112.2</ele>
        <time>2022-09-20T11:53:02Z</time>
      </trkpt>
      <trkpt lat="49.20963" lon="4.0508">
        <ele>112</ele>
        <time>2022-09-20T11:53:03Z</time>
      </trkpt>
      <trkpt lat="49.20959" lon="4.05062">
        <ele>112</ele>
        <time>2022-09-20T11:53:04Z</time>
      </trkpt>
      <trkpt lat="49.20957" lon="4.05042">
        <ele>112</ele>
        <time>2022-09-20T11:53:06Z</time>
      </trkpt>
      <trkpt lat="49.20957" lon="4.04982">
        <ele>111.2</ele>
        <time>2022-09-20T11:53:12Z</time>
      </trkpt>
      <trkpt lat="49.20956" lon="4.04929">
        <ele>111</ele>
        <time>2022-09-20T11:53:15Z</time>
      </trkpt>
      <trkpt lat="49.20955" lon="4.04876">
        <ele>110.4</ele>
        <time>2022-09-20T11:53:19Z</time>
      </trkpt>
      <trkpt lat="49.20951" lon="4.04853">
        <ele>110</ele>
        <time>2022-09-20T11:53:21Z</time>
      </trkpt>
      <trkpt lat="49.20944" lon="4.04826">
        <ele>109.2</ele>
        <time>2022-09-20T11:53:23Z</time>
      </trkpt>
      <trkpt lat="49.20935" lon="4.04804">
        <ele>108.8</ele>
        <time>2022-09-20T11:53:25Z</time>
      </trkpt>
      <trkpt lat="49.20926" lon="4.04785">
        <ele>108.6</ele>
        <time>2022-09-20T11:53:27Z</time>
      </trkpt>
      <trkpt lat="49.20897" lon="4.04751">
        <ele>108.4</ele>
        <time>2022-09-20T11:53:32Z</time>
      </trkpt>
      <trkpt lat="49.20891" lon="4.04745">
        <ele>108.4</ele>
        <time>2022-09-20T11:53:33Z</time>
      </trkpt>
      <trkpt lat="49.20858" lon="4.04711">
        <ele>108.8</ele>
        <time>2022-09-20T11:53:39Z</time>
      </trkpt>
      <trkpt lat="49.20811" lon="4.04663">
        <ele>109.8</ele>
        <time>2022-09-20T11:53:48Z</time>
      </trkpt>
      <trkpt lat="49.20811" lon="4.04663">
        <ele>110</ele>
        <time>2022-09-20T11:53:49Z</time>
      </trkpt>
      <trkpt lat="49.20773" lon="4.04623">
        <ele>111</ele>
        <time>2022-09-20T11:53:56Z</time>
      </trkpt>
      <trkpt lat="49.20769" lon="4.04618">
        <ele>111</ele>
        <time>2022-09-20T11:53:57Z</time>
      </trkpt>
      <trkpt lat="49.20733" lon="4.04582">
        <ele>112</ele>
        <time>2022-09-20T11:54:04Z</time>
      </trkpt>
      <trkpt lat="49.20703" lon="4.04551">
        <ele>113</ele>
        <time>2022-09-20T11:54:10Z</time>
      </trkpt>
      <trkpt lat="49.20699" lon="4.04547">
        <ele>113.2</ele>
        <time>2022-09-20T11:54:11Z</time>
      </trkpt>
      <trkpt lat="49.20652" lon="4.045">
        <ele>113.4</ele>
        <time>2022-09-20T11:54:20Z</time>
      </trkpt>
      <trkpt lat="49.20613" lon="4.04462">
        <ele>114.2</ele>
        <time>2022-09-20T11:54:27Z</time>
      </trkpt>
      <trkpt lat="49.20602" lon="4.04452">
        <ele>114.2</ele>
        <time>2022-09-20T11:54:29Z</time>
      </trkpt>
      <trkpt lat="49.20555" lon="4.04407">
        <ele>114.8</ele>
        <time>2022-09-20T11:54:38Z</time>
      </trkpt>
      <trkpt lat="49.20535" lon="4.04389">
        <ele>115.2</ele>
        <time>2022-09-20T11:54:44Z</time>
      </trkpt>
      <trkpt lat="49.20533" lon="4.04388">
        <ele>115.2</ele>
        <time>2022-09-20T11:54:45Z</time>
      </trkpt>
      <trkpt lat="49.20528" lon="4.04382">
        <ele>116</ele>
        <time>2022-09-20T11:54:49Z</time>
      </trkpt>
      <trkpt lat="49.20526" lon="4.0438">
        <ele>116.2</ele>
        <time>2022-09-20T11:54:50Z</time>
      </trkpt>
      <trkpt lat="49.20523" lon="4.04378">
        <ele>116.2</ele>
        <time>2022-09-20T11:54:52Z</time>
      </trkpt>
      <trkpt lat="49.20515" lon="4.04373">
        <ele>116.6</ele>
        <time>2022-09-20T11:54:56Z</time>
      </trkpt>
      <trkpt lat="49.20505" lon="4.04374">
        <ele>116.6</ele>
        <time>2022-09-20T11:54:59Z</time>
      </trkpt>
      <trkpt lat="49.20497" lon="4.04371">
        <ele>116.6</ele>
        <time>2022-09-20T11:55:01Z</time>
      </trkpt>
      <trkpt lat="49.20471" lon="4.04359">
        <ele>116.8</ele>
        <time>2022-09-20T11:55:06Z</time>
      </trkpt>
      <trkpt lat="49.20449" lon="4.04346">
        <ele>117.4</ele>
        <time>2022-09-20T11:55:10Z</time>
      </trkpt>
      <trkpt lat="49.20428" lon="4.04333">
        <ele>117.8</ele>
        <time>2022-09-20T11:55:14Z</time>
      </trkpt>
      <trkpt lat="49.20415" lon="4.04324">
        <ele>118.6</ele>
        <time>2022-09-20T11:55:17Z</time>
      </trkpt>
      <trkpt lat="49.20409" lon="4.0432">
        <ele>118.8</ele>
        <time>2022-09-20T11:55:18Z</time>
      </trkpt>
      <trkpt lat="49.20404" lon="4.04318">
        <ele>119</ele>
        <time>2022-09-20T11:55:20Z</time>
      </trkpt>
      <trkpt lat="49.20375" lon="4.043">
        <ele>119.6</ele>
        <time>2022-09-20T11:55:24Z</time>
      </trkpt>
      <trkpt lat="49.20364" lon="4.04293">
        <ele>119.8</ele>
        <time>2022-09-20T11:55:26Z</time>
      </trkpt>
      <trkpt lat="49.20318" lon="4.04265">
        <ele>120.8</ele>
        <time>2022-09-20T11:55:34Z</time>
      </trkpt>
      <trkpt lat="49.20312" lon="4.04261">
        <ele>120.8</ele>
        <time>2022-09-20T11:55:35Z</time>
      </trkpt>
      <trkpt lat="49.20285" lon="4.04241">
        <ele>121</ele>
        <time>2022-09-20T11:55:40Z</time>
      </trkpt>
      <trkpt lat="49.20264" lon="4.04221">
        <ele>121.6</ele>
        <time>2022-09-20T11:55:44Z</time>
      </trkpt>
      <trkpt lat="49.20237" lon="4.04196">
        <ele>121.8</ele>
        <time>2022-09-20T11:55:50Z</time>
      </trkpt>
      <trkpt lat="49.20217" lon="4.04177">
        <ele>122</ele>
        <time>2022-09-20T11:55:53Z</time>
      </trkpt>
      <trkpt lat="49.2017" lon="4.04139">
        <ele>123</ele>
        <time>2022-09-20T11:56:02Z</time>
      </trkpt>
      <trkpt lat="49.20155" lon="4.04129">
        <ele>123.6</ele>
        <time>2022-09-20T11:56:05Z</time>
      </trkpt>
      <trkpt lat="49.20141" lon="4.04121">
        <ele>124.2</ele>
        <time>2022-09-20T11:56:08Z</time>
      </trkpt>
      <trkpt lat="49.20141" lon="4.04121">
        <ele>124.4</ele>
        <time>2022-09-20T11:56:09Z</time>
      </trkpt>
      <trkpt lat="49.2013" lon="4.04117">
        <ele>124.8</ele>
        <time>2022-09-20T11:56:10Z</time>
      </trkpt>
      <trkpt lat="49.20115" lon="4.04113">
        <ele>125.2</ele>
        <time>2022-09-20T11:56:13Z</time>
      </trkpt>
      <trkpt lat="49.201" lon="4.04108">
        <ele>125.8</ele>
        <time>2022-09-20T11:56:16Z</time>
      </trkpt>
      <trkpt lat="49.20086" lon="4.04104">
        <ele>126.6</ele>
        <time>2022-09-20T11:56:19Z</time>
      </trkpt>
      <trkpt lat="49.20057" lon="4.04095">
        <ele>127.6</ele>
        <time>2022-09-20T11:56:25Z</time>
      </trkpt>
      <trkpt lat="49.20053" lon="4.04093">
        <ele>127.8</ele>
        <time>2022-09-20T11:56:26Z</time>
      </trkpt>
      <trkpt lat="49.20032" lon="4.04087">
        <ele>128.8</ele>
        <time>2022-09-20T11:56:30Z</time>
      </trkpt>
      <trkpt lat="49.20003" lon="4.04079">
        <ele>129.8</ele>
        <time>2022-09-20T11:56:37Z</time>
      </trkpt>
      <trkpt lat="49.19992" lon="4.04077">
        <ele>130.2</ele>
        <time>2022-09-20T11:56:38Z</time>
      </trkpt>
      <trkpt lat="49.19957" lon="4.04074">
        <ele>131</ele>
        <time>2022-09-20T11:56:45Z</time>
      </trkpt>
      <trkpt lat="49.19957" lon="4.04074">
        <ele>131.2</ele>
        <time>2022-09-20T11:56:46Z</time>
      </trkpt>
      <trkpt lat="49.19907" lon="4.04071">
        <ele>132</ele>
        <time>2022-09-20T11:56:54Z</time>
      </trkpt>
      <trkpt lat="49.19895" lon="4.0407">
        <ele>132.2</ele>
        <time>2022-09-20T11:56:56Z</time>
      </trkpt>
      <trkpt lat="49.19842" lon="4.04071">
        <ele>132</ele>
        <time>2022-09-20T11:57:04Z</time>
      </trkpt>
      <trkpt lat="49.19782" lon="4.04069">
        <ele>132.2</ele>
        <time>2022-09-20T11:57:13Z</time>
      </trkpt>
      <trkpt lat="49.19782" lon="4.04069">
        <ele>132.4</ele>
        <time>2022-09-20T11:57:14Z</time>
      </trkpt>
      <trkpt lat="49.19723" lon="4.04065">
        <ele>132.4</ele>
        <time>2022-09-20T11:57:23Z</time>
      </trkpt>
      <trkpt lat="49.19703" lon="4.04065">
        <ele>132.4</ele>
        <time>2022-09-20T11:57:25Z</time>
      </trkpt>
      <trkpt lat="49.19651" lon="4.04069">
        <ele>132.6</ele>
        <time>2022-09-20T11:57:33Z</time>
      </trkpt>
      <trkpt lat="49.19645" lon="4.04071">
        <ele>132.8</ele>
        <time>2022-09-20T11:57:34Z</time>
      </trkpt>
      <trkpt lat="49.19593" lon="4.04096">
        <ele>133</ele>
        <time>2022-09-20T11:57:42Z</time>
      </trkpt>
      <trkpt lat="49.1958" lon="4.041">
        <ele>133</ele>
        <time>2022-09-20T11:57:44Z</time>
      </trkpt>
      <trkpt lat="49.19553" lon="4.04102">
        <ele>133.2</ele>
        <time>2022-09-20T11:57:48Z</time>
      </trkpt>
      <trkpt lat="49.1954" lon="4.04103">
        <ele>133.2</ele>
        <time>2022-09-20T11:57:50Z</time>
      </trkpt>
      <trkpt lat="49.19516" lon="4.04107">
        <ele>133.2</ele>
        <time>2022-09-20T11:57:54Z</time>
      </trkpt>
      <trkpt lat="49.19474" lon="4.04131">
        <ele>133</ele>
        <time>2022-09-20T11:58:01Z</time>
      </trkpt>
      <trkpt lat="49.19443" lon="4.04153">
        <ele>132.2</ele>
        <time>2022-09-20T11:58:06Z</time>
      </trkpt>
      <trkpt lat="49.1943" lon="4.04162">
        <ele>131.8</ele>
        <time>2022-09-20T11:58:08Z</time>
      </trkpt>
      <trkpt lat="49.19402" lon="4.04178">
        <ele>131.2</ele>
        <time>2022-09-20T11:58:12Z</time>
      </trkpt>
      <trkpt lat="49.19373" lon="4.04196">
        <ele>130</ele>
        <time>2022-09-20T11:58:16Z</time>
      </trkpt>
      <trkpt lat="49.19373" lon="4.04196">
        <ele>129.8</ele>
        <time>2022-09-20T11:58:17Z</time>
      </trkpt>
      <trkpt lat="49.1935" lon="4.04208">
        <ele>128.8</ele>
        <time>2022-09-20T11:58:20Z</time>
      </trkpt>
      <trkpt lat="49.19329" lon="4.04219">
        <ele>128.6</ele>
        <time>2022-09-20T11:58:22Z</time>
      </trkpt>
      <trkpt lat="49.19317" lon="4.04227">
        <ele>128.2</ele>
        <time>2022-09-20T11:58:24Z</time>
      </trkpt>
      <trkpt lat="49.19312" lon="4.04233">
        <ele>127.6</ele>
        <time>2022-09-20T11:58:25Z</time>
      </trkpt>
      <trkpt lat="49.19308" lon="4.04241">
        <ele>127.4</ele>
        <time>2022-09-20T11:58:26Z</time>
      </trkpt>
      <trkpt lat="49.19301" lon="4.04268">
        <ele>126.6</ele>
        <time>2022-09-20T11:58:29Z</time>
      </trkpt>
      <trkpt lat="49.19298" lon="4.04275">
        <ele>126.6</ele>
        <time>2022-09-20T11:58:30Z</time>
      </trkpt>
      <trkpt lat="49.19295" lon="4.0428">
        <ele>126.4</ele>
        <time>2022-09-20T11:58:31Z</time>
      </trkpt>
      <trkpt lat="49.19291" lon="4.04279">
        <ele>126.2</ele>
        <time>2022-09-20T11:58:32Z</time>
      </trkpt>
      <trkpt lat="49.19284" lon="4.04264">
        <ele>126</ele>
        <time>2022-09-20T11:58:34Z</time>
      </trkpt>
      <trkpt lat="49.19269" lon="4.0423">
        <ele>125.8</ele>
        <time>2022-09-20T11:58:38Z</time>
      </trkpt>
      <trkpt lat="49.19264" lon="4.04222">
        <ele>125.6</ele>
        <time>2022-09-20T11:58:40Z</time>
      </trkpt>
      <trkpt lat="49.19235" lon="4.04172">
        <ele>125.8</ele>
        <time>2022-09-20T11:58:47Z</time>
      </trkpt>
      <trkpt lat="49.19224" lon="4.04163">
        <ele>126</ele>
        <time>2022-09-20T11:58:50Z</time>
      </trkpt>
      <trkpt lat="49.1922" lon="4.04165">
        <ele>126</ele>
        <time>2022-09-20T11:58:51Z</time>
      </trkpt>
      <trkpt lat="49.19217" lon="4.04168">
        <ele>126</ele>
        <time>2022-09-20T11:58:52Z</time>
      </trkpt>
      <trkpt lat="49.19207" lon="4.04182">
        <ele>126.2</ele>
        <time>2022-09-20T11:58:55Z</time>
      </trkpt>
      <trkpt lat="49.19184" lon="4.04213">
        <ele>127.2</ele>
        <time>2022-09-20T11:59:01Z</time>
      </trkpt>
      <trkpt lat="49.19176" lon="4.04225">
        <ele>127.6</ele>
        <time>2022-09-20T11:59:03Z</time>
      </trkpt>
      <trkpt lat="49.19154" lon="4.04256">
        <ele>128.8</ele>
        <time>2022-09-20T11:59:09Z</time>
      </trkpt>
      <trkpt lat="49.19145" lon="4.04271">
        <ele>129.6</ele>
        <time>2022-09-20T11:59:12Z</time>
      </trkpt>
      <trkpt lat="49.19142" lon="4.04276">
        <ele>129.8</ele>
        <time>2022-09-20T11:59:13Z</time>
      </trkpt>
      <trkpt lat="49.19132" lon="4.04293">
        <ele>130.8</ele>
        <time>2022-09-20T11:59:16Z</time>
      </trkpt>
      <trkpt lat="49.19129" lon="4.04298">
        <ele>131</ele>
        <time>2022-09-20T11:59:17Z</time>
      </trkpt>
      <trkpt lat="49.19116" lon="4.04321">
        <ele>132</ele>
        <time>2022-09-20T11:59:21Z</time>
      </trkpt>
      <trkpt lat="49.19099" lon="4.0435">
        <ele>133</ele>
        <time>2022-09-20T11:59:26Z</time>
      </trkpt>
      <trkpt lat="49.19096" lon="4.04355">
        <ele>133</ele>
        <time>2022-09-20T11:59:27Z</time>
      </trkpt>
      <trkpt lat="49.19088" lon="4.04363">
        <ele>133.4</ele>
        <time>2022-09-20T11:59:29Z</time>
      </trkpt>
      <trkpt lat="49.19081" lon="4.0437">
        <ele>133.6</ele>
        <time>2022-09-20T11:59:31Z</time>
      </trkpt>
      <trkpt lat="49.19077" lon="4.04372">
        <ele>134.2</ele>
        <time>2022-09-20T11:59:33Z</time>
      </trkpt>
      <trkpt lat="49.19069" lon="4.04376">
        <ele>134.6</ele>
        <time>2022-09-20T11:59:34Z</time>
      </trkpt>
      <trkpt lat="49.19065" lon="4.04377">
        <ele>134.6</ele>
        <time>2022-09-20T11:59:35Z</time>
      </trkpt>
      <trkpt lat="49.19058" lon="4.04381">
        <ele>135.2</ele>
        <time>2022-09-20T11:59:37Z</time>
      </trkpt>
      <trkpt lat="49.19046" lon="4.04388">
        <ele>136.2</ele>
        <time>2022-09-20T11:59:41Z</time>
      </trkpt>
      <trkpt lat="49.1904" lon="4.04393">
        <ele>137</ele>
        <time>2022-09-20T11:59:43Z</time>
      </trkpt>
      <trkpt lat="49.19034" lon="4.04398">
        <ele>137.6</ele>
        <time>2022-09-20T11:59:45Z</time>
      </trkpt>
      <trkpt lat="49.19025" lon="4.04407">
        <ele>138.6</ele>
        <time>2022-09-20T11:59:48Z</time>
      </trkpt>
      <trkpt lat="49.1902" lon="4.04414">
        <ele>139.2</ele>
        <time>2022-09-20T11:59:50Z</time>
      </trkpt>
      <trkpt lat="49.19015" lon="4.04421">
        <ele>139.8</ele>
        <time>2022-09-20T11:59:52Z</time>
      </trkpt>
      <trkpt lat="49.19003" lon="4.04439">
        <ele>140.8</ele>
        <time>2022-09-20T11:59:57Z</time>
      </trkpt>
      <trkpt lat="49.18994" lon="4.04453">
        <ele>141.8</ele>
        <time>2022-09-20T12:00:01Z</time>
      </trkpt>
      <trkpt lat="49.18986" lon="4.04465">
        <ele>142.6</ele>
        <time>2022-09-20T12:00:04Z</time>
      </trkpt>
      <trkpt lat="49.18985" lon="4.04467">
        <ele>143</ele>
        <time>2022-09-20T12:00:05Z</time>
      </trkpt>
      <trkpt lat="49.18971" lon="4.04491">
        <ele>144.2</ele>
        <time>2022-09-20T12:00:11Z</time>
      </trkpt>
      <trkpt lat="49.18964" lon="4.04502">
        <ele>145.4</ele>
        <time>2022-09-20T12:00:14Z</time>
      </trkpt>
      <trkpt lat="49.18954" lon="4.04518">
        <ele>146.2</ele>
        <time>2022-09-20T12:00:18Z</time>
      </trkpt>
      <trkpt lat="49.18952" lon="4.04522">
        <ele>146.4</ele>
        <time>2022-09-20T12:00:19Z</time>
      </trkpt>
      <trkpt lat="49.18942" lon="4.04536">
        <ele>147.4</ele>
        <time>2022-09-20T12:00:23Z</time>
      </trkpt>
      <trkpt lat="49.1893" lon="4.04556">
        <ele>148.4</ele>
        <time>2022-09-20T12:00:28Z</time>
      </trkpt>
      <trkpt lat="49.18926" lon="4.04563">
        <ele>149</ele>
        <time>2022-09-20T12:00:30Z</time>
      </trkpt>
      <trkpt lat="49.18918" lon="4.04575">
        <ele>149.8</ele>
        <time>2022-09-20T12:00:33Z</time>
      </trkpt>
      <trkpt lat="49.18905" lon="4.04596">
        <ele>151</ele>
        <time>2022-09-20T12:00:38Z</time>
      </trkpt>
      <trkpt lat="49.189" lon="4.04604">
        <ele>151.6</ele>
        <time>2022-09-20T12:00:40Z</time>
      </trkpt>
      <trkpt lat="49.18895" lon="4.04612">
        <ele>152</ele>
        <time>2022-09-20T12:00:42Z</time>
      </trkpt>
      <trkpt lat="49.18878" lon="4.04638">
        <ele>153</ele>
        <time>2022-09-20T12:00:48Z</time>
      </trkpt>
      <trkpt lat="49.1887" lon="4.04652">
        <ele>153.4</ele>
        <time>2022-09-20T12:00:51Z</time>
      </trkpt>
      <trkpt lat="49.18855" lon="4.04678">
        <ele>154</ele>
        <time>2022-09-20T12:00:56Z</time>
      </trkpt>
      <trkpt lat="49.18845" lon="4.04695">
        <ele>154.2</ele>
        <time>2022-09-20T12:00:59Z</time>
      </trkpt>
      <trkpt lat="49.18806" lon="4.04761">
        <ele>154.6</ele>
        <time>2022-09-20T12:01:10Z</time>
      </trkpt>
      <trkpt lat="49.18803" lon="4.04767">
        <ele>154.6</ele>
        <time>2022-09-20T12:01:11Z</time>
      </trkpt>
      <trkpt lat="49.18772" lon="4.04819">
        <ele>155.2</ele>
        <time>2022-09-20T12:01:20Z</time>
      </trkpt>
      <trkpt lat="49.18748" lon="4.0486">
        <ele>156.4</ele>
        <time>2022-09-20T12:01:27Z</time>
      </trkpt>
      <trkpt lat="49.18734" lon="4.04884">
        <ele>157</ele>
        <time>2022-09-20T12:01:31Z</time>
      </trkpt>
      <trkpt lat="49.1871" lon="4.04926">
        <ele>157</ele>
        <time>2022-09-20T12:01:37Z</time>
      </trkpt>
      <trkpt lat="49.1867" lon="4.04992">
        <ele>156</ele>
        <time>2022-09-20T12:01:45Z</time>
      </trkpt>
      <trkpt lat="49.18654" lon="4.05019">
        <ele>155.4</ele>
        <time>2022-09-20T12:01:48Z</time>
      </trkpt>
      <trkpt lat="49.18623" lon="4.05077">
        <ele>154.2</ele>
        <time>2022-09-20T12:01:54Z</time>
      </trkpt>
      <trkpt lat="49.18588" lon="4.05141">
        <ele>154</ele>
        <time>2022-09-20T12:02:01Z</time>
      </trkpt>
      <trkpt lat="49.18571" lon="4.05173">
        <ele>154.4</ele>
        <time>2022-09-20T12:02:06Z</time>
      </trkpt>
      <trkpt lat="49.1855" lon="4.05206">
        <ele>155.2</ele>
        <time>2022-09-20T12:02:09Z</time>
      </trkpt>
      <trkpt lat="49.18545" lon="4.0521">
        <ele>155.6</ele>
        <time>2022-09-20T12:02:10Z</time>
      </trkpt>
      <trkpt lat="49.18526" lon="4.05226">
        <ele>156.6</ele>
        <time>2022-09-20T12:02:13Z</time>
      </trkpt>
      <trkpt lat="49.18502" lon="4.05246">
        <ele>157.6</ele>
        <time>2022-09-20T12:02:17Z</time>
      </trkpt>
      <trkpt lat="49.18459" lon="4.0529">
        <ele>158.6</ele>
        <time>2022-09-20T12:02:24Z</time>
      </trkpt>
      <trkpt lat="49.18433" lon="4.05328">
        <ele>158.2</ele>
        <time>2022-09-20T12:02:28Z</time>
      </trkpt>
      <trkpt lat="49.184" lon="4.05388">
        <ele>156.2</ele>
        <time>2022-09-20T12:02:34Z</time>
      </trkpt>
      <trkpt lat="49.1838" lon="4.05423">
        <ele>155</ele>
        <time>2022-09-20T12:02:37Z</time>
      </trkpt>
      <trkpt lat="49.18361" lon="4.05457">
        <ele>153.4</ele>
        <time>2022-09-20T12:02:39Z</time>
      </trkpt>
      <trkpt lat="49.18342" lon="4.05489">
        <ele>152.4</ele>
        <time>2022-09-20T12:02:42Z</time>
      </trkpt>
      <trkpt lat="49.18324" lon="4.05512">
        <ele>151.4</ele>
        <time>2022-09-20T12:02:44Z</time>
      </trkpt>
      <trkpt lat="49.18314" lon="4.05521">
        <ele>151.2</ele>
        <time>2022-09-20T12:02:45Z</time>
      </trkpt>
      <trkpt lat="49.18295" lon="4.05536">
        <ele>150</ele>
        <time>2022-09-20T12:02:47Z</time>
      </trkpt>
      <trkpt lat="49.18284" lon="4.05542">
        <ele>149.4</ele>
        <time>2022-09-20T12:02:48Z</time>
      </trkpt>
      <trkpt lat="49.18272" lon="4.05547">
        <ele>148.8</ele>
        <time>2022-09-20T12:02:49Z</time>
      </trkpt>
      <trkpt lat="49.18244" lon="4.05552">
        <ele>147.8</ele>
        <time>2022-09-20T12:02:51Z</time>
      </trkpt>
      <trkpt lat="49.18204" lon="4.05546">
        <ele>146.2</ele>
        <time>2022-09-20T12:02:54Z</time>
      </trkpt>
      <trkpt lat="49.18191" lon="4.05542">
        <ele>145.4</ele>
        <time>2022-09-20T12:02:55Z</time>
      </trkpt>
      <trkpt lat="49.18181" lon="4.0554">
        <ele>144.6</ele>
        <time>2022-09-20T12:02:56Z</time>
      </trkpt>
      <trkpt lat="49.18152" lon="4.05532">
        <ele>143.2</ele>
        <time>2022-09-20T12:02:58Z</time>
      </trkpt>
      <trkpt lat="49.18126" lon="4.05524">
        <ele>141.4</ele>
        <time>2022-09-20T12:03:00Z</time>
      </trkpt>
      <trkpt lat="49.18113" lon="4.05518">
        <ele>140.6</ele>
        <time>2022-09-20T12:03:01Z</time>
      </trkpt>
      <trkpt lat="49.18113" lon="4.05518">
        <ele>140</ele>
        <time>2022-09-20T12:03:02Z</time>
      </trkpt>
      <trkpt lat="49.18088" lon="4.05505">
        <ele>138.8</ele>
        <time>2022-09-20T12:03:03Z</time>
      </trkpt>
      <trkpt lat="49.18067" lon="4.05493">
        <ele>137.8</ele>
        <time>2022-09-20T12:03:05Z</time>
      </trkpt>
      <trkpt lat="49.18042" lon="4.05478">
        <ele>137</ele>
        <time>2022-09-20T12:03:07Z</time>
      </trkpt>
      <trkpt lat="49.18031" lon="4.05471">
        <ele>136.6</ele>
        <time>2022-09-20T12:03:08Z</time>
      </trkpt>
      <trkpt lat="49.17989" lon="4.05447">
        <ele>135.2</ele>
        <time>2022-09-20T12:03:12Z</time>
      </trkpt>
      <trkpt lat="49.17979" lon="4.05441">
        <ele>135.2</ele>
        <time>2022-09-20T12:03:13Z</time>
      </trkpt>
      <trkpt lat="49.1794" lon="4.05418">
        <ele>134.2</ele>
        <time>2022-09-20T12:03:17Z</time>
      </trkpt>
      <trkpt lat="49.17923" lon="4.05408">
        <ele>133.6</ele>
        <time>2022-09-20T12:03:19Z</time>
      </trkpt>
      <trkpt lat="49.17893" lon="4.0539">
        <ele>133.4</ele>
        <time>2022-09-20T12:03:22Z</time>
      </trkpt>
      <trkpt lat="49.17848" lon="4.05365">
        <ele>132.8</ele>
        <time>2022-09-20T12:03:27Z</time>
      </trkpt>
      <trkpt lat="49.17796" lon="4.05333">
        <ele>132.6</ele>
        <time>2022-09-20T12:03:33Z</time>
      </trkpt>
      <trkpt lat="49.1777" lon="4.05318">
        <ele>132.2</ele>
        <time>2022-09-20T12:03:36Z</time>
      </trkpt>
      <trkpt lat="49.1772" lon="4.05289">
        <ele>132.2</ele>
        <time>2022-09-20T12:03:42Z</time>
      </trkpt>
      <trkpt lat="49.17672" lon="4.05262">
        <ele>132.6</ele>
        <time>2022-09-20T12:03:48Z</time>
      </trkpt>
      <trkpt lat="49.1763" lon="4.05237">
        <ele>133.4</ele>
        <time>2022-09-20T12:03:53Z</time>
      </trkpt>
      <trkpt lat="49.17579" lon="4.05208">
        <ele>134</ele>
        <time>2022-09-20T12:03:59Z</time>
      </trkpt>
      <trkpt lat="49.17554" lon="4.05196">
        <ele>134</ele>
        <time>2022-09-20T12:04:02Z</time>
      </trkpt>
      <trkpt lat="49.175" lon="4.05174">
        <ele>133.6</ele>
        <time>2022-09-20T12:04:08Z</time>
      </trkpt>
      <trkpt lat="49.17474" lon="4.05164">
        <ele>133.6</ele>
        <time>2022-09-20T12:04:11Z</time>
      </trkpt>
      <trkpt lat="49.17415" lon="4.05143">
        <ele>133.6</ele>
        <time>2022-09-20T12:04:18Z</time>
      </trkpt>
      <trkpt lat="49.17368" lon="4.05126">
        <ele>134</ele>
        <time>2022-09-20T12:04:24Z</time>
      </trkpt>
      <trkpt lat="49.17316" lon="4.05106">
        <ele>134.4</ele>
        <time>2022-09-20T12:04:31Z</time>
      </trkpt>
      <trkpt lat="49.17309" lon="4.05103">
        <ele>134.6</ele>
        <time>2022-09-20T12:04:32Z</time>
      </trkpt>
      <trkpt lat="49.17253" lon="4.05076">
        <ele>135.4</ele>
        <time>2022-09-20T12:04:40Z</time>
      </trkpt>
      <trkpt lat="49.17246" lon="4.05072">
        <ele>135.6</ele>
        <time>2022-09-20T12:04:41Z</time>
      </trkpt>
      <trkpt lat="49.17191" lon="4.05039">
        <ele>136.4</ele>
        <time>2022-09-20T12:04:49Z</time>
      </trkpt>
      <trkpt lat="49.17177" lon="4.05031">
        <ele>136.6</ele>
        <time>2022-09-20T12:04:51Z</time>
      </trkpt>
      <trkpt lat="49.17124" lon="4.04999">
        <ele>137.2</ele>
        <time>2022-09-20T12:04:59Z</time>
      </trkpt>
      <trkpt lat="49.17104" lon="4.04988">
        <ele>137.8</ele>
        <time>2022-09-20T12:05:02Z</time>
      </trkpt>
      <trkpt lat="49.17059" lon="4.04968">
        <ele>138.6</ele>
        <time>2022-09-20T12:05:09Z</time>
      </trkpt>
      <trkpt lat="49.17053" lon="4.04965">
        <ele>138.8</ele>
        <time>2022-09-20T12:05:10Z</time>
      </trkpt>
      <trkpt lat="49.17017" lon="4.0495">
        <ele>139.8</ele>
        <time>2022-09-20T12:05:16Z</time>
      </trkpt>
      <trkpt lat="49.17011" lon="4.04947">
        <ele>139.8</ele>
        <time>2022-09-20T12:05:17Z</time>
      </trkpt>
      <trkpt lat="49.16983" lon="4.04935">
        <ele>140.8</ele>
        <time>2022-09-20T12:05:22Z</time>
      </trkpt>
      <trkpt lat="49.16962" lon="4.04923">
        <ele>141.6</ele>
        <time>2022-09-20T12:05:26Z</time>
      </trkpt>
      <trkpt lat="49.16952" lon="4.04918">
        <ele>141.8</ele>
        <time>2022-09-20T12:05:28Z</time>
      </trkpt>
      <trkpt lat="49.16929" lon="4.04903">
        <ele>143</ele>
        <time>2022-09-20T12:05:33Z</time>
      </trkpt>
      <trkpt lat="49.16925" lon="4.049">
        <ele>143</ele>
        <time>2022-09-20T12:05:34Z</time>
      </trkpt>
      <trkpt lat="49.16912" lon="4.0489">
        <ele>144</ele>
        <time>2022-09-20T12:05:37Z</time>
      </trkpt>
      <trkpt lat="49.16892" lon="4.04876">
        <ele>145.2</ele>
        <time>2022-09-20T12:05:42Z</time>
      </trkpt>
      <trkpt lat="49.1688" lon="4.04868">
        <ele>145.6</ele>
        <time>2022-09-20T12:05:45Z</time>
      </trkpt>
      <trkpt lat="49.16869" lon="4.04859">
        <ele>146.2</ele>
        <time>2022-09-20T12:05:48Z</time>
      </trkpt>
      <trkpt lat="49.16853" lon="4.0485">
        <ele>147.4</ele>
        <time>2022-09-20T12:05:52Z</time>
      </trkpt>
      <trkpt lat="49.16845" lon="4.04845">
        <ele>147.8</ele>
        <time>2022-09-20T12:05:54Z</time>
      </trkpt>
      <trkpt lat="49.16834" lon="4.04837">
        <ele>148.6</ele>
        <time>2022-09-20T12:05:57Z</time>
      </trkpt>
      <trkpt lat="49.16816" lon="4.04825">
        <ele>149.8</ele>
        <time>2022-09-20T12:06:02Z</time>
      </trkpt>
      <trkpt lat="49.16808" lon="4.0482">
        <ele>150.2</ele>
        <time>2022-09-20T12:06:04Z</time>
      </trkpt>
      <trkpt lat="49.16794" lon="4.04811">
        <ele>150.8</ele>
        <time>2022-09-20T12:06:08Z</time>
      </trkpt>
      <trkpt lat="49.16776" lon="4.04797">
        <ele>152</ele>
        <time>2022-09-20T12:06:13Z</time>
      </trkpt>
      <trkpt lat="49.1675" lon="4.0478">
        <ele>153.2</ele>
        <time>2022-09-20T12:06:20Z</time>
      </trkpt>
      <trkpt lat="49.1674" lon="4.04772">
        <ele>153.8</ele>
        <time>2022-09-20T12:06:23Z</time>
      </trkpt>
      <trkpt lat="49.16729" lon="4.04765">
        <ele>154.4</ele>
        <time>2022-09-20T12:06:26Z</time>
      </trkpt>
      <trkpt lat="49.16715" lon="4.04755">
        <ele>155.4</ele>
        <time>2022-09-20T12:06:31Z</time>
      </trkpt>
      <trkpt lat="49.16711" lon="4.04754">
        <ele>155.4</ele>
        <time>2022-09-20T12:06:32Z</time>
      </trkpt>
      <trkpt lat="49.16691" lon="4.04742">
        <ele>156.6</ele>
        <time>2022-09-20T12:06:37Z</time>
      </trkpt>
      <trkpt lat="49.16666" lon="4.04726">
        <ele>157.4</ele>
        <time>2022-09-20T12:06:43Z</time>
      </trkpt>
      <trkpt lat="49.16657" lon="4.04722">
        <ele>157.6</ele>
        <time>2022-09-20T12:06:45Z</time>
      </trkpt>
      <trkpt lat="49.16628" lon="4.04703">
        <ele>158.8</ele>
        <time>2022-09-20T12:06:52Z</time>
      </trkpt>
      <trkpt lat="49.16624" lon="4.047">
        <ele>158.8</ele>
        <time>2022-09-20T12:06:53Z</time>
      </trkpt>
      <trkpt lat="49.16588" lon="4.04677">
        <ele>159.8</ele>
        <time>2022-09-20T12:07:01Z</time>
      </trkpt>
      <trkpt lat="49.16579" lon="4.04671">
        <ele>160</ele>
        <time>2022-09-20T12:07:03Z</time>
      </trkpt>
      <trkpt lat="49.16557" lon="4.04658">
        <ele>160.8</ele>
        <time>2022-09-20T12:07:08Z</time>
      </trkpt>
      <trkpt lat="49.16549" lon="4.04653">
        <ele>161</ele>
        <time>2022-09-20T12:07:10Z</time>
      </trkpt>
      <trkpt lat="49.16524" lon="4.04638">
        <ele>162</ele>
        <time>2022-09-20T12:07:16Z</time>
      </trkpt>
      <trkpt lat="49.1652" lon="4.04636">
        <ele>162.4</ele>
        <time>2022-09-20T12:07:17Z</time>
      </trkpt>
      <trkpt lat="49.16513" lon="4.04631">
        <ele>162.8</ele>
        <time>2022-09-20T12:07:19Z</time>
      </trkpt>
      <trkpt lat="49.16504" lon="4.04627">
        <ele>163.2</ele>
        <time>2022-09-20T12:07:21Z</time>
      </trkpt>
      <trkpt lat="49.165" lon="4.04625">
        <ele>163.4</ele>
        <time>2022-09-20T12:07:22Z</time>
      </trkpt>
      <trkpt lat="49.16481" lon="4.04618">
        <ele>164.6</ele>
        <time>2022-09-20T12:07:27Z</time>
      </trkpt>
      <trkpt lat="49.16477" lon="4.04616">
        <ele>164.8</ele>
        <time>2022-09-20T12:07:28Z</time>
      </trkpt>
      <trkpt lat="49.16467" lon="4.04612">
        <ele>165.6</ele>
        <time>2022-09-20T12:07:31Z</time>
      </trkpt>
      <trkpt lat="49.16452" lon="4.04607">
        <ele>166.4</ele>
        <time>2022-09-20T12:07:35Z</time>
      </trkpt>
      <trkpt lat="49.16448" lon="4.04605">
        <ele>166.8</ele>
        <time>2022-09-20T12:07:36Z</time>
      </trkpt>
      <trkpt lat="49.16437" lon="4.04601">
        <ele>168</ele>
        <time>2022-09-20T12:07:39Z</time>
      </trkpt>
      <trkpt lat="49.16424" lon="4.04597">
        <ele>169</ele>
        <time>2022-09-20T12:07:43Z</time>
      </trkpt>
      <trkpt lat="49.1641" lon="4.04595">
        <ele>170.2</ele>
        <time>2022-09-20T12:07:48Z</time>
      </trkpt>
      <trkpt lat="49.16388" lon="4.04593">
        <ele>171.2</ele>
        <time>2022-09-20T12:07:53Z</time>
      </trkpt>
      <trkpt lat="49.16374" lon="4.04594">
        <ele>172.4</ele>
        <time>2022-09-20T12:07:57Z</time>
      </trkpt>
      <trkpt lat="49.16371" lon="4.04595">
        <ele>172.6</ele>
        <time>2022-09-20T12:07:58Z</time>
      </trkpt>
      <trkpt lat="49.16365" lon="4.04594">
        <ele>173.2</ele>
        <time>2022-09-20T12:08:01Z</time>
      </trkpt>
      <trkpt lat="49.16363" lon="4.04595">
        <ele>173.4</ele>
        <time>2022-09-20T12:08:02Z</time>
      </trkpt>
      <trkpt lat="49.16357" lon="4.04603">
        <ele>174</ele>
        <time>2022-09-20T12:08:05Z</time>
      </trkpt>
      <trkpt lat="49.16355" lon="4.04623">
        <ele>174.6</ele>
        <time>2022-09-20T12:08:08Z</time>
      </trkpt>
      <trkpt lat="49.16354" lon="4.04632">
        <ele>174.6</ele>
        <time>2022-09-20T12:08:09Z</time>
      </trkpt>
      <trkpt lat="49.16353" lon="4.04649">
        <ele>174.8</ele>
        <time>2022-09-20T12:08:11Z</time>
      </trkpt>
      <trkpt lat="49.16354" lon="4.04678">
        <ele>175.2</ele>
        <time>2022-09-20T12:08:14Z</time>
      </trkpt>
      <trkpt lat="49.16357" lon="4.04734">
        <ele>175.2</ele>
        <time>2022-09-20T12:08:19Z</time>
      </trkpt>
      <trkpt lat="49.1636" lon="4.04817">
        <ele>174.4</ele>
        <time>2022-09-20T12:08:26Z</time>
      </trkpt>
      <trkpt lat="49.16356" lon="4.04869">
        <ele>174.2</ele>
        <time>2022-09-20T12:08:31Z</time>
      </trkpt>
      <trkpt lat="49.16349" lon="4.04933">
        <ele>174.4</ele>
        <time>2022-09-20T12:08:38Z</time>
      </trkpt>
      <trkpt lat="49.16343" lon="4.04973">
        <ele>175.8</ele>
        <time>2022-09-20T12:08:43Z</time>
      </trkpt>
      <trkpt lat="49.16341" lon="4.04981">
        <ele>176</ele>
        <time>2022-09-20T12:08:44Z</time>
      </trkpt>
      <trkpt lat="49.16334" lon="4.05003">
        <ele>176.8</ele>
        <time>2022-09-20T12:08:47Z</time>
      </trkpt>
      <trkpt lat="49.16331" lon="4.0501">
        <ele>177</ele>
        <time>2022-09-20T12:08:48Z</time>
      </trkpt>
      <trkpt lat="49.16328" lon="4.05018">
        <ele>177.2</ele>
        <time>2022-09-20T12:08:49Z</time>
      </trkpt>
      <trkpt lat="49.16309" lon="4.05054">
        <ele>178</ele>
        <time>2022-09-20T12:08:54Z</time>
      </trkpt>
      <trkpt lat="49.16301" lon="4.05069">
        <ele>178.2</ele>
        <time>2022-09-20T12:08:56Z</time>
      </trkpt>
      <trkpt lat="49.16289" lon="4.05093">
        <ele>178.4</ele>
        <time>2022-09-20T12:08:59Z</time>
      </trkpt>
      <trkpt lat="49.16276" lon="4.0512">
        <ele>178.2</ele>
        <time>2022-09-20T12:09:02Z</time>
      </trkpt>
      <trkpt lat="49.16251" lon="4.05165">
        <ele>177.6</ele>
        <time>2022-09-20T12:09:06Z</time>
      </trkpt>
      <trkpt lat="49.16231" lon="4.05201">
        <ele>176.6</ele>
        <time>2022-09-20T12:09:09Z</time>
      </trkpt>
      <trkpt lat="49.1622" lon="4.05223">
        <ele>175.4</ele>
        <time>2022-09-20T12:09:11Z</time>
      </trkpt>
      <trkpt lat="49.16207" lon="4.05247">
        <ele>174.4</ele>
        <time>2022-09-20T12:09:13Z</time>
      </trkpt>
      <trkpt lat="49.16201" lon="4.05259">
        <ele>173.8</ele>
        <time>2022-09-20T12:09:14Z</time>
      </trkpt>
      <trkpt lat="49.16188" lon="4.05283">
        <ele>172.6</ele>
        <time>2022-09-20T12:09:16Z</time>
      </trkpt>
      <trkpt lat="49.16181" lon="4.05295">
        <ele>171.4</ele>
        <time>2022-09-20T12:09:17Z</time>
      </trkpt>
      <trkpt lat="49.16167" lon="4.05321">
        <ele>170.2</ele>
        <time>2022-09-20T12:09:19Z</time>
      </trkpt>
      <trkpt lat="49.1614" lon="4.05373">
        <ele>168.6</ele>
        <time>2022-09-20T12:09:23Z</time>
      </trkpt>
      <trkpt lat="49.16119" lon="4.05413">
        <ele>167.4</ele>
        <time>2022-09-20T12:09:26Z</time>
      </trkpt>
      <trkpt lat="49.16104" lon="4.0544">
        <ele>165.6</ele>
        <time>2022-09-20T12:09:29Z</time>
      </trkpt>
      <trkpt lat="49.16081" lon="4.05484">
        <ele>164.2</ele>
        <time>2022-09-20T12:09:31Z</time>
      </trkpt>
      <trkpt lat="49.16059" lon="4.05525">
        <ele>163</ele>
        <time>2022-09-20T12:09:34Z</time>
      </trkpt>
      <trkpt lat="49.16045" lon="4.05552">
        <ele>161.6</ele>
        <time>2022-09-20T12:09:36Z</time>
      </trkpt>
      <trkpt lat="49.16017" lon="4.05604">
        <ele>160.4</ele>
        <time>2022-09-20T12:09:40Z</time>
      </trkpt>
      <trkpt lat="49.16005" lon="4.05628">
        <ele>159.6</ele>
        <time>2022-09-20T12:09:42Z</time>
      </trkpt>
      <trkpt lat="49.15992" lon="4.05651">
        <ele>159.4</ele>
        <time>2022-09-20T12:09:44Z</time>
      </trkpt>
      <trkpt lat="49.1597" lon="4.05696">
        <ele>159.2</ele>
        <time>2022-09-20T12:09:48Z</time>
      </trkpt>
      <trkpt lat="49.15945" lon="4.05766">
        <ele>159.8</ele>
        <time>2022-09-20T12:09:54Z</time>
      </trkpt>
      <trkpt lat="49.15922" lon="4.05839">
        <ele>160</ele>
        <time>2022-09-20T12:10:00Z</time>
      </trkpt>
      <trkpt lat="49.15901" lon="4.05897">
        <ele>159.4</ele>
        <time>2022-09-20T12:10:05Z</time>
      </trkpt>
      <trkpt lat="49.15875" lon="4.05954">
        <ele>158.4</ele>
        <time>2022-09-20T12:10:10Z</time>
      </trkpt>
      <trkpt lat="49.15869" lon="4.05966">
        <ele>157.8</ele>
        <time>2022-09-20T12:10:11Z</time>
      </trkpt>
      <trkpt lat="49.15853" lon="4.06001">
        <ele>157</ele>
        <time>2022-09-20T12:10:14Z</time>
      </trkpt>
      <trkpt lat="49.15832" lon="4.06044">
        <ele>156</ele>
        <time>2022-09-20T12:10:18Z</time>
      </trkpt>
      <trkpt lat="49.15827" lon="4.06055">
        <ele>155.8</ele>
        <time>2022-09-20T12:10:19Z</time>
      </trkpt>
      <trkpt lat="49.15817" lon="4.06076">
        <ele>155</ele>
        <time>2022-09-20T12:10:21Z</time>
      </trkpt>
      <trkpt lat="49.15797" lon="4.06116">
        <ele>154.6</ele>
        <time>2022-09-20T12:10:25Z</time>
      </trkpt>
      <trkpt lat="49.1577" lon="4.06167">
        <ele>154.6</ele>
        <time>2022-09-20T12:10:31Z</time>
      </trkpt>
      <trkpt lat="49.15748" lon="4.06202">
        <ele>155.8</ele>
        <time>2022-09-20T12:10:36Z</time>
      </trkpt>
      <trkpt lat="49.15736" lon="4.06219">
        <ele>156.2</ele>
        <time>2022-09-20T12:10:39Z</time>
      </trkpt>
      <trkpt lat="49.15729" lon="4.06232">
        <ele>156.6</ele>
        <time>2022-09-20T12:10:41Z</time>
      </trkpt>
      <trkpt lat="49.15724" lon="4.06237">
        <ele>157.2</ele>
        <time>2022-09-20T12:10:42Z</time>
      </trkpt>
      <trkpt lat="49.1572" lon="4.06242">
        <ele>157.6</ele>
        <time>2022-09-20T12:10:43Z</time>
      </trkpt>
      <trkpt lat="49.15706" lon="4.06258">
        <ele>158.4</ele>
        <time>2022-09-20T12:10:46Z</time>
      </trkpt>
      <trkpt lat="49.15702" lon="4.06263">
        <ele>158.8</ele>
        <time>2022-09-20T12:10:47Z</time>
      </trkpt>
      <trkpt lat="49.15697" lon="4.06267">
        <ele>159</ele>
        <time>2022-09-20T12:10:48Z</time>
      </trkpt>
      <trkpt lat="49.15681" lon="4.06276">
        <ele>159.6</ele>
        <time>2022-09-20T12:10:51Z</time>
      </trkpt>
      <trkpt lat="49.15672" lon="4.06285">
        <ele>159.8</ele>
        <time>2022-09-20T12:10:53Z</time>
      </trkpt>
      <trkpt lat="49.15667" lon="4.06297">
        <ele>160.4</ele>
        <time>2022-09-20T12:10:55Z</time>
      </trkpt>
      <trkpt lat="49.15666" lon="4.06325">
        <ele>160.6</ele>
        <time>2022-09-20T12:10:58Z</time>
      </trkpt>
      <trkpt lat="49.15668" lon="4.06333">
        <ele>160.6</ele>
        <time>2022-09-20T12:10:59Z</time>
      </trkpt>
      <trkpt lat="49.15672" lon="4.0634">
        <ele>160.6</ele>
        <time>2022-09-20T12:11:00Z</time>
      </trkpt>
      <trkpt lat="49.15683" lon="4.06352">
        <ele>160.6</ele>
        <time>2022-09-20T12:11:02Z</time>
      </trkpt>
      <trkpt lat="49.15719" lon="4.06389">
        <ele>160.2</ele>
        <time>2022-09-20T12:11:08Z</time>
      </trkpt>
      <trkpt lat="49.15741" lon="4.06417">
        <ele>159.8</ele>
        <time>2022-09-20T12:11:12Z</time>
      </trkpt>
      <trkpt lat="49.15745" lon="4.06425">
        <ele>159.8</ele>
        <time>2022-09-20T12:11:13Z</time>
      </trkpt>
      <trkpt lat="49.15749" lon="4.06432">
        <ele>159.8</ele>
        <time>2022-09-20T12:11:14Z</time>
      </trkpt>
      <trkpt lat="49.1575" lon="4.06451">
        <ele>159.6</ele>
        <time>2022-09-20T12:11:16Z</time>
      </trkpt>
      <trkpt lat="49.15748" lon="4.06496">
        <ele>160.6</ele>
        <time>2022-09-20T12:11:22Z</time>
      </trkpt>
      <trkpt lat="49.15748" lon="4.06503">
        <ele>161</ele>
        <time>2022-09-20T12:11:23Z</time>
      </trkpt>
      <trkpt lat="49.15748" lon="4.06515">
        <ele>161.8</ele>
        <time>2022-09-20T12:11:25Z</time>
      </trkpt>
      <trkpt lat="49.15748" lon="4.06528">
        <ele>162.4</ele>
        <time>2022-09-20T12:11:27Z</time>
      </trkpt>
      <trkpt lat="49.15748" lon="4.06552">
        <ele>163.6</ele>
        <time>2022-09-20T12:11:31Z</time>
      </trkpt>
      <trkpt lat="49.15747" lon="4.06577">
        <ele>164.8</ele>
        <time>2022-09-20T12:11:35Z</time>
      </trkpt>
      <trkpt lat="49.15743" lon="4.06607">
        <ele>166</ele>
        <time>2022-09-20T12:11:40Z</time>
      </trkpt>
      <trkpt lat="49.1574" lon="4.06625">
        <ele>167.2</ele>
        <time>2022-09-20T12:11:43Z</time>
      </trkpt>
      <trkpt lat="49.15736" lon="4.06643">
        <ele>168.2</ele>
        <time>2022-09-20T12:11:46Z</time>
      </trkpt>
      <trkpt lat="49.15734" lon="4.06654">
        <ele>168.8</ele>
        <time>2022-09-20T12:11:48Z</time>
      </trkpt>
      <trkpt lat="49.15733" lon="4.06665">
        <ele>169.4</ele>
        <time>2022-09-20T12:11:50Z</time>
      </trkpt>
      <trkpt lat="49.1573" lon="4.06684">
        <ele>170</ele>
        <time>2022-09-20T12:11:53Z</time>
      </trkpt>
      <trkpt lat="49.15728" lon="4.06696">
        <ele>170.4</ele>
        <time>2022-09-20T12:11:55Z</time>
      </trkpt>
      <trkpt lat="49.15723" lon="4.06737">
        <ele>171.6</ele>
        <time>2022-09-20T12:12:01Z</time>
      </trkpt>
      <trkpt lat="49.15718" lon="4.06769">
        <ele>171.8</ele>
        <time>2022-09-20T12:12:05Z</time>
      </trkpt>
      <trkpt lat="49.15709" lon="4.06829">
        <ele>171.4</ele>
        <time>2022-09-20T12:12:11Z</time>
      </trkpt>
      <trkpt lat="49.15699" lon="4.06896">
        <ele>170.8</ele>
        <time>2022-09-20T12:12:16Z</time>
      </trkpt>
      <trkpt lat="49.15697" lon="4.06911">
        <ele>170.2</ele>
        <time>2022-09-20T12:12:17Z</time>
      </trkpt>
      <trkpt lat="49.1569" lon="4.06957">
        <ele>168.8</ele>
        <time>2022-09-20T12:12:20Z</time>
      </trkpt>
      <trkpt lat="49.15685" lon="4.06988">
        <ele>168</ele>
        <time>2022-09-20T12:12:22Z</time>
      </trkpt>
      <trkpt lat="49.1568" lon="4.0702">
        <ele>166.6</ele>
        <time>2022-09-20T12:12:24Z</time>
      </trkpt>
      <trkpt lat="49.15673" lon="4.07067">
        <ele>165.8</ele>
        <time>2022-09-20T12:12:27Z</time>
      </trkpt>
      <trkpt lat="49.15668" lon="4.07099">
        <ele>164.4</ele>
        <time>2022-09-20T12:12:29Z</time>
      </trkpt>
      <trkpt lat="49.15663" lon="4.07131">
        <ele>163.8</ele>
        <time>2022-09-20T12:12:31Z</time>
      </trkpt>
      <trkpt lat="49.1566" lon="4.07147">
        <ele>163.2</ele>
        <time>2022-09-20T12:12:32Z</time>
      </trkpt>
      <trkpt lat="49.15655" lon="4.07179">
        <ele>162.2</ele>
        <time>2022-09-20T12:12:34Z</time>
      </trkpt>
      <trkpt lat="49.1565" lon="4.07212">
        <ele>160.8</ele>
        <time>2022-09-20T12:12:36Z</time>
      </trkpt>
      <trkpt lat="49.15643" lon="4.07261">
        <ele>159.6</ele>
        <time>2022-09-20T12:12:39Z</time>
      </trkpt>
      <trkpt lat="49.15635" lon="4.07311">
        <ele>157.6</ele>
        <time>2022-09-20T12:12:42Z</time>
      </trkpt>
      <trkpt lat="49.15627" lon="4.07359">
        <ele>156.4</ele>
        <time>2022-09-20T12:12:45Z</time>
      </trkpt>
      <trkpt lat="49.1562" lon="4.07405">
        <ele>154.8</ele>
        <time>2022-09-20T12:12:48Z</time>
      </trkpt>
      <trkpt lat="49.15616" lon="4.07434">
        <ele>154.2</ele>
        <time>2022-09-20T12:12:50Z</time>
      </trkpt>
      <trkpt lat="49.15601" lon="4.07512">
        <ele>153.8</ele>
        <time>2022-09-20T12:12:56Z</time>
      </trkpt>
      <trkpt lat="49.15591" lon="4.07585">
        <ele>154.4</ele>
        <time>2022-09-20T12:13:02Z</time>
      </trkpt>
      <trkpt lat="49.15575" lon="4.07669">
        <ele>154.6</ele>
        <time>2022-09-20T12:13:09Z</time>
      </trkpt>
      <trkpt lat="49.1557" lon="4.07693">
        <ele>154.6</ele>
        <time>2022-09-20T12:13:11Z</time>
      </trkpt>
      <trkpt lat="49.15563" lon="4.07728">
        <ele>154.6</ele>
        <time>2022-09-20T12:13:14Z</time>
      </trkpt>
      <trkpt lat="49.15554" lon="4.07776">
        <ele>154.4</ele>
        <time>2022-09-20T12:13:18Z</time>
      </trkpt>
      <trkpt lat="49.15537" lon="4.07861">
        <ele>153.8</ele>
        <time>2022-09-20T12:13:25Z</time>
      </trkpt>
      <trkpt lat="49.15535" lon="4.07873">
        <ele>153.8</ele>
        <time>2022-09-20T12:13:26Z</time>
      </trkpt>
      <trkpt lat="49.15525" lon="4.07932">
        <ele>153.2</ele>
        <time>2022-09-20T12:13:31Z</time>
      </trkpt>
      <trkpt lat="49.15514" lon="4.07996">
        <ele>153.2</ele>
        <time>2022-09-20T12:13:37Z</time>
      </trkpt>
      <trkpt lat="49.15508" lon="4.08009">
        <ele>153</ele>
        <time>2022-09-20T12:13:39Z</time>
      </trkpt>
      <trkpt lat="49.15504" lon="4.08013">
        <ele>152.8</ele>
        <time>2022-09-20T12:13:40Z</time>
      </trkpt>
      <trkpt lat="49.15499" lon="4.08025">
        <ele>152.8</ele>
        <time>2022-09-20T12:13:42Z</time>
      </trkpt>
      <trkpt lat="49.15498" lon="4.08032">
        <ele>152.6</ele>
        <time>2022-09-20T12:13:43Z</time>
      </trkpt>
      <trkpt lat="49.15494" lon="4.08084">
        <ele>153</ele>
        <time>2022-09-20T12:13:50Z</time>
      </trkpt>
      <trkpt lat="49.1549" lon="4.08114">
        <ele>154</ele>
        <time>2022-09-20T12:13:54Z</time>
      </trkpt>
      <trkpt lat="49.15486" lon="4.08143">
        <ele>155</ele>
        <time>2022-09-20T12:13:58Z</time>
      </trkpt>
      <trkpt lat="49.15484" lon="4.0815">
        <ele>155.2</ele>
        <time>2022-09-20T12:13:59Z</time>
      </trkpt>
      <trkpt lat="49.15478" lon="4.08176">
        <ele>157</ele>
        <time>2022-09-20T12:14:03Z</time>
      </trkpt>
      <trkpt lat="49.15476" lon="4.08189">
        <ele>157.8</ele>
        <time>2022-09-20T12:14:05Z</time>
      </trkpt>
      <trkpt lat="49.15475" lon="4.08195">
        <ele>158.4</ele>
        <time>2022-09-20T12:14:06Z</time>
      </trkpt>
      <trkpt lat="49.1547" lon="4.08215">
        <ele>159.4</ele>
        <time>2022-09-20T12:14:09Z</time>
      </trkpt>
      <trkpt lat="49.15468" lon="4.08221">
        <ele>159.8</ele>
        <time>2022-09-20T12:14:10Z</time>
      </trkpt>
      <trkpt lat="49.15467" lon="4.08235">
        <ele>160.4</ele>
        <time>2022-09-20T12:14:12Z</time>
      </trkpt>
      <trkpt lat="49.15466" lon="4.08243">
        <ele>160.8</ele>
        <time>2022-09-20T12:14:13Z</time>
      </trkpt>
      <trkpt lat="49.15465" lon="4.08251">
        <ele>161</ele>
        <time>2022-09-20T12:14:14Z</time>
      </trkpt>
      <trkpt lat="49.15464" lon="4.08259">
        <ele>161</ele>
        <time>2022-09-20T12:14:15Z</time>
      </trkpt>
      <trkpt lat="49.1546" lon="4.08292">
        <ele>161.2</ele>
        <time>2022-09-20T12:14:19Z</time>
      </trkpt>
      <trkpt lat="49.15459" lon="4.08312">
        <ele>161.4</ele>
        <time>2022-09-20T12:14:21Z</time>
      </trkpt>
      <trkpt lat="49.15461" lon="4.08332">
        <ele>161.6</ele>
        <time>2022-09-20T12:14:23Z</time>
      </trkpt>
      <trkpt lat="49.15473" lon="4.08402">
        <ele>160.8</ele>
        <time>2022-09-20T12:14:29Z</time>
      </trkpt>
      <trkpt lat="49.15482" lon="4.08452">
        <ele>159.8</ele>
        <time>2022-09-20T12:14:33Z</time>
      </trkpt>
      <trkpt lat="49.15489" lon="4.08489">
        <ele>158.2</ele>
        <time>2022-09-20T12:14:36Z</time>
      </trkpt>
      <trkpt lat="49.15492" lon="4.08501">
        <ele>158</ele>
        <time>2022-09-20T12:14:37Z</time>
      </trkpt>
      <trkpt lat="49.15504" lon="4.08547">
        <ele>157</ele>
        <time>2022-09-20T12:14:41Z</time>
      </trkpt>
      <trkpt lat="49.1551" lon="4.08568">
        <ele>156.8</ele>
        <time>2022-09-20T12:14:43Z</time>
      </trkpt>
      <trkpt lat="49.15531" lon="4.08647">
        <ele>156.8</ele>
        <time>2022-09-20T12:14:51Z</time>
      </trkpt>
      <trkpt lat="49.15547" lon="4.08705">
        <ele>157</ele>
        <time>2022-09-20T12:14:57Z</time>
      </trkpt>
      <trkpt lat="49.15557" lon="4.08743">
        <ele>157.4</ele>
        <time>2022-09-20T12:15:01Z</time>
      </trkpt>
      <trkpt lat="49.15576" lon="4.08816">
        <ele>158.4</ele>
        <time>2022-09-20T12:15:09Z</time>
      </trkpt>
      <trkpt lat="49.1558" lon="4.08834">
        <ele>158.6</ele>
        <time>2022-09-20T12:15:11Z</time>
      </trkpt>
      <trkpt lat="49.15589" lon="4.08874">
        <ele>159.6</ele>
        <time>2022-09-20T12:15:16Z</time>
      </trkpt>
      <trkpt lat="49.15595" lon="4.08897">
        <ele>160.4</ele>
        <time>2022-09-20T12:15:19Z</time>
      </trkpt>
      <trkpt lat="49.15598" lon="4.08911">
        <ele>160.8</ele>
        <time>2022-09-20T12:15:21Z</time>
      </trkpt>
      <trkpt lat="49.15606" lon="4.0894">
        <ele>161.8</ele>
        <time>2022-09-20T12:15:25Z</time>
      </trkpt>
      <trkpt lat="49.15611" lon="4.08961">
        <ele>162.4</ele>
        <time>2022-09-20T12:15:28Z</time>
      </trkpt>
      <trkpt lat="49.15616" lon="4.08981">
        <ele>163.2</ele>
        <time>2022-09-20T12:15:31Z</time>
      </trkpt>
      <trkpt lat="49.15624" lon="4.09015">
        <ele>164.4</ele>
        <time>2022-09-20T12:15:36Z</time>
      </trkpt>
      <trkpt lat="49.15625" lon="4.09021">
        <ele>164.6</ele>
        <time>2022-09-20T12:15:37Z</time>
      </trkpt>
      <trkpt lat="49.1563" lon="4.09041">
        <ele>165.4</ele>
        <time>2022-09-20T12:15:40Z</time>
      </trkpt>
      <trkpt lat="49.15631" lon="4.09047">
        <ele>165.4</ele>
        <time>2022-09-20T12:15:41Z</time>
      </trkpt>
      <trkpt lat="49.15634" lon="4.09066">
        <ele>166.6</ele>
        <time>2022-09-20T12:15:44Z</time>
      </trkpt>
      <trkpt lat="49.15635" lon="4.09073">
        <ele>167</ele>
        <time>2022-09-20T12:15:45Z</time>
      </trkpt>
      <trkpt lat="49.15639" lon="4.091">
        <ele>167.6</ele>
        <time>2022-09-20T12:15:49Z</time>
      </trkpt>
      <trkpt lat="49.15641" lon="4.09126">
        <ele>168.2</ele>
        <time>2022-09-20T12:15:53Z</time>
      </trkpt>
      <trkpt lat="49.15641" lon="4.09132">
        <ele>168.6</ele>
        <time>2022-09-20T12:15:54Z</time>
      </trkpt>
      <trkpt lat="49.15642" lon="4.09162">
        <ele>170</ele>
        <time>2022-09-20T12:15:59Z</time>
      </trkpt>
      <trkpt lat="49.15641" lon="4.09183">
        <ele>170.8</ele>
        <time>2022-09-20T12:16:03Z</time>
      </trkpt>
      <trkpt lat="49.15641" lon="4.09189">
        <ele>171</ele>
        <time>2022-09-20T12:16:04Z</time>
      </trkpt>
      <trkpt lat="49.1564" lon="4.0922">
        <ele>172</ele>
        <time>2022-09-20T12:16:09Z</time>
      </trkpt>
      <trkpt lat="49.15639" lon="4.09226">
        <ele>171.8</ele>
        <time>2022-09-20T12:16:10Z</time>
      </trkpt>
      <trkpt lat="49.15636" lon="4.09232">
        <ele>171.8</ele>
        <time>2022-09-20T12:16:11Z</time>
      </trkpt>
      <trkpt lat="49.15633" lon="4.09236">
        <ele>172.2</ele>
        <time>2022-09-20T12:16:12Z</time>
      </trkpt>
      <trkpt lat="49.15626" lon="4.0924">
        <ele>172.4</ele>
        <time>2022-09-20T12:16:14Z</time>
      </trkpt>
      <trkpt lat="49.15615" lon="4.09232">
        <ele>173.2</ele>
        <time>2022-09-20T12:16:17Z</time>
      </trkpt>
      <trkpt lat="49.15612" lon="4.09228">
        <ele>173.4</ele>
        <time>2022-09-20T12:16:18Z</time>
      </trkpt>
      <trkpt lat="49.15598" lon="4.09209">
        <ele>174.4</ele>
        <time>2022-09-20T12:16:23Z</time>
      </trkpt>
      <trkpt lat="49.15593" lon="4.09202">
        <ele>174.6</ele>
        <time>2022-09-20T12:16:25Z</time>
      </trkpt>
      <trkpt lat="49.15578" lon="4.09187">
        <ele>175.6</ele>
        <time>2022-09-20T12:16:30Z</time>
      </trkpt>
      <trkpt lat="49.15566" lon="4.09176">
        <ele>176.6</ele>
        <time>2022-09-20T12:16:34Z</time>
      </trkpt>
      <trkpt lat="49.15562" lon="4.09175">
        <ele>177</ele>
        <time>2022-09-20T12:16:35Z</time>
      </trkpt>
      <trkpt lat="49.15551" lon="4.09169">
        <ele>177.6</ele>
        <time>2022-09-20T12:16:38Z</time>
      </trkpt>
      <trkpt lat="49.15528" lon="4.09162">
        <ele>178.8</ele>
        <time>2022-09-20T12:16:44Z</time>
      </trkpt>
      <trkpt lat="49.15509" lon="4.0916">
        <ele>179.8</ele>
        <time>2022-09-20T12:16:49Z</time>
      </trkpt>
      <trkpt lat="49.15497" lon="4.09162">
        <ele>180.2</ele>
        <time>2022-09-20T12:16:52Z</time>
      </trkpt>
      <trkpt lat="49.15489" lon="4.09164">
        <ele>180.8</ele>
        <time>2022-09-20T12:16:54Z</time>
      </trkpt>
      <trkpt lat="49.1547" lon="4.09172">
        <ele>181.8</ele>
        <time>2022-09-20T12:16:59Z</time>
      </trkpt>
      <trkpt lat="49.15462" lon="4.09176">
        <ele>182.4</ele>
        <time>2022-09-20T12:17:01Z</time>
      </trkpt>
      <trkpt lat="49.15449" lon="4.09187">
        <ele>183.2</ele>
        <time>2022-09-20T12:17:05Z</time>
      </trkpt>
      <trkpt lat="49.15434" lon="4.09201">
        <ele>183.8</ele>
        <time>2022-09-20T12:17:09Z</time>
      </trkpt>
      <trkpt lat="49.15429" lon="4.09208">
        <ele>184.2</ele>
        <time>2022-09-20T12:17:11Z</time>
      </trkpt>
      <trkpt lat="49.15417" lon="4.09225">
        <ele>185.4</ele>
        <time>2022-09-20T12:17:15Z</time>
      </trkpt>
      <trkpt lat="49.15406" lon="4.09244">
        <ele>186.8</ele>
        <time>2022-09-20T12:17:19Z</time>
      </trkpt>
      <trkpt lat="49.15395" lon="4.0927">
        <ele>188</ele>
        <time>2022-09-20T12:17:24Z</time>
      </trkpt>
      <trkpt lat="49.15384" lon="4.09295">
        <ele>189</ele>
        <time>2022-09-20T12:17:29Z</time>
      </trkpt>
      <trkpt lat="49.15377" lon="4.09312">
        <ele>189.8</ele>
        <time>2022-09-20T12:17:32Z</time>
      </trkpt>
      <trkpt lat="49.15373" lon="4.09323">
        <ele>190.2</ele>
        <time>2022-09-20T12:17:34Z</time>
      </trkpt>
      <trkpt lat="49.15356" lon="4.09357">
        <ele>191.6</ele>
        <time>2022-09-20T12:17:41Z</time>
      </trkpt>
      <trkpt lat="49.15353" lon="4.09362">
        <ele>191.6</ele>
        <time>2022-09-20T12:17:42Z</time>
      </trkpt>
      <trkpt lat="49.15347" lon="4.09377">
        <ele>192.6</ele>
        <time>2022-09-20T12:17:45Z</time>
      </trkpt>
      <trkpt lat="49.15336" lon="4.09402">
        <ele>193.8</ele>
        <time>2022-09-20T12:17:50Z</time>
      </trkpt>
      <trkpt lat="49.15331" lon="4.09412">
        <ele>194.2</ele>
        <time>2022-09-20T12:17:52Z</time>
      </trkpt>
      <trkpt lat="49.15324" lon="4.09426">
        <ele>194.8</ele>
        <time>2022-09-20T12:17:55Z</time>
      </trkpt>
      <trkpt lat="49.15311" lon="4.09456">
        <ele>196</ele>
        <time>2022-09-20T12:18:01Z</time>
      </trkpt>
      <trkpt lat="49.15303" lon="4.09471">
        <ele>196.6</ele>
        <time>2022-09-20T12:18:04Z</time>
      </trkpt>
      <trkpt lat="49.15301" lon="4.09476">
        <ele>197</ele>
        <time>2022-09-20T12:18:05Z</time>
      </trkpt>
      <trkpt lat="49.15289" lon="4.09498">
        <ele>198.4</ele>
        <time>2022-09-20T12:18:10Z</time>
      </trkpt>
      <trkpt lat="49.15282" lon="4.09512">
        <ele>198.8</ele>
        <time>2022-09-20T12:18:13Z</time>
      </trkpt>
      <trkpt lat="49.15274" lon="4.09525">
        <ele>199.6</ele>
        <time>2022-09-20T12:18:16Z</time>
      </trkpt>
      <trkpt lat="49.15256" lon="4.09556">
        <ele>200.8</ele>
        <time>2022-09-20T12:18:23Z</time>
      </trkpt>
      <trkpt lat="49.15241" lon="4.09583">
        <ele>201.8</ele>
        <time>2022-09-20T12:18:29Z</time>
      </trkpt>
      <trkpt lat="49.15228" lon="4.09605">
        <ele>202.8</ele>
        <time>2022-09-20T12:18:34Z</time>
      </trkpt>
      <trkpt lat="49.15226" lon="4.09609">
        <ele>203</ele>
        <time>2022-09-20T12:18:35Z</time>
      </trkpt>
      <trkpt lat="49.15206" lon="4.09643">
        <ele>204</ele>
        <time>2022-09-20T12:18:43Z</time>
      </trkpt>
      <trkpt lat="49.15191" lon="4.0967">
        <ele>205.2</ele>
        <time>2022-09-20T12:18:49Z</time>
      </trkpt>
      <trkpt lat="49.15176" lon="4.09694">
        <ele>206</ele>
        <time>2022-09-20T12:18:55Z</time>
      </trkpt>
      <trkpt lat="49.15173" lon="4.09698">
        <ele>206.4</ele>
        <time>2022-09-20T12:18:56Z</time>
      </trkpt>
      <trkpt lat="49.15162" lon="4.09716">
        <ele>207.4</ele>
        <time>2022-09-20T12:19:00Z</time>
      </trkpt>
      <trkpt lat="49.15156" lon="4.09724">
        <ele>207.8</ele>
        <time>2022-09-20T12:19:02Z</time>
      </trkpt>
      <trkpt lat="49.15149" lon="4.09729">
        <ele>208.4</ele>
        <time>2022-09-20T12:19:04Z</time>
      </trkpt>
      <trkpt lat="49.15142" lon="4.09732">
        <ele>208.6</ele>
        <time>2022-09-20T12:19:06Z</time>
      </trkpt>
      <trkpt lat="49.15136" lon="4.09733">
        <ele>209</ele>
        <time>2022-09-20T12:19:08Z</time>
      </trkpt>
      <trkpt lat="49.15133" lon="4.09732">
        <ele>209.2</ele>
        <time>2022-09-20T12:19:09Z</time>
      </trkpt>
      <trkpt lat="49.15131" lon="4.09731">
        <ele>209.4</ele>
        <time>2022-09-20T12:19:10Z</time>
      </trkpt>
      <trkpt lat="49.15127" lon="4.09727">
        <ele>209.8</ele>
        <time>2022-09-20T12:19:12Z</time>
      </trkpt>
      <trkpt lat="49.15125" lon="4.09724">
        <ele>210</ele>
        <time>2022-09-20T12:19:13Z</time>
      </trkpt>
      <trkpt lat="49.15123" lon="4.09721">
        <ele>210.2</ele>
        <time>2022-09-20T12:19:14Z</time>
      </trkpt>
      <trkpt lat="49.1512" lon="4.09717">
        <ele>210.6</ele>
        <time>2022-09-20T12:19:15Z</time>
      </trkpt>
      <trkpt lat="49.15116" lon="4.09713">
        <ele>211</ele>
        <time>2022-09-20T12:19:16Z</time>
      </trkpt>
      <trkpt lat="49.15109" lon="4.09703">
        <ele>211.2</ele>
        <time>2022-09-20T12:19:18Z</time>
      </trkpt>
      <trkpt lat="49.15103" lon="4.09693">
        <ele>211.6</ele>
        <time>2022-09-20T12:19:20Z</time>
      </trkpt>
      <trkpt lat="49.151" lon="4.09687">
        <ele>212</ele>
        <time>2022-09-20T12:19:21Z</time>
      </trkpt>
      <trkpt lat="49.15096" lon="4.09677">
        <ele>212.8</ele>
        <time>2022-09-20T12:19:23Z</time>
      </trkpt>
      <trkpt lat="49.15094" lon="4.09672">
        <ele>212.8</ele>
        <time>2022-09-20T12:19:24Z</time>
      </trkpt>
      <trkpt lat="49.1509" lon="4.0966">
        <ele>213.6</ele>
        <time>2022-09-20T12:19:26Z</time>
      </trkpt>
      <trkpt lat="49.15088" lon="4.09654">
        <ele>214</ele>
        <time>2022-09-20T12:19:27Z</time>
      </trkpt>
      <trkpt lat="49.1508" lon="4.09633">
        <ele>215</ele>
        <time>2022-09-20T12:19:30Z</time>
      </trkpt>
      <trkpt lat="49.15079" lon="4.09627">
        <ele>215.2</ele>
        <time>2022-09-20T12:19:31Z</time>
      </trkpt>
      <trkpt lat="49.15074" lon="4.09615">
        <ele>215.6</ele>
        <time>2022-09-20T12:19:33Z</time>
      </trkpt>
      <trkpt lat="49.15071" lon="4.09609">
        <ele>216.2</ele>
        <time>2022-09-20T12:19:34Z</time>
      </trkpt>
      <trkpt lat="49.15068" lon="4.09604">
        <ele>216.4</ele>
        <time>2022-09-20T12:19:35Z</time>
      </trkpt>
      <trkpt lat="49.15064" lon="4.09596">
        <ele>216.6</ele>
        <time>2022-09-20T12:19:37Z</time>
      </trkpt>
      <trkpt lat="49.15061" lon="4.09592">
        <ele>216.8</ele>
        <time>2022-09-20T12:19:38Z</time>
      </trkpt>
      <trkpt lat="49.15054" lon="4.09586">
        <ele>217.2</ele>
        <time>2022-09-20T12:19:40Z</time>
      </trkpt>
      <trkpt lat="49.15042" lon="4.09578">
        <ele>218</ele>
        <time>2022-09-20T12:19:43Z</time>
      </trkpt>
      <trkpt lat="49.15029" lon="4.09573">
        <ele>218.4</ele>
        <time>2022-09-20T12:19:46Z</time>
      </trkpt>
      <trkpt lat="49.15003" lon="4.09567">
        <ele>219.4</ele>
        <time>2022-09-20T12:19:52Z</time>
      </trkpt>
      <trkpt lat="49.14977" lon="4.09566">
        <ele>220.8</ele>
        <time>2022-09-20T12:19:58Z</time>
      </trkpt>
      <trkpt lat="49.14969" lon="4.09567">
        <ele>221.2</ele>
        <time>2022-09-20T12:20:00Z</time>
      </trkpt>
      <trkpt lat="49.14957" lon="4.09569">
        <ele>221.8</ele>
        <time>2022-09-20T12:20:03Z</time>
      </trkpt>
      <trkpt lat="49.14936" lon="4.09574">
        <ele>223.2</ele>
        <time>2022-09-20T12:20:08Z</time>
      </trkpt>
      <trkpt lat="49.1492" lon="4.09578">
        <ele>224.2</ele>
        <time>2022-09-20T12:20:12Z</time>
      </trkpt>
      <trkpt lat="49.14903" lon="4.09583">
        <ele>225</ele>
        <time>2022-09-20T12:20:16Z</time>
      </trkpt>
      <trkpt lat="49.14899" lon="4.09584">
        <ele>225.2</ele>
        <time>2022-09-20T12:20:17Z</time>
      </trkpt>
      <trkpt lat="49.14861" lon="4.09594">
        <ele>226.4</ele>
        <time>2022-09-20T12:20:26Z</time>
      </trkpt>
      <trkpt lat="49.14857" lon="4.09595">
        <ele>226.6</ele>
        <time>2022-09-20T12:20:27Z</time>
      </trkpt>
      <trkpt lat="49.1484" lon="4.09598">
        <ele>227.4</ele>
        <time>2022-09-20T12:20:31Z</time>
      </trkpt>
      <trkpt lat="49.14829" lon="4.09599">
        <ele>228.2</ele>
        <time>2022-09-20T12:20:34Z</time>
      </trkpt>
      <trkpt lat="49.14825" lon="4.09599">
        <ele>228.4</ele>
        <time>2022-09-20T12:20:35Z</time>
      </trkpt>
      <trkpt lat="49.14801" lon="4.09595">
        <ele>229.6</ele>
        <time>2022-09-20T12:20:41Z</time>
      </trkpt>
      <trkpt lat="49.14797" lon="4.09594">
        <ele>229.6</ele>
        <time>2022-09-20T12:20:42Z</time>
      </trkpt>
      <trkpt lat="49.14781" lon="4.09589">
        <ele>230.6</ele>
        <time>2022-09-20T12:20:46Z</time>
      </trkpt>
      <trkpt lat="49.14767" lon="4.09579">
        <ele>231.4</ele>
        <time>2022-09-20T12:20:50Z</time>
      </trkpt>
      <trkpt lat="49.14763" lon="4.09576">
        <ele>231.6</ele>
        <time>2022-09-20T12:20:51Z</time>
      </trkpt>
      <trkpt lat="49.1475" lon="4.09562">
        <ele>232.6</ele>
        <time>2022-09-20T12:20:55Z</time>
      </trkpt>
      <trkpt lat="49.14744" lon="4.09554">
        <ele>232.8</ele>
        <time>2022-09-20T12:20:57Z</time>
      </trkpt>
      <trkpt lat="49.14735" lon="4.09539">
        <ele>233.6</ele>
        <time>2022-09-20T12:21:00Z</time>
      </trkpt>
      <trkpt lat="49.14732" lon="4.09534">
        <ele>233.8</ele>
        <time>2022-09-20T12:21:01Z</time>
      </trkpt>
      <trkpt lat="49.14726" lon="4.09517">
        <ele>234.2</ele>
        <time>2022-09-20T12:21:04Z</time>
      </trkpt>
      <trkpt lat="49.14722" lon="4.095">
        <ele>234.8</ele>
        <time>2022-09-20T12:21:07Z</time>
      </trkpt>
      <trkpt lat="49.14713" lon="4.09475">
        <ele>236</ele>
        <time>2022-09-20T12:21:12Z</time>
      </trkpt>
      <trkpt lat="49.14702" lon="4.09458">
        <ele>237.4</ele>
        <time>2022-09-20T12:21:16Z</time>
      </trkpt>
      <trkpt lat="49.14696" lon="4.09453">
        <ele>237.8</ele>
        <time>2022-09-20T12:21:18Z</time>
      </trkpt>
      <trkpt lat="49.14685" lon="4.09451">
        <ele>238.4</ele>
        <time>2022-09-20T12:21:21Z</time>
      </trkpt>
      <trkpt lat="49.14677" lon="4.09451">
        <ele>238.8</ele>
        <time>2022-09-20T12:21:23Z</time>
      </trkpt>
      <trkpt lat="49.14668" lon="4.09455">
        <ele>239.6</ele>
        <time>2022-09-20T12:21:26Z</time>
      </trkpt>
      <trkpt lat="49.14658" lon="4.09464">
        <ele>240.4</ele>
        <time>2022-09-20T12:21:29Z</time>
      </trkpt>
      <trkpt lat="49.14655" lon="4.09468">
        <ele>240.8</ele>
        <time>2022-09-20T12:21:30Z</time>
      </trkpt>
      <trkpt lat="49.14647" lon="4.09483">
        <ele>241.8</ele>
        <time>2022-09-20T12:21:33Z</time>
      </trkpt>
      <trkpt lat="49.14644" lon="4.09488">
        <ele>242</ele>
        <time>2022-09-20T12:21:34Z</time>
      </trkpt>
      <trkpt lat="49.1464" lon="4.09497">
        <ele>242.4</ele>
        <time>2022-09-20T12:21:36Z</time>
      </trkpt>
      <trkpt lat="49.14634" lon="4.09508">
        <ele>243</ele>
        <time>2022-09-20T12:21:38Z</time>
      </trkpt>
      <trkpt lat="49.14621" lon="4.09535">
        <ele>244</ele>
        <time>2022-09-20T12:21:43Z</time>
      </trkpt>
      <trkpt lat="49.14618" lon="4.0954">
        <ele>244.4</ele>
        <time>2022-09-20T12:21:44Z</time>
      </trkpt>
      <trkpt lat="49.14608" lon="4.09559">
        <ele>245.2</ele>
        <time>2022-09-20T12:21:48Z</time>
      </trkpt>
      <trkpt lat="49.14601" lon="4.09575">
        <ele>246.2</ele>
        <time>2022-09-20T12:21:51Z</time>
      </trkpt>
      <trkpt lat="49.14592" lon="4.0959">
        <ele>246.8</ele>
        <time>2022-09-20T12:21:54Z</time>
      </trkpt>
      <trkpt lat="49.14584" lon="4.09603">
        <ele>247.4</ele>
        <time>2022-09-20T12:21:57Z</time>
      </trkpt>
      <trkpt lat="49.1457" lon="4.09625">
        <ele>248.4</ele>
        <time>2022-09-20T12:22:02Z</time>
      </trkpt>
      <trkpt lat="49.14565" lon="4.09633">
        <ele>249</ele>
        <time>2022-09-20T12:22:04Z</time>
      </trkpt>
      <trkpt lat="49.14559" lon="4.09642">
        <ele>249.4</ele>
        <time>2022-09-20T12:22:06Z</time>
      </trkpt>
      <trkpt lat="49.14546" lon="4.0966">
        <ele>250.6</ele>
        <time>2022-09-20T12:22:11Z</time>
      </trkpt>
      <trkpt lat="49.14543" lon="4.09664">
        <ele>250.6</ele>
        <time>2022-09-20T12:22:12Z</time>
      </trkpt>
      <trkpt lat="49.14534" lon="4.09676">
        <ele>251.6</ele>
        <time>2022-09-20T12:22:15Z</time>
      </trkpt>
      <trkpt lat="49.14519" lon="4.09699">
        <ele>252.8</ele>
        <time>2022-09-20T12:22:20Z</time>
      </trkpt>
      <trkpt lat="49.145" lon="4.09726">
        <ele>253.2</ele>
        <time>2022-09-20T12:22:25Z</time>
      </trkpt>
      <trkpt lat="49.14495" lon="4.09732">
        <ele>253</ele>
        <time>2022-09-20T12:22:26Z</time>
      </trkpt>
      <trkpt lat="49.14476" lon="4.0976">
        <ele>252.8</ele>
        <time>2022-09-20T12:22:30Z</time>
      </trkpt>
      <trkpt lat="49.14445" lon="4.09802">
        <ele>252.4</ele>
        <time>2022-09-20T12:22:35Z</time>
      </trkpt>
      <trkpt lat="49.14413" lon="4.09843">
        <ele>251.6</ele>
        <time>2022-09-20T12:22:40Z</time>
      </trkpt>
      <trkpt lat="49.14406" lon="4.09854">
        <ele>251</ele>
        <time>2022-09-20T12:22:41Z</time>
      </trkpt>
      <trkpt lat="49.14385" lon="4.09884">
        <ele>250.4</ele>
        <time>2022-09-20T12:22:44Z</time>
      </trkpt>
      <trkpt lat="49.14356" lon="4.09922">
        <ele>249.2</ele>
        <time>2022-09-20T12:22:48Z</time>
      </trkpt>
      <trkpt lat="49.14323" lon="4.09973">
        <ele>247.6</ele>
        <time>2022-09-20T12:22:53Z</time>
      </trkpt>
      <trkpt lat="49.14303" lon="4.10001">
        <ele>246.6</ele>
        <time>2022-09-20T12:22:56Z</time>
      </trkpt>
      <trkpt lat="49.14274" lon="4.10041">
        <ele>245.2</ele>
        <time>2022-09-20T12:23:00Z</time>
      </trkpt>
      <trkpt lat="49.14259" lon="4.10063">
        <ele>244.8</ele>
        <time>2022-09-20T12:23:02Z</time>
      </trkpt>
      <trkpt lat="49.14249" lon="4.10075">
        <ele>244.2</ele>
        <time>2022-09-20T12:23:03Z</time>
      </trkpt>
      <trkpt lat="49.14227" lon="4.10106">
        <ele>243</ele>
        <time>2022-09-20T12:23:06Z</time>
      </trkpt>
      <trkpt lat="49.14209" lon="4.1013">
        <ele>242.6</ele>
        <time>2022-09-20T12:23:08Z</time>
      </trkpt>
      <trkpt lat="49.14195" lon="4.10149">
        <ele>241.6</ele>
        <time>2022-09-20T12:23:10Z</time>
      </trkpt>
      <trkpt lat="49.14163" lon="4.10193">
        <ele>240.4</ele>
        <time>2022-09-20T12:23:14Z</time>
      </trkpt>
      <trkpt lat="49.14154" lon="4.10205">
        <ele>240.4</ele>
        <time>2022-09-20T12:23:15Z</time>
      </trkpt>
      <trkpt lat="49.14127" lon="4.10242">
        <ele>239.4</ele>
        <time>2022-09-20T12:23:18Z</time>
      </trkpt>
      <trkpt lat="49.14103" lon="4.10273">
        <ele>238</ele>
        <time>2022-09-20T12:23:21Z</time>
      </trkpt>
      <trkpt lat="49.14078" lon="4.10309">
        <ele>236.8</ele>
        <time>2022-09-20T12:23:24Z</time>
      </trkpt>
      <trkpt lat="49.14053" lon="4.10344">
        <ele>235.8</ele>
        <time>2022-09-20T12:23:27Z</time>
      </trkpt>
      <trkpt lat="49.14027" lon="4.1038">
        <ele>234.8</ele>
        <time>2022-09-20T12:23:30Z</time>
      </trkpt>
      <trkpt lat="49.14008" lon="4.10403">
        <ele>234.4</ele>
        <time>2022-09-20T12:23:32Z</time>
      </trkpt>
      <trkpt lat="49.13977" lon="4.10431">
        <ele>233.6</ele>
        <time>2022-09-20T12:23:35Z</time>
      </trkpt>
      <trkpt lat="49.13967" lon="4.10439">
        <ele>233.2</ele>
        <time>2022-09-20T12:23:36Z</time>
      </trkpt>
      <trkpt lat="49.13935" lon="4.10464">
        <ele>232.2</ele>
        <time>2022-09-20T12:23:39Z</time>
      </trkpt>
      <trkpt lat="49.13914" lon="4.1048">
        <ele>231</ele>
        <time>2022-09-20T12:23:41Z</time>
      </trkpt>
      <trkpt lat="49.13891" lon="4.10498">
        <ele>230</ele>
        <time>2022-09-20T12:23:43Z</time>
      </trkpt>
      <trkpt lat="49.13872" lon="4.10513">
        <ele>228.8</ele>
        <time>2022-09-20T12:23:45Z</time>
      </trkpt>
      <trkpt lat="49.1386" lon="4.10523">
        <ele>228.2</ele>
        <time>2022-09-20T12:23:46Z</time>
      </trkpt>
      <trkpt lat="49.13841" lon="4.10539">
        <ele>227.6</ele>
        <time>2022-09-20T12:23:48Z</time>
      </trkpt>
      <trkpt lat="49.13819" lon="4.10556">
        <ele>226.6</ele>
        <time>2022-09-20T12:23:50Z</time>
      </trkpt>
      <trkpt lat="49.13799" lon="4.10572">
        <ele>226.2</ele>
        <time>2022-09-20T12:23:52Z</time>
      </trkpt>
      <trkpt lat="49.13777" lon="4.10588">
        <ele>225.4</ele>
        <time>2022-09-20T12:23:54Z</time>
      </trkpt>
      <trkpt lat="49.13766" lon="4.10595">
        <ele>224.8</ele>
        <time>2022-09-20T12:23:55Z</time>
      </trkpt>
      <trkpt lat="49.13743" lon="4.10603">
        <ele>223.8</ele>
        <time>2022-09-20T12:23:57Z</time>
      </trkpt>
      <trkpt lat="49.1373" lon="4.10604">
        <ele>223.6</ele>
        <time>2022-09-20T12:23:58Z</time>
      </trkpt>
      <trkpt lat="49.13706" lon="4.10604">
        <ele>222.6</ele>
        <time>2022-09-20T12:24:00Z</time>
      </trkpt>
      <trkpt lat="49.13683" lon="4.10602">
        <ele>221.2</ele>
        <time>2022-09-20T12:24:02Z</time>
      </trkpt>
      <trkpt lat="49.13671" lon="4.10601">
        <ele>221</ele>
        <time>2022-09-20T12:24:03Z</time>
      </trkpt>
      <trkpt lat="49.13659" lon="4.106">
        <ele>220.4</ele>
        <time>2022-09-20T12:24:04Z</time>
      </trkpt>
      <trkpt lat="49.13635" lon="4.10598">
        <ele>219</ele>
        <time>2022-09-20T12:24:06Z</time>
      </trkpt>
      <trkpt lat="49.136" lon="4.10592">
        <ele>217.8</ele>
        <time>2022-09-20T12:24:09Z</time>
      </trkpt>
      <trkpt lat="49.13587" lon="4.10587">
        <ele>217.6</ele>
        <time>2022-09-20T12:24:10Z</time>
      </trkpt>
      <trkpt lat="49.13575" lon="4.1058">
        <ele>216.6</ele>
        <time>2022-09-20T12:24:11Z</time>
      </trkpt>
      <trkpt lat="49.13565" lon="4.10571">
        <ele>216.4</ele>
        <time>2022-09-20T12:24:12Z</time>
      </trkpt>
      <trkpt lat="49.13554" lon="4.10559">
        <ele>215.8</ele>
        <time>2022-09-20T12:24:13Z</time>
      </trkpt>
      <trkpt lat="49.13545" lon="4.10547">
        <ele>215.6</ele>
        <time>2022-09-20T12:24:14Z</time>
      </trkpt>
      <trkpt lat="49.13529" lon="4.10519">
        <ele>214.2</ele>
        <time>2022-09-20T12:24:16Z</time>
      </trkpt>
      <trkpt lat="49.1352" lon="4.10505">
        <ele>213.8</ele>
        <time>2022-09-20T12:24:17Z</time>
      </trkpt>
      <trkpt lat="49.13512" lon="4.10491">
        <ele>213.2</ele>
        <time>2022-09-20T12:24:18Z</time>
      </trkpt>
      <trkpt lat="49.13488" lon="4.1045">
        <ele>212</ele>
        <time>2022-09-20T12:24:21Z</time>
      </trkpt>
      <trkpt lat="49.13455" lon="4.10394">
        <ele>210.6</ele>
        <time>2022-09-20T12:24:25Z</time>
      </trkpt>
      <trkpt lat="49.13438" lon="4.10368">
        <ele>209.6</ele>
        <time>2022-09-20T12:24:27Z</time>
      </trkpt>
      <trkpt lat="49.13428" lon="4.10351">
        <ele>208.4</ele>
        <time>2022-09-20T12:24:28Z</time>
      </trkpt>
      <trkpt lat="49.13421" lon="4.1034">
        <ele>208.2</ele>
        <time>2022-09-20T12:24:29Z</time>
      </trkpt>
      <trkpt lat="49.13412" lon="4.10327">
        <ele>207.4</ele>
        <time>2022-09-20T12:24:30Z</time>
      </trkpt>
      <trkpt lat="49.13395" lon="4.10301">
        <ele>206.2</ele>
        <time>2022-09-20T12:24:32Z</time>
      </trkpt>
      <trkpt lat="49.13384" lon="4.10291">
        <ele>205.8</ele>
        <time>2022-09-20T12:24:33Z</time>
      </trkpt>
      <trkpt lat="49.13374" lon="4.10283">
        <ele>205.2</ele>
        <time>2022-09-20T12:24:34Z</time>
      </trkpt>
      <trkpt lat="49.13362" lon="4.10277">
        <ele>204.4</ele>
        <time>2022-09-20T12:24:35Z</time>
      </trkpt>
      <trkpt lat="49.1335" lon="4.10275">
        <ele>204.2</ele>
        <time>2022-09-20T12:24:36Z</time>
      </trkpt>
      <trkpt lat="49.13326" lon="4.10279">
        <ele>203.2</ele>
        <time>2022-09-20T12:24:38Z</time>
      </trkpt>
      <trkpt lat="49.13313" lon="4.10284">
        <ele>202.4</ele>
        <time>2022-09-20T12:24:39Z</time>
      </trkpt>
      <trkpt lat="49.13301" lon="4.10293">
        <ele>202</ele>
        <time>2022-09-20T12:24:40Z</time>
      </trkpt>
      <trkpt lat="49.13291" lon="4.10303">
        <ele>201.6</ele>
        <time>2022-09-20T12:24:41Z</time>
      </trkpt>
      <trkpt lat="49.13282" lon="4.10315">
        <ele>201</ele>
        <time>2022-09-20T12:24:42Z</time>
      </trkpt>
      <trkpt lat="49.13265" lon="4.10341">
        <ele>199.6</ele>
        <time>2022-09-20T12:24:44Z</time>
      </trkpt>
      <trkpt lat="49.13242" lon="4.10382">
        <ele>198.6</ele>
        <time>2022-09-20T12:24:47Z</time>
      </trkpt>
      <trkpt lat="49.13234" lon="4.10396">
        <ele>198.4</ele>
        <time>2022-09-20T12:24:48Z</time>
      </trkpt>
      <trkpt lat="49.13194" lon="4.10462">
        <ele>197.4</ele>
        <time>2022-09-20T12:24:53Z</time>
      </trkpt>
      <trkpt lat="49.13167" lon="4.10496">
        <ele>196.6</ele>
        <time>2022-09-20T12:24:56Z</time>
      </trkpt>
      <trkpt lat="49.13157" lon="4.10504">
        <ele>196.4</ele>
        <time>2022-09-20T12:24:57Z</time>
      </trkpt>
      <trkpt lat="49.13145" lon="4.10512">
        <ele>195.8</ele>
        <time>2022-09-20T12:24:58Z</time>
      </trkpt>
      <trkpt lat="49.13136" lon="4.10516">
        <ele>195.8</ele>
        <time>2022-09-20T12:24:59Z</time>
      </trkpt>
      <trkpt lat="49.13124" lon="4.10519">
        <ele>195.4</ele>
        <time>2022-09-20T12:25:00Z</time>
      </trkpt>
      <trkpt lat="49.13086" lon="4.10527">
        <ele>194.2</ele>
        <time>2022-09-20T12:25:03Z</time>
      </trkpt>
      <trkpt lat="49.13053" lon="4.10533">
        <ele>193.2</ele>
        <time>2022-09-20T12:25:06Z</time>
      </trkpt>
      <trkpt lat="49.13018" lon="4.10541">
        <ele>192</ele>
        <time>2022-09-20T12:25:09Z</time>
      </trkpt>
      <trkpt lat="49.13007" lon="4.10546">
        <ele>191.6</ele>
        <time>2022-09-20T12:25:10Z</time>
      </trkpt>
      <trkpt lat="49.12985" lon="4.10556">
        <ele>190.8</ele>
        <time>2022-09-20T12:25:12Z</time>
      </trkpt>
      <trkpt lat="49.12943" lon="4.10578">
        <ele>189.6</ele>
        <time>2022-09-20T12:25:16Z</time>
      </trkpt>
      <trkpt lat="49.12893" lon="4.1061">
        <ele>189</ele>
        <time>2022-09-20T12:25:21Z</time>
      </trkpt>
      <trkpt lat="49.12882" lon="4.10617">
        <ele>188.6</ele>
        <time>2022-09-20T12:25:22Z</time>
      </trkpt>
      <trkpt lat="49.12873" lon="4.10625">
        <ele>188.4</ele>
        <time>2022-09-20T12:25:23Z</time>
      </trkpt>
      <trkpt lat="49.12816" lon="4.10667">
        <ele>187.6</ele>
        <time>2022-09-20T12:25:29Z</time>
      </trkpt>
      <trkpt lat="49.12797" lon="4.1068">
        <ele>187.4</ele>
        <time>2022-09-20T12:25:31Z</time>
      </trkpt>
      <trkpt lat="49.1274" lon="4.1072">
        <ele>187</ele>
        <time>2022-09-20T12:25:37Z</time>
      </trkpt>
      <trkpt lat="49.12692" lon="4.10752">
        <ele>186.4</ele>
        <time>2022-09-20T12:25:42Z</time>
      </trkpt>
      <trkpt lat="49.12682" lon="4.10758">
        <ele>186.2</ele>
        <time>2022-09-20T12:25:43Z</time>
      </trkpt>
      <trkpt lat="49.12635" lon="4.10791">
        <ele>185.2</ele>
        <time>2022-09-20T12:25:48Z</time>
      </trkpt>
      <trkpt lat="49.12589" lon="4.10822">
        <ele>184.4</ele>
        <time>2022-09-20T12:25:53Z</time>
      </trkpt>
      <trkpt lat="49.12571" lon="4.10833">
        <ele>184</ele>
        <time>2022-09-20T12:25:55Z</time>
      </trkpt>
      <trkpt lat="49.12534" lon="4.1085">
        <ele>184</ele>
        <time>2022-09-20T12:25:59Z</time>
      </trkpt>
      <trkpt lat="49.12484" lon="4.10855">
        <ele>183.4</ele>
        <time>2022-09-20T12:26:04Z</time>
      </trkpt>
      <trkpt lat="49.12451" lon="4.10856">
        <ele>183</ele>
        <time>2022-09-20T12:26:07Z</time>
      </trkpt>
      <trkpt lat="49.124" lon="4.10859">
        <ele>182</ele>
        <time>2022-09-20T12:26:12Z</time>
      </trkpt>
      <trkpt lat="49.12379" lon="4.1086">
        <ele>181.6</ele>
        <time>2022-09-20T12:26:14Z</time>
      </trkpt>
      <trkpt lat="49.12348" lon="4.10862">
        <ele>180.8</ele>
        <time>2022-09-20T12:26:17Z</time>
      </trkpt>
      <trkpt lat="49.12308" lon="4.10866">
        <ele>179.6</ele>
        <time>2022-09-20T12:26:21Z</time>
      </trkpt>
      <trkpt lat="49.12269" lon="4.10871">
        <ele>178.8</ele>
        <time>2022-09-20T12:26:25Z</time>
      </trkpt>
      <trkpt lat="49.12257" lon="4.10873">
        <ele>178.6</ele>
        <time>2022-09-20T12:26:26Z</time>
      </trkpt>
      <trkpt lat="49.12196" lon="4.10891">
        <ele>178.2</ele>
        <time>2022-09-20T12:26:32Z</time>
      </trkpt>
      <trkpt lat="49.12153" lon="4.10908">
        <ele>177.8</ele>
        <time>2022-09-20T12:26:36Z</time>
      </trkpt>
      <trkpt lat="49.12132" lon="4.10917">
        <ele>176.8</ele>
        <time>2022-09-20T12:26:38Z</time>
      </trkpt>
      <trkpt lat="49.12121" lon="4.1092">
        <ele>176.6</ele>
        <time>2022-09-20T12:26:39Z</time>
      </trkpt>
      <trkpt lat="49.12099" lon="4.10926">
        <ele>175.6</ele>
        <time>2022-09-20T12:26:41Z</time>
      </trkpt>
      <trkpt lat="49.12077" lon="4.1093">
        <ele>174.2</ele>
        <time>2022-09-20T12:26:43Z</time>
      </trkpt>
      <trkpt lat="49.12045" lon="4.10932">
        <ele>173.2</ele>
        <time>2022-09-20T12:26:46Z</time>
      </trkpt>
      <trkpt lat="49.12003" lon="4.1093">
        <ele>172.2</ele>
        <time>2022-09-20T12:26:50Z</time>
      </trkpt>
      <trkpt lat="49.11982" lon="4.10928">
        <ele>172</ele>
        <time>2022-09-20T12:26:52Z</time>
      </trkpt>
      <trkpt lat="49.11943" lon="4.10918">
        <ele>171.8</ele>
        <time>2022-09-20T12:26:56Z</time>
      </trkpt>
      <trkpt lat="49.11885" lon="4.10896">
        <ele>172</ele>
        <time>2022-09-20T12:27:02Z</time>
      </trkpt>
      <trkpt lat="49.11866" lon="4.10889">
        <ele>172</ele>
        <time>2022-09-20T12:27:04Z</time>
      </trkpt>
      <trkpt lat="49.11807" lon="4.10882">
        <ele>172</ele>
        <time>2022-09-20T12:27:10Z</time>
      </trkpt>
      <trkpt lat="49.11745" lon="4.10886">
        <ele>171.6</ele>
        <time>2022-09-20T12:27:16Z</time>
      </trkpt>
      <trkpt lat="49.11735" lon="4.10887">
        <ele>171.6</ele>
        <time>2022-09-20T12:27:17Z</time>
      </trkpt>
      <trkpt lat="49.11703" lon="4.10887">
        <ele>170.8</ele>
        <time>2022-09-20T12:27:20Z</time>
      </trkpt>
      <trkpt lat="49.1167" lon="4.10885">
        <ele>170</ele>
        <time>2022-09-20T12:27:23Z</time>
      </trkpt>
      <trkpt lat="49.11647" lon="4.10883">
        <ele>169.4</ele>
        <time>2022-09-20T12:27:25Z</time>
      </trkpt>
      <trkpt lat="49.11612" lon="4.10879">
        <ele>168.2</ele>
        <time>2022-09-20T12:27:28Z</time>
      </trkpt>
      <trkpt lat="49.11588" lon="4.10877">
        <ele>167.4</ele>
        <time>2022-09-20T12:27:30Z</time>
      </trkpt>
      <trkpt lat="49.11567" lon="4.10875">
        <ele>166.8</ele>
        <time>2022-09-20T12:27:32Z</time>
      </trkpt>
      <trkpt lat="49.11528" lon="4.10875">
        <ele>165.4</ele>
        <time>2022-09-20T12:27:35Z</time>
      </trkpt>
      <trkpt lat="49.11506" lon="4.10877">
        <ele>164.8</ele>
        <time>2022-09-20T12:27:37Z</time>
      </trkpt>
      <trkpt lat="49.11479" lon="4.10881">
        <ele>164.2</ele>
        <time>2022-09-20T12:27:39Z</time>
      </trkpt>
      <trkpt lat="49.11443" lon="4.10891">
        <ele>163</ele>
        <time>2022-09-20T12:27:42Z</time>
      </trkpt>
      <trkpt lat="49.11431" lon="4.10896">
        <ele>162.8</ele>
        <time>2022-09-20T12:27:43Z</time>
      </trkpt>
      <trkpt lat="49.11407" lon="4.10907">
        <ele>161.8</ele>
        <time>2022-09-20T12:27:45Z</time>
      </trkpt>
      <trkpt lat="49.11372" lon="4.10925">
        <ele>160.8</ele>
        <time>2022-09-20T12:27:48Z</time>
      </trkpt>
      <trkpt lat="49.11352" lon="4.10938">
        <ele>159.8</ele>
        <time>2022-09-20T12:27:50Z</time>
      </trkpt>
      <trkpt lat="49.11341" lon="4.10946">
        <ele>159.4</ele>
        <time>2022-09-20T12:27:51Z</time>
      </trkpt>
      <trkpt lat="49.11309" lon="4.10971">
        <ele>158</ele>
        <time>2022-09-20T12:27:54Z</time>
      </trkpt>
      <trkpt lat="49.11288" lon="4.10989">
        <ele>157.2</ele>
        <time>2022-09-20T12:27:56Z</time>
      </trkpt>
      <trkpt lat="49.11278" lon="4.10998">
        <ele>157</ele>
        <time>2022-09-20T12:27:57Z</time>
      </trkpt>
      <trkpt lat="49.11258" lon="4.11016">
        <ele>155.2</ele>
        <time>2022-09-20T12:27:59Z</time>
      </trkpt>
      <trkpt lat="49.11226" lon="4.11041">
        <ele>154</ele>
        <time>2022-09-20T12:28:02Z</time>
      </trkpt>
      <trkpt lat="49.11182" lon="4.11073">
        <ele>152.8</ele>
        <time>2022-09-20T12:28:06Z</time>
      </trkpt>
      <trkpt lat="49.1116" lon="4.11087">
        <ele>152.2</ele>
        <time>2022-09-20T12:28:08Z</time>
      </trkpt>
      <trkpt lat="49.1114" lon="4.111">
        <ele>151.4</ele>
        <time>2022-09-20T12:28:10Z</time>
      </trkpt>
      <trkpt lat="49.11092" lon="4.1113">
        <ele>150.6</ele>
        <time>2022-09-20T12:28:14Z</time>
      </trkpt>
      <trkpt lat="49.11038" lon="4.11163">
        <ele>150.4</ele>
        <time>2022-09-20T12:28:19Z</time>
      </trkpt>
      <trkpt lat="49.11029" lon="4.11168">
        <ele>150.2</ele>
        <time>2022-09-20T12:28:20Z</time>
      </trkpt>
      <trkpt lat="49.11007" lon="4.11181">
        <ele>150.2</ele>
        <time>2022-09-20T12:28:22Z</time>
      </trkpt>
      <trkpt lat="49.10951" lon="4.11218">
        <ele>150</ele>
        <time>2022-09-20T12:28:28Z</time>
      </trkpt>
      <trkpt lat="49.10942" lon="4.11223">
        <ele>150.2</ele>
        <time>2022-09-20T12:28:29Z</time>
      </trkpt>
      <trkpt lat="49.10888" lon="4.11258">
        <ele>150.8</ele>
        <time>2022-09-20T12:28:36Z</time>
      </trkpt>
      <trkpt lat="49.10834" lon="4.11293">
        <ele>151</ele>
        <time>2022-09-20T12:28:43Z</time>
      </trkpt>
      <trkpt lat="49.10814" lon="4.11307">
        <ele>151.4</ele>
        <time>2022-09-20T12:28:46Z</time>
      </trkpt>
      <trkpt lat="49.10781" lon="4.11335">
        <ele>151.8</ele>
        <time>2022-09-20T12:28:51Z</time>
      </trkpt>
      <trkpt lat="49.10755" lon="4.11359">
        <ele>152.6</ele>
        <time>2022-09-20T12:28:55Z</time>
      </trkpt>
      <trkpt lat="49.10738" lon="4.11374">
        <ele>153</ele>
        <time>2022-09-20T12:28:58Z</time>
      </trkpt>
      <trkpt lat="49.10705" lon="4.11407">
        <ele>153.6</ele>
        <time>2022-09-20T12:29:04Z</time>
      </trkpt>
      <trkpt lat="49.10698" lon="4.11415">
        <ele>153.8</ele>
        <time>2022-09-20T12:29:05Z</time>
      </trkpt>
      <trkpt lat="49.10675" lon="4.1144">
        <ele>154</ele>
        <time>2022-09-20T12:29:09Z</time>
      </trkpt>
      <trkpt lat="49.10633" lon="4.11482">
        <ele>154.2</ele>
        <time>2022-09-20T12:29:15Z</time>
      </trkpt>
      <trkpt lat="49.10618" lon="4.11492">
        <ele>154</ele>
        <time>2022-09-20T12:29:17Z</time>
      </trkpt>
      <trkpt lat="49.10596" lon="4.11503">
        <ele>153.8</ele>
        <time>2022-09-20T12:29:20Z</time>
      </trkpt>
      <trkpt lat="49.10567" lon="4.11511">
        <ele>152.8</ele>
        <time>2022-09-20T12:29:24Z</time>
      </trkpt>
      <trkpt lat="49.10551" lon="4.11516">
        <ele>152.2</ele>
        <time>2022-09-20T12:29:26Z</time>
      </trkpt>
      <trkpt lat="49.10534" lon="4.11525">
        <ele>151.4</ele>
        <time>2022-09-20T12:29:28Z</time>
      </trkpt>
      <trkpt lat="49.10511" lon="4.11541">
        <ele>150.8</ele>
        <time>2022-09-20T12:29:30Z</time>
      </trkpt>
      <trkpt lat="49.10501" lon="4.11552">
        <ele>150.2</ele>
        <time>2022-09-20T12:29:31Z</time>
      </trkpt>
      <trkpt lat="49.10478" lon="4.11577">
        <ele>149</ele>
        <time>2022-09-20T12:29:33Z</time>
      </trkpt>
      <trkpt lat="49.10468" lon="4.11589">
        <ele>148.2</ele>
        <time>2022-09-20T12:29:34Z</time>
      </trkpt>
      <trkpt lat="49.1046" lon="4.11601">
        <ele>148</ele>
        <time>2022-09-20T12:29:35Z</time>
      </trkpt>
      <trkpt lat="49.1043" lon="4.11642">
        <ele>146.8</ele>
        <time>2022-09-20T12:29:38Z</time>
      </trkpt>
      <trkpt lat="49.10414" lon="4.11667">
        <ele>146</ele>
        <time>2022-09-20T12:29:40Z</time>
      </trkpt>
      <trkpt lat="49.10406" lon="4.11679">
        <ele>145.6</ele>
        <time>2022-09-20T12:29:41Z</time>
      </trkpt>
      <trkpt lat="49.10397" lon="4.1169">
        <ele>145</ele>
        <time>2022-09-20T12:29:42Z</time>
      </trkpt>
      <trkpt lat="49.10389" lon="4.117">
        <ele>144</ele>
        <time>2022-09-20T12:29:43Z</time>
      </trkpt>
      <trkpt lat="49.10381" lon="4.11707">
        <ele>143.8</ele>
        <time>2022-09-20T12:29:44Z</time>
      </trkpt>
      <trkpt lat="49.10375" lon="4.11711">
        <ele>142.8</ele>
        <time>2022-09-20T12:29:45Z</time>
      </trkpt>
      <trkpt lat="49.10364" lon="4.11715">
        <ele>142.4</ele>
        <time>2022-09-20T12:29:46Z</time>
      </trkpt>
      <trkpt lat="49.10358" lon="4.11716">
        <ele>141.6</ele>
        <time>2022-09-20T12:29:47Z</time>
      </trkpt>
      <trkpt lat="49.10349" lon="4.11714">
        <ele>140.8</ele>
        <time>2022-09-20T12:29:48Z</time>
      </trkpt>
      <trkpt lat="49.10349" lon="4.11714">
        <ele>140.2</ele>
        <time>2022-09-20T12:29:49Z</time>
      </trkpt>
      <trkpt lat="49.10331" lon="4.11703">
        <ele>139.6</ele>
        <time>2022-09-20T12:29:50Z</time>
      </trkpt>
      <trkpt lat="49.10323" lon="4.11695">
        <ele>139</ele>
        <time>2022-09-20T12:29:51Z</time>
      </trkpt>
      <trkpt lat="49.10309" lon="4.11677">
        <ele>137.6</ele>
        <time>2022-09-20T12:29:53Z</time>
      </trkpt>
      <trkpt lat="49.10281" lon="4.11638">
        <ele>135.8</ele>
        <time>2022-09-20T12:29:57Z</time>
      </trkpt>
      <trkpt lat="49.1026" lon="4.11608">
        <ele>134.4</ele>
        <time>2022-09-20T12:30:00Z</time>
      </trkpt>
      <trkpt lat="49.10245" lon="4.11588">
        <ele>134.2</ele>
        <time>2022-09-20T12:30:02Z</time>
      </trkpt>
      <trkpt lat="49.10223" lon="4.11557">
        <ele>133.2</ele>
        <time>2022-09-20T12:30:05Z</time>
      </trkpt>
      <trkpt lat="49.10192" lon="4.11514">
        <ele>132</ele>
        <time>2022-09-20T12:30:09Z</time>
      </trkpt>
      <trkpt lat="49.10162" lon="4.11476">
        <ele>131</ele>
        <time>2022-09-20T12:30:13Z</time>
      </trkpt>
      <trkpt lat="49.10137" lon="4.11441">
        <ele>130.2</ele>
        <time>2022-09-20T12:30:17Z</time>
      </trkpt>
      <trkpt lat="49.10124" lon="4.11423">
        <ele>130</ele>
        <time>2022-09-20T12:30:19Z</time>
      </trkpt>
      <trkpt lat="49.10097" lon="4.11387">
        <ele>129.6</ele>
        <time>2022-09-20T12:30:24Z</time>
      </trkpt>
      <trkpt lat="49.10045" lon="4.1132">
        <ele>129.8</ele>
        <time>2022-09-20T12:30:31Z</time>
      </trkpt>
      <trkpt lat="49.10038" lon="4.11311">
        <ele>129.8</ele>
        <time>2022-09-20T12:30:32Z</time>
      </trkpt>
      <trkpt lat="49.09996" lon="4.11252">
        <ele>130.2</ele>
        <time>2022-09-20T12:30:39Z</time>
      </trkpt>
      <trkpt lat="49.09952" lon="4.11198">
        <ele>130.6</ele>
        <time>2022-09-20T12:30:46Z</time>
      </trkpt>
      <trkpt lat="49.09946" lon="4.1119">
        <ele>130.8</ele>
        <time>2022-09-20T12:30:47Z</time>
      </trkpt>
      <trkpt lat="49.09927" lon="4.11164">
        <ele>131.2</ele>
        <time>2022-09-20T12:30:50Z</time>
      </trkpt>
      <trkpt lat="49.0988" lon="4.11101">
        <ele>131.8</ele>
        <time>2022-09-20T12:30:57Z</time>
      </trkpt>
      <trkpt lat="49.09875" lon="4.11094">
        <ele>131.8</ele>
        <time>2022-09-20T12:30:58Z</time>
      </trkpt>
      <trkpt lat="49.09831" lon="4.11035">
        <ele>131.6</ele>
        <time>2022-09-20T12:31:04Z</time>
      </trkpt>
      <trkpt lat="49.09782" lon="4.10972">
        <ele>130.4</ele>
        <time>2022-09-20T12:31:10Z</time>
      </trkpt>
      <trkpt lat="49.09774" lon="4.10961">
        <ele>129.8</ele>
        <time>2022-09-20T12:31:11Z</time>
      </trkpt>
      <trkpt lat="49.09741" lon="4.10917">
        <ele>128.8</ele>
        <time>2022-09-20T12:31:15Z</time>
      </trkpt>
      <trkpt lat="49.09717" lon="4.10887">
        <ele>127.6</ele>
        <time>2022-09-20T12:31:18Z</time>
      </trkpt>
      <trkpt lat="49.097" lon="4.10863">
        <ele>126.8</ele>
        <time>2022-09-20T12:31:20Z</time>
      </trkpt>
      <trkpt lat="49.09685" lon="4.10844">
        <ele>126.4</ele>
        <time>2022-09-20T12:31:22Z</time>
      </trkpt>
      <trkpt lat="49.09636" lon="4.1078">
        <ele>126</ele>
        <time>2022-09-20T12:31:28Z</time>
      </trkpt>
      <trkpt lat="49.0962" lon="4.1076">
        <ele>125.8</ele>
        <time>2022-09-20T12:31:30Z</time>
      </trkpt>
      <trkpt lat="49.09573" lon="4.10699">
        <ele>125.8</ele>
        <time>2022-09-20T12:31:36Z</time>
      </trkpt>
      <trkpt lat="49.09535" lon="4.1065">
        <ele>126.8</ele>
        <time>2022-09-20T12:31:41Z</time>
      </trkpt>
      <trkpt lat="49.09499" lon="4.10603">
        <ele>128</ele>
        <time>2022-09-20T12:31:46Z</time>
      </trkpt>
      <trkpt lat="49.09469" lon="4.10564">
        <ele>129</ele>
        <time>2022-09-20T12:31:50Z</time>
      </trkpt>
      <trkpt lat="49.09428" lon="4.10509">
        <ele>129.8</ele>
        <time>2022-09-20T12:31:56Z</time>
      </trkpt>
      <trkpt lat="49.09399" lon="4.10471">
        <ele>129.8</ele>
        <time>2022-09-20T12:32:00Z</time>
      </trkpt>
      <trkpt lat="49.09354" lon="4.10411">
        <ele>128.4</ele>
        <time>2022-09-20T12:32:06Z</time>
      </trkpt>
      <trkpt lat="49.09336" lon="4.10389">
        <ele>128</ele>
        <time>2022-09-20T12:32:08Z</time>
      </trkpt>
      <trkpt lat="49.09323" lon="4.10372">
        <ele>127.4</ele>
        <time>2022-09-20T12:32:10Z</time>
      </trkpt>
      <trkpt lat="49.093" lon="4.10343">
        <ele>126.8</ele>
        <time>2022-09-20T12:32:13Z</time>
      </trkpt>
      <trkpt lat="49.09263" lon="4.10293">
        <ele>126.4</ele>
        <time>2022-09-20T12:32:18Z</time>
      </trkpt>
      <trkpt lat="49.09221" lon="4.10239">
        <ele>126</ele>
        <time>2022-09-20T12:32:24Z</time>
      </trkpt>
      <trkpt lat="49.09215" lon="4.1023">
        <ele>126</ele>
        <time>2022-09-20T12:32:25Z</time>
      </trkpt>
      <trkpt lat="49.09199" lon="4.1021">
        <ele>126</ele>
        <time>2022-09-20T12:32:27Z</time>
      </trkpt>
      <trkpt lat="49.09172" lon="4.10174">
        <ele>125.8</ele>
        <time>2022-09-20T12:32:31Z</time>
      </trkpt>
      <trkpt lat="49.09153" lon="4.10149">
        <ele>125.8</ele>
        <time>2022-09-20T12:32:34Z</time>
      </trkpt>
      <trkpt lat="49.09121" lon="4.10107">
        <ele>125.2</ele>
        <time>2022-09-20T12:32:39Z</time>
      </trkpt>
      <trkpt lat="49.09086" lon="4.10061">
        <ele>125.4</ele>
        <time>2022-09-20T12:32:45Z</time>
      </trkpt>
      <trkpt lat="49.09047" lon="4.10012">
        <ele>126.8</ele>
        <time>2022-09-20T12:32:52Z</time>
      </trkpt>
      <trkpt lat="49.09029" lon="4.09988">
        <ele>127.4</ele>
        <time>2022-09-20T12:32:55Z</time>
      </trkpt>
      <trkpt lat="49.08994" lon="4.09942">
        <ele>127.4</ele>
        <time>2022-09-20T12:33:00Z</time>
      </trkpt>
      <trkpt lat="49.08966" lon="4.09905">
        <ele>126.8</ele>
        <time>2022-09-20T12:33:04Z</time>
      </trkpt>
      <trkpt lat="49.08938" lon="4.09867">
        <ele>126.2</ele>
        <time>2022-09-20T12:33:08Z</time>
      </trkpt>
      <trkpt lat="49.08924" lon="4.09849">
        <ele>125.6</ele>
        <time>2022-09-20T12:33:10Z</time>
      </trkpt>
      <trkpt lat="49.08881" lon="4.09791">
        <ele>124.6</ele>
        <time>2022-09-20T12:33:16Z</time>
      </trkpt>
      <trkpt lat="49.08836" lon="4.09732">
        <ele>124</ele>
        <time>2022-09-20T12:33:22Z</time>
      </trkpt>
      <trkpt lat="49.08815" lon="4.09705">
        <ele>124</ele>
        <time>2022-09-20T12:33:25Z</time>
      </trkpt>
      <trkpt lat="49.08771" lon="4.09648">
        <ele>124</ele>
        <time>2022-09-20T12:33:31Z</time>
      </trkpt>
      <trkpt lat="49.08762" lon="4.09637">
        <ele>124</ele>
        <time>2022-09-20T12:33:32Z</time>
      </trkpt>
      <trkpt lat="49.08741" lon="4.09613">
        <ele>123.6</ele>
        <time>2022-09-20T12:33:35Z</time>
      </trkpt>
      <trkpt lat="49.08716" lon="4.09589">
        <ele>123.2</ele>
        <time>2022-09-20T12:33:38Z</time>
      </trkpt>
      <trkpt lat="49.08689" lon="4.09568">
        <ele>122.6</ele>
        <time>2022-09-20T12:33:41Z</time>
      </trkpt>
      <trkpt lat="49.0865" lon="4.09539">
        <ele>121.6</ele>
        <time>2022-09-20T12:33:45Z</time>
      </trkpt>
      <trkpt lat="49.0864" lon="4.09532">
        <ele>121.2</ele>
        <time>2022-09-20T12:33:46Z</time>
      </trkpt>
      <trkpt lat="49.0862" lon="4.09516">
        <ele>120</ele>
        <time>2022-09-20T12:33:48Z</time>
      </trkpt>
      <trkpt lat="49.08609" lon="4.09508">
        <ele>119.8</ele>
        <time>2022-09-20T12:33:49Z</time>
      </trkpt>
      <trkpt lat="49.08598" lon="4.09503">
        <ele>119.4</ele>
        <time>2022-09-20T12:33:50Z</time>
      </trkpt>
      <trkpt lat="49.08584" lon="4.09498">
        <ele>119</ele>
        <time>2022-09-20T12:33:51Z</time>
      </trkpt>
      <trkpt lat="49.08562" lon="4.09486">
        <ele>117.8</ele>
        <time>2022-09-20T12:33:53Z</time>
      </trkpt>
      <trkpt lat="49.08542" lon="4.09466">
        <ele>116</ele>
        <time>2022-09-20T12:33:55Z</time>
      </trkpt>
      <trkpt lat="49.08532" lon="4.09457">
        <ele>115.6</ele>
        <time>2022-09-20T12:33:56Z</time>
      </trkpt>
      <trkpt lat="49.08524" lon="4.0945">
        <ele>114.6</ele>
        <time>2022-09-20T12:33:57Z</time>
      </trkpt>
      <trkpt lat="49.08494" lon="4.09428">
        <ele>113.2</ele>
        <time>2022-09-20T12:34:00Z</time>
      </trkpt>
      <trkpt lat="49.08478" lon="4.09416">
        <ele>112.6</ele>
        <time>2022-09-20T12:34:02Z</time>
      </trkpt>
      <trkpt lat="49.08459" lon="4.09402">
        <ele>112.2</ele>
        <time>2022-09-20T12:34:04Z</time>
      </trkpt>
      <trkpt lat="49.08408" lon="4.09364">
        <ele>111.4</ele>
        <time>2022-09-20T12:34:10Z</time>
      </trkpt>
      <trkpt lat="49.08399" lon="4.09359">
        <ele>111.4</ele>
        <time>2022-09-20T12:34:11Z</time>
      </trkpt>
      <trkpt lat="49.0835" lon="4.09322">
        <ele>111</ele>
        <time>2022-09-20T12:34:17Z</time>
      </trkpt>
      <trkpt lat="49.08341" lon="4.09316">
        <ele>111</ele>
        <time>2022-09-20T12:34:18Z</time>
      </trkpt>
      <trkpt lat="49.08296" lon="4.09272">
        <ele>110.4</ele>
        <time>2022-09-20T12:34:24Z</time>
      </trkpt>
      <trkpt lat="49.08283" lon="4.09254">
        <ele>110.2</ele>
        <time>2022-09-20T12:34:26Z</time>
      </trkpt>
      <trkpt lat="49.08271" lon="4.09234">
        <ele>110</ele>
        <time>2022-09-20T12:34:28Z</time>
      </trkpt>
      <trkpt lat="49.08266" lon="4.09224">
        <ele>110</ele>
        <time>2022-09-20T12:34:29Z</time>
      </trkpt>
      <trkpt lat="49.08234" lon="4.09143">
        <ele>110.2</ele>
        <time>2022-09-20T12:34:36Z</time>
      </trkpt>
      <trkpt lat="49.08209" lon="4.0906">
        <ele>110.4</ele>
        <time>2022-09-20T12:34:43Z</time>
      </trkpt>
      <trkpt lat="49.08186" lon="4.08979">
        <ele>110.4</ele>
        <time>2022-09-20T12:34:50Z</time>
      </trkpt>
      <trkpt lat="49.08182" lon="4.08967">
        <ele>110.4</ele>
        <time>2022-09-20T12:34:51Z</time>
      </trkpt>
      <trkpt lat="49.0816" lon="4.0889">
        <ele>109.2</ele>
        <time>2022-09-20T12:34:57Z</time>
      </trkpt>
      <trkpt lat="49.08157" lon="4.08878">
        <ele>109</ele>
        <time>2022-09-20T12:34:58Z</time>
      </trkpt>
      <trkpt lat="49.08153" lon="4.08866">
        <ele>109</ele>
        <time>2022-09-20T12:34:59Z</time>
      </trkpt>
      <trkpt lat="49.08136" lon="4.08809">
        <ele>108.8</ele>
        <time>2022-09-20T12:35:04Z</time>
      </trkpt>
      <trkpt lat="49.08111" lon="4.08726">
        <ele>108.6</ele>
        <time>2022-09-20T12:35:11Z</time>
      </trkpt>
      <trkpt lat="49.08101" lon="4.0869">
        <ele>108.4</ele>
        <time>2022-09-20T12:35:14Z</time>
      </trkpt>
      <trkpt lat="49.08078" lon="4.0861">
        <ele>108</ele>
        <time>2022-09-20T12:35:21Z</time>
      </trkpt>
      <trkpt lat="49.08075" lon="4.08598">
        <ele>108.2</ele>
        <time>2022-09-20T12:35:22Z</time>
      </trkpt>
      <trkpt lat="49.08053" lon="4.08521">
        <ele>108.8</ele>
        <time>2022-09-20T12:35:29Z</time>
      </trkpt>
      <trkpt lat="49.08049" lon="4.0851">
        <ele>108.8</ele>
        <time>2022-09-20T12:35:30Z</time>
      </trkpt>
      <trkpt lat="49.08034" lon="4.08451">
        <ele>110.2</ele>
        <time>2022-09-20T12:35:35Z</time>
      </trkpt>
      <trkpt lat="49.08019" lon="4.08392">
        <ele>110.4</ele>
        <time>2022-09-20T12:35:40Z</time>
      </trkpt>
      <trkpt lat="49.07999" lon="4.08313">
        <ele>110.4</ele>
        <time>2022-09-20T12:35:47Z</time>
      </trkpt>
      <trkpt lat="49.07988" lon="4.08266">
        <ele>110.4</ele>
        <time>2022-09-20T12:35:51Z</time>
      </trkpt>
      <trkpt lat="49.07967" lon="4.08181">
        <ele>110.4</ele>
        <time>2022-09-20T12:35:58Z</time>
      </trkpt>
      <trkpt lat="49.07956" lon="4.08131">
        <ele>110</ele>
        <time>2022-09-20T12:36:03Z</time>
      </trkpt>
      <trkpt lat="49.07956" lon="4.08123">
        <ele>110</ele>
        <time>2022-09-20T12:36:04Z</time>
      </trkpt>
      <trkpt lat="49.0796" lon="4.08112">
        <ele>110</ele>
        <time>2022-09-20T12:36:06Z</time>
      </trkpt>
      <trkpt lat="49.07972" lon="4.08107">
        <ele>109.8</ele>
        <time>2022-09-20T12:36:08Z</time>
      </trkpt>
      <trkpt lat="49.07979" lon="4.08106">
        <ele>109.6</ele>
        <time>2022-09-20T12:36:09Z</time>
      </trkpt>
      <trkpt lat="49.07986" lon="4.08105">
        <ele>109.2</ele>
        <time>2022-09-20T12:36:10Z</time>
      </trkpt>
      <trkpt lat="49.08018" lon="4.08098">
        <ele>108.2</ele>
        <time>2022-09-20T12:36:14Z</time>
      </trkpt>
      <trkpt lat="49.08046" lon="4.08093">
        <ele>106.8</ele>
        <time>2022-09-20T12:36:17Z</time>
      </trkpt>
      <trkpt lat="49.08087" lon="4.08085">
        <ele>105.8</ele>
        <time>2022-09-20T12:36:22Z</time>
      </trkpt>
      <trkpt lat="49.08147" lon="4.08064">
        <ele>105.6</ele>
        <time>2022-09-20T12:36:30Z</time>
      </trkpt>
      <trkpt lat="49.08172" lon="4.08045">
        <ele>105.6</ele>
        <time>2022-09-20T12:36:34Z</time>
      </trkpt>
      <trkpt lat="49.08188" lon="4.08028">
        <ele>105.8</ele>
        <time>2022-09-20T12:36:37Z</time>
      </trkpt>
      <trkpt lat="49.08194" lon="4.08017">
        <ele>106.2</ele>
        <time>2022-09-20T12:36:39Z</time>
      </trkpt>
      <trkpt lat="49.08206" lon="4.07987">
        <ele>106.8</ele>
        <time>2022-09-20T12:36:43Z</time>
      </trkpt>
      <trkpt lat="49.08208" lon="4.07979">
        <ele>107</ele>
        <time>2022-09-20T12:36:44Z</time>
      </trkpt>
      <trkpt lat="49.08209" lon="4.07971">
        <ele>107.2</ele>
        <time>2022-09-20T12:36:45Z</time>
      </trkpt>
      <trkpt lat="49.08211" lon="4.0796">
        <ele>107.4</ele>
        <time>2022-09-20T12:36:46Z</time>
      </trkpt>
      <trkpt lat="49.08211" lon="4.07931">
        <ele>107.8</ele>
        <time>2022-09-20T12:36:49Z</time>
      </trkpt>
      <trkpt lat="49.08211" lon="4.07924">
        <ele>108</ele>
        <time>2022-09-20T12:36:50Z</time>
      </trkpt>
      <trkpt lat="49.0821" lon="4.07857">
        <ele>108.6</ele>
        <time>2022-09-20T12:36:56Z</time>
      </trkpt>
      <trkpt lat="49.08214" lon="4.07811">
        <ele>107.4</ele>
        <time>2022-09-20T12:37:00Z</time>
      </trkpt>
      <trkpt lat="49.08216" lon="4.0779">
        <ele>107</ele>
        <time>2022-09-20T12:37:02Z</time>
      </trkpt>
      <trkpt lat="49.08218" lon="4.0778">
        <ele>106.8</ele>
        <time>2022-09-20T12:37:03Z</time>
      </trkpt>
      <trkpt lat="49.08221" lon="4.07728">
        <ele>106.2</ele>
        <time>2022-09-20T12:37:08Z</time>
      </trkpt>
      <trkpt lat="49.08218" lon="4.0771">
        <ele>106.2</ele>
        <time>2022-09-20T12:37:10Z</time>
      </trkpt>
      <trkpt lat="49.08214" lon="4.07691">
        <ele>106</ele>
        <time>2022-09-20T12:37:12Z</time>
      </trkpt>
      <trkpt lat="49.08211" lon="4.07665">
        <ele>105.8</ele>
        <time>2022-09-20T12:37:14Z</time>
      </trkpt>
      <trkpt lat="49.0821" lon="4.07642">
        <ele>105.6</ele>
        <time>2022-09-20T12:37:16Z</time>
      </trkpt>
      <trkpt lat="49.0821" lon="4.0763">
        <ele>105.4</ele>
        <time>2022-09-20T12:37:17Z</time>
      </trkpt>
      <trkpt lat="49.0821" lon="4.07578">
        <ele>104.8</ele>
        <time>2022-09-20T12:37:21Z</time>
      </trkpt>
      <trkpt lat="49.0821" lon="4.07566">
        <ele>104.8</ele>
        <time>2022-09-20T12:37:22Z</time>
      </trkpt>
      <trkpt lat="49.08208" lon="4.07543">
        <ele>104.2</ele>
        <time>2022-09-20T12:37:24Z</time>
      </trkpt>
      <trkpt lat="49.08205" lon="4.07532">
        <ele>104</ele>
        <time>2022-09-20T12:37:25Z</time>
      </trkpt>
      <trkpt lat="49.08184" lon="4.07446">
        <ele>104</ele>
        <time>2022-09-20T12:37:33Z</time>
      </trkpt>
      <trkpt lat="49.08173" lon="4.07389">
        <ele>103.6</ele>
        <time>2022-09-20T12:37:38Z</time>
      </trkpt>
      <trkpt lat="49.08167" lon="4.07366">
        <ele>103.4</ele>
        <time>2022-09-20T12:37:40Z</time>
      </trkpt>
      <trkpt lat="49.08151" lon="4.07297">
        <ele>103</ele>
        <time>2022-09-20T12:37:46Z</time>
      </trkpt>
      <trkpt lat="49.08145" lon="4.07273">
        <ele>102.8</ele>
        <time>2022-09-20T12:37:48Z</time>
      </trkpt>
      <trkpt lat="49.08139" lon="4.07238">
        <ele>102.6</ele>
        <time>2022-09-20T12:37:51Z</time>
      </trkpt>
      <trkpt lat="49.08134" lon="4.07214">
        <ele>102.4</ele>
        <time>2022-09-20T12:37:53Z</time>
      </trkpt>
      <trkpt lat="49.08132" lon="4.07202">
        <ele>102.4</ele>
        <time>2022-09-20T12:37:54Z</time>
      </trkpt>
      <trkpt lat="49.08132" lon="4.0718">
        <ele>102.4</ele>
        <time>2022-09-20T12:37:56Z</time>
      </trkpt>
      <trkpt lat="49.08139" lon="4.07163">
        <ele>102.4</ele>
        <time>2022-09-20T12:37:58Z</time>
      </trkpt>
      <trkpt lat="49.08144" lon="4.07155">
        <ele>102.4</ele>
        <time>2022-09-20T12:37:59Z</time>
      </trkpt>
      <trkpt lat="49.08149" lon="4.07146">
        <ele>102.4</ele>
        <time>2022-09-20T12:38:00Z</time>
      </trkpt>
      <trkpt lat="49.08156" lon="4.07128">
        <ele>102.4</ele>
        <time>2022-09-20T12:38:02Z</time>
      </trkpt>
      <trkpt lat="49.08159" lon="4.07117">
        <ele>102.4</ele>
        <time>2022-09-20T12:38:03Z</time>
      </trkpt>
      <trkpt lat="49.08169" lon="4.07047">
        <ele>102.4</ele>
        <time>2022-09-20T12:38:09Z</time>
      </trkpt>
      <trkpt lat="49.08168" lon="4.07025">
        <ele>102.6</ele>
        <time>2022-09-20T12:38:11Z</time>
      </trkpt>
      <trkpt lat="49.08165" lon="4.07006">
        <ele>102.6</ele>
        <time>2022-09-20T12:38:13Z</time>
      </trkpt>
      <trkpt lat="49.08159" lon="4.06984">
        <ele>102.8</ele>
        <time>2022-09-20T12:38:15Z</time>
      </trkpt>
      <trkpt lat="49.08154" lon="4.06948">
        <ele>102.8</ele>
        <time>2022-09-20T12:38:18Z</time>
      </trkpt>
      <trkpt lat="49.08143" lon="4.06865">
        <ele>102.2</ele>
        <time>2022-09-20T12:38:25Z</time>
      </trkpt>
      <trkpt lat="49.08141" lon="4.06851">
        <ele>102</ele>
        <time>2022-09-20T12:38:26Z</time>
      </trkpt>
      <trkpt lat="49.08134" lon="4.06802">
        <ele>101.6</ele>
        <time>2022-09-20T12:38:30Z</time>
      </trkpt>
      <trkpt lat="49.08127" lon="4.06766">
        <ele>101.2</ele>
        <time>2022-09-20T12:38:33Z</time>
      </trkpt>
      <trkpt lat="49.08105" lon="4.06687">
        <ele>101</ele>
        <time>2022-09-20T12:38:40Z</time>
      </trkpt>
      <trkpt lat="49.08103" lon="4.06673">
        <ele>101</ele>
        <time>2022-09-20T12:38:41Z</time>
      </trkpt>
      <trkpt lat="49.08098" lon="4.06636">
        <ele>101.2</ele>
        <time>2022-09-20T12:38:44Z</time>
      </trkpt>
      <trkpt lat="49.08098" lon="4.06611">
        <ele>101.4</ele>
        <time>2022-09-20T12:38:46Z</time>
      </trkpt>
      <trkpt lat="49.08105" lon="4.06535">
        <ele>101.6</ele>
        <time>2022-09-20T12:38:52Z</time>
      </trkpt>
      <trkpt lat="49.08108" lon="4.06485">
        <ele>101.4</ele>
        <time>2022-09-20T12:38:56Z</time>
      </trkpt>
      <trkpt lat="49.08106" lon="4.06473">
        <ele>101.4</ele>
        <time>2022-09-20T12:38:57Z</time>
      </trkpt>
      <trkpt lat="49.08103" lon="4.06461">
        <ele>101.2</ele>
        <time>2022-09-20T12:38:58Z</time>
      </trkpt>
      <trkpt lat="49.08094" lon="4.06439">
        <ele>101.2</ele>
        <time>2022-09-20T12:39:00Z</time>
      </trkpt>
      <trkpt lat="49.08089" lon="4.06429">
        <ele>101</ele>
        <time>2022-09-20T12:39:01Z</time>
      </trkpt>
      <trkpt lat="49.08058" lon="4.06358">
        <ele>100.6</ele>
        <time>2022-09-20T12:39:08Z</time>
      </trkpt>
      <trkpt lat="49.08047" lon="4.06336">
        <ele>100.4</ele>
        <time>2022-09-20T12:39:10Z</time>
      </trkpt>
      <trkpt lat="49.08016" lon="4.06264">
        <ele>100.4</ele>
        <time>2022-09-20T12:39:17Z</time>
      </trkpt>
      <trkpt lat="49.07984" lon="4.06182">
        <ele>100</ele>
        <time>2022-09-20T12:39:24Z</time>
      </trkpt>
      <trkpt lat="49.0798" lon="4.06172">
        <ele>100</ele>
        <time>2022-09-20T12:39:25Z</time>
      </trkpt>
      <trkpt lat="49.07953" lon="4.06097">
        <ele>100</ele>
        <time>2022-09-20T12:39:32Z</time>
      </trkpt>
      <trkpt lat="49.07923" lon="4.06014">
        <ele>100.4</ele>
        <time>2022-09-20T12:39:40Z</time>
      </trkpt>
      <trkpt lat="49.07919" lon="4.06004">
        <ele>100.6</ele>
        <time>2022-09-20T12:39:41Z</time>
      </trkpt>
      <trkpt lat="49.07888" lon="4.05938">
        <ele>100.6</ele>
        <time>2022-09-20T12:39:48Z</time>
      </trkpt>
      <trkpt lat="49.07851" lon="4.05868">
        <ele>101</ele>
        <time>2022-09-20T12:39:56Z</time>
      </trkpt>
      <trkpt lat="49.07842" lon="4.05853">
        <ele>101.2</ele>
        <time>2022-09-20T12:39:58Z</time>
      </trkpt>
      <trkpt lat="49.07804" lon="4.05778">
        <ele>101.8</ele>
        <time>2022-09-20T12:40:06Z</time>
      </trkpt>
      <trkpt lat="49.07799" lon="4.05769">
        <ele>101.6</ele>
        <time>2022-09-20T12:40:07Z</time>
      </trkpt>
      <trkpt lat="49.07765" lon="4.05706">
        <ele>102.2</ele>
        <time>2022-09-20T12:40:14Z</time>
      </trkpt>
      <trkpt lat="49.07727" lon="4.05642">
        <ele>102.4</ele>
        <time>2022-09-20T12:40:21Z</time>
      </trkpt>
      <trkpt lat="49.0771" lon="4.05612">
        <ele>102</ele>
        <time>2022-09-20T12:40:24Z</time>
      </trkpt>
      <trkpt lat="49.07672" lon="4.05543">
        <ele>101</ele>
        <time>2022-09-20T12:40:31Z</time>
      </trkpt>
      <trkpt lat="49.0766" lon="4.05521">
        <ele>100.6</ele>
        <time>2022-09-20T12:40:33Z</time>
      </trkpt>
      <trkpt lat="49.07633" lon="4.05475">
        <ele>99.6</ele>
        <time>2022-09-20T12:40:38Z</time>
      </trkpt>
      <trkpt lat="49.07616" lon="4.05453">
        <ele>99.4</ele>
        <time>2022-09-20T12:40:41Z</time>
      </trkpt>
      <trkpt lat="49.07609" lon="4.05447">
        <ele>99.4</ele>
        <time>2022-09-20T12:40:42Z</time>
      </trkpt>
      <trkpt lat="49.07591" lon="4.05435">
        <ele>99.4</ele>
        <time>2022-09-20T12:40:45Z</time>
      </trkpt>
      <trkpt lat="49.07569" lon="4.05421">
        <ele>99.8</ele>
        <time>2022-09-20T12:40:48Z</time>
      </trkpt>
      <trkpt lat="49.07551" lon="4.0541">
        <ele>100.4</ele>
        <time>2022-09-20T12:40:51Z</time>
      </trkpt>
      <trkpt lat="49.07536" lon="4.05398">
        <ele>100.8</ele>
        <time>2022-09-20T12:40:54Z</time>
      </trkpt>
      <trkpt lat="49.07533" lon="4.05393">
        <ele>100.8</ele>
        <time>2022-09-20T12:40:55Z</time>
      </trkpt>
      <trkpt lat="49.07531" lon="4.05385">
        <ele>101.2</ele>
        <time>2022-09-20T12:40:56Z</time>
      </trkpt>
      <trkpt lat="49.07532" lon="4.05379">
        <ele>101.2</ele>
        <time>2022-09-20T12:40:57Z</time>
      </trkpt>
      <trkpt lat="49.07537" lon="4.05366">
        <ele>101.8</ele>
        <time>2022-09-20T12:41:00Z</time>
      </trkpt>
      <trkpt lat="49.07541" lon="4.0536">
        <ele>102</ele>
        <time>2022-09-20T12:41:01Z</time>
      </trkpt>
      <trkpt lat="49.07565" lon="4.0533">
        <ele>102.8</ele>
        <time>2022-09-20T12:41:07Z</time>
      </trkpt>
      <trkpt lat="49.07582" lon="4.05306">
        <ele>102.8</ele>
        <time>2022-09-20T12:41:11Z</time>
      </trkpt>
      <trkpt lat="49.07587" lon="4.05298">
        <ele>103</ele>
        <time>2022-09-20T12:41:12Z</time>
      </trkpt>
      <trkpt lat="49.07606" lon="4.05256">
        <ele>102.8</ele>
        <time>2022-09-20T12:41:17Z</time>
      </trkpt>
      <trkpt lat="49.07608" lon="4.05248">
        <ele>102.8</ele>
        <time>2022-09-20T12:41:18Z</time>
      </trkpt>
      <trkpt lat="49.07615" lon="4.05201">
        <ele>102.8</ele>
        <time>2022-09-20T12:41:23Z</time>
      </trkpt>
      <trkpt lat="49.07619" lon="4.05146">
        <ele>103.6</ele>
        <time>2022-09-20T12:41:30Z</time>
      </trkpt>
      <trkpt lat="49.07619" lon="4.05138">
        <ele>103.8</ele>
        <time>2022-09-20T12:41:31Z</time>
      </trkpt>
      <trkpt lat="49.07621" lon="4.05103">
        <ele>105.4</ele>
        <time>2022-09-20T12:41:36Z</time>
      </trkpt>
      <trkpt lat="49.07622" lon="4.05089">
        <ele>105.6</ele>
        <time>2022-09-20T12:41:38Z</time>
      </trkpt>
      <trkpt lat="49.07623" lon="4.05052">
        <ele>106.4</ele>
        <time>2022-09-20T12:41:44Z</time>
      </trkpt>
      <trkpt lat="49.07623" lon="4.05045">
        <ele>106.6</ele>
        <time>2022-09-20T12:41:45Z</time>
      </trkpt>
      <trkpt lat="49.07627" lon="4.05007">
        <ele>107.6</ele>
        <time>2022-09-20T12:41:51Z</time>
      </trkpt>
      <trkpt lat="49.07627" lon="4.05001">
        <ele>107.8</ele>
        <time>2022-09-20T12:41:52Z</time>
      </trkpt>
      <trkpt lat="49.07629" lon="4.04977">
        <ele>108.6</ele>
        <time>2022-09-20T12:41:56Z</time>
      </trkpt>
      <trkpt lat="49.07629" lon="4.04971">
        <ele>108.8</ele>
        <time>2022-09-20T12:41:57Z</time>
      </trkpt>
      <trkpt lat="49.0763" lon="4.04958">
        <ele>109.2</ele>
        <time>2022-09-20T12:41:59Z</time>
      </trkpt>
      <trkpt lat="49.07631" lon="4.04952">
        <ele>109.8</ele>
        <time>2022-09-20T12:42:00Z</time>
      </trkpt>
      <trkpt lat="49.07632" lon="4.04921">
        <ele>111</ele>
        <time>2022-09-20T12:42:05Z</time>
      </trkpt>
      <trkpt lat="49.07632" lon="4.04908">
        <ele>111.6</ele>
        <time>2022-09-20T12:42:07Z</time>
      </trkpt>
      <trkpt lat="49.07633" lon="4.04902">
        <ele>112</ele>
        <time>2022-09-20T12:42:08Z</time>
      </trkpt>
      <trkpt lat="49.07633" lon="4.04889">
        <ele>112.6</ele>
        <time>2022-09-20T12:42:10Z</time>
      </trkpt>
      <trkpt lat="49.07631" lon="4.04871">
        <ele>113.4</ele>
        <time>2022-09-20T12:42:13Z</time>
      </trkpt>
      <trkpt lat="49.07629" lon="4.04865">
        <ele>113.6</ele>
        <time>2022-09-20T12:42:14Z</time>
      </trkpt>
      <trkpt lat="49.07623" lon="4.04847">
        <ele>114.4</ele>
        <time>2022-09-20T12:42:18Z</time>
      </trkpt>
      <trkpt lat="49.0762" lon="4.04846">
        <ele>114.4</ele>
        <time>2022-09-20T12:42:19Z</time>
      </trkpt>
      <trkpt lat="49.07604" lon="4.04854">
        <ele>115.6</ele>
        <time>2022-09-20T12:42:23Z</time>
      </trkpt>
      <trkpt lat="49.07601" lon="4.04856">
        <ele>115.6</ele>
        <time>2022-09-20T12:42:24Z</time>
      </trkpt>
      <trkpt lat="49.07584" lon="4.04865">
        <ele>116.6</ele>
        <time>2022-09-20T12:42:29Z</time>
      </trkpt>
      <trkpt lat="49.07573" lon="4.04867">
        <ele>117.4</ele>
        <time>2022-09-20T12:42:32Z</time>
      </trkpt>
      <trkpt lat="49.07569" lon="4.04868">
        <ele>117.6</ele>
        <time>2022-09-20T12:42:33Z</time>
      </trkpt>
      <trkpt lat="49.07558" lon="4.04868">
        <ele>118.6</ele>
        <time>2022-09-20T12:42:36Z</time>
      </trkpt>
      <trkpt lat="49.07543" lon="4.04865">
        <ele>119.4</ele>
        <time>2022-09-20T12:42:40Z</time>
      </trkpt>
      <trkpt lat="49.07535" lon="4.04863">
        <ele>120</ele>
        <time>2022-09-20T12:42:42Z</time>
      </trkpt>
      <trkpt lat="49.07514" lon="4.0485">
        <ele>121.2</ele>
        <time>2022-09-20T12:42:47Z</time>
      </trkpt>
      <trkpt lat="49.0751" lon="4.04847">
        <ele>121.4</ele>
        <time>2022-09-20T12:42:48Z</time>
      </trkpt>
      <trkpt lat="49.07493" lon="4.04833">
        <ele>121.6</ele>
        <time>2022-09-20T12:42:52Z</time>
      </trkpt>
      <trkpt lat="49.07475" lon="4.0482">
        <ele>122.4</ele>
        <time>2022-09-20T12:42:56Z</time>
      </trkpt>
      <trkpt lat="49.0747" lon="4.04816">
        <ele>122.6</ele>
        <time>2022-09-20T12:42:57Z</time>
      </trkpt>
      <trkpt lat="49.07433" lon="4.04787">
        <ele>123.6</ele>
        <time>2022-09-20T12:43:05Z</time>
      </trkpt>
      <trkpt lat="49.07428" lon="4.04783">
        <ele>123.6</ele>
        <time>2022-09-20T12:43:06Z</time>
      </trkpt>
      <trkpt lat="49.07387" lon="4.04753">
        <ele>124.6</ele>
        <time>2022-09-20T12:43:15Z</time>
      </trkpt>
      <trkpt lat="49.07381" lon="4.0475">
        <ele>124.8</ele>
        <time>2022-09-20T12:43:16Z</time>
      </trkpt>
      <trkpt lat="49.07346" lon="4.04733">
        <ele>125.2</ele>
        <time>2022-09-20T12:43:23Z</time>
      </trkpt>
      <trkpt lat="49.0733" lon="4.04726">
        <ele>125.4</ele>
        <time>2022-09-20T12:43:26Z</time>
      </trkpt>
      <trkpt lat="49.07291" lon="4.0471">
        <ele>125.4</ele>
        <time>2022-09-20T12:43:32Z</time>
      </trkpt>
      <trkpt lat="49.07249" lon="4.04689">
        <ele>124.6</ele>
        <time>2022-09-20T12:43:37Z</time>
      </trkpt>
      <trkpt lat="49.07222" lon="4.04673">
        <ele>123.2</ele>
        <time>2022-09-20T12:43:40Z</time>
      </trkpt>
      <trkpt lat="49.07207" lon="4.04661">
        <ele>122.2</ele>
        <time>2022-09-20T12:43:42Z</time>
      </trkpt>
      <trkpt lat="49.072" lon="4.04654">
        <ele>121.2</ele>
        <time>2022-09-20T12:43:43Z</time>
      </trkpt>
      <trkpt lat="49.07193" lon="4.04647">
        <ele>120.6</ele>
        <time>2022-09-20T12:43:44Z</time>
      </trkpt>
      <trkpt lat="49.07187" lon="4.04639">
        <ele>119.6</ele>
        <time>2022-09-20T12:43:45Z</time>
      </trkpt>
      <trkpt lat="49.07181" lon="4.04631">
        <ele>119.2</ele>
        <time>2022-09-20T12:43:46Z</time>
      </trkpt>
      <trkpt lat="49.07177" lon="4.04623">
        <ele>118.2</ele>
        <time>2022-09-20T12:43:47Z</time>
      </trkpt>
      <trkpt lat="49.07165" lon="4.04601">
        <ele>117</ele>
        <time>2022-09-20T12:43:49Z</time>
      </trkpt>
      <trkpt lat="49.0716" lon="4.04589">
        <ele>115.8</ele>
        <time>2022-09-20T12:43:50Z</time>
      </trkpt>
      <trkpt lat="49.07155" lon="4.04577">
        <ele>115.4</ele>
        <time>2022-09-20T12:43:51Z</time>
      </trkpt>
      <trkpt lat="49.07151" lon="4.04567">
        <ele>114.6</ele>
        <time>2022-09-20T12:43:52Z</time>
      </trkpt>
      <trkpt lat="49.07146" lon="4.04557">
        <ele>114.2</ele>
        <time>2022-09-20T12:43:53Z</time>
      </trkpt>
      <trkpt lat="49.07138" lon="4.04549">
        <ele>113.6</ele>
        <time>2022-09-20T12:43:54Z</time>
      </trkpt>
      <trkpt lat="49.07129" lon="4.04546">
        <ele>113</ele>
        <time>2022-09-20T12:43:55Z</time>
      </trkpt>
      <trkpt lat="49.07109" lon="4.04541">
        <ele>111.8</ele>
        <time>2022-09-20T12:43:57Z</time>
      </trkpt>
      <trkpt lat="49.07101" lon="4.04539">
        <ele>111.4</ele>
        <time>2022-09-20T12:43:58Z</time>
      </trkpt>
      <trkpt lat="49.0709" lon="4.04537">
        <ele>110.6</ele>
        <time>2022-09-20T12:43:59Z</time>
      </trkpt>
      <trkpt lat="49.07062" lon="4.04531">
        <ele>108.8</ele>
        <time>2022-09-20T12:44:02Z</time>
      </trkpt>
      <trkpt lat="49.0704" lon="4.04529">
        <ele>107.6</ele>
        <time>2022-09-20T12:44:04Z</time>
      </trkpt>
      <trkpt lat="49.07031" lon="4.04528">
        <ele>107.2</ele>
        <time>2022-09-20T12:44:05Z</time>
      </trkpt>
      <trkpt lat="49.07014" lon="4.04526">
        <ele>106.4</ele>
        <time>2022-09-20T12:44:07Z</time>
      </trkpt>
      <trkpt lat="49.06989" lon="4.04525">
        <ele>106</ele>
        <time>2022-09-20T12:44:10Z</time>
      </trkpt>
      <trkpt lat="49.0698" lon="4.04528">
        <ele>105.8</ele>
        <time>2022-09-20T12:44:11Z</time>
      </trkpt>
      <trkpt lat="49.06963" lon="4.04536">
        <ele>105.4</ele>
        <time>2022-09-20T12:44:13Z</time>
      </trkpt>
      <trkpt lat="49.06932" lon="4.04549">
        <ele>104.8</ele>
        <time>2022-09-20T12:44:17Z</time>
      </trkpt>
      <trkpt lat="49.06917" lon="4.04543">
        <ele>104.4</ele>
        <time>2022-09-20T12:44:19Z</time>
      </trkpt>
      <trkpt lat="49.06897" lon="4.04514">
        <ele>103.8</ele>
        <time>2022-09-20T12:44:23Z</time>
      </trkpt>
      <trkpt lat="49.06888" lon="4.04503">
        <ele>103.6</ele>
        <time>2022-09-20T12:44:25Z</time>
      </trkpt>
      <trkpt lat="49.06875" lon="4.04486">
        <ele>104</ele>
        <time>2022-09-20T12:44:28Z</time>
      </trkpt>
      <trkpt lat="49.06866" lon="4.04475">
        <ele>104</ele>
        <time>2022-09-20T12:44:30Z</time>
      </trkpt>
      <trkpt lat="49.06848" lon="4.04454">
        <ele>104.4</ele>
        <time>2022-09-20T12:44:34Z</time>
      </trkpt>
      <trkpt lat="49.06841" lon="4.04446">
        <ele>105.2</ele>
        <time>2022-09-20T12:44:36Z</time>
      </trkpt>
      <trkpt lat="49.06836" lon="4.04442">
        <ele>105.6</ele>
        <time>2022-09-20T12:44:37Z</time>
      </trkpt>
      <trkpt lat="49.06825" lon="4.04434">
        <ele>106.4</ele>
        <time>2022-09-20T12:44:39Z</time>
      </trkpt>
      <trkpt lat="49.06815" lon="4.04427">
        <ele>106.8</ele>
        <time>2022-09-20T12:44:41Z</time>
      </trkpt>
      <trkpt lat="49.06799" lon="4.04418">
        <ele>107.6</ele>
        <time>2022-09-20T12:44:44Z</time>
      </trkpt>
      <trkpt lat="49.06793" lon="4.04416">
        <ele>107.8</ele>
        <time>2022-09-20T12:44:45Z</time>
      </trkpt>
      <trkpt lat="49.06788" lon="4.04414">
        <ele>108</ele>
        <time>2022-09-20T12:44:46Z</time>
      </trkpt>
      <trkpt lat="49.06776" lon="4.04412">
        <ele>108.4</ele>
        <time>2022-09-20T12:44:48Z</time>
      </trkpt>
      <trkpt lat="49.06756" lon="4.0441">
        <ele>108.8</ele>
        <time>2022-09-20T12:44:51Z</time>
      </trkpt>
      <trkpt lat="49.06749" lon="4.0441">
        <ele>108.8</ele>
        <time>2022-09-20T12:44:52Z</time>
      </trkpt>
      <trkpt lat="49.06714" lon="4.04409">
        <ele>110</ele>
        <time>2022-09-20T12:44:57Z</time>
      </trkpt>
      <trkpt lat="49.06695" lon="4.04409">
        <ele>110.4</ele>
        <time>2022-09-20T12:45:00Z</time>
      </trkpt>
      <trkpt lat="49.06681" lon="4.04411">
        <ele>110.6</ele>
        <time>2022-09-20T12:45:02Z</time>
      </trkpt>
      <trkpt lat="49.06659" lon="4.04419">
        <ele>110.6</ele>
        <time>2022-09-20T12:45:05Z</time>
      </trkpt>
      <trkpt lat="49.06638" lon="4.04428">
        <ele>110.4</ele>
        <time>2022-09-20T12:45:08Z</time>
      </trkpt>
      <trkpt lat="49.06617" lon="4.04438">
        <ele>110.2</ele>
        <time>2022-09-20T12:45:11Z</time>
      </trkpt>
      <trkpt lat="49.06603" lon="4.04443">
        <ele>110.2</ele>
        <time>2022-09-20T12:45:13Z</time>
      </trkpt>
      <trkpt lat="49.0659" lon="4.04444">
        <ele>110.2</ele>
        <time>2022-09-20T12:45:15Z</time>
      </trkpt>
      <trkpt lat="49.06547" lon="4.04438">
        <ele>110</ele>
        <time>2022-09-20T12:45:22Z</time>
      </trkpt>
      <trkpt lat="49.06532" lon="4.04436">
        <ele>111.4</ele>
        <time>2022-09-20T12:45:25Z</time>
      </trkpt>
      <trkpt lat="49.06512" lon="4.04434">
        <ele>112.4</ele>
        <time>2022-09-20T12:45:29Z</time>
      </trkpt>
      <trkpt lat="49.06507" lon="4.04434">
        <ele>112.4</ele>
        <time>2022-09-20T12:45:30Z</time>
      </trkpt>
      <trkpt lat="49.06482" lon="4.04432">
        <ele>113.6</ele>
        <time>2022-09-20T12:45:35Z</time>
      </trkpt>
      <trkpt lat="49.06473" lon="4.0443">
        <ele>114</ele>
        <time>2022-09-20T12:45:37Z</time>
      </trkpt>
      <trkpt lat="49.06468" lon="4.04429">
        <ele>114.2</ele>
        <time>2022-09-20T12:45:38Z</time>
      </trkpt>
      <trkpt lat="49.06459" lon="4.04424">
        <ele>114.6</ele>
        <time>2022-09-20T12:45:40Z</time>
      </trkpt>
      <trkpt lat="49.06455" lon="4.04421">
        <ele>114.8</ele>
        <time>2022-09-20T12:45:41Z</time>
      </trkpt>
      <trkpt lat="49.06451" lon="4.04417">
        <ele>115.2</ele>
        <time>2022-09-20T12:45:42Z</time>
      </trkpt>
      <trkpt lat="49.06447" lon="4.04413">
        <ele>115.4</ele>
        <time>2022-09-20T12:45:43Z</time>
      </trkpt>
      <trkpt lat="49.06441" lon="4.044">
        <ele>116</ele>
        <time>2022-09-20T12:45:45Z</time>
      </trkpt>
      <trkpt lat="49.06439" lon="4.04393">
        <ele>116.2</ele>
        <time>2022-09-20T12:45:46Z</time>
      </trkpt>
      <trkpt lat="49.06436" lon="4.04379">
        <ele>116.6</ele>
        <time>2022-09-20T12:45:48Z</time>
      </trkpt>
      <trkpt lat="49.06436" lon="4.04363">
        <ele>117.2</ele>
        <time>2022-09-20T12:45:50Z</time>
      </trkpt>
      <trkpt lat="49.06435" lon="4.04347">
        <ele>117.4</ele>
        <time>2022-09-20T12:45:52Z</time>
      </trkpt>
      <trkpt lat="49.06432" lon="4.04332">
        <ele>117.6</ele>
        <time>2022-09-20T12:45:54Z</time>
      </trkpt>
      <trkpt lat="49.06429" lon="4.04326">
        <ele>117.6</ele>
        <time>2022-09-20T12:45:55Z</time>
      </trkpt>
      <trkpt lat="49.06425" lon="4.04321">
        <ele>117.6</ele>
        <time>2022-09-20T12:45:56Z</time>
      </trkpt>
      <trkpt lat="49.06414" lon="4.04314">
        <ele>117.6</ele>
        <time>2022-09-20T12:45:58Z</time>
      </trkpt>
      <trkpt lat="49.06408" lon="4.04312">
        <ele>117.8</ele>
        <time>2022-09-20T12:45:59Z</time>
      </trkpt>
      <trkpt lat="49.06364" lon="4.04313">
        <ele>118</ele>
        <time>2022-09-20T12:46:05Z</time>
      </trkpt>
      <trkpt lat="49.06319" lon="4.04311">
        <ele>118</ele>
        <time>2022-09-20T12:46:11Z</time>
      </trkpt>
      <trkpt lat="49.06272" lon="4.04296">
        <ele>118.2</ele>
        <time>2022-09-20T12:46:18Z</time>
      </trkpt>
      <trkpt lat="49.06264" lon="4.04293">
        <ele>118.2</ele>
        <time>2022-09-20T12:46:19Z</time>
      </trkpt>
      <trkpt lat="49.06257" lon="4.0429">
        <ele>118.4</ele>
        <time>2022-09-20T12:46:20Z</time>
      </trkpt>
      <trkpt lat="49.06227" lon="4.04275">
        <ele>119.4</ele>
        <time>2022-09-20T12:46:25Z</time>
      </trkpt>
      <trkpt lat="49.06223" lon="4.04272">
        <ele>119.4</ele>
        <time>2022-09-20T12:46:26Z</time>
      </trkpt>
      <trkpt lat="49.06184" lon="4.04248">
        <ele>120.2</ele>
        <time>2022-09-20T12:46:33Z</time>
      </trkpt>
      <trkpt lat="49.06179" lon="4.04244">
        <ele>120.4</ele>
        <time>2022-09-20T12:46:34Z</time>
      </trkpt>
      <trkpt lat="49.06149" lon="4.04222">
        <ele>121.6</ele>
        <time>2022-09-20T12:46:40Z</time>
      </trkpt>
      <trkpt lat="49.06135" lon="4.04209">
        <ele>123</ele>
        <time>2022-09-20T12:46:43Z</time>
      </trkpt>
      <trkpt lat="49.0612" lon="4.04197">
        <ele>123.8</ele>
        <time>2022-09-20T12:46:46Z</time>
      </trkpt>
      <trkpt lat="49.06115" lon="4.04193">
        <ele>124</ele>
        <time>2022-09-20T12:46:47Z</time>
      </trkpt>
      <trkpt lat="49.06105" lon="4.04184">
        <ele>124.2</ele>
        <time>2022-09-20T12:46:49Z</time>
      </trkpt>
      <trkpt lat="49.06083" lon="4.04162">
        <ele>125.2</ele>
        <time>2022-09-20T12:46:54Z</time>
      </trkpt>
      <trkpt lat="49.06075" lon="4.04154">
        <ele>125.8</ele>
        <time>2022-09-20T12:46:56Z</time>
      </trkpt>
      <trkpt lat="49.06065" lon="4.04144">
        <ele>126.4</ele>
        <time>2022-09-20T12:46:58Z</time>
      </trkpt>
      <trkpt lat="49.06032" lon="4.04108">
        <ele>127.4</ele>
        <time>2022-09-20T12:47:05Z</time>
      </trkpt>
      <trkpt lat="49.06027" lon="4.04102">
        <ele>127.4</ele>
        <time>2022-09-20T12:47:06Z</time>
      </trkpt>
      <trkpt lat="49.05987" lon="4.04051">
        <ele>127.6</ele>
        <time>2022-09-20T12:47:14Z</time>
      </trkpt>
      <trkpt lat="49.05955" lon="4.04">
        <ele>127</ele>
        <time>2022-09-20T12:47:20Z</time>
      </trkpt>
      <trkpt lat="49.05929" lon="4.03956">
        <ele>126.2</ele>
        <time>2022-09-20T12:47:24Z</time>
      </trkpt>
      <trkpt lat="49.05914" lon="4.0393">
        <ele>125.4</ele>
        <time>2022-09-20T12:47:26Z</time>
      </trkpt>
      <trkpt lat="49.05909" lon="4.0392">
        <ele>125.2</ele>
        <time>2022-09-20T12:47:27Z</time>
      </trkpt>
      <trkpt lat="49.05888" lon="4.03883">
        <ele>123.8</ele>
        <time>2022-09-20T12:47:30Z</time>
      </trkpt>
      <trkpt lat="49.05872" lon="4.03858">
        <ele>123.2</ele>
        <time>2022-09-20T12:47:32Z</time>
      </trkpt>
      <trkpt lat="49.05863" lon="4.03845">
        <ele>122.6</ele>
        <time>2022-09-20T12:47:33Z</time>
      </trkpt>
      <trkpt lat="49.05844" lon="4.03813">
        <ele>121.4</ele>
        <time>2022-09-20T12:47:35Z</time>
      </trkpt>
      <trkpt lat="49.05829" lon="4.03786">
        <ele>120</ele>
        <time>2022-09-20T12:47:37Z</time>
      </trkpt>
      <trkpt lat="49.05807" lon="4.03731">
        <ele>118.4</ele>
        <time>2022-09-20T12:47:40Z</time>
      </trkpt>
      <trkpt lat="49.05803" lon="4.03717">
        <ele>118</ele>
        <time>2022-09-20T12:47:41Z</time>
      </trkpt>
      <trkpt lat="49.05797" lon="4.037">
        <ele>116.4</ele>
        <time>2022-09-20T12:47:42Z</time>
      </trkpt>
      <trkpt lat="49.05787" lon="4.03667">
        <ele>115.2</ele>
        <time>2022-09-20T12:47:44Z</time>
      </trkpt>
      <trkpt lat="49.05778" lon="4.03634">
        <ele>114.6</ele>
        <time>2022-09-20T12:47:46Z</time>
      </trkpt>
      <trkpt lat="49.05774" lon="4.03617">
        <ele>114.2</ele>
        <time>2022-09-20T12:47:47Z</time>
      </trkpt>
      <trkpt lat="49.05753" lon="4.03538">
        <ele>113</ele>
        <time>2022-09-20T12:47:52Z</time>
      </trkpt>
      <trkpt lat="49.05748" lon="4.03519">
        <ele>113</ele>
        <time>2022-09-20T12:47:53Z</time>
      </trkpt>
      <trkpt lat="49.05726" lon="4.03428">
        <ele>112.2</ele>
        <time>2022-09-20T12:47:59Z</time>
      </trkpt>
      <trkpt lat="49.05718" lon="4.03399">
        <ele>112</ele>
        <time>2022-09-20T12:48:01Z</time>
      </trkpt>
      <trkpt lat="49.05698" lon="4.03317">
        <ele>111.6</ele>
        <time>2022-09-20T12:48:07Z</time>
      </trkpt>
      <trkpt lat="49.05679" lon="4.03239">
        <ele>111.6</ele>
        <time>2022-09-20T12:48:13Z</time>
      </trkpt>
      <trkpt lat="49.05677" lon="4.03226">
        <ele>111.6</ele>
        <time>2022-09-20T12:48:14Z</time>
      </trkpt>
      <trkpt lat="49.05659" lon="4.03142">
        <ele>112.2</ele>
        <time>2022-09-20T12:48:21Z</time>
      </trkpt>
      <trkpt lat="49.05654" lon="4.0312">
        <ele>112.2</ele>
        <time>2022-09-20T12:48:23Z</time>
      </trkpt>
      <trkpt lat="49.05644" lon="4.03076">
        <ele>113.2</ele>
        <time>2022-09-20T12:48:27Z</time>
      </trkpt>
      <trkpt lat="49.05632" lon="4.03022">
        <ele>114.2</ele>
        <time>2022-09-20T12:48:32Z</time>
      </trkpt>
      <trkpt lat="49.05629" lon="4.03012">
        <ele>114.4</ele>
        <time>2022-09-20T12:48:33Z</time>
      </trkpt>
      <trkpt lat="49.05622" lon="4.0298">
        <ele>115.4</ele>
        <time>2022-09-20T12:48:36Z</time>
      </trkpt>
      <trkpt lat="49.05606" lon="4.02923">
        <ele>116.2</ele>
        <time>2022-09-20T12:48:41Z</time>
      </trkpt>
      <trkpt lat="49.05584" lon="4.02845">
        <ele>115.8</ele>
        <time>2022-09-20T12:48:47Z</time>
      </trkpt>
      <trkpt lat="49.05558" lon="4.02755">
        <ele>114</ele>
        <time>2022-09-20T12:48:53Z</time>
      </trkpt>
      <trkpt lat="49.0554" lon="4.02691">
        <ele>113</ele>
        <time>2022-09-20T12:48:57Z</time>
      </trkpt>
      <trkpt lat="49.05531" lon="4.02658">
        <ele>112</ele>
        <time>2022-09-20T12:48:59Z</time>
      </trkpt>
      <trkpt lat="49.05522" lon="4.02624">
        <ele>110.6</ele>
        <time>2022-09-20T12:49:01Z</time>
      </trkpt>
      <trkpt lat="49.05513" lon="4.02591">
        <ele>109.4</ele>
        <time>2022-09-20T12:49:03Z</time>
      </trkpt>
      <trkpt lat="49.05501" lon="4.02545">
        <ele>108</ele>
        <time>2022-09-20T12:49:06Z</time>
      </trkpt>
      <trkpt lat="49.05491" lon="4.02508">
        <ele>106.8</ele>
        <time>2022-09-20T12:49:08Z</time>
      </trkpt>
      <trkpt lat="49.05487" lon="4.02492">
        <ele>106.4</ele>
        <time>2022-09-20T12:49:09Z</time>
      </trkpt>
      <trkpt lat="49.05474" lon="4.02444">
        <ele>106</ele>
        <time>2022-09-20T12:49:12Z</time>
      </trkpt>
      <trkpt lat="49.0547" lon="4.02428">
        <ele>105.2</ele>
        <time>2022-09-20T12:49:13Z</time>
      </trkpt>
      <trkpt lat="49.05458" lon="4.02368">
        <ele>104.2</ele>
        <time>2022-09-20T12:49:17Z</time>
      </trkpt>
      <trkpt lat="49.05457" lon="4.02311">
        <ele>103.2</ele>
        <time>2022-09-20T12:49:21Z</time>
      </trkpt>
      <trkpt lat="49.05457" lon="4.02297">
        <ele>103.2</ele>
        <time>2022-09-20T12:49:22Z</time>
      </trkpt>
      <trkpt lat="49.05459" lon="4.02244">
        <ele>102.8</ele>
        <time>2022-09-20T12:49:26Z</time>
      </trkpt>
      <trkpt lat="49.05462" lon="4.02172">
        <ele>102.6</ele>
        <time>2022-09-20T12:49:32Z</time>
      </trkpt>
      <trkpt lat="49.05463" lon="4.02096">
        <ele>103.2</ele>
        <time>2022-09-20T12:49:39Z</time>
      </trkpt>
      <trkpt lat="49.05461" lon="4.02017">
        <ele>103.4</ele>
        <time>2022-09-20T12:49:46Z</time>
      </trkpt>
      <trkpt lat="49.05449" lon="4.01947">
        <ele>103.4</ele>
        <time>2022-09-20T12:49:52Z</time>
      </trkpt>
      <trkpt lat="49.05445" lon="4.01922">
        <ele>103</ele>
        <time>2022-09-20T12:49:54Z</time>
      </trkpt>
      <trkpt lat="49.05436" lon="4.01868">
        <ele>102.6</ele>
        <time>2022-09-20T12:49:58Z</time>
      </trkpt>
      <trkpt lat="49.05433" lon="4.01855">
        <ele>102.2</ele>
        <time>2022-09-20T12:49:59Z</time>
      </trkpt>
      <trkpt lat="49.0542" lon="4.01799">
        <ele>101</ele>
        <time>2022-09-20T12:50:03Z</time>
      </trkpt>
      <trkpt lat="49.05407" lon="4.01755">
        <ele>99.6</ele>
        <time>2022-09-20T12:50:06Z</time>
      </trkpt>
      <trkpt lat="49.05399" lon="4.01726">
        <ele>98.4</ele>
        <time>2022-09-20T12:50:08Z</time>
      </trkpt>
      <trkpt lat="49.0539" lon="4.01696">
        <ele>97.4</ele>
        <time>2022-09-20T12:50:10Z</time>
      </trkpt>
      <trkpt lat="49.05386" lon="4.01682">
        <ele>97.2</ele>
        <time>2022-09-20T12:50:11Z</time>
      </trkpt>
      <trkpt lat="49.05373" lon="4.01637">
        <ele>96.2</ele>
        <time>2022-09-20T12:50:14Z</time>
      </trkpt>
      <trkpt lat="49.05361" lon="4.01593">
        <ele>94.6</ele>
        <time>2022-09-20T12:50:17Z</time>
      </trkpt>
      <trkpt lat="49.05348" lon="4.0155">
        <ele>93.4</ele>
        <time>2022-09-20T12:50:20Z</time>
      </trkpt>
      <trkpt lat="49.05328" lon="4.01483">
        <ele>92.2</ele>
        <time>2022-09-20T12:50:25Z</time>
      </trkpt>
      <trkpt lat="49.05321" lon="4.01457">
        <ele>91.8</ele>
        <time>2022-09-20T12:50:27Z</time>
      </trkpt>
      <trkpt lat="49.05295" lon="4.0137">
        <ele>91.2</ele>
        <time>2022-09-20T12:50:34Z</time>
      </trkpt>
      <trkpt lat="49.05292" lon="4.01358">
        <ele>91</ele>
        <time>2022-09-20T12:50:35Z</time>
      </trkpt>
      <trkpt lat="49.05288" lon="4.01346">
        <ele>90.8</ele>
        <time>2022-09-20T12:50:36Z</time>
      </trkpt>
      <trkpt lat="49.05265" lon="4.01269">
        <ele>90</ele>
        <time>2022-09-20T12:50:43Z</time>
      </trkpt>
      <trkpt lat="49.05261" lon="4.01256">
        <ele>90</ele>
        <time>2022-09-20T12:50:44Z</time>
      </trkpt>
      <trkpt lat="49.05242" lon="4.01195">
        <ele>89.2</ele>
        <time>2022-09-20T12:50:50Z</time>
      </trkpt>
      <trkpt lat="49.05239" lon="4.01187">
        <ele>89.2</ele>
        <time>2022-09-20T12:50:51Z</time>
      </trkpt>
      <trkpt lat="49.05235" lon="4.01172">
        <ele>89</ele>
        <time>2022-09-20T12:50:53Z</time>
      </trkpt>
      <trkpt lat="49.05234" lon="4.0116">
        <ele>88.8</ele>
        <time>2022-09-20T12:50:55Z</time>
      </trkpt>
      <trkpt lat="49.05235" lon="4.01156">
        <ele>88.8</ele>
        <time>2022-09-20T12:50:56Z</time>
      </trkpt>
      <trkpt lat="49.05238" lon="4.01154">
        <ele>88.6</ele>
        <time>2022-09-20T12:50:57Z</time>
      </trkpt>
      <trkpt lat="49.05253" lon="4.01161">
        <ele>88.4</ele>
        <time>2022-09-20T12:51:01Z</time>
      </trkpt>
      <trkpt lat="49.05282" lon="4.01176">
        <ele>89</ele>
        <time>2022-09-20T12:51:08Z</time>
      </trkpt>
      <trkpt lat="49.05292" lon="4.01181">
        <ele>89.2</ele>
        <time>2022-09-20T12:51:10Z</time>
      </trkpt>
      <trkpt lat="49.05308" lon="4.01187">
        <ele>89.6</ele>
        <time>2022-09-20T12:51:13Z</time>
      </trkpt>
      <trkpt lat="49.05328" lon="4.01196">
        <ele>90</ele>
        <time>2022-09-20T12:51:17Z</time>
      </trkpt>
      <trkpt lat="49.0535" lon="4.01205">
        <ele>90.2</ele>
        <time>2022-09-20T12:51:21Z</time>
      </trkpt>
      <trkpt lat="49.05376" lon="4.01217">
        <ele>91</ele>
        <time>2022-09-20T12:51:26Z</time>
      </trkpt>
      <trkpt lat="49.05397" lon="4.01226">
        <ele>91.4</ele>
        <time>2022-09-20T12:51:30Z</time>
      </trkpt>
      <trkpt lat="49.05434" lon="4.01241">
        <ele>92.2</ele>
        <time>2022-09-20T12:51:38Z</time>
      </trkpt>
      <trkpt lat="49.05465" lon="4.01255">
        <ele>93.4</ele>
        <time>2022-09-20T12:51:45Z</time>
      </trkpt>
      <trkpt lat="49.05469" lon="4.01256">
        <ele>93.4</ele>
        <time>2022-09-20T12:51:46Z</time>
      </trkpt>
      <trkpt lat="49.055" lon="4.0127">
        <ele>94.6</ele>
        <time>2022-09-20T12:51:54Z</time>
      </trkpt>
      <trkpt lat="49.05525" lon="4.01273">
        <ele>95.4</ele>
        <time>2022-09-20T12:52:01Z</time>
      </trkpt>
      <trkpt lat="49.05532" lon="4.01269">
        <ele>95.6</ele>
        <time>2022-09-20T12:52:03Z</time>
      </trkpt>
      <trkpt lat="49.05548" lon="4.01259">
        <ele>96.2</ele>
        <time>2022-09-20T12:52:07Z</time>
      </trkpt>
      <trkpt lat="49.05552" lon="4.01257">
        <ele>96.4</ele>
        <time>2022-09-20T12:52:08Z</time>
      </trkpt>
      <trkpt lat="49.05566" lon="4.01255">
        <ele>96.8</ele>
        <time>2022-09-20T12:52:11Z</time>
      </trkpt>
      <trkpt lat="49.05581" lon="4.01251">
        <ele>97.4</ele>
        <time>2022-09-20T12:52:14Z</time>
      </trkpt>
      <trkpt lat="49.05615" lon="4.01245">
        <ele>98</ele>
        <time>2022-09-20T12:52:21Z</time>
      </trkpt>
      <trkpt lat="49.05649" lon="4.01239">
        <ele>98</ele>
        <time>2022-09-20T12:52:28Z</time>
      </trkpt>
      <trkpt lat="49.05659" lon="4.01238">
        <ele>98.2</ele>
        <time>2022-09-20T12:52:30Z</time>
      </trkpt>
      <trkpt lat="49.05699" lon="4.01233">
        <ele>98.2</ele>
        <time>2022-09-20T12:52:38Z</time>
      </trkpt>
      <trkpt lat="49.05714" lon="4.01234">
        <ele>98.4</ele>
        <time>2022-09-20T12:52:41Z</time>
      </trkpt>
      <trkpt lat="49.05724" lon="4.01238">
        <ele>98.6</ele>
        <time>2022-09-20T12:52:43Z</time>
      </trkpt>
      <trkpt lat="49.0574" lon="4.01256">
        <ele>99</ele>
        <time>2022-09-20T12:52:48Z</time>
      </trkpt>
      <trkpt lat="49.05743" lon="4.0126">
        <ele>99.2</ele>
        <time>2022-09-20T12:52:49Z</time>
      </trkpt>
      <trkpt lat="49.05747" lon="4.01278">
        <ele>99.8</ele>
        <time>2022-09-20T12:52:53Z</time>
      </trkpt>
      <trkpt lat="49.05747" lon="4.01286">
        <ele>100.4</ele>
        <time>2022-09-20T12:52:55Z</time>
      </trkpt>
      <trkpt lat="49.05748" lon="4.01302">
        <ele>101.4</ele>
        <time>2022-09-20T12:52:59Z</time>
      </trkpt>
      <trkpt lat="49.05749" lon="4.01306">
        <ele>101.8</ele>
        <time>2022-09-20T12:53:00Z</time>
      </trkpt>
      <trkpt lat="49.0575" lon="4.01311">
        <ele>102.4</ele>
        <time>2022-09-20T12:53:02Z</time>
      </trkpt>
      <trkpt lat="49.05752" lon="4.01322">
        <ele>103.6</ele>
        <time>2022-09-20T12:53:06Z</time>
      </trkpt>
      <trkpt lat="49.05753" lon="4.01325">
        <ele>104.2</ele>
        <time>2022-09-20T12:53:07Z</time>
      </trkpt>
      <trkpt lat="49.05755" lon="4.01331">
        <ele>104.8</ele>
        <time>2022-09-20T12:53:09Z</time>
      </trkpt>
      <trkpt lat="49.0576" lon="4.01344">
        <ele>106</ele>
        <time>2022-09-20T12:53:14Z</time>
      </trkpt>
      <trkpt lat="49.05764" lon="4.01352">
        <ele>107.2</ele>
        <time>2022-09-20T12:53:17Z</time>
      </trkpt>
      <trkpt lat="49.05768" lon="4.0136">
        <ele>108.2</ele>
        <time>2022-09-20T12:53:20Z</time>
      </trkpt>
      <trkpt lat="49.05773" lon="4.0137">
        <ele>109.6</ele>
        <time>2022-09-20T12:53:24Z</time>
      </trkpt>
      <trkpt lat="49.05776" lon="4.01378">
        <ele>110.6</ele>
        <time>2022-09-20T12:53:27Z</time>
      </trkpt>
      <trkpt lat="49.05779" lon="4.01389">
        <ele>111.8</ele>
        <time>2022-09-20T12:53:31Z</time>
      </trkpt>
      <trkpt lat="49.05779" lon="4.01401">
        <ele>113.2</ele>
        <time>2022-09-20T12:53:35Z</time>
      </trkpt>
      <trkpt lat="49.05778" lon="4.0141">
        <ele>114.4</ele>
        <time>2022-09-20T12:53:38Z</time>
      </trkpt>
      <trkpt lat="49.05778" lon="4.01422">
        <ele>115.6</ele>
        <time>2022-09-20T12:53:42Z</time>
      </trkpt>
      <trkpt lat="49.05777" lon="4.01431">
        <ele>116.8</ele>
        <time>2022-09-20T12:53:45Z</time>
      </trkpt>
      <trkpt lat="49.05777" lon="4.01446">
        <ele>118</ele>
        <time>2022-09-20T12:53:50Z</time>
      </trkpt>
      <trkpt lat="49.05777" lon="4.01458">
        <ele>119</ele>
        <time>2022-09-20T12:53:54Z</time>
      </trkpt>
      <trkpt lat="49.05777" lon="4.01461">
        <ele>119</ele>
        <time>2022-09-20T12:53:55Z</time>
      </trkpt>
      <trkpt lat="49.05776" lon="4.01472">
        <ele>120.6</ele>
        <time>2022-09-20T12:53:59Z</time>
      </trkpt>
      <trkpt lat="49.05774" lon="4.01487">
        <ele>121.4</ele>
        <time>2022-09-20T12:54:04Z</time>
      </trkpt>
      <trkpt lat="49.05774" lon="4.0149">
        <ele>121.6</ele>
        <time>2022-09-20T12:54:05Z</time>
      </trkpt>
      <trkpt lat="49.05774" lon="4.01501">
        <ele>123</ele>
        <time>2022-09-20T12:54:09Z</time>
      </trkpt>
      <trkpt lat="49.05772" lon="4.01515">
        <ele>124</ele>
        <time>2022-09-20T12:54:14Z</time>
      </trkpt>
      <trkpt lat="49.05773" lon="4.0153">
        <ele>125.4</ele>
        <time>2022-09-20T12:54:19Z</time>
      </trkpt>
      <trkpt lat="49.05775" lon="4.01539">
        <ele>126.6</ele>
        <time>2022-09-20T12:54:22Z</time>
      </trkpt>
      <trkpt lat="49.05776" lon="4.01541">
        <ele>127</ele>
        <time>2022-09-20T12:54:23Z</time>
      </trkpt>
      <trkpt lat="49.05781" lon="4.0155">
        <ele>128</ele>
        <time>2022-09-20T12:54:27Z</time>
      </trkpt>
      <trkpt lat="49.05786" lon="4.01558">
        <ele>128.8</ele>
        <time>2022-09-20T12:54:31Z</time>
      </trkpt>
      <trkpt lat="49.05787" lon="4.0156">
        <ele>129.2</ele>
        <time>2022-09-20T12:54:32Z</time>
      </trkpt>
      <trkpt lat="49.05792" lon="4.01566">
        <ele>130.4</ele>
        <time>2022-09-20T12:54:35Z</time>
      </trkpt>
      <trkpt lat="49.05798" lon="4.01574">
        <ele>131.6</ele>
        <time>2022-09-20T12:54:39Z</time>
      </trkpt>
      <trkpt lat="49.05803" lon="4.01579">
        <ele>132.6</ele>
        <time>2022-09-20T12:54:42Z</time>
      </trkpt>
      <trkpt lat="49.05805" lon="4.0158">
        <ele>132.8</ele>
        <time>2022-09-20T12:54:43Z</time>
      </trkpt>
      <trkpt lat="49.05809" lon="4.01584">
        <ele>133.8</ele>
        <time>2022-09-20T12:54:46Z</time>
      </trkpt>
      <trkpt lat="49.05815" lon="4.01589">
        <ele>134.8</ele>
        <time>2022-09-20T12:54:49Z</time>
      </trkpt>
      <trkpt lat="49.05823" lon="4.01593">
        <ele>136.4</ele>
        <time>2022-09-20T12:54:53Z</time>
      </trkpt>
      <trkpt lat="49.0583" lon="4.01598">
        <ele>137.6</ele>
        <time>2022-09-20T12:54:57Z</time>
      </trkpt>
      <trkpt lat="49.05836" lon="4.01599">
        <ele>138.8</ele>
        <time>2022-09-20T12:55:00Z</time>
      </trkpt>
      <trkpt lat="49.05841" lon="4.01601">
        <ele>139.6</ele>
        <time>2022-09-20T12:55:03Z</time>
      </trkpt>
      <trkpt lat="49.05843" lon="4.01602">
        <ele>139.8</ele>
        <time>2022-09-20T12:55:04Z</time>
      </trkpt>
      <trkpt lat="49.05853" lon="4.01606">
        <ele>140.8</ele>
        <time>2022-09-20T12:55:09Z</time>
      </trkpt>
      <trkpt lat="49.05858" lon="4.01608">
        <ele>141.6</ele>
        <time>2022-09-20T12:55:12Z</time>
      </trkpt>
      <trkpt lat="49.05862" lon="4.0161">
        <ele>142.4</ele>
        <time>2022-09-20T12:55:14Z</time>
      </trkpt>
      <trkpt lat="49.0587" lon="4.01612">
        <ele>143.6</ele>
        <time>2022-09-20T12:55:18Z</time>
      </trkpt>
      <trkpt lat="49.05875" lon="4.01614">
        <ele>144.4</ele>
        <time>2022-09-20T12:55:21Z</time>
      </trkpt>
      <trkpt lat="49.05877" lon="4.01614">
        <ele>145</ele>
        <time>2022-09-20T12:55:22Z</time>
      </trkpt>
      <trkpt lat="49.05885" lon="4.01618">
        <ele>146</ele>
        <time>2022-09-20T12:55:26Z</time>
      </trkpt>
      <trkpt lat="49.05893" lon="4.01622">
        <ele>147.2</ele>
        <time>2022-09-20T12:55:30Z</time>
      </trkpt>
      <trkpt lat="49.05895" lon="4.01623">
        <ele>147.6</ele>
        <time>2022-09-20T12:55:31Z</time>
      </trkpt>
      <trkpt lat="49.059" lon="4.01626">
        <ele>148.2</ele>
        <time>2022-09-20T12:55:34Z</time>
      </trkpt>
      <trkpt lat="49.05907" lon="4.0163">
        <ele>149.4</ele>
        <time>2022-09-20T12:55:38Z</time>
      </trkpt>
      <trkpt lat="49.05911" lon="4.01633">
        <ele>150</ele>
        <time>2022-09-20T12:55:40Z</time>
      </trkpt>
      <trkpt lat="49.05913" lon="4.01634">
        <ele>150.4</ele>
        <time>2022-09-20T12:55:41Z</time>
      </trkpt>
      <trkpt lat="49.0592" lon="4.01639">
        <ele>151.4</ele>
        <time>2022-09-20T12:55:45Z</time>
      </trkpt>
      <trkpt lat="49.05928" lon="4.01643">
        <ele>152.4</ele>
        <time>2022-09-20T12:55:49Z</time>
      </trkpt>
      <trkpt lat="49.05935" lon="4.01648">
        <ele>153.6</ele>
        <time>2022-09-20T12:55:53Z</time>
      </trkpt>
      <trkpt lat="49.0594" lon="4.01651">
        <ele>154.8</ele>
        <time>2022-09-20T12:55:56Z</time>
      </trkpt>
      <trkpt lat="49.05945" lon="4.01655">
        <ele>155.6</ele>
        <time>2022-09-20T12:55:59Z</time>
      </trkpt>
      <trkpt lat="49.05949" lon="4.01656">
        <ele>156</ele>
        <time>2022-09-20T12:56:01Z</time>
      </trkpt>
      <trkpt lat="49.05956" lon="4.0166">
        <ele>157.2</ele>
        <time>2022-09-20T12:56:05Z</time>
      </trkpt>
      <trkpt lat="49.05961" lon="4.01663">
        <ele>157.8</ele>
        <time>2022-09-20T12:56:08Z</time>
      </trkpt>
      <trkpt lat="49.05963" lon="4.01664">
        <ele>158.4</ele>
        <time>2022-09-20T12:56:09Z</time>
      </trkpt>
      <trkpt lat="49.0597" lon="4.01668">
        <ele>159.8</ele>
        <time>2022-09-20T12:56:13Z</time>
      </trkpt>
      <trkpt lat="49.05975" lon="4.01671">
        <ele>160.8</ele>
        <time>2022-09-20T12:56:17Z</time>
      </trkpt>
      <trkpt lat="49.05983" lon="4.01676">
        <ele>162.2</ele>
        <time>2022-09-20T12:56:21Z</time>
      </trkpt>
      <trkpt lat="49.05989" lon="4.0168">
        <ele>163</ele>
        <time>2022-09-20T12:56:25Z</time>
      </trkpt>
      <trkpt lat="49.05991" lon="4.01682">
        <ele>163.4</ele>
        <time>2022-09-20T12:56:26Z</time>
      </trkpt>
      <trkpt lat="49.05993" lon="4.01683">
        <ele>163.6</ele>
        <time>2022-09-20T12:56:27Z</time>
      </trkpt>
      <trkpt lat="49.05997" lon="4.01685">
        <ele>164.4</ele>
        <time>2022-09-20T12:56:30Z</time>
      </trkpt>
      <trkpt lat="49.06004" lon="4.01689">
        <ele>165.6</ele>
        <time>2022-09-20T12:56:34Z</time>
      </trkpt>
      <trkpt lat="49.0601" lon="4.01693">
        <ele>166.6</ele>
        <time>2022-09-20T12:56:38Z</time>
      </trkpt>
      <trkpt lat="49.06017" lon="4.01696">
        <ele>168</ele>
        <time>2022-09-20T12:56:42Z</time>
      </trkpt>
      <trkpt lat="49.06024" lon="4.017">
        <ele>169.2</ele>
        <time>2022-09-20T12:56:46Z</time>
      </trkpt>
      <trkpt lat="49.06029" lon="4.01703">
        <ele>170.4</ele>
        <time>2022-09-20T12:56:49Z</time>
      </trkpt>
      <trkpt lat="49.06038" lon="4.01708">
        <ele>171.4</ele>
        <time>2022-09-20T12:56:54Z</time>
      </trkpt>
      <trkpt lat="49.06047" lon="4.01709">
        <ele>172.6</ele>
        <time>2022-09-20T12:56:59Z</time>
      </trkpt>
      <trkpt lat="49.06052" lon="4.0171">
        <ele>173.6</ele>
        <time>2022-09-20T12:57:02Z</time>
      </trkpt>
      <trkpt lat="49.06057" lon="4.01711">
        <ele>174.8</ele>
        <time>2022-09-20T12:57:05Z</time>
      </trkpt>
      <trkpt lat="49.06059" lon="4.01711">
        <ele>175</ele>
        <time>2022-09-20T12:57:06Z</time>
      </trkpt>
      <trkpt lat="49.06065" lon="4.01711">
        <ele>176</ele>
        <time>2022-09-20T12:57:09Z</time>
      </trkpt>
      <trkpt lat="49.06072" lon="4.01711">
        <ele>177.2</ele>
        <time>2022-09-20T12:57:13Z</time>
      </trkpt>
      <trkpt lat="49.0608" lon="4.01712">
        <ele>178.2</ele>
        <time>2022-09-20T12:57:17Z</time>
      </trkpt>
      <trkpt lat="49.06082" lon="4.01712">
        <ele>178.4</ele>
        <time>2022-09-20T12:57:18Z</time>
      </trkpt>
      <trkpt lat="49.06087" lon="4.01713">
        <ele>179.4</ele>
        <time>2022-09-20T12:57:21Z</time>
      </trkpt>
      <trkpt lat="49.06093" lon="4.01715">
        <ele>180.4</ele>
        <time>2022-09-20T12:57:24Z</time>
      </trkpt>
      <trkpt lat="49.06095" lon="4.01716">
        <ele>180.8</ele>
        <time>2022-09-20T12:57:25Z</time>
      </trkpt>
      <trkpt lat="49.06099" lon="4.01719">
        <ele>181.6</ele>
        <time>2022-09-20T12:57:27Z</time>
      </trkpt>
      <trkpt lat="49.06105" lon="4.01723">
        <ele>182.8</ele>
        <time>2022-09-20T12:57:31Z</time>
      </trkpt>
      <trkpt lat="49.06111" lon="4.01727">
        <ele>183.8</ele>
        <time>2022-09-20T12:57:34Z</time>
      </trkpt>
      <trkpt lat="49.06114" lon="4.0173">
        <ele>184.2</ele>
        <time>2022-09-20T12:57:36Z</time>
      </trkpt>
      <trkpt lat="49.06118" lon="4.01732">
        <ele>185</ele>
        <time>2022-09-20T12:57:38Z</time>
      </trkpt>
      <trkpt lat="49.06122" lon="4.01735">
        <ele>185.6</ele>
        <time>2022-09-20T12:57:40Z</time>
      </trkpt>
      <trkpt lat="49.06124" lon="4.01736">
        <ele>186</ele>
        <time>2022-09-20T12:57:41Z</time>
      </trkpt>
      <trkpt lat="49.06133" lon="4.01741">
        <ele>187.4</ele>
        <time>2022-09-20T12:57:46Z</time>
      </trkpt>
      <trkpt lat="49.06141" lon="4.01746">
        <ele>188.6</ele>
        <time>2022-09-20T12:57:50Z</time>
      </trkpt>
      <trkpt lat="49.06148" lon="4.01751">
        <ele>189.6</ele>
        <time>2022-09-20T12:57:54Z</time>
      </trkpt>
      <trkpt lat="49.0615" lon="4.01752">
        <ele>190</ele>
        <time>2022-09-20T12:57:55Z</time>
      </trkpt>
      <trkpt lat="49.06154" lon="4.01755">
        <ele>190.6</ele>
        <time>2022-09-20T12:57:57Z</time>
      </trkpt>
      <trkpt lat="49.06161" lon="4.01757">
        <ele>191.8</ele>
        <time>2022-09-20T12:58:01Z</time>
      </trkpt>
      <trkpt lat="49.06167" lon="4.01759">
        <ele>192.8</ele>
        <time>2022-09-20T12:58:04Z</time>
      </trkpt>
      <trkpt lat="49.06169" lon="4.0176">
        <ele>193</ele>
        <time>2022-09-20T12:58:05Z</time>
      </trkpt>
      <trkpt lat="49.06175" lon="4.01763">
        <ele>194.4</ele>
        <time>2022-09-20T12:58:09Z</time>
      </trkpt>
      <trkpt lat="49.06182" lon="4.01766">
        <ele>195.4</ele>
        <time>2022-09-20T12:58:13Z</time>
      </trkpt>
      <trkpt lat="49.06189" lon="4.01769">
        <ele>196.4</ele>
        <time>2022-09-20T12:58:17Z</time>
      </trkpt>
      <trkpt lat="49.06193" lon="4.01771">
        <ele>197.6</ele>
        <time>2022-09-20T12:58:19Z</time>
      </trkpt>
      <trkpt lat="49.06196" lon="4.01772">
        <ele>198.2</ele>
        <time>2022-09-20T12:58:21Z</time>
      </trkpt>
      <trkpt lat="49.062" lon="4.01774">
        <ele>198.8</ele>
        <time>2022-09-20T12:58:23Z</time>
      </trkpt>
      <trkpt lat="49.06206" lon="4.01777">
        <ele>200</ele>
        <time>2022-09-20T12:58:26Z</time>
      </trkpt>
      <trkpt lat="49.06212" lon="4.01784">
        <ele>201.2</ele>
        <time>2022-09-20T12:58:30Z</time>
      </trkpt>
      <trkpt lat="49.06217" lon="4.01792">
        <ele>202.6</ele>
        <time>2022-09-20T12:58:33Z</time>
      </trkpt>
      <trkpt lat="49.06222" lon="4.01802">
        <ele>204</ele>
        <time>2022-09-20T12:58:37Z</time>
      </trkpt>
      <trkpt lat="49.06225" lon="4.01807">
        <ele>204.6</ele>
        <time>2022-09-20T12:58:39Z</time>
      </trkpt>
      <trkpt lat="49.06226" lon="4.0181">
        <ele>205</ele>
        <time>2022-09-20T12:58:40Z</time>
      </trkpt>
      <trkpt lat="49.06233" lon="4.01822">
        <ele>206.2</ele>
        <time>2022-09-20T12:58:45Z</time>
      </trkpt>
      <trkpt lat="49.06236" lon="4.01827">
        <ele>206.8</ele>
        <time>2022-09-20T12:58:47Z</time>
      </trkpt>
      <trkpt lat="49.06239" lon="4.01832">
        <ele>207.4</ele>
        <time>2022-09-20T12:58:49Z</time>
      </trkpt>
      <trkpt lat="49.06246" lon="4.01845">
        <ele>208.6</ele>
        <time>2022-09-20T12:58:54Z</time>
      </trkpt>
      <trkpt lat="49.06251" lon="4.01858">
        <ele>209.6</ele>
        <time>2022-09-20T12:58:58Z</time>
      </trkpt>
      <trkpt lat="49.06253" lon="4.01862">
        <ele>210</ele>
        <time>2022-09-20T12:58:59Z</time>
      </trkpt>
      <trkpt lat="49.06266" lon="4.0189">
        <ele>210.8</ele>
        <time>2022-09-20T12:59:07Z</time>
      </trkpt>
      <trkpt lat="49.06269" lon="4.01897">
        <ele>211</ele>
        <time>2022-09-20T12:59:09Z</time>
      </trkpt>
      <trkpt lat="49.06282" lon="4.01913">
        <ele>212.2</ele>
        <time>2022-09-20T12:59:15Z</time>
      </trkpt>
      <trkpt lat="49.06296" lon="4.01933">
        <ele>213.4</ele>
        <time>2022-09-20T12:59:22Z</time>
      </trkpt>
      <trkpt lat="49.06297" lon="4.01936">
        <ele>213.6</ele>
        <time>2022-09-20T12:59:23Z</time>
      </trkpt>
      <trkpt lat="49.063" lon="4.01954">
        <ele>214.6</ele>
        <time>2022-09-20T12:59:27Z</time>
      </trkpt>
      <trkpt lat="49.063" lon="4.0197">
        <ele>215</ele>
        <time>2022-09-20T12:59:30Z</time>
      </trkpt>
      <trkpt lat="49.063" lon="4.01993">
        <ele>215.2</ele>
        <time>2022-09-20T12:59:34Z</time>
      </trkpt>
      <trkpt lat="49.063" lon="4.02007">
        <ele>215.2</ele>
        <time>2022-09-20T12:59:36Z</time>
      </trkpt>
      <trkpt lat="49.06301" lon="4.02044">
        <ele>215.2</ele>
        <time>2022-09-20T12:59:41Z</time>
      </trkpt>
      <trkpt lat="49.063" lon="4.0206">
        <ele>215.2</ele>
        <time>2022-09-20T12:59:43Z</time>
      </trkpt>
      <trkpt lat="49.06299" lon="4.02101">
        <ele>215.2</ele>
        <time>2022-09-20T12:59:48Z</time>
      </trkpt>
      <trkpt lat="49.06302" lon="4.0217">
        <ele>215</ele>
        <time>2022-09-20T12:59:57Z</time>
      </trkpt>
      <trkpt lat="49.06302" lon="4.02209">
        <ele>214.8</ele>
        <time>2022-09-20T13:00:03Z</time>
      </trkpt>
      <trkpt lat="49.06302" lon="4.0225">
        <ele>214.6</ele>
        <time>2022-09-20T13:00:09Z</time>
      </trkpt>
      <trkpt lat="49.06304" lon="4.02313">
        <ele>214.4</ele>
        <time>2022-09-20T13:00:17Z</time>
      </trkpt>
      <trkpt lat="49.06313" lon="4.02375">
        <ele>215</ele>
        <time>2022-09-20T13:00:25Z</time>
      </trkpt>
      <trkpt lat="49.06322" lon="4.02436">
        <ele>215.6</ele>
        <time>2022-09-20T13:00:32Z</time>
      </trkpt>
      <trkpt lat="49.06323" lon="4.02444">
        <ele>215.8</ele>
        <time>2022-09-20T13:00:33Z</time>
      </trkpt>
      <trkpt lat="49.06335" lon="4.02506">
        <ele>216.8</ele>
        <time>2022-09-20T13:00:40Z</time>
      </trkpt>
      <trkpt lat="49.06339" lon="4.02523">
        <ele>217.2</ele>
        <time>2022-09-20T13:00:43Z</time>
      </trkpt>
      <trkpt lat="49.06346" lon="4.02547">
        <ele>217.4</ele>
        <time>2022-09-20T13:00:45Z</time>
      </trkpt>
      <trkpt lat="49.06354" lon="4.02569">
        <ele>218</ele>
        <time>2022-09-20T13:00:48Z</time>
      </trkpt>
      <trkpt lat="49.0636" lon="4.02584">
        <ele>218.4</ele>
        <time>2022-09-20T13:00:50Z</time>
      </trkpt>
      <trkpt lat="49.06365" lon="4.026">
        <ele>218.6</ele>
        <time>2022-09-20T13:00:52Z</time>
      </trkpt>
      <trkpt lat="49.06374" lon="4.02623">
        <ele>219</ele>
        <time>2022-09-20T13:00:55Z</time>
      </trkpt>
      <trkpt lat="49.06381" lon="4.02637">
        <ele>219.4</ele>
        <time>2022-09-20T13:00:57Z</time>
      </trkpt>
      <trkpt lat="49.06408" lon="4.02676">
        <ele>219.8</ele>
        <time>2022-09-20T13:01:03Z</time>
      </trkpt>
      <trkpt lat="49.06433" lon="4.02707">
        <ele>220</ele>
        <time>2022-09-20T13:01:08Z</time>
      </trkpt>
      <trkpt lat="49.06443" lon="4.02719">
        <ele>220</ele>
        <time>2022-09-20T13:01:10Z</time>
      </trkpt>
      <trkpt lat="49.06455" lon="4.02739">
        <ele>220.4</ele>
        <time>2022-09-20T13:01:13Z</time>
      </trkpt>
      <trkpt lat="49.06465" lon="4.0276">
        <ele>220.6</ele>
        <time>2022-09-20T13:01:16Z</time>
      </trkpt>
      <trkpt lat="49.0647" lon="4.02771">
        <ele>220.6</ele>
        <time>2022-09-20T13:01:18Z</time>
      </trkpt>
      <trkpt lat="49.06478" lon="4.02776">
        <ele>220.6</ele>
        <time>2022-09-20T13:01:20Z</time>
      </trkpt>
      <trkpt lat="49.06489" lon="4.02768">
        <ele>221.2</ele>
        <time>2022-09-20T13:01:23Z</time>
      </trkpt>
      <trkpt lat="49.06513" lon="4.02746">
        <ele>222.6</ele>
        <time>2022-09-20T13:01:30Z</time>
      </trkpt>
      <trkpt lat="49.06526" lon="4.02732">
        <ele>223.8</ele>
        <time>2022-09-20T13:01:34Z</time>
      </trkpt>
      <trkpt lat="49.06536" lon="4.02724">
        <ele>225</ele>
        <time>2022-09-20T13:01:37Z</time>
      </trkpt>
      <trkpt lat="49.06542" lon="4.02718">
        <ele>225.2</ele>
        <time>2022-09-20T13:01:39Z</time>
      </trkpt>
      <trkpt lat="49.06549" lon="4.02712">
        <ele>226</ele>
        <time>2022-09-20T13:01:41Z</time>
      </trkpt>
      <trkpt lat="49.06558" lon="4.02701">
        <ele>227</ele>
        <time>2022-09-20T13:01:44Z</time>
      </trkpt>
      <trkpt lat="49.06567" lon="4.02688">
        <ele>228</ele>
        <time>2022-09-20T13:01:47Z</time>
      </trkpt>
      <trkpt lat="49.0657" lon="4.02684">
        <ele>228.2</ele>
        <time>2022-09-20T13:01:48Z</time>
      </trkpt>
      <trkpt lat="49.06582" lon="4.02668">
        <ele>229.2</ele>
        <time>2022-09-20T13:01:52Z</time>
      </trkpt>
      <trkpt lat="49.06593" lon="4.0265">
        <ele>230.2</ele>
        <time>2022-09-20T13:01:56Z</time>
      </trkpt>
      <trkpt lat="49.06607" lon="4.02626">
        <ele>231.2</ele>
        <time>2022-09-20T13:02:02Z</time>
      </trkpt>
      <trkpt lat="49.06616" lon="4.02616">
        <ele>231.4</ele>
        <time>2022-09-20T13:02:05Z</time>
      </trkpt>
      <trkpt lat="49.06628" lon="4.02608">
        <ele>231.4</ele>
        <time>2022-09-20T13:02:08Z</time>
      </trkpt>
      <trkpt lat="49.06645" lon="4.02592">
        <ele>231.6</ele>
        <time>2022-09-20T13:02:12Z</time>
      </trkpt>
      <trkpt lat="49.06653" lon="4.02582">
        <ele>231.4</ele>
        <time>2022-09-20T13:02:14Z</time>
      </trkpt>
      <trkpt lat="49.06681" lon="4.02547">
        <ele>230.8</ele>
        <time>2022-09-20T13:02:22Z</time>
      </trkpt>
      <trkpt lat="49.06703" lon="4.02527">
        <ele>230.8</ele>
        <time>2022-09-20T13:02:28Z</time>
      </trkpt>
      <trkpt lat="49.06707" lon="4.02525">
        <ele>230.8</ele>
        <time>2022-09-20T13:02:29Z</time>
      </trkpt>
      <trkpt lat="49.06716" lon="4.02524">
        <ele>230.8</ele>
        <time>2022-09-20T13:02:31Z</time>
      </trkpt>
      <trkpt lat="49.06725" lon="4.02531">
        <ele>230.6</ele>
        <time>2022-09-20T13:02:33Z</time>
      </trkpt>
      <trkpt lat="49.06734" lon="4.02546">
        <ele>230.4</ele>
        <time>2022-09-20T13:02:35Z</time>
      </trkpt>
      <trkpt lat="49.06738" lon="4.02557">
        <ele>230.2</ele>
        <time>2022-09-20T13:02:36Z</time>
      </trkpt>
      <trkpt lat="49.06741" lon="4.0257">
        <ele>230</ele>
        <time>2022-09-20T13:02:37Z</time>
      </trkpt>
      <trkpt lat="49.06744" lon="4.02598">
        <ele>228.8</ele>
        <time>2022-09-20T13:02:39Z</time>
      </trkpt>
      <trkpt lat="49.06745" lon="4.02612">
        <ele>228.4</ele>
        <time>2022-09-20T13:02:40Z</time>
      </trkpt>
      <trkpt lat="49.06746" lon="4.02627">
        <ele>227.4</ele>
        <time>2022-09-20T13:02:41Z</time>
      </trkpt>
      <trkpt lat="49.06747" lon="4.02659">
        <ele>226.4</ele>
        <time>2022-09-20T13:02:43Z</time>
      </trkpt>
      <trkpt lat="49.06749" lon="4.02687">
        <ele>224.8</ele>
        <time>2022-09-20T13:02:45Z</time>
      </trkpt>
      <trkpt lat="49.0675" lon="4.02699">
        <ele>223.8</ele>
        <time>2022-09-20T13:02:46Z</time>
      </trkpt>
      <trkpt lat="49.06752" lon="4.02723">
        <ele>221.8</ele>
        <time>2022-09-20T13:02:48Z</time>
      </trkpt>
      <trkpt lat="49.06756" lon="4.02745">
        <ele>220</ele>
        <time>2022-09-20T13:02:50Z</time>
      </trkpt>
      <trkpt lat="49.06761" lon="4.02764">
        <ele>218.6</ele>
        <time>2022-09-20T13:02:52Z</time>
      </trkpt>
      <trkpt lat="49.06764" lon="4.02781">
        <ele>217.6</ele>
        <time>2022-09-20T13:02:54Z</time>
      </trkpt>
      <trkpt lat="49.06765" lon="4.02786">
        <ele>216.6</ele>
        <time>2022-09-20T13:02:55Z</time>
      </trkpt>
      <trkpt lat="49.06767" lon="4.0279">
        <ele>216.2</ele>
        <time>2022-09-20T13:02:56Z</time>
      </trkpt>
      <trkpt lat="49.06768" lon="4.02793">
        <ele>215.4</ele>
        <time>2022-09-20T13:02:57Z</time>
      </trkpt>
      <trkpt lat="49.06768" lon="4.02793">
        <ele>214.8</ele>
        <time>2022-09-20T13:02:58Z</time>
      </trkpt>
      <trkpt lat="49.06775" lon="4.02794">
        <ele>214.2</ele>
        <time>2022-09-20T13:02:59Z</time>
      </trkpt>
      <trkpt lat="49.06779" lon="4.02791">
        <ele>213.8</ele>
        <time>2022-09-20T13:03:00Z</time>
      </trkpt>
      <trkpt lat="49.06779" lon="4.02791">
        <ele>213.6</ele>
        <time>2022-09-20T13:03:01Z</time>
      </trkpt>
      <trkpt lat="49.06799" lon="4.02774">
        <ele>212.2</ele>
        <time>2022-09-20T13:03:04Z</time>
      </trkpt>
      <trkpt lat="49.06804" lon="4.0277">
        <ele>212</ele>
        <time>2022-09-20T13:03:05Z</time>
      </trkpt>
      <trkpt lat="49.06837" lon="4.02749">
        <ele>211.2</ele>
        <time>2022-09-20T13:03:11Z</time>
      </trkpt>
      <trkpt lat="49.06843" lon="4.02746">
        <ele>211.2</ele>
        <time>2022-09-20T13:03:12Z</time>
      </trkpt>
      <trkpt lat="49.06884" lon="4.02726">
        <ele>211</ele>
        <time>2022-09-20T13:03:18Z</time>
      </trkpt>
      <trkpt lat="49.06937" lon="4.02694">
        <ele>210.6</ele>
        <time>2022-09-20T13:03:26Z</time>
      </trkpt>
      <trkpt lat="49.06987" lon="4.02656">
        <ele>211.4</ele>
        <time>2022-09-20T13:03:34Z</time>
      </trkpt>
      <trkpt lat="49.07" lon="4.02645">
        <ele>211.6</ele>
        <time>2022-09-20T13:03:36Z</time>
      </trkpt>
      <trkpt lat="49.07048" lon="4.02599">
        <ele>211.8</ele>
        <time>2022-09-20T13:03:44Z</time>
      </trkpt>
      <trkpt lat="49.07099" lon="4.02549">
        <ele>211.4</ele>
        <time>2022-09-20T13:03:53Z</time>
      </trkpt>
      <trkpt lat="49.07104" lon="4.02543">
        <ele>211.4</ele>
        <time>2022-09-20T13:03:55Z</time>
      </trkpt>
      <trkpt lat="49.07158" lon="4.02484">
        <ele>210.8</ele>
        <time>2022-09-20T13:04:04Z</time>
      </trkpt>
      <trkpt lat="49.07193" lon="4.02442">
        <ele>210.4</ele>
        <time>2022-09-20T13:04:11Z</time>
      </trkpt>
      <trkpt lat="49.07237" lon="4.02387">
        <ele>210.8</ele>
        <time>2022-09-20T13:04:20Z</time>
      </trkpt>
      <trkpt lat="49.07278" lon="4.02348">
        <ele>212.2</ele>
        <time>2022-09-20T13:04:29Z</time>
      </trkpt>
      <trkpt lat="49.07286" lon="4.02339">
        <ele>212.4</ele>
        <time>2022-09-20T13:04:30Z</time>
      </trkpt>
      <trkpt lat="49.07293" lon="4.02329">
        <ele>212.6</ele>
        <time>2022-09-20T13:04:32Z</time>
      </trkpt>
      <trkpt lat="49.07293" lon="4.02329">
        <ele>212.6</ele>
        <time>2022-09-20T13:04:33Z</time>
      </trkpt>
      <trkpt lat="49.07295" lon="4.02315">
        <ele>212.6</ele>
        <time>2022-09-20T13:04:34Z</time>
      </trkpt>
      <trkpt lat="49.07293" lon="4.02302">
        <ele>212.8</ele>
        <time>2022-09-20T13:04:36Z</time>
      </trkpt>
      <trkpt lat="49.07283" lon="4.02271">
        <ele>213</ele>
        <time>2022-09-20T13:04:42Z</time>
      </trkpt>
      <trkpt lat="49.07281" lon="4.02262">
        <ele>213.6</ele>
        <time>2022-09-20T13:04:44Z</time>
      </trkpt>
      <trkpt lat="49.07276" lon="4.02244">
        <ele>214.6</ele>
        <time>2022-09-20T13:04:48Z</time>
      </trkpt>
      <trkpt lat="49.07273" lon="4.02235">
        <ele>215</ele>
        <time>2022-09-20T13:04:50Z</time>
      </trkpt>
      <trkpt lat="49.07269" lon="4.02219">
        <ele>216</ele>
        <time>2022-09-20T13:04:54Z</time>
      </trkpt>
      <trkpt lat="49.07264" lon="4.02211">
        <ele>216.2</ele>
        <time>2022-09-20T13:04:57Z</time>
      </trkpt>
      <trkpt lat="49.07258" lon="4.02209">
        <ele>216.8</ele>
        <time>2022-09-20T13:05:00Z</time>
      </trkpt>
      <trkpt lat="49.07256" lon="4.02211">
        <ele>217.2</ele>
        <time>2022-09-20T13:05:01Z</time>
      </trkpt>
      <trkpt lat="49.07254" lon="4.02213">
        <ele>217.2</ele>
        <time>2022-09-20T13:05:02Z</time>
      </trkpt>
      <trkpt lat="49.07247" lon="4.02219">
        <ele>218.2</ele>
        <time>2022-09-20T13:05:06Z</time>
      </trkpt>
      <trkpt lat="49.07232" lon="4.02227">
        <ele>219</ele>
        <time>2022-09-20T13:05:10Z</time>
      </trkpt>
      <trkpt lat="49.07226" lon="4.02231">
        <ele>219.4</ele>
        <time>2022-09-20T13:05:12Z</time>
      </trkpt>
      <trkpt lat="49.07214" lon="4.02237">
        <ele>220</ele>
        <time>2022-09-20T13:05:16Z</time>
      </trkpt>
      <trkpt lat="49.07207" lon="4.02243">
        <ele>220.4</ele>
        <time>2022-09-20T13:05:18Z</time>
      </trkpt>
      <trkpt lat="49.07202" lon="4.02256">
        <ele>221</ele>
        <time>2022-09-20T13:05:21Z</time>
      </trkpt>
      <trkpt lat="49.07204" lon="4.02262">
        <ele>221</ele>
        <time>2022-09-20T13:05:22Z</time>
      </trkpt>
      <trkpt lat="49.0721" lon="4.02267">
        <ele>221</ele>
        <time>2022-09-20T13:05:25Z</time>
      </trkpt>
      <trkpt lat="49.07213" lon="4.02266">
        <ele>221</ele>
        <time>2022-09-20T13:05:26Z</time>
      </trkpt>
      <trkpt lat="49.07221" lon="4.02262">
        <ele>221</ele>
        <time>2022-09-20T13:05:28Z</time>
      </trkpt>
      <trkpt lat="49.07232" lon="4.02253">
        <ele>220.6</ele>
        <time>2022-09-20T13:05:32Z</time>
      </trkpt>
      <trkpt lat="49.07255" lon="4.02237">
        <ele>220.2</ele>
        <time>2022-09-20T13:05:39Z</time>
      </trkpt>
      <trkpt lat="49.07256" lon="4.02232">
        <ele>220.2</ele>
        <time>2022-09-20T13:05:40Z</time>
      </trkpt>
      <trkpt lat="49.07256" lon="4.02228">
        <ele>220.2</ele>
        <time>2022-09-20T13:05:41Z</time>
      </trkpt>
      <trkpt lat="49.07255" lon="4.02224">
        <ele>220.2</ele>
        <time>2022-09-20T13:05:43Z</time>
      </trkpt>
      <trkpt lat="49.07255" lon="4.02218">
        <ele>220.2</ele>
        <time>2022-09-20T13:05:44Z</time>
      </trkpt>
      <trkpt lat="49.07256" lon="4.02216">
        <ele>220</ele>
        <time>2022-09-20T13:05:46Z</time>
      </trkpt>
      <trkpt lat="49.07265" lon="4.02216">
        <ele>220</ele>
        <time>2022-09-20T13:05:48Z</time>
      </trkpt>
      <trkpt lat="49.07268" lon="4.0222">
        <ele>219.8</ele>
        <time>2022-09-20T13:05:49Z</time>
      </trkpt>
      <trkpt lat="49.07271" lon="4.02226">
        <ele>219.8</ele>
        <time>2022-09-20T13:05:50Z</time>
      </trkpt>
      <trkpt lat="49.07278" lon="4.02255">
        <ele>219.4</ele>
        <time>2022-09-20T13:05:54Z</time>
      </trkpt>
      <trkpt lat="49.07283" lon="4.02272">
        <ele>218.8</ele>
        <time>2022-09-20T13:05:57Z</time>
      </trkpt>
      <trkpt lat="49.07291" lon="4.02299">
        <ele>218.2</ele>
        <time>2022-09-20T13:05:59Z</time>
      </trkpt>
      <trkpt lat="49.07295" lon="4.02316">
        <ele>217.6</ele>
        <time>2022-09-20T13:06:01Z</time>
      </trkpt>
      <trkpt lat="49.07295" lon="4.02322">
        <ele>216.8</ele>
        <time>2022-09-20T13:06:03Z</time>
      </trkpt>
      <trkpt lat="49.07294" lon="4.02336">
        <ele>216.2</ele>
        <time>2022-09-20T13:06:04Z</time>
      </trkpt>
      <trkpt lat="49.07288" lon="4.02346">
        <ele>215.2</ele>
        <time>2022-09-20T13:06:06Z</time>
      </trkpt>
      <trkpt lat="49.07284" lon="4.0235">
        <ele>214.6</ele>
        <time>2022-09-20T13:06:08Z</time>
      </trkpt>
      <trkpt lat="49.07274" lon="4.02357">
        <ele>214</ele>
        <time>2022-09-20T13:06:09Z</time>
      </trkpt>
      <trkpt lat="49.07268" lon="4.0236">
        <ele>213.6</ele>
        <time>2022-09-20T13:06:11Z</time>
      </trkpt>
      <trkpt lat="49.07233" lon="4.02391">
        <ele>213.2</ele>
        <time>2022-09-20T13:06:16Z</time>
      </trkpt>
      <trkpt lat="49.07228" lon="4.02397">
        <ele>213.2</ele>
        <time>2022-09-20T13:06:17Z</time>
      </trkpt>
      <trkpt lat="49.07216" lon="4.0241">
        <ele>213</ele>
        <time>2022-09-20T13:06:19Z</time>
      </trkpt>
      <trkpt lat="49.07181" lon="4.02455">
        <ele>212.2</ele>
        <time>2022-09-20T13:06:25Z</time>
      </trkpt>
      <trkpt lat="49.0715" lon="4.02491">
        <ele>211.8</ele>
        <time>2022-09-20T13:06:30Z</time>
      </trkpt>
      <trkpt lat="49.07132" lon="4.02511">
        <ele>211.8</ele>
        <time>2022-09-20T13:06:34Z</time>
      </trkpt>
      <trkpt lat="49.07098" lon="4.02547">
        <ele>211.4</ele>
        <time>2022-09-20T13:06:39Z</time>
      </trkpt>
      <trkpt lat="49.07048" lon="4.02597">
        <ele>211.4</ele>
        <time>2022-09-20T13:06:48Z</time>
      </trkpt>
      <trkpt lat="49.07032" lon="4.02614">
        <ele>211.4</ele>
        <time>2022-09-20T13:06:51Z</time>
      </trkpt>
      <trkpt lat="49.06987" lon="4.02652">
        <ele>211.4</ele>
        <time>2022-09-20T13:07:00Z</time>
      </trkpt>
      <trkpt lat="49.06928" lon="4.02697">
        <ele>211.8</ele>
        <time>2022-09-20T13:07:09Z</time>
      </trkpt>
      <trkpt lat="49.06874" lon="4.02726">
        <ele>211.2</ele>
        <time>2022-09-20T13:07:17Z</time>
      </trkpt>
      <trkpt lat="49.06823" lon="4.02751">
        <ele>211.4</ele>
        <time>2022-09-20T13:07:26Z</time>
      </trkpt>
      <trkpt lat="49.06812" lon="4.02759">
        <ele>211.4</ele>
        <time>2022-09-20T13:07:27Z</time>
      </trkpt>
      <trkpt lat="49.06784" lon="4.02782">
        <ele>211.8</ele>
        <time>2022-09-20T13:07:32Z</time>
      </trkpt>
      <trkpt lat="49.06774" lon="4.02793">
        <ele>212</ele>
        <time>2022-09-20T13:07:34Z</time>
      </trkpt>
      <trkpt lat="49.06766" lon="4.02806">
        <ele>211.8</ele>
        <time>2022-09-20T13:07:36Z</time>
      </trkpt>
      <trkpt lat="49.06762" lon="4.02813">
        <ele>212</ele>
        <time>2022-09-20T13:07:37Z</time>
      </trkpt>
      <trkpt lat="49.06752" lon="4.02839">
        <ele>211.8</ele>
        <time>2022-09-20T13:07:40Z</time>
      </trkpt>
      <trkpt lat="49.06734" lon="4.02897">
        <ele>211.2</ele>
        <time>2022-09-20T13:07:46Z</time>
      </trkpt>
      <trkpt lat="49.06727" lon="4.02918">
        <ele>211</ele>
        <time>2022-09-20T13:07:48Z</time>
      </trkpt>
      <trkpt lat="49.06714" lon="4.02975">
        <ele>210</ele>
        <time>2022-09-20T13:07:53Z</time>
      </trkpt>
      <trkpt lat="49.06711" lon="4.03001">
        <ele>209.8</ele>
        <time>2022-09-20T13:07:55Z</time>
      </trkpt>
      <trkpt lat="49.06707" lon="4.03045">
        <ele>208.8</ele>
        <time>2022-09-20T13:07:58Z</time>
      </trkpt>
      <trkpt lat="49.06703" lon="4.03076">
        <ele>207.4</ele>
        <time>2022-09-20T13:08:01Z</time>
      </trkpt>
      <trkpt lat="49.06699" lon="4.03104">
        <ele>207.2</ele>
        <time>2022-09-20T13:08:02Z</time>
      </trkpt>
      <trkpt lat="49.0669" lon="4.03131">
        <ele>206.6</ele>
        <time>2022-09-20T13:08:04Z</time>
      </trkpt>
      <trkpt lat="49.06685" lon="4.03143">
        <ele>206</ele>
        <time>2022-09-20T13:08:05Z</time>
      </trkpt>
      <trkpt lat="49.06673" lon="4.03168">
        <ele>204.4</ele>
        <time>2022-09-20T13:08:07Z</time>
      </trkpt>
      <trkpt lat="49.06667" lon="4.03181">
        <ele>203.4</ele>
        <time>2022-09-20T13:08:08Z</time>
      </trkpt>
      <trkpt lat="49.0666" lon="4.03194">
        <ele>203</ele>
        <time>2022-09-20T13:08:09Z</time>
      </trkpt>
      <trkpt lat="49.06652" lon="4.03205">
        <ele>202.2</ele>
        <time>2022-09-20T13:08:10Z</time>
      </trkpt>
      <trkpt lat="49.06645" lon="4.03215">
        <ele>201.4</ele>
        <time>2022-09-20T13:08:11Z</time>
      </trkpt>
      <trkpt lat="49.06636" lon="4.03223">
        <ele>200.4</ele>
        <time>2022-09-20T13:08:12Z</time>
      </trkpt>
      <trkpt lat="49.06617" lon="4.03232">
        <ele>198.2</ele>
        <time>2022-09-20T13:08:14Z</time>
      </trkpt>
      <trkpt lat="49.06607" lon="4.03234">
        <ele>196.8</ele>
        <time>2022-09-20T13:08:15Z</time>
      </trkpt>
      <trkpt lat="49.06575" lon="4.03243">
        <ele>196</ele>
        <time>2022-09-20T13:08:18Z</time>
      </trkpt>
      <trkpt lat="49.06564" lon="4.03249">
        <ele>195.2</ele>
        <time>2022-09-20T13:08:19Z</time>
      </trkpt>
      <trkpt lat="49.06554" lon="4.03259">
        <ele>194.8</ele>
        <time>2022-09-20T13:08:20Z</time>
      </trkpt>
      <trkpt lat="49.06545" lon="4.0327">
        <ele>193.2</ele>
        <time>2022-09-20T13:08:21Z</time>
      </trkpt>
      <trkpt lat="49.06537" lon="4.03284">
        <ele>191.2</ele>
        <time>2022-09-20T13:08:22Z</time>
      </trkpt>
      <trkpt lat="49.06523" lon="4.03311">
        <ele>189.2</ele>
        <time>2022-09-20T13:08:24Z</time>
      </trkpt>
      <trkpt lat="49.06509" lon="4.03334">
        <ele>187.4</ele>
        <time>2022-09-20T13:08:26Z</time>
      </trkpt>
      <trkpt lat="49.06502" lon="4.03345">
        <ele>185.6</ele>
        <time>2022-09-20T13:08:27Z</time>
      </trkpt>
      <trkpt lat="49.06486" lon="4.03363">
        <ele>183.8</ele>
        <time>2022-09-20T13:08:29Z</time>
      </trkpt>
      <trkpt lat="49.06467" lon="4.03381">
        <ele>181.8</ele>
        <time>2022-09-20T13:08:31Z</time>
      </trkpt>
      <trkpt lat="49.06447" lon="4.03399">
        <ele>180.4</ele>
        <time>2022-09-20T13:08:33Z</time>
      </trkpt>
      <trkpt lat="49.06437" lon="4.03407">
        <ele>179</ele>
        <time>2022-09-20T13:08:34Z</time>
      </trkpt>
      <trkpt lat="49.06426" lon="4.03415">
        <ele>178.2</ele>
        <time>2022-09-20T13:08:35Z</time>
      </trkpt>
      <trkpt lat="49.06415" lon="4.03424">
        <ele>177.4</ele>
        <time>2022-09-20T13:08:36Z</time>
      </trkpt>
      <trkpt lat="49.06392" lon="4.03444">
        <ele>175.8</ele>
        <time>2022-09-20T13:08:38Z</time>
      </trkpt>
      <trkpt lat="49.06382" lon="4.03456">
        <ele>175.4</ele>
        <time>2022-09-20T13:08:39Z</time>
      </trkpt>
      <trkpt lat="49.06372" lon="4.0347">
        <ele>174.4</ele>
        <time>2022-09-20T13:08:40Z</time>
      </trkpt>
      <trkpt lat="49.06363" lon="4.03484">
        <ele>172.4</ele>
        <time>2022-09-20T13:08:41Z</time>
      </trkpt>
      <trkpt lat="49.06344" lon="4.03512">
        <ele>170.2</ele>
        <time>2022-09-20T13:08:43Z</time>
      </trkpt>
      <trkpt lat="49.06334" lon="4.03525">
        <ele>169.6</ele>
        <time>2022-09-20T13:08:44Z</time>
      </trkpt>
      <trkpt lat="49.06334" lon="4.03525">
        <ele>168.2</ele>
        <time>2022-09-20T13:08:45Z</time>
      </trkpt>
      <trkpt lat="49.06312" lon="4.0355">
        <ele>167.6</ele>
        <time>2022-09-20T13:08:46Z</time>
      </trkpt>
      <trkpt lat="49.063" lon="4.0356">
        <ele>166.4</ele>
        <time>2022-09-20T13:08:47Z</time>
      </trkpt>
      <trkpt lat="49.063" lon="4.0356">
        <ele>165.4</ele>
        <time>2022-09-20T13:08:48Z</time>
      </trkpt>
      <trkpt lat="49.06275" lon="4.03583">
        <ele>165</ele>
        <time>2022-09-20T13:08:49Z</time>
      </trkpt>
      <trkpt lat="49.0625" lon="4.03607">
        <ele>163.6</ele>
        <time>2022-09-20T13:08:51Z</time>
      </trkpt>
      <trkpt lat="49.06237" lon="4.03619">
        <ele>161.2</ele>
        <time>2022-09-20T13:08:52Z</time>
      </trkpt>
      <trkpt lat="49.06224" lon="4.0363">
        <ele>160.4</ele>
        <time>2022-09-20T13:08:53Z</time>
      </trkpt>
      <trkpt lat="49.06211" lon="4.03642">
        <ele>158.8</ele>
        <time>2022-09-20T13:08:54Z</time>
      </trkpt>
      <trkpt lat="49.06199" lon="4.03653">
        <ele>156.8</ele>
        <time>2022-09-20T13:08:55Z</time>
      </trkpt>
      <trkpt lat="49.06174" lon="4.03675">
        <ele>154.2</ele>
        <time>2022-09-20T13:08:57Z</time>
      </trkpt>
      <trkpt lat="49.06147" lon="4.03695">
        <ele>151.2</ele>
        <time>2022-09-20T13:08:59Z</time>
      </trkpt>
      <trkpt lat="49.06134" lon="4.03704">
        <ele>149.2</ele>
        <time>2022-09-20T13:09:00Z</time>
      </trkpt>
      <trkpt lat="49.06111" lon="4.03722">
        <ele>147</ele>
        <time>2022-09-20T13:09:02Z</time>
      </trkpt>
      <trkpt lat="49.061" lon="4.03731">
        <ele>146.2</ele>
        <time>2022-09-20T13:09:03Z</time>
      </trkpt>
      <trkpt lat="49.06088" lon="4.0374">
        <ele>144.4</ele>
        <time>2022-09-20T13:09:04Z</time>
      </trkpt>
      <trkpt lat="49.06067" lon="4.03759">
        <ele>142.8</ele>
        <time>2022-09-20T13:09:06Z</time>
      </trkpt>
      <trkpt lat="49.06057" lon="4.03769">
        <ele>141.6</ele>
        <time>2022-09-20T13:09:07Z</time>
      </trkpt>
      <trkpt lat="49.06047" lon="4.03779">
        <ele>140.8</ele>
        <time>2022-09-20T13:09:08Z</time>
      </trkpt>
      <trkpt lat="49.06047" lon="4.03779">
        <ele>139.6</ele>
        <time>2022-09-20T13:09:09Z</time>
      </trkpt>
      <trkpt lat="49.06028" lon="4.03801">
        <ele>137.8</ele>
        <time>2022-09-20T13:09:11Z</time>
      </trkpt>
      <trkpt lat="49.06011" lon="4.03824">
        <ele>136</ele>
        <time>2022-09-20T13:09:13Z</time>
      </trkpt>
      <trkpt lat="49.05995" lon="4.03845">
        <ele>134.8</ele>
        <time>2022-09-20T13:09:14Z</time>
      </trkpt>
      <trkpt lat="49.0598" lon="4.03866">
        <ele>133.2</ele>
        <time>2022-09-20T13:09:16Z</time>
      </trkpt>
      <trkpt lat="49.05964" lon="4.03887">
        <ele>131.8</ele>
        <time>2022-09-20T13:09:18Z</time>
      </trkpt>
      <trkpt lat="49.05957" lon="4.03897">
        <ele>131.4</ele>
        <time>2022-09-20T13:09:19Z</time>
      </trkpt>
      <trkpt lat="49.05951" lon="4.03906">
        <ele>130.8</ele>
        <time>2022-09-20T13:09:20Z</time>
      </trkpt>
      <trkpt lat="49.05945" lon="4.03914">
        <ele>129.6</ele>
        <time>2022-09-20T13:09:21Z</time>
      </trkpt>
      <trkpt lat="49.05935" lon="4.03926">
        <ele>128.6</ele>
        <time>2022-09-20T13:09:23Z</time>
      </trkpt>
      <trkpt lat="49.0593" lon="4.03932">
        <ele>128.2</ele>
        <time>2022-09-20T13:09:24Z</time>
      </trkpt>
      <trkpt lat="49.05928" lon="4.03936">
        <ele>127.2</ele>
        <time>2022-09-20T13:09:25Z</time>
      </trkpt>
      <trkpt lat="49.05926" lon="4.03939">
        <ele>126.2</ele>
        <time>2022-09-20T13:09:26Z</time>
      </trkpt>
      <trkpt lat="49.05924" lon="4.03941">
        <ele>126</ele>
        <time>2022-09-20T13:09:27Z</time>
      </trkpt>
      <trkpt lat="49.05923" lon="4.03943">
        <ele>124.6</ele>
        <time>2022-09-20T13:09:29Z</time>
      </trkpt>
      <trkpt lat="49.05923" lon="4.03943">
        <ele>123.6</ele>
        <time>2022-09-20T13:09:31Z</time>
      </trkpt>
      <trkpt lat="49.05922" lon="4.03943">
        <ele>122.4</ele>
        <time>2022-09-20T13:09:35Z</time>
      </trkpt>
      <trkpt lat="49.05916" lon="4.0395">
        <ele>122</ele>
        <time>2022-09-20T13:09:38Z</time>
      </trkpt>
      <trkpt lat="49.05904" lon="4.03966">
        <ele>121.8</ele>
        <time>2022-09-20T13:09:41Z</time>
      </trkpt>
      <trkpt lat="49.05884" lon="4.03991">
        <ele>121.6</ele>
        <time>2022-09-20T13:09:45Z</time>
      </trkpt>
      <trkpt lat="49.05876" lon="4.03994">
        <ele>121.6</ele>
        <time>2022-09-20T13:09:46Z</time>
      </trkpt>
      <trkpt lat="49.05869" lon="4.03994">
        <ele>121.4</ele>
        <time>2022-09-20T13:09:47Z</time>
      </trkpt>
      <trkpt lat="49.05862" lon="4.03993">
        <ele>121.4</ele>
        <time>2022-09-20T13:09:48Z</time>
      </trkpt>
      <trkpt lat="49.05845" lon="4.03991">
        <ele>120.8</ele>
        <time>2022-09-20T13:09:50Z</time>
      </trkpt>
      <trkpt lat="49.05826" lon="4.0399">
        <ele>119.6</ele>
        <time>2022-09-20T13:09:52Z</time>
      </trkpt>
      <trkpt lat="49.05793" lon="4.0399">
        <ele>118.4</ele>
        <time>2022-09-20T13:09:56Z</time>
      </trkpt>
      <trkpt lat="49.05775" lon="4.03991">
        <ele>117.6</ele>
        <time>2022-09-20T13:09:58Z</time>
      </trkpt>
      <trkpt lat="49.05766" lon="4.03991">
        <ele>117</ele>
        <time>2022-09-20T13:09:59Z</time>
      </trkpt>
      <trkpt lat="49.05727" lon="4.03994">
        <ele>115.6</ele>
        <time>2022-09-20T13:10:03Z</time>
      </trkpt>
      <trkpt lat="49.0572" lon="4.03994">
        <ele>115.2</ele>
        <time>2022-09-20T13:10:04Z</time>
      </trkpt>
      <trkpt lat="49.05702" lon="4.03993">
        <ele>114.6</ele>
        <time>2022-09-20T13:10:06Z</time>
      </trkpt>
      <trkpt lat="49.05674" lon="4.03995">
        <ele>114.4</ele>
        <time>2022-09-20T13:10:09Z</time>
      </trkpt>
      <trkpt lat="49.05617" lon="4.03999">
        <ele>114.2</ele>
        <time>2022-09-20T13:10:15Z</time>
      </trkpt>
      <trkpt lat="49.05592" lon="4.04001">
        <ele>114</ele>
        <time>2022-09-20T13:10:18Z</time>
      </trkpt>
      <trkpt lat="49.05583" lon="4.04001">
        <ele>114</ele>
        <time>2022-09-20T13:10:19Z</time>
      </trkpt>
      <trkpt lat="49.05554" lon="4.04002">
        <ele>113.8</ele>
        <time>2022-09-20T13:10:22Z</time>
      </trkpt>
      <trkpt lat="49.0553" lon="4.04004">
        <ele>113.8</ele>
        <time>2022-09-20T13:10:25Z</time>
      </trkpt>
      <trkpt lat="49.05496" lon="4.04008">
        <ele>112.4</ele>
        <time>2022-09-20T13:10:29Z</time>
      </trkpt>
      <trkpt lat="49.0545" lon="4.04013">
        <ele>111.4</ele>
        <time>2022-09-20T13:10:34Z</time>
      </trkpt>
      <trkpt lat="49.05388" lon="4.04022">
        <ele>111.2</ele>
        <time>2022-09-20T13:10:41Z</time>
      </trkpt>
      <trkpt lat="49.05372" lon="4.04025">
        <ele>111.2</ele>
        <time>2022-09-20T13:10:43Z</time>
      </trkpt>
      <trkpt lat="49.05321" lon="4.04033">
        <ele>111</ele>
        <time>2022-09-20T13:10:49Z</time>
      </trkpt>
      <trkpt lat="49.05268" lon="4.04042">
        <ele>111</ele>
        <time>2022-09-20T13:10:56Z</time>
      </trkpt>
      <trkpt lat="49.05242" lon="4.04048">
        <ele>111.4</ele>
        <time>2022-09-20T13:11:00Z</time>
      </trkpt>
      <trkpt lat="49.05226" lon="4.0405">
        <ele>111.8</ele>
        <time>2022-09-20T13:11:04Z</time>
      </trkpt>
      <trkpt lat="49.05216" lon="4.04045">
        <ele>112.2</ele>
        <time>2022-09-20T13:11:08Z</time>
      </trkpt>
      <trkpt lat="49.05211" lon="4.04044">
        <ele>112.2</ele>
        <time>2022-09-20T13:11:09Z</time>
      </trkpt>
      <trkpt lat="49.05195" lon="4.04043">
        <ele>112.4</ele>
        <time>2022-09-20T13:11:12Z</time>
      </trkpt>
      <trkpt lat="49.0519" lon="4.04042">
        <ele>112.4</ele>
        <time>2022-09-20T13:11:13Z</time>
      </trkpt>
      <trkpt lat="49.05152" lon="4.04038">
        <ele>113.4</ele>
        <time>2022-09-20T13:11:20Z</time>
      </trkpt>
      <trkpt lat="49.0511" lon="4.04032">
        <ele>114.8</ele>
        <time>2022-09-20T13:11:28Z</time>
      </trkpt>
      <trkpt lat="49.05105" lon="4.04031">
        <ele>115.2</ele>
        <time>2022-09-20T13:11:29Z</time>
      </trkpt>
      <trkpt lat="49.05085" lon="4.04029">
        <ele>116.4</ele>
        <time>2022-09-20T13:11:33Z</time>
      </trkpt>
      <trkpt lat="49.05058" lon="4.04026">
        <ele>117.6</ele>
        <time>2022-09-20T13:11:38Z</time>
      </trkpt>
      <trkpt lat="49.05042" lon="4.04025">
        <ele>118</ele>
        <time>2022-09-20T13:11:41Z</time>
      </trkpt>
      <trkpt lat="49.05021" lon="4.04023">
        <ele>118.6</ele>
        <time>2022-09-20T13:11:45Z</time>
      </trkpt>
      <trkpt lat="49.04992" lon="4.0402">
        <ele>119.6</ele>
        <time>2022-09-20T13:11:50Z</time>
      </trkpt>
      <trkpt lat="49.04985" lon="4.0402">
        <ele>119.8</ele>
        <time>2022-09-20T13:11:51Z</time>
      </trkpt>
      <trkpt lat="49.04925" lon="4.04017">
        <ele>120.4</ele>
        <time>2022-09-20T13:12:01Z</time>
      </trkpt>
      <trkpt lat="49.04879" lon="4.04018">
        <ele>120.2</ele>
        <time>2022-09-20T13:12:08Z</time>
      </trkpt>
      <trkpt lat="49.04821" lon="4.04019">
        <ele>119.8</ele>
        <time>2022-09-20T13:12:17Z</time>
      </trkpt>
      <trkpt lat="49.04814" lon="4.04019">
        <ele>119.8</ele>
        <time>2022-09-20T13:12:18Z</time>
      </trkpt>
      <trkpt lat="49.04762" lon="4.04024">
        <ele>119.8</ele>
        <time>2022-09-20T13:12:25Z</time>
      </trkpt>
      <trkpt lat="49.04712" lon="4.04029">
        <ele>118.6</ele>
        <time>2022-09-20T13:12:31Z</time>
      </trkpt>
      <trkpt lat="49.04696" lon="4.04029">
        <ele>117.2</ele>
        <time>2022-09-20T13:12:33Z</time>
      </trkpt>
      <trkpt lat="49.04671" lon="4.04029">
        <ele>115.6</ele>
        <time>2022-09-20T13:12:36Z</time>
      </trkpt>
      <trkpt lat="49.04663" lon="4.04028">
        <ele>114.4</ele>
        <time>2022-09-20T13:12:37Z</time>
      </trkpt>
      <trkpt lat="49.04647" lon="4.04026">
        <ele>113</ele>
        <time>2022-09-20T13:12:39Z</time>
      </trkpt>
      <trkpt lat="49.04639" lon="4.04025">
        <ele>112</ele>
        <time>2022-09-20T13:12:40Z</time>
      </trkpt>
      <trkpt lat="49.04632" lon="4.04024">
        <ele>111.6</ele>
        <time>2022-09-20T13:12:41Z</time>
      </trkpt>
      <trkpt lat="49.04626" lon="4.04023">
        <ele>110.4</ele>
        <time>2022-09-20T13:12:42Z</time>
      </trkpt>
      <trkpt lat="49.04618" lon="4.04021">
        <ele>109.2</ele>
        <time>2022-09-20T13:12:44Z</time>
      </trkpt>
      <trkpt lat="49.04606" lon="4.0402">
        <ele>107.2</ele>
        <time>2022-09-20T13:12:47Z</time>
      </trkpt>
      <trkpt lat="49.04601" lon="4.0402">
        <ele>106.8</ele>
        <time>2022-09-20T13:12:48Z</time>
      </trkpt>
      <trkpt lat="49.04595" lon="4.04018">
        <ele>106</ele>
        <time>2022-09-20T13:12:49Z</time>
      </trkpt>
      <trkpt lat="49.04583" lon="4.04014">
        <ele>104.8</ele>
        <time>2022-09-20T13:12:51Z</time>
      </trkpt>
      <trkpt lat="49.04567" lon="4.04006">
        <ele>104</ele>
        <time>2022-09-20T13:12:53Z</time>
      </trkpt>
      <trkpt lat="49.04559" lon="4.04003">
        <ele>103.6</ele>
        <time>2022-09-20T13:12:54Z</time>
      </trkpt>
      <trkpt lat="49.0454" lon="4.03998">
        <ele>102.6</ele>
        <time>2022-09-20T13:12:57Z</time>
      </trkpt>
      <trkpt lat="49.04531" lon="4.03995">
        <ele>101.2</ele>
        <time>2022-09-20T13:12:59Z</time>
      </trkpt>
      <trkpt lat="49.04522" lon="4.03991">
        <ele>100</ele>
        <time>2022-09-20T13:13:01Z</time>
      </trkpt>
      <trkpt lat="49.04518" lon="4.03989">
        <ele>99.6</ele>
        <time>2022-09-20T13:13:02Z</time>
      </trkpt>
      <trkpt lat="49.04513" lon="4.03987">
        <ele>99</ele>
        <time>2022-09-20T13:13:03Z</time>
      </trkpt>
      <trkpt lat="49.04509" lon="4.03984">
        <ele>98.6</ele>
        <time>2022-09-20T13:13:04Z</time>
      </trkpt>
      <trkpt lat="49.04505" lon="4.03982">
        <ele>98</ele>
        <time>2022-09-20T13:13:05Z</time>
      </trkpt>
      <trkpt lat="49.045" lon="4.03979">
        <ele>97</ele>
        <time>2022-09-20T13:13:07Z</time>
      </trkpt>
      <trkpt lat="49.04497" lon="4.03978">
        <ele>96</ele>
        <time>2022-09-20T13:13:08Z</time>
      </trkpt>
      <trkpt lat="49.04491" lon="4.03983">
        <ele>95.4</ele>
        <time>2022-09-20T13:13:10Z</time>
      </trkpt>
      <trkpt lat="49.04485" lon="4.03994">
        <ele>95</ele>
        <time>2022-09-20T13:13:12Z</time>
      </trkpt>
      <trkpt lat="49.04476" lon="4.04007">
        <ele>94.2</ele>
        <time>2022-09-20T13:13:14Z</time>
      </trkpt>
      <trkpt lat="49.04472" lon="4.04013">
        <ele>93.8</ele>
        <time>2022-09-20T13:13:15Z</time>
      </trkpt>
      <trkpt lat="49.04467" lon="4.04021">
        <ele>93.6</ele>
        <time>2022-09-20T13:13:16Z</time>
      </trkpt>
      <trkpt lat="49.04458" lon="4.04041">
        <ele>93.4</ele>
        <time>2022-09-20T13:13:18Z</time>
      </trkpt>
      <trkpt lat="49.0445" lon="4.0406">
        <ele>93</ele>
        <time>2022-09-20T13:13:20Z</time>
      </trkpt>
      <trkpt lat="49.04442" lon="4.04078">
        <ele>92.6</ele>
        <time>2022-09-20T13:13:22Z</time>
      </trkpt>
      <trkpt lat="49.04438" lon="4.04091">
        <ele>92.6</ele>
        <time>2022-09-20T13:13:23Z</time>
      </trkpt>
      <trkpt lat="49.0443" lon="4.04124">
        <ele>91.6</ele>
        <time>2022-09-20T13:13:26Z</time>
      </trkpt>
      <trkpt lat="49.04424" lon="4.04146">
        <ele>91.4</ele>
        <time>2022-09-20T13:13:28Z</time>
      </trkpt>
      <trkpt lat="49.04418" lon="4.04167">
        <ele>90.8</ele>
        <time>2022-09-20T13:13:30Z</time>
      </trkpt>
      <trkpt lat="49.04416" lon="4.04172">
        <ele>90.4</ele>
        <time>2022-09-20T13:13:31Z</time>
      </trkpt>
      <trkpt lat="49.04405" lon="4.04177">
        <ele>90.2</ele>
        <time>2022-09-20T13:13:32Z</time>
      </trkpt>
      <trkpt lat="49.04379" lon="4.04174">
        <ele>89.8</ele>
        <time>2022-09-20T13:13:35Z</time>
      </trkpt>
      <trkpt lat="49.04371" lon="4.04172">
        <ele>89.4</ele>
        <time>2022-09-20T13:13:36Z</time>
      </trkpt>
      <trkpt lat="49.04322" lon="4.04152">
        <ele>88.4</ele>
        <time>2022-09-20T13:13:43Z</time>
      </trkpt>
      <trkpt lat="49.04316" lon="4.04149">
        <ele>88.4</ele>
        <time>2022-09-20T13:13:44Z</time>
      </trkpt>
      <trkpt lat="49.04281" lon="4.04129">
        <ele>88.2</ele>
        <time>2022-09-20T13:13:49Z</time>
      </trkpt>
      <trkpt lat="49.04229" lon="4.04103">
        <ele>88.4</ele>
        <time>2022-09-20T13:13:56Z</time>
      </trkpt>
      <trkpt lat="49.04184" lon="4.04078">
        <ele>88.2</ele>
        <time>2022-09-20T13:14:02Z</time>
      </trkpt>
      <trkpt lat="49.04138" lon="4.04059">
        <ele>88</ele>
        <time>2022-09-20T13:14:08Z</time>
      </trkpt>
      <trkpt lat="49.04084" lon="4.04049">
        <ele>87.2</ele>
        <time>2022-09-20T13:14:14Z</time>
      </trkpt>
      <trkpt lat="49.04031" lon="4.0404">
        <ele>86.4</ele>
        <time>2022-09-20T13:14:20Z</time>
      </trkpt>
      <trkpt lat="49.04022" lon="4.04038">
        <ele>86.2</ele>
        <time>2022-09-20T13:14:21Z</time>
      </trkpt>
      <trkpt lat="49.03995" lon="4.04034">
        <ele>85.6</ele>
        <time>2022-09-20T13:14:24Z</time>
      </trkpt>
      <trkpt lat="49.03959" lon="4.04026">
        <ele>85</ele>
        <time>2022-09-20T13:14:28Z</time>
      </trkpt>
      <trkpt lat="49.03915" lon="4.04017">
        <ele>85</ele>
        <time>2022-09-20T13:14:33Z</time>
      </trkpt>
      <trkpt lat="49.03863" lon="4.04008">
        <ele>84.8</ele>
        <time>2022-09-20T13:14:40Z</time>
      </trkpt>
      <trkpt lat="49.03794" lon="4.03996">
        <ele>84.6</ele>
        <time>2022-09-20T13:14:47Z</time>
      </trkpt>
      <trkpt lat="49.03785" lon="4.03993">
        <ele>84.6</ele>
        <time>2022-09-20T13:14:48Z</time>
      </trkpt>
      <trkpt lat="49.03777" lon="4.0399">
        <ele>84.6</ele>
        <time>2022-09-20T13:14:49Z</time>
      </trkpt>
      <trkpt lat="49.0376" lon="4.03981">
        <ele>84.6</ele>
        <time>2022-09-20T13:14:52Z</time>
      </trkpt>
      <trkpt lat="49.03744" lon="4.03972">
        <ele>84.6</ele>
        <time>2022-09-20T13:14:53Z</time>
      </trkpt>
      <trkpt lat="49.03728" lon="4.03968">
        <ele>84.6</ele>
        <time>2022-09-20T13:14:55Z</time>
      </trkpt>
      <trkpt lat="49.0372" lon="4.03968">
        <ele>84.6</ele>
        <time>2022-09-20T13:14:56Z</time>
      </trkpt>
      <trkpt lat="49.03696" lon="4.03965">
        <ele>84.8</ele>
        <time>2022-09-20T13:14:59Z</time>
      </trkpt>
      <trkpt lat="49.03688" lon="4.03967">
        <ele>84.8</ele>
        <time>2022-09-20T13:15:00Z</time>
      </trkpt>
      <trkpt lat="49.03672" lon="4.03974">
        <ele>84.8</ele>
        <time>2022-09-20T13:15:02Z</time>
      </trkpt>
      <trkpt lat="49.03654" lon="4.03975">
        <ele>84.8</ele>
        <time>2022-09-20T13:15:04Z</time>
      </trkpt>
      <trkpt lat="49.03601" lon="4.03962">
        <ele>84.8</ele>
        <time>2022-09-20T13:15:10Z</time>
      </trkpt>
      <trkpt lat="49.03549" lon="4.0395">
        <ele>84.8</ele>
        <time>2022-09-20T13:15:16Z</time>
      </trkpt>
      <trkpt lat="49.03522" lon="4.03944">
        <ele>85</ele>
        <time>2022-09-20T13:15:19Z</time>
      </trkpt>
      <trkpt lat="49.03462" lon="4.03934">
        <ele>86</ele>
        <time>2022-09-20T13:15:26Z</time>
      </trkpt>
      <trkpt lat="49.03454" lon="4.03933">
        <ele>86.2</ele>
        <time>2022-09-20T13:15:27Z</time>
      </trkpt>
      <trkpt lat="49.03437" lon="4.0393">
        <ele>86.4</ele>
        <time>2022-09-20T13:15:29Z</time>
      </trkpt>
      <trkpt lat="49.03377" lon="4.0392">
        <ele>87.2</ele>
        <time>2022-09-20T13:15:36Z</time>
      </trkpt>
      <trkpt lat="49.03369" lon="4.03919">
        <ele>87.4</ele>
        <time>2022-09-20T13:15:37Z</time>
      </trkpt>
      <trkpt lat="49.03344" lon="4.03913">
        <ele>87.6</ele>
        <time>2022-09-20T13:15:40Z</time>
      </trkpt>
      <trkpt lat="49.03281" lon="4.03901">
        <ele>87.2</ele>
        <time>2022-09-20T13:15:47Z</time>
      </trkpt>
      <trkpt lat="49.03272" lon="4.03899">
        <ele>87.2</ele>
        <time>2022-09-20T13:15:48Z</time>
      </trkpt>
      <trkpt lat="49.03211" lon="4.03889">
        <ele>86.6</ele>
        <time>2022-09-20T13:15:55Z</time>
      </trkpt>
      <trkpt lat="49.03203" lon="4.03887">
        <ele>86.4</ele>
        <time>2022-09-20T13:15:56Z</time>
      </trkpt>
      <trkpt lat="49.03177" lon="4.03883">
        <ele>86.2</ele>
        <time>2022-09-20T13:15:59Z</time>
      </trkpt>
      <trkpt lat="49.03118" lon="4.03872">
        <ele>86.2</ele>
        <time>2022-09-20T13:16:06Z</time>
      </trkpt>
      <trkpt lat="49.03111" lon="4.0387">
        <ele>86.2</ele>
        <time>2022-09-20T13:16:07Z</time>
      </trkpt>
      <trkpt lat="49.03052" lon="4.03859">
        <ele>86.2</ele>
        <time>2022-09-20T13:16:14Z</time>
      </trkpt>
      <trkpt lat="49.03036" lon="4.03856">
        <ele>86.2</ele>
        <time>2022-09-20T13:16:16Z</time>
      </trkpt>
      <trkpt lat="49.02981" lon="4.03847">
        <ele>86.4</ele>
        <time>2022-09-20T13:16:23Z</time>
      </trkpt>
      <trkpt lat="49.02956" lon="4.03844">
        <ele>86.6</ele>
        <time>2022-09-20T13:16:26Z</time>
      </trkpt>
      <trkpt lat="49.02906" lon="4.03835">
        <ele>87.4</ele>
        <time>2022-09-20T13:16:32Z</time>
      </trkpt>
      <trkpt lat="49.02874" lon="4.03831">
        <ele>87.8</ele>
        <time>2022-09-20T13:16:36Z</time>
      </trkpt>
      <trkpt lat="49.02836" lon="4.03833">
        <ele>88.6</ele>
        <time>2022-09-20T13:16:41Z</time>
      </trkpt>
      <trkpt lat="49.02821" lon="4.03836">
        <ele>89.2</ele>
        <time>2022-09-20T13:16:43Z</time>
      </trkpt>
      <trkpt lat="49.02807" lon="4.03839">
        <ele>89.8</ele>
        <time>2022-09-20T13:16:45Z</time>
      </trkpt>
      <trkpt lat="49.0277" lon="4.03848">
        <ele>90.8</ele>
        <time>2022-09-20T13:16:50Z</time>
      </trkpt>
      <trkpt lat="49.02745" lon="4.03854">
        <ele>91.4</ele>
        <time>2022-09-20T13:16:53Z</time>
      </trkpt>
      <trkpt lat="49.02695" lon="4.03857">
        <ele>92</ele>
        <time>2022-09-20T13:16:59Z</time>
      </trkpt>
      <trkpt lat="49.02649" lon="4.03848">
        <ele>91.6</ele>
        <time>2022-09-20T13:17:04Z</time>
      </trkpt>
      <trkpt lat="49.02596" lon="4.03825">
        <ele>89.8</ele>
        <time>2022-09-20T13:17:10Z</time>
      </trkpt>
      <trkpt lat="49.02539" lon="4.03792">
        <ele>88.8</ele>
        <time>2022-09-20T13:17:16Z</time>
      </trkpt>
      <trkpt lat="49.0253" lon="4.03787">
        <ele>88.6</ele>
        <time>2022-09-20T13:17:17Z</time>
      </trkpt>
      <trkpt lat="49.02478" lon="4.0376">
        <ele>88.4</ele>
        <time>2022-09-20T13:17:23Z</time>
      </trkpt>
      <trkpt lat="49.02469" lon="4.03756">
        <ele>88.4</ele>
        <time>2022-09-20T13:17:24Z</time>
      </trkpt>
      <trkpt lat="49.02421" lon="4.03745">
        <ele>88</ele>
        <time>2022-09-20T13:17:29Z</time>
      </trkpt>
      <trkpt lat="49.02389" lon="4.03741">
        <ele>87.6</ele>
        <time>2022-09-20T13:17:32Z</time>
      </trkpt>
      <trkpt lat="49.02371" lon="4.03738">
        <ele>87.2</ele>
        <time>2022-09-20T13:17:34Z</time>
      </trkpt>
      <trkpt lat="49.02333" lon="4.03734">
        <ele>86.6</ele>
        <time>2022-09-20T13:17:38Z</time>
      </trkpt>
      <trkpt lat="49.02324" lon="4.03732">
        <ele>86.6</ele>
        <time>2022-09-20T13:17:39Z</time>
      </trkpt>
      <trkpt lat="49.02267" lon="4.03721">
        <ele>86.2</ele>
        <time>2022-09-20T13:17:45Z</time>
      </trkpt>
      <trkpt lat="49.02259" lon="4.03718">
        <ele>86.2</ele>
        <time>2022-09-20T13:17:46Z</time>
      </trkpt>
      <trkpt lat="49.02227" lon="4.03706">
        <ele>86.2</ele>
        <time>2022-09-20T13:17:50Z</time>
      </trkpt>
      <trkpt lat="49.02221" lon="4.03701">
        <ele>86.2</ele>
        <time>2022-09-20T13:17:51Z</time>
      </trkpt>
      <trkpt lat="49.02216" lon="4.03695">
        <ele>86.2</ele>
        <time>2022-09-20T13:17:52Z</time>
      </trkpt>
      <trkpt lat="49.02208" lon="4.03678">
        <ele>86.4</ele>
        <time>2022-09-20T13:17:54Z</time>
      </trkpt>
      <trkpt lat="49.02204" lon="4.03666">
        <ele>86.4</ele>
        <time>2022-09-20T13:17:55Z</time>
      </trkpt>
      <trkpt lat="49.02201" lon="4.03647">
        <ele>86.4</ele>
        <time>2022-09-20T13:17:57Z</time>
      </trkpt>
      <trkpt lat="49.02205" lon="4.03587">
        <ele>87</ele>
        <time>2022-09-20T13:18:02Z</time>
      </trkpt>
      <trkpt lat="49.0221" lon="4.03549">
        <ele>87.6</ele>
        <time>2022-09-20T13:18:05Z</time>
      </trkpt>
      <trkpt lat="49.02223" lon="4.03459">
        <ele>87.6</ele>
        <time>2022-09-20T13:18:13Z</time>
      </trkpt>
      <trkpt lat="49.02234" lon="4.03375">
        <ele>88.4</ele>
        <time>2022-09-20T13:18:20Z</time>
      </trkpt>
      <trkpt lat="49.02237" lon="4.03351">
        <ele>88.8</ele>
        <time>2022-09-20T13:18:22Z</time>
      </trkpt>
      <trkpt lat="49.02248" lon="4.03257">
        <ele>89.4</ele>
        <time>2022-09-20T13:18:30Z</time>
      </trkpt>
      <trkpt lat="49.02253" lon="4.03211">
        <ele>89.8</ele>
        <time>2022-09-20T13:18:34Z</time>
      </trkpt>
      <trkpt lat="49.02262" lon="4.03138">
        <ele>91.2</ele>
        <time>2022-09-20T13:18:41Z</time>
      </trkpt>
      <trkpt lat="49.02266" lon="4.03105">
        <ele>91.4</ele>
        <time>2022-09-20T13:18:44Z</time>
      </trkpt>
      <trkpt lat="49.02272" lon="4.03056">
        <ele>92.2</ele>
        <time>2022-09-20T13:18:49Z</time>
      </trkpt>
      <trkpt lat="49.02274" lon="4.03035">
        <ele>92.4</ele>
        <time>2022-09-20T13:18:51Z</time>
      </trkpt>
      <trkpt lat="49.02276" lon="4.03005">
        <ele>92.8</ele>
        <time>2022-09-20T13:18:54Z</time>
      </trkpt>
      <trkpt lat="49.02279" lon="4.02974">
        <ele>93.4</ele>
        <time>2022-09-20T13:18:57Z</time>
      </trkpt>
      <trkpt lat="49.02283" lon="4.02936">
        <ele>94.4</ele>
        <time>2022-09-20T13:19:01Z</time>
      </trkpt>
      <trkpt lat="49.02287" lon="4.029">
        <ele>95.4</ele>
        <time>2022-09-20T13:19:05Z</time>
      </trkpt>
      <trkpt lat="49.02292" lon="4.02865">
        <ele>96.8</ele>
        <time>2022-09-20T13:19:09Z</time>
      </trkpt>
      <trkpt lat="49.02295" lon="4.02849">
        <ele>97.2</ele>
        <time>2022-09-20T13:19:11Z</time>
      </trkpt>
      <trkpt lat="49.02298" lon="4.02829">
        <ele>97.8</ele>
        <time>2022-09-20T13:19:14Z</time>
      </trkpt>
      <trkpt lat="49.02299" lon="4.02818">
        <ele>98.6</ele>
        <time>2022-09-20T13:19:16Z</time>
      </trkpt>
      <trkpt lat="49.02299" lon="4.02808">
        <ele>99</ele>
        <time>2022-09-20T13:19:18Z</time>
      </trkpt>
      <trkpt lat="49.02295" lon="4.02797">
        <ele>99.4</ele>
        <time>2022-09-20T13:19:20Z</time>
      </trkpt>
      <trkpt lat="49.02292" lon="4.02783">
        <ele>99.8</ele>
        <time>2022-09-20T13:19:22Z</time>
      </trkpt>
      <trkpt lat="49.02292" lon="4.02775">
        <ele>100</ele>
        <time>2022-09-20T13:19:23Z</time>
      </trkpt>
      <trkpt lat="49.02295" lon="4.02758">
        <ele>100.2</ele>
        <time>2022-09-20T13:19:25Z</time>
      </trkpt>
      <trkpt lat="49.02299" lon="4.02718">
        <ele>100.8</ele>
        <time>2022-09-20T13:19:30Z</time>
      </trkpt>
      <trkpt lat="49.02303" lon="4.02694">
        <ele>101.6</ele>
        <time>2022-09-20T13:19:33Z</time>
      </trkpt>
      <trkpt lat="49.02305" lon="4.02679">
        <ele>102</ele>
        <time>2022-09-20T13:19:35Z</time>
      </trkpt>
      <trkpt lat="49.02309" lon="4.02657">
        <ele>102.6</ele>
        <time>2022-09-20T13:19:38Z</time>
      </trkpt>
      <trkpt lat="49.0232" lon="4.0261">
        <ele>103.6</ele>
        <time>2022-09-20T13:19:44Z</time>
      </trkpt>
      <trkpt lat="49.02331" lon="4.02562">
        <ele>104</ele>
        <time>2022-09-20T13:19:50Z</time>
      </trkpt>
      <trkpt lat="49.02341" lon="4.02506">
        <ele>104.8</ele>
        <time>2022-09-20T13:19:57Z</time>
      </trkpt>
      <trkpt lat="49.02342" lon="4.02498">
        <ele>104.8</ele>
        <time>2022-09-20T13:19:58Z</time>
      </trkpt>
      <trkpt lat="49.0235" lon="4.02433">
        <ele>105.2</ele>
        <time>2022-09-20T13:20:05Z</time>
      </trkpt>
      <trkpt lat="49.02359" lon="4.02352">
        <ele>105</ele>
        <time>2022-09-20T13:20:13Z</time>
      </trkpt>
      <trkpt lat="49.02372" lon="4.02266">
        <ele>104.4</ele>
        <time>2022-09-20T13:20:21Z</time>
      </trkpt>
      <trkpt lat="49.02382" lon="4.02183">
        <ele>104.2</ele>
        <time>2022-09-20T13:20:29Z</time>
      </trkpt>
      <trkpt lat="49.02384" lon="4.02173">
        <ele>104.2</ele>
        <time>2022-09-20T13:20:30Z</time>
      </trkpt>
      <trkpt lat="49.02385" lon="4.02164">
        <ele>104.4</ele>
        <time>2022-09-20T13:20:31Z</time>
      </trkpt>
      <trkpt lat="49.02396" lon="4.02081">
        <ele>104.8</ele>
        <time>2022-09-20T13:20:39Z</time>
      </trkpt>
      <trkpt lat="49.02407" lon="4.01995">
        <ele>104.8</ele>
        <time>2022-09-20T13:20:47Z</time>
      </trkpt>
      <trkpt lat="49.02409" lon="4.01984">
        <ele>104.8</ele>
        <time>2022-09-20T13:20:48Z</time>
      </trkpt>
      <trkpt lat="49.02419" lon="4.01903">
        <ele>104.2</ele>
        <time>2022-09-20T13:20:55Z</time>
      </trkpt>
      <trkpt lat="49.02421" lon="4.01878">
        <ele>103.8</ele>
        <time>2022-09-20T13:20:57Z</time>
      </trkpt>
      <trkpt lat="49.02423" lon="4.01865">
        <ele>103.8</ele>
        <time>2022-09-20T13:20:58Z</time>
      </trkpt>
      <trkpt lat="49.02427" lon="4.01838">
        <ele>102.6</ele>
        <time>2022-09-20T13:21:00Z</time>
      </trkpt>
      <trkpt lat="49.02431" lon="4.0181">
        <ele>101.6</ele>
        <time>2022-09-20T13:21:02Z</time>
      </trkpt>
      <trkpt lat="49.02434" lon="4.01788">
        <ele>100.4</ele>
        <time>2022-09-20T13:21:04Z</time>
      </trkpt>
      <trkpt lat="49.02438" lon="4.01754">
        <ele>99</ele>
        <time>2022-09-20T13:21:07Z</time>
      </trkpt>
      <trkpt lat="49.0244" lon="4.01735">
        <ele>98.2</ele>
        <time>2022-09-20T13:21:09Z</time>
      </trkpt>
      <trkpt lat="49.02441" lon="4.01728">
        <ele>98</ele>
        <time>2022-09-20T13:21:10Z</time>
      </trkpt>
      <trkpt lat="49.02443" lon="4.01722">
        <ele>97.4</ele>
        <time>2022-09-20T13:21:11Z</time>
      </trkpt>
      <trkpt lat="49.02444" lon="4.01714">
        <ele>96.4</ele>
        <time>2022-09-20T13:21:13Z</time>
      </trkpt>
      <trkpt lat="49.02444" lon="4.01711">
        <ele>95.6</ele>
        <time>2022-09-20T13:21:14Z</time>
      </trkpt>
      <trkpt lat="49.02446" lon="4.01695">
        <ele>94.4</ele>
        <time>2022-09-20T13:21:17Z</time>
      </trkpt>
      <trkpt lat="49.02447" lon="4.01691">
        <ele>94.2</ele>
        <time>2022-09-20T13:21:18Z</time>
      </trkpt>
      <trkpt lat="49.02448" lon="4.01685">
        <ele>94</ele>
        <time>2022-09-20T13:21:19Z</time>
      </trkpt>
      <trkpt lat="49.02452" lon="4.01666">
        <ele>93.4</ele>
        <time>2022-09-20T13:21:22Z</time>
      </trkpt>
      <trkpt lat="49.02454" lon="4.01657">
        <ele>93.2</ele>
        <time>2022-09-20T13:21:23Z</time>
      </trkpt>
      <trkpt lat="49.02461" lon="4.01625">
        <ele>92.4</ele>
        <time>2022-09-20T13:21:26Z</time>
      </trkpt>
      <trkpt lat="49.02465" lon="4.01606">
        <ele>91.8</ele>
        <time>2022-09-20T13:21:28Z</time>
      </trkpt>
      <trkpt lat="49.02474" lon="4.01556">
        <ele>91.2</ele>
        <time>2022-09-20T13:21:33Z</time>
      </trkpt>
      <trkpt lat="49.02476" lon="4.01547">
        <ele>91.2</ele>
        <time>2022-09-20T13:21:34Z</time>
      </trkpt>
      <trkpt lat="49.0249" lon="4.01479">
        <ele>90.8</ele>
        <time>2022-09-20T13:21:41Z</time>
      </trkpt>
      <trkpt lat="49.02496" lon="4.01446">
        <ele>90.8</ele>
        <time>2022-09-20T13:21:45Z</time>
      </trkpt>
      <trkpt lat="49.02505" lon="4.01401">
        <ele>92</ele>
        <time>2022-09-20T13:21:51Z</time>
      </trkpt>
      <trkpt lat="49.02511" lon="4.01376">
        <ele>92.4</ele>
        <time>2022-09-20T13:21:54Z</time>
      </trkpt>
      <trkpt lat="49.02514" lon="4.01362">
        <ele>92.8</ele>
        <time>2022-09-20T13:21:56Z</time>
      </trkpt>
      <trkpt lat="49.02518" lon="4.01347">
        <ele>93</ele>
        <time>2022-09-20T13:21:58Z</time>
      </trkpt>
      <trkpt lat="49.02524" lon="4.01322">
        <ele>93.6</ele>
        <time>2022-09-20T13:22:01Z</time>
      </trkpt>
      <trkpt lat="49.02533" lon="4.01281">
        <ele>93.8</ele>
        <time>2022-09-20T13:22:06Z</time>
      </trkpt>
      <trkpt lat="49.02551" lon="4.01221">
        <ele>93.8</ele>
        <time>2022-09-20T13:22:13Z</time>
      </trkpt>
      <trkpt lat="49.02566" lon="4.01176">
        <ele>93.6</ele>
        <time>2022-09-20T13:22:19Z</time>
      </trkpt>
      <trkpt lat="49.02569" lon="4.01169">
        <ele>93.6</ele>
        <time>2022-09-20T13:22:22Z</time>
      </trkpt>
      <trkpt lat="49.02569" lon="4.01169">
        <ele>93.2</ele>
        <time>2022-09-20T13:22:26Z</time>
      </trkpt>
      <trkpt lat="49.02573" lon="4.0116">
        <ele>92.8</ele>
        <time>2022-09-20T13:22:31Z</time>
      </trkpt>
      <trkpt lat="49.02578" lon="4.01148">
        <ele>92.4</ele>
        <time>2022-09-20T13:22:34Z</time>
      </trkpt>
      <trkpt lat="49.02581" lon="4.01141">
        <ele>92.4</ele>
        <time>2022-09-20T13:22:35Z</time>
      </trkpt>
      <trkpt lat="49.02596" lon="4.011">
        <ele>92.4</ele>
        <time>2022-09-20T13:22:40Z</time>
      </trkpt>
      <trkpt lat="49.02622" lon="4.0103">
        <ele>93.4</ele>
        <time>2022-09-20T13:22:48Z</time>
      </trkpt>
      <trkpt lat="49.02625" lon="4.01022">
        <ele>93.6</ele>
        <time>2022-09-20T13:22:49Z</time>
      </trkpt>
      <trkpt lat="49.02648" lon="4.00959">
        <ele>94.6</ele>
        <time>2022-09-20T13:22:57Z</time>
      </trkpt>
      <trkpt lat="49.02651" lon="4.00952">
        <ele>94.6</ele>
        <time>2022-09-20T13:22:58Z</time>
      </trkpt>
      <trkpt lat="49.0267" lon="4.00904">
        <ele>95.6</ele>
        <time>2022-09-20T13:23:05Z</time>
      </trkpt>
      <trkpt lat="49.02673" lon="4.00897">
        <ele>95.8</ele>
        <time>2022-09-20T13:23:06Z</time>
      </trkpt>
      <trkpt lat="49.02683" lon="4.0087">
        <ele>96.8</ele>
        <time>2022-09-20T13:23:10Z</time>
      </trkpt>
      <trkpt lat="49.02697" lon="4.00833">
        <ele>98</ele>
        <time>2022-09-20T13:23:16Z</time>
      </trkpt>
      <trkpt lat="49.02707" lon="4.00808">
        <ele>99</ele>
        <time>2022-09-20T13:23:20Z</time>
      </trkpt>
      <trkpt lat="49.02716" lon="4.00783">
        <ele>99.6</ele>
        <time>2022-09-20T13:23:24Z</time>
      </trkpt>
      <trkpt lat="49.02724" lon="4.00764">
        <ele>100.2</ele>
        <time>2022-09-20T13:23:27Z</time>
      </trkpt>
      <trkpt lat="49.02738" lon="4.00725">
        <ele>101.2</ele>
        <time>2022-09-20T13:23:33Z</time>
      </trkpt>
      <trkpt lat="49.0274" lon="4.00719">
        <ele>101.4</ele>
        <time>2022-09-20T13:23:34Z</time>
      </trkpt>
      <trkpt lat="49.02752" lon="4.00685">
        <ele>102.6</ele>
        <time>2022-09-20T13:23:39Z</time>
      </trkpt>
      <trkpt lat="49.02761" lon="4.00665">
        <ele>103.2</ele>
        <time>2022-09-20T13:23:42Z</time>
      </trkpt>
      <trkpt lat="49.02779" lon="4.00623">
        <ele>103.6</ele>
        <time>2022-09-20T13:23:48Z</time>
      </trkpt>
      <trkpt lat="49.02786" lon="4.00609">
        <ele>103.8</ele>
        <time>2022-09-20T13:23:50Z</time>
      </trkpt>
      <trkpt lat="49.02791" lon="4.00604">
        <ele>103.8</ele>
        <time>2022-09-20T13:23:51Z</time>
      </trkpt>
      <trkpt lat="49.02795" lon="4.00599">
        <ele>103.8</ele>
        <time>2022-09-20T13:23:52Z</time>
      </trkpt>
      <trkpt lat="49.02805" lon="4.00588">
        <ele>103.8</ele>
        <time>2022-09-20T13:23:54Z</time>
      </trkpt>
      <trkpt lat="49.02808" lon="4.00581">
        <ele>103.8</ele>
        <time>2022-09-20T13:23:55Z</time>
      </trkpt>
      <trkpt lat="49.0281" lon="4.00572">
        <ele>103.8</ele>
        <time>2022-09-20T13:23:56Z</time>
      </trkpt>
      <trkpt lat="49.02812" lon="4.00552">
        <ele>103.8</ele>
        <time>2022-09-20T13:23:58Z</time>
      </trkpt>
      <trkpt lat="49.02814" lon="4.00541">
        <ele>103.8</ele>
        <time>2022-09-20T13:23:59Z</time>
      </trkpt>
      <trkpt lat="49.02819" lon="4.00521">
        <ele>103.6</ele>
        <time>2022-09-20T13:24:01Z</time>
      </trkpt>
      <trkpt lat="49.02822" lon="4.00511">
        <ele>103.6</ele>
        <time>2022-09-20T13:24:02Z</time>
      </trkpt>
      <trkpt lat="49.02834" lon="4.00472">
        <ele>102.6</ele>
        <time>2022-09-20T13:24:06Z</time>
      </trkpt>
      <trkpt lat="49.0284" lon="4.00455">
        <ele>102.2</ele>
        <time>2022-09-20T13:24:08Z</time>
      </trkpt>
      <trkpt lat="49.02844" lon="4.00444">
        <ele>101.6</ele>
        <time>2022-09-20T13:24:10Z</time>
      </trkpt>
      <trkpt lat="49.02847" lon="4.00435">
        <ele>101</ele>
        <time>2022-09-20T13:24:12Z</time>
      </trkpt>
      <trkpt lat="49.02848" lon="4.00428">
        <ele>100.6</ele>
        <time>2022-09-20T13:24:14Z</time>
      </trkpt>
      <trkpt lat="49.02846" lon="4.00419">
        <ele>100.4</ele>
        <time>2022-09-20T13:24:16Z</time>
      </trkpt>
      <trkpt lat="49.02839" lon="4.00403">
        <ele>100</ele>
        <time>2022-09-20T13:24:19Z</time>
      </trkpt>
      <trkpt lat="49.02827" lon="4.00387">
        <ele>99.6</ele>
        <time>2022-09-20T13:24:22Z</time>
      </trkpt>
      <trkpt lat="49.0281" lon="4.00366">
        <ele>99</ele>
        <time>2022-09-20T13:24:25Z</time>
      </trkpt>
      <trkpt lat="49.02804" lon="4.00357">
        <ele>98.6</ele>
        <time>2022-09-20T13:24:26Z</time>
      </trkpt>
      <trkpt lat="49.02799" lon="4.00348">
        <ele>98.4</ele>
        <time>2022-09-20T13:24:27Z</time>
      </trkpt>
      <trkpt lat="49.0279" lon="4.0033">
        <ele>97.8</ele>
        <time>2022-09-20T13:24:29Z</time>
      </trkpt>
      <trkpt lat="49.02783" lon="4.00312">
        <ele>97.2</ele>
        <time>2022-09-20T13:24:31Z</time>
      </trkpt>
      <trkpt lat="49.02763" lon="4.00261">
        <ele>97</ele>
        <time>2022-09-20T13:24:37Z</time>
      </trkpt>
      <trkpt lat="49.02733" lon="4.00184">
        <ele>98.2</ele>
        <time>2022-09-20T13:24:47Z</time>
      </trkpt>
      <trkpt lat="49.0273" lon="4.00177">
        <ele>98.4</ele>
        <time>2022-09-20T13:24:48Z</time>
      </trkpt>
      <trkpt lat="49.02713" lon="4.00136">
        <ele>99.6</ele>
        <time>2022-09-20T13:24:54Z</time>
      </trkpt>
      <trkpt lat="49.02708" lon="4.00122">
        <ele>100</ele>
        <time>2022-09-20T13:24:56Z</time>
      </trkpt>
      <trkpt lat="49.02694" lon="4.00088">
        <ele>100.8</ele>
        <time>2022-09-20T13:25:01Z</time>
      </trkpt>
      <trkpt lat="49.02677" lon="4.00048">
        <ele>101.6</ele>
        <time>2022-09-20T13:25:07Z</time>
      </trkpt>
      <trkpt lat="49.02674" lon="4.00042">
        <ele>102</ele>
        <time>2022-09-20T13:25:08Z</time>
      </trkpt>
      <trkpt lat="49.02672" lon="4.00035">
        <ele>102.4</ele>
        <time>2022-09-20T13:25:09Z</time>
      </trkpt>
      <trkpt lat="49.02663" lon="4.00011">
        <ele>103.2</ele>
        <time>2022-09-20T13:25:13Z</time>
      </trkpt>
      <trkpt lat="49.02659" lon="3.99999">
        <ele>103.6</ele>
        <time>2022-09-20T13:25:15Z</time>
      </trkpt>
      <trkpt lat="49.02648" lon="3.9997">
        <ele>104.4</ele>
        <time>2022-09-20T13:25:20Z</time>
      </trkpt>
      <trkpt lat="49.0264" lon="3.99947">
        <ele>105.4</ele>
        <time>2022-09-20T13:25:24Z</time>
      </trkpt>
      <trkpt lat="49.02638" lon="3.99941">
        <ele>105.6</ele>
        <time>2022-09-20T13:25:25Z</time>
      </trkpt>
      <trkpt lat="49.02631" lon="3.99916">
        <ele>106.8</ele>
        <time>2022-09-20T13:25:29Z</time>
      </trkpt>
      <trkpt lat="49.02623" lon="3.99892">
        <ele>107.8</ele>
        <time>2022-09-20T13:25:33Z</time>
      </trkpt>
      <trkpt lat="49.02615" lon="3.99862">
        <ele>108.8</ele>
        <time>2022-09-20T13:25:38Z</time>
      </trkpt>
      <trkpt lat="49.02606" lon="3.99833">
        <ele>110</ele>
        <time>2022-09-20T13:25:43Z</time>
      </trkpt>
      <trkpt lat="49.02603" lon="3.99821">
        <ele>110.2</ele>
        <time>2022-09-20T13:25:45Z</time>
      </trkpt>
      <trkpt lat="49.02594" lon="3.99782">
        <ele>111</ele>
        <time>2022-09-20T13:25:51Z</time>
      </trkpt>
      <trkpt lat="49.02589" lon="3.99754">
        <ele>111.8</ele>
        <time>2022-09-20T13:25:55Z</time>
      </trkpt>
      <trkpt lat="49.02586" lon="3.99741">
        <ele>112.2</ele>
        <time>2022-09-20T13:25:57Z</time>
      </trkpt>
      <trkpt lat="49.0258" lon="3.997">
        <ele>113.2</ele>
        <time>2022-09-20T13:26:03Z</time>
      </trkpt>
      <trkpt lat="49.02577" lon="3.99678">
        <ele>113.6</ele>
        <time>2022-09-20T13:26:06Z</time>
      </trkpt>
      <trkpt lat="49.02574" lon="3.99656">
        <ele>114.4</ele>
        <time>2022-09-20T13:26:09Z</time>
      </trkpt>
      <trkpt lat="49.0257" lon="3.99618">
        <ele>115.6</ele>
        <time>2022-09-20T13:26:14Z</time>
      </trkpt>
      <trkpt lat="49.02569" lon="3.99611">
        <ele>115.6</ele>
        <time>2022-09-20T13:26:15Z</time>
      </trkpt>
      <trkpt lat="49.02562" lon="3.99551">
        <ele>116.2</ele>
        <time>2022-09-20T13:26:23Z</time>
      </trkpt>
      <trkpt lat="49.02559" lon="3.99529">
        <ele>116.6</ele>
        <time>2022-09-20T13:26:26Z</time>
      </trkpt>
      <trkpt lat="49.02551" lon="3.99462">
        <ele>117.6</ele>
        <time>2022-09-20T13:26:35Z</time>
      </trkpt>
      <trkpt lat="49.02541" lon="3.99404">
        <ele>118.6</ele>
        <time>2022-09-20T13:26:43Z</time>
      </trkpt>
      <trkpt lat="49.02537" lon="3.99376">
        <ele>119.2</ele>
        <time>2022-09-20T13:26:47Z</time>
      </trkpt>
      <trkpt lat="49.02532" lon="3.99347">
        <ele>119.6</ele>
        <time>2022-09-20T13:26:51Z</time>
      </trkpt>
      <trkpt lat="49.02525" lon="3.99303">
        <ele>121</ele>
        <time>2022-09-20T13:26:57Z</time>
      </trkpt>
      <trkpt lat="49.02513" lon="3.9923">
        <ele>122</ele>
        <time>2022-09-20T13:27:07Z</time>
      </trkpt>
      <trkpt lat="49.02511" lon="3.99215">
        <ele>122.4</ele>
        <time>2022-09-20T13:27:09Z</time>
      </trkpt>
      <trkpt lat="49.02507" lon="3.99187">
        <ele>123</ele>
        <time>2022-09-20T13:27:13Z</time>
      </trkpt>
      <trkpt lat="49.025" lon="3.99145">
        <ele>124.2</ele>
        <time>2022-09-20T13:27:19Z</time>
      </trkpt>
      <trkpt lat="49.02496" lon="3.99116">
        <ele>125</ele>
        <time>2022-09-20T13:27:23Z</time>
      </trkpt>
      <trkpt lat="49.02493" lon="3.99101">
        <ele>125.2</ele>
        <time>2022-09-20T13:27:25Z</time>
      </trkpt>
      <trkpt lat="49.02488" lon="3.99067">
        <ele>126.2</ele>
        <time>2022-09-20T13:27:30Z</time>
      </trkpt>
      <trkpt lat="49.02487" lon="3.99061">
        <ele>126.4</ele>
        <time>2022-09-20T13:27:32Z</time>
      </trkpt>
      <trkpt lat="49.02484" lon="3.99035">
        <ele>127.2</ele>
        <time>2022-09-20T13:27:36Z</time>
      </trkpt>
      <trkpt lat="49.02483" lon="3.99028">
        <ele>127.4</ele>
        <time>2022-09-20T13:27:37Z</time>
      </trkpt>
      <trkpt lat="49.02478" lon="3.98996">
        <ele>128.4</ele>
        <time>2022-09-20T13:27:42Z</time>
      </trkpt>
      <trkpt lat="49.02473" lon="3.98973">
        <ele>129.6</ele>
        <time>2022-09-20T13:27:46Z</time>
      </trkpt>
      <trkpt lat="49.02468" lon="3.98941">
        <ele>130.8</ele>
        <time>2022-09-20T13:27:51Z</time>
      </trkpt>
      <trkpt lat="49.02463" lon="3.9891">
        <ele>132</ele>
        <time>2022-09-20T13:27:56Z</time>
      </trkpt>
      <trkpt lat="49.02455" lon="3.9886">
        <ele>133</ele>
        <time>2022-09-20T13:28:03Z</time>
      </trkpt>
      <trkpt lat="49.02452" lon="3.98841">
        <ele>134</ele>
        <time>2022-09-20T13:28:06Z</time>
      </trkpt>
      <trkpt lat="49.02451" lon="3.98835">
        <ele>134.4</ele>
        <time>2022-09-20T13:28:07Z</time>
      </trkpt>
      <trkpt lat="49.02444" lon="3.98804">
        <ele>135.8</ele>
        <time>2022-09-20T13:28:12Z</time>
      </trkpt>
      <trkpt lat="49.02438" lon="3.98772">
        <ele>137.2</ele>
        <time>2022-09-20T13:28:17Z</time>
      </trkpt>
      <trkpt lat="49.02431" lon="3.98739">
        <ele>138.4</ele>
        <time>2022-09-20T13:28:22Z</time>
      </trkpt>
      <trkpt lat="49.02426" lon="3.98713">
        <ele>139.2</ele>
        <time>2022-09-20T13:28:27Z</time>
      </trkpt>
      <trkpt lat="49.02422" lon="3.98694">
        <ele>140</ele>
        <time>2022-09-20T13:28:29Z</time>
      </trkpt>
      <trkpt lat="49.02419" lon="3.9868">
        <ele>141.4</ele>
        <time>2022-09-20T13:28:31Z</time>
      </trkpt>
      <trkpt lat="49.02416" lon="3.98667">
        <ele>143.4</ele>
        <time>2022-09-20T13:28:33Z</time>
      </trkpt>
      <trkpt lat="49.02413" lon="3.98645">
        <ele>144</ele>
        <time>2022-09-20T13:28:36Z</time>
      </trkpt>
      <trkpt lat="49.02409" lon="3.9858">
        <ele>144</ele>
        <time>2022-09-20T13:28:45Z</time>
      </trkpt>
      <trkpt lat="49.02409" lon="3.98558">
        <ele>144.6</ele>
        <time>2022-09-20T13:28:48Z</time>
      </trkpt>
      <trkpt lat="49.02409" lon="3.98508">
        <ele>145.4</ele>
        <time>2022-09-20T13:28:55Z</time>
      </trkpt>
      <trkpt lat="49.02407" lon="3.98494">
        <ele>145.4</ele>
        <time>2022-09-20T13:28:57Z</time>
      </trkpt>
      <trkpt lat="49.02402" lon="3.98459">
        <ele>146.6</ele>
        <time>2022-09-20T13:29:02Z</time>
      </trkpt>
      <trkpt lat="49.02401" lon="3.98452">
        <ele>146.6</ele>
        <time>2022-09-20T13:29:03Z</time>
      </trkpt>
      <trkpt lat="49.02398" lon="3.98433">
        <ele>148</ele>
        <time>2022-09-20T13:29:06Z</time>
      </trkpt>
      <trkpt lat="49.02392" lon="3.984">
        <ele>148.8</ele>
        <time>2022-09-20T13:29:11Z</time>
      </trkpt>
      <trkpt lat="49.02389" lon="3.98386">
        <ele>149.6</ele>
        <time>2022-09-20T13:29:13Z</time>
      </trkpt>
      <trkpt lat="49.02387" lon="3.98373">
        <ele>149.8</ele>
        <time>2022-09-20T13:29:15Z</time>
      </trkpt>
      <trkpt lat="49.02382" lon="3.98346">
        <ele>151.2</ele>
        <time>2022-09-20T13:29:19Z</time>
      </trkpt>
      <trkpt lat="49.0238" lon="3.98325">
        <ele>151.6</ele>
        <time>2022-09-20T13:29:22Z</time>
      </trkpt>
      <trkpt lat="49.02377" lon="3.98297">
        <ele>152.4</ele>
        <time>2022-09-20T13:29:26Z</time>
      </trkpt>
      <trkpt lat="49.02377" lon="3.98251">
        <ele>152.8</ele>
        <time>2022-09-20T13:29:32Z</time>
      </trkpt>
      <trkpt lat="49.02382" lon="3.98176">
        <ele>152.8</ele>
        <time>2022-09-20T13:29:41Z</time>
      </trkpt>
      <trkpt lat="49.02393" lon="3.98101">
        <ele>152.6</ele>
        <time>2022-09-20T13:29:49Z</time>
      </trkpt>
      <trkpt lat="49.02413" lon="3.98036">
        <ele>152.4</ele>
        <time>2022-09-20T13:29:56Z</time>
      </trkpt>
      <trkpt lat="49.02422" lon="3.9801">
        <ele>152</ele>
        <time>2022-09-20T13:29:59Z</time>
      </trkpt>
      <trkpt lat="49.02433" lon="3.97986">
        <ele>152</ele>
        <time>2022-09-20T13:30:02Z</time>
      </trkpt>
      <trkpt lat="49.02438" lon="3.97981">
        <ele>151.8</ele>
        <time>2022-09-20T13:30:03Z</time>
      </trkpt>
      <trkpt lat="49.02466" lon="3.97954">
        <ele>151.2</ele>
        <time>2022-09-20T13:30:08Z</time>
      </trkpt>
      <trkpt lat="49.0249" lon="3.97932">
        <ele>150.8</ele>
        <time>2022-09-20T13:30:12Z</time>
      </trkpt>
      <trkpt lat="49.02508" lon="3.97916">
        <ele>150.2</ele>
        <time>2022-09-20T13:30:15Z</time>
      </trkpt>
      <trkpt lat="49.02539" lon="3.97889">
        <ele>149</ele>
        <time>2022-09-20T13:30:20Z</time>
      </trkpt>
      <trkpt lat="49.02577" lon="3.97853">
        <ele>148.8</ele>
        <time>2022-09-20T13:30:27Z</time>
      </trkpt>
      <trkpt lat="49.02595" lon="3.97831">
        <ele>149.2</ele>
        <time>2022-09-20T13:30:31Z</time>
      </trkpt>
      <trkpt lat="49.02602" lon="3.97818">
        <ele>149.8</ele>
        <time>2022-09-20T13:30:33Z</time>
      </trkpt>
      <trkpt lat="49.02605" lon="3.9781">
        <ele>150.2</ele>
        <time>2022-09-20T13:30:34Z</time>
      </trkpt>
      <trkpt lat="49.02618" lon="3.97781">
        <ele>150.6</ele>
        <time>2022-09-20T13:30:39Z</time>
      </trkpt>
      <trkpt lat="49.02626" lon="3.97763">
        <ele>151.4</ele>
        <time>2022-09-20T13:30:42Z</time>
      </trkpt>
      <trkpt lat="49.02631" lon="3.97751">
        <ele>152.6</ele>
        <time>2022-09-20T13:30:45Z</time>
      </trkpt>
      <trkpt lat="49.02642" lon="3.97727">
        <ele>153.4</ele>
        <time>2022-09-20T13:30:48Z</time>
      </trkpt>
      <trkpt lat="49.02647" lon="3.97715">
        <ele>154</ele>
        <time>2022-09-20T13:30:50Z</time>
      </trkpt>
      <trkpt lat="49.02659" lon="3.97692">
        <ele>154.8</ele>
        <time>2022-09-20T13:30:54Z</time>
      </trkpt>
      <trkpt lat="49.02668" lon="3.97675">
        <ele>155.8</ele>
        <time>2022-09-20T13:30:57Z</time>
      </trkpt>
      <trkpt lat="49.02674" lon="3.97665">
        <ele>156.2</ele>
        <time>2022-09-20T13:30:59Z</time>
      </trkpt>
      <trkpt lat="49.02693" lon="3.97644">
        <ele>156.8</ele>
        <time>2022-09-20T13:31:04Z</time>
      </trkpt>
      <trkpt lat="49.02712" lon="3.97622">
        <ele>157.4</ele>
        <time>2022-09-20T13:31:09Z</time>
      </trkpt>
      <trkpt lat="49.02719" lon="3.97612">
        <ele>157.6</ele>
        <time>2022-09-20T13:31:11Z</time>
      </trkpt>
      <trkpt lat="49.02723" lon="3.97608">
        <ele>157.6</ele>
        <time>2022-09-20T13:31:12Z</time>
      </trkpt>
      <trkpt lat="49.02727" lon="3.97603">
        <ele>157.6</ele>
        <time>2022-09-20T13:31:13Z</time>
      </trkpt>
      <trkpt lat="49.02755" lon="3.97567">
        <ele>158.4</ele>
        <time>2022-09-20T13:31:21Z</time>
      </trkpt>
      <trkpt lat="49.02771" lon="3.97542">
        <ele>158.8</ele>
        <time>2022-09-20T13:31:26Z</time>
      </trkpt>
      <trkpt lat="49.02778" lon="3.97533">
        <ele>159</ele>
        <time>2022-09-20T13:31:28Z</time>
      </trkpt>
      <trkpt lat="49.0279" lon="3.97512">
        <ele>159.4</ele>
        <time>2022-09-20T13:31:32Z</time>
      </trkpt>
      <trkpt lat="49.02798" lon="3.97499">
        <ele>159.6</ele>
        <time>2022-09-20T13:31:35Z</time>
      </trkpt>
      <trkpt lat="49.02811" lon="3.97476">
        <ele>160.6</ele>
        <time>2022-09-20T13:31:40Z</time>
      </trkpt>
      <trkpt lat="49.02819" lon="3.97465">
        <ele>161.4</ele>
        <time>2022-09-20T13:31:43Z</time>
      </trkpt>
      <trkpt lat="49.02823" lon="3.97458">
        <ele>162</ele>
        <time>2022-09-20T13:31:45Z</time>
      </trkpt>
      <trkpt lat="49.02833" lon="3.97445">
        <ele>163.2</ele>
        <time>2022-09-20T13:31:49Z</time>
      </trkpt>
      <trkpt lat="49.02843" lon="3.97435">
        <ele>164.4</ele>
        <time>2022-09-20T13:31:53Z</time>
      </trkpt>
      <trkpt lat="49.02848" lon="3.97431">
        <ele>165.6</ele>
        <time>2022-09-20T13:31:56Z</time>
      </trkpt>
      <trkpt lat="49.02853" lon="3.97427">
        <ele>166</ele>
        <time>2022-09-20T13:31:58Z</time>
      </trkpt>
      <trkpt lat="49.02856" lon="3.97425">
        <ele>166.6</ele>
        <time>2022-09-20T13:31:59Z</time>
      </trkpt>
      <trkpt lat="49.02861" lon="3.97421">
        <ele>167.6</ele>
        <time>2022-09-20T13:32:01Z</time>
      </trkpt>
      <trkpt lat="49.02871" lon="3.97412">
        <ele>168.8</ele>
        <time>2022-09-20T13:32:04Z</time>
      </trkpt>
      <trkpt lat="49.0288" lon="3.97406">
        <ele>170</ele>
        <time>2022-09-20T13:32:07Z</time>
      </trkpt>
      <trkpt lat="49.02882" lon="3.97403">
        <ele>170.6</ele>
        <time>2022-09-20T13:32:08Z</time>
      </trkpt>
      <trkpt lat="49.02885" lon="3.97401">
        <ele>171.2</ele>
        <time>2022-09-20T13:32:09Z</time>
      </trkpt>
      <trkpt lat="49.02894" lon="3.97395">
        <ele>172.4</ele>
        <time>2022-09-20T13:32:12Z</time>
      </trkpt>
      <trkpt lat="49.02902" lon="3.97389">
        <ele>174</ele>
        <time>2022-09-20T13:32:15Z</time>
      </trkpt>
      <trkpt lat="49.02911" lon="3.97384">
        <ele>175.2</ele>
        <time>2022-09-20T13:32:18Z</time>
      </trkpt>
      <trkpt lat="49.02914" lon="3.97382">
        <ele>175.4</ele>
        <time>2022-09-20T13:32:19Z</time>
      </trkpt>
      <trkpt lat="49.0292" lon="3.97379">
        <ele>176.4</ele>
        <time>2022-09-20T13:32:21Z</time>
      </trkpt>
      <trkpt lat="49.02936" lon="3.97373">
        <ele>177.4</ele>
        <time>2022-09-20T13:32:26Z</time>
      </trkpt>
      <trkpt lat="49.02946" lon="3.9737">
        <ele>178</ele>
        <time>2022-09-20T13:32:29Z</time>
      </trkpt>
      <trkpt lat="49.02954" lon="3.97368">
        <ele>178.8</ele>
        <time>2022-09-20T13:32:32Z</time>
      </trkpt>
      <trkpt lat="49.02971" lon="3.97366">
        <ele>180</ele>
        <time>2022-09-20T13:32:38Z</time>
      </trkpt>
      <trkpt lat="49.02978" lon="3.97363">
        <ele>181.4</ele>
        <time>2022-09-20T13:32:41Z</time>
      </trkpt>
      <trkpt lat="49.02984" lon="3.97354">
        <ele>182.6</ele>
        <time>2022-09-20T13:32:44Z</time>
      </trkpt>
      <trkpt lat="49.02991" lon="3.9734">
        <ele>183.6</ele>
        <time>2022-09-20T13:32:48Z</time>
      </trkpt>
      <trkpt lat="49.02998" lon="3.97325">
        <ele>185</ele>
        <time>2022-09-20T13:32:53Z</time>
      </trkpt>
      <trkpt lat="49.03007" lon="3.9731">
        <ele>186</ele>
        <time>2022-09-20T13:32:58Z</time>
      </trkpt>
      <trkpt lat="49.03015" lon="3.973">
        <ele>187.2</ele>
        <time>2022-09-20T13:33:02Z</time>
      </trkpt>
      <trkpt lat="49.03019" lon="3.97296">
        <ele>187.6</ele>
        <time>2022-09-20T13:33:03Z</time>
      </trkpt>
      <trkpt lat="49.03022" lon="3.97293">
        <ele>188.4</ele>
        <time>2022-09-20T13:33:05Z</time>
      </trkpt>
      <trkpt lat="49.03029" lon="3.97285">
        <ele>189.6</ele>
        <time>2022-09-20T13:33:09Z</time>
      </trkpt>
      <trkpt lat="49.03037" lon="3.97276">
        <ele>190.6</ele>
        <time>2022-09-20T13:33:13Z</time>
      </trkpt>
      <trkpt lat="49.03045" lon="3.97267">
        <ele>192.2</ele>
        <time>2022-09-20T13:33:17Z</time>
      </trkpt>
      <trkpt lat="49.03046" lon="3.97266">
        <ele>192.4</ele>
        <time>2022-09-20T13:33:18Z</time>
      </trkpt>
      <trkpt lat="49.03052" lon="3.97259">
        <ele>193.2</ele>
        <time>2022-09-20T13:33:21Z</time>
      </trkpt>
      <trkpt lat="49.03059" lon="3.97252">
        <ele>194.6</ele>
        <time>2022-09-20T13:33:24Z</time>
      </trkpt>
      <trkpt lat="49.03063" lon="3.97249">
        <ele>195.8</ele>
        <time>2022-09-20T13:33:27Z</time>
      </trkpt>
      <trkpt lat="49.03068" lon="3.97242">
        <ele>196.6</ele>
        <time>2022-09-20T13:33:29Z</time>
      </trkpt>
      <trkpt lat="49.0307" lon="3.97239">
        <ele>197.2</ele>
        <time>2022-09-20T13:33:31Z</time>
      </trkpt>
      <trkpt lat="49.03079" lon="3.97231">
        <ele>198.8</ele>
        <time>2022-09-20T13:33:36Z</time>
      </trkpt>
      <trkpt lat="49.03084" lon="3.97226">
        <ele>199.6</ele>
        <time>2022-09-20T13:33:40Z</time>
      </trkpt>
      <trkpt lat="49.03087" lon="3.97223">
        <ele>199.8</ele>
        <time>2022-09-20T13:33:41Z</time>
      </trkpt>
      <trkpt lat="49.03095" lon="3.97213">
        <ele>201</ele>
        <time>2022-09-20T13:33:48Z</time>
      </trkpt>
      <trkpt lat="49.03095" lon="3.97212">
        <ele>201</ele>
        <time>2022-09-20T13:33:49Z</time>
      </trkpt>
      <trkpt lat="49.03108" lon="3.97197">
        <ele>201.8</ele>
        <time>2022-09-20T13:33:59Z</time>
      </trkpt>
      <trkpt lat="49.03112" lon="3.97193">
        <ele>202.2</ele>
        <time>2022-09-20T13:34:00Z</time>
      </trkpt>
      <trkpt lat="49.03119" lon="3.97187">
        <ele>202.4</ele>
        <time>2022-09-20T13:34:04Z</time>
      </trkpt>
      <trkpt lat="49.03148" lon="3.9717">
        <ele>202.6</ele>
        <time>2022-09-20T13:34:12Z</time>
      </trkpt>
      <trkpt lat="49.03179" lon="3.97162">
        <ele>202.8</ele>
        <time>2022-09-20T13:34:20Z</time>
      </trkpt>
      <trkpt lat="49.03209" lon="3.97153">
        <ele>203</ele>
        <time>2022-09-20T13:34:28Z</time>
      </trkpt>
      <trkpt lat="49.03221" lon="3.97151">
        <ele>203.2</ele>
        <time>2022-09-20T13:34:30Z</time>
      </trkpt>
      <trkpt lat="49.03226" lon="3.97149">
        <ele>203.4</ele>
        <time>2022-09-20T13:34:31Z</time>
      </trkpt>
      <trkpt lat="49.03251" lon="3.97141">
        <ele>203.8</ele>
        <time>2022-09-20T13:34:37Z</time>
      </trkpt>
      <trkpt lat="49.03261" lon="3.97136">
        <ele>204.4</ele>
        <time>2022-09-20T13:34:40Z</time>
      </trkpt>
      <trkpt lat="49.03268" lon="3.97131">
        <ele>204.6</ele>
        <time>2022-09-20T13:34:42Z</time>
      </trkpt>
      <trkpt lat="49.03286" lon="3.97117">
        <ele>204.6</ele>
        <time>2022-09-20T13:34:46Z</time>
      </trkpt>
      <trkpt lat="49.03291" lon="3.97111">
        <ele>204.6</ele>
        <time>2022-09-20T13:34:47Z</time>
      </trkpt>
      <trkpt lat="49.03294" lon="3.97103">
        <ele>204.6</ele>
        <time>2022-09-20T13:34:48Z</time>
      </trkpt>
      <trkpt lat="49.03299" lon="3.97081">
        <ele>204.6</ele>
        <time>2022-09-20T13:34:50Z</time>
      </trkpt>
      <trkpt lat="49.03301" lon="3.97069">
        <ele>204</ele>
        <time>2022-09-20T13:34:52Z</time>
      </trkpt>
      <trkpt lat="49.03304" lon="3.97044">
        <ele>202.6</ele>
        <time>2022-09-20T13:34:54Z</time>
      </trkpt>
      <trkpt lat="49.03309" lon="3.97021">
        <ele>201.4</ele>
        <time>2022-09-20T13:34:56Z</time>
      </trkpt>
      <trkpt lat="49.0332" lon="3.96983">
        <ele>200.4</ele>
        <time>2022-09-20T13:34:58Z</time>
      </trkpt>
      <trkpt lat="49.03324" lon="3.96972">
        <ele>199</ele>
        <time>2022-09-20T13:35:00Z</time>
      </trkpt>
      <trkpt lat="49.03336" lon="3.96935">
        <ele>198</ele>
        <time>2022-09-20T13:35:02Z</time>
      </trkpt>
      <trkpt lat="49.03342" lon="3.96919">
        <ele>196.2</ele>
        <time>2022-09-20T13:35:04Z</time>
      </trkpt>
      <trkpt lat="49.03363" lon="3.96871">
        <ele>194.8</ele>
        <time>2022-09-20T13:35:07Z</time>
      </trkpt>
      <trkpt lat="49.03363" lon="3.96871">
        <ele>193.6</ele>
        <time>2022-09-20T13:35:08Z</time>
      </trkpt>
      <trkpt lat="49.03374" lon="3.96845">
        <ele>192.6</ele>
        <time>2022-09-20T13:35:09Z</time>
      </trkpt>
      <trkpt lat="49.03379" lon="3.96834">
        <ele>191</ele>
        <time>2022-09-20T13:35:11Z</time>
      </trkpt>
      <trkpt lat="49.03388" lon="3.96815">
        <ele>189.8</ele>
        <time>2022-09-20T13:35:13Z</time>
      </trkpt>
      <trkpt lat="49.03401" lon="3.96792">
        <ele>188.8</ele>
        <time>2022-09-20T13:35:14Z</time>
      </trkpt>
      <trkpt lat="49.03401" lon="3.96792">
        <ele>187.8</ele>
        <time>2022-09-20T13:35:15Z</time>
      </trkpt>
      <trkpt lat="49.03407" lon="3.96783">
        <ele>186.4</ele>
        <time>2022-09-20T13:35:16Z</time>
      </trkpt>
      <trkpt lat="49.03412" lon="3.96774">
        <ele>186</ele>
        <time>2022-09-20T13:35:17Z</time>
      </trkpt>
      <trkpt lat="49.03421" lon="3.96749">
        <ele>185</ele>
        <time>2022-09-20T13:35:18Z</time>
      </trkpt>
      <trkpt lat="49.03425" lon="3.96736">
        <ele>184.4</ele>
        <time>2022-09-20T13:35:19Z</time>
      </trkpt>
      <trkpt lat="49.03425" lon="3.96736">
        <ele>183.2</ele>
        <time>2022-09-20T13:35:20Z</time>
      </trkpt>
      <trkpt lat="49.03432" lon="3.96713">
        <ele>181.8</ele>
        <time>2022-09-20T13:35:22Z</time>
      </trkpt>
      <trkpt lat="49.03436" lon="3.96701">
        <ele>180.8</ele>
        <time>2022-09-20T13:35:23Z</time>
      </trkpt>
      <trkpt lat="49.03447" lon="3.96667">
        <ele>179.6</ele>
        <time>2022-09-20T13:35:25Z</time>
      </trkpt>
      <trkpt lat="49.03447" lon="3.96667">
        <ele>178.8</ele>
        <time>2022-09-20T13:35:26Z</time>
      </trkpt>
      <trkpt lat="49.03452" lon="3.96657">
        <ele>177.8</ele>
        <time>2022-09-20T13:35:27Z</time>
      </trkpt>
      <trkpt lat="49.03456" lon="3.9665">
        <ele>177.4</ele>
        <time>2022-09-20T13:35:28Z</time>
      </trkpt>
      <trkpt lat="49.03462" lon="3.96641">
        <ele>176.6</ele>
        <time>2022-09-20T13:35:29Z</time>
      </trkpt>
      <trkpt lat="49.03475" lon="3.96623">
        <ele>175.6</ele>
        <time>2022-09-20T13:35:30Z</time>
      </trkpt>
      <trkpt lat="49.03475" lon="3.96623">
        <ele>175</ele>
        <time>2022-09-20T13:35:31Z</time>
      </trkpt>
      <trkpt lat="49.03481" lon="3.96615">
        <ele>173.8</ele>
        <time>2022-09-20T13:35:32Z</time>
      </trkpt>
      <trkpt lat="49.03492" lon="3.96601">
        <ele>171.8</ele>
        <time>2022-09-20T13:35:34Z</time>
      </trkpt>
      <trkpt lat="49.03503" lon="3.96584">
        <ele>170.2</ele>
        <time>2022-09-20T13:35:35Z</time>
      </trkpt>
      <trkpt lat="49.03509" lon="3.96577">
        <ele>168.4</ele>
        <time>2022-09-20T13:35:37Z</time>
      </trkpt>
      <trkpt lat="49.03525" lon="3.96561">
        <ele>166.6</ele>
        <time>2022-09-20T13:35:39Z</time>
      </trkpt>
      <trkpt lat="49.03532" lon="3.96555">
        <ele>164.8</ele>
        <time>2022-09-20T13:35:41Z</time>
      </trkpt>
      <trkpt lat="49.03538" lon="3.96551">
        <ele>163.4</ele>
        <time>2022-09-20T13:35:42Z</time>
      </trkpt>
      <trkpt lat="49.03553" lon="3.96536">
        <ele>161</ele>
        <time>2022-09-20T13:35:44Z</time>
      </trkpt>
      <trkpt lat="49.03561" lon="3.96526">
        <ele>159.4</ele>
        <time>2022-09-20T13:35:46Z</time>
      </trkpt>
      <trkpt lat="49.03564" lon="3.96524">
        <ele>158.8</ele>
        <time>2022-09-20T13:35:47Z</time>
      </trkpt>
      <trkpt lat="49.03566" lon="3.96522">
        <ele>157.6</ele>
        <time>2022-09-20T13:35:48Z</time>
      </trkpt>
      <trkpt lat="49.03568" lon="3.96521">
        <ele>156.2</ele>
        <time>2022-09-20T13:35:49Z</time>
      </trkpt>
      <trkpt lat="49.03573" lon="3.96525">
        <ele>154.6</ele>
        <time>2022-09-20T13:35:51Z</time>
      </trkpt>
      <trkpt lat="49.03574" lon="3.96531">
        <ele>153.6</ele>
        <time>2022-09-20T13:35:53Z</time>
      </trkpt>
      <trkpt lat="49.03575" lon="3.96544">
        <ele>152.8</ele>
        <time>2022-09-20T13:35:55Z</time>
      </trkpt>
      <trkpt lat="49.03574" lon="3.96553">
        <ele>152.2</ele>
        <time>2022-09-20T13:35:56Z</time>
      </trkpt>
      <trkpt lat="49.03573" lon="3.96615">
        <ele>151</ele>
        <time>2022-09-20T13:36:01Z</time>
      </trkpt>
      <trkpt lat="49.03574" lon="3.96625">
        <ele>150.8</ele>
        <time>2022-09-20T13:36:03Z</time>
      </trkpt>
      <trkpt lat="49.03579" lon="3.96667">
        <ele>150.6</ele>
        <time>2022-09-20T13:36:06Z</time>
      </trkpt>
      <trkpt lat="49.03579" lon="3.96667">
        <ele>150.4</ele>
        <time>2022-09-20T13:36:07Z</time>
      </trkpt>
      <trkpt lat="49.03587" lon="3.96707">
        <ele>150.2</ele>
        <time>2022-09-20T13:36:10Z</time>
      </trkpt>
      <trkpt lat="49.0359" lon="3.96719">
        <ele>150.2</ele>
        <time>2022-09-20T13:36:12Z</time>
      </trkpt>
      <trkpt lat="49.03593" lon="3.96729">
        <ele>150</ele>
        <time>2022-09-20T13:36:13Z</time>
      </trkpt>
      <trkpt lat="49.03612" lon="3.96791">
        <ele>148.8</ele>
        <time>2022-09-20T13:36:19Z</time>
      </trkpt>
      <trkpt lat="49.03618" lon="3.9681">
        <ele>148.6</ele>
        <time>2022-09-20T13:36:21Z</time>
      </trkpt>
      <trkpt lat="49.03634" lon="3.96861">
        <ele>147.6</ele>
        <time>2022-09-20T13:36:26Z</time>
      </trkpt>
      <trkpt lat="49.03643" lon="3.96891">
        <ele>147.4</ele>
        <time>2022-09-20T13:36:29Z</time>
      </trkpt>
      <trkpt lat="49.03653" lon="3.96911">
        <ele>147.2</ele>
        <time>2022-09-20T13:36:31Z</time>
      </trkpt>
      <trkpt lat="49.03662" lon="3.96916">
        <ele>146.8</ele>
        <time>2022-09-20T13:36:33Z</time>
      </trkpt>
      <trkpt lat="49.03666" lon="3.96912">
        <ele>146.6</ele>
        <time>2022-09-20T13:36:35Z</time>
      </trkpt>
      <trkpt lat="49.03671" lon="3.969">
        <ele>146.2</ele>
        <time>2022-09-20T13:36:37Z</time>
      </trkpt>
      <trkpt lat="49.03679" lon="3.96874">
        <ele>145.4</ele>
        <time>2022-09-20T13:36:40Z</time>
      </trkpt>
      <trkpt lat="49.03683" lon="3.96857">
        <ele>144.8</ele>
        <time>2022-09-20T13:36:42Z</time>
      </trkpt>
      <trkpt lat="49.03687" lon="3.96836">
        <ele>144.4</ele>
        <time>2022-09-20T13:36:44Z</time>
      </trkpt>
      <trkpt lat="49.03692" lon="3.96811">
        <ele>143.2</ele>
        <time>2022-09-20T13:36:47Z</time>
      </trkpt>
      <trkpt lat="49.03694" lon="3.96803">
        <ele>141.8</ele>
        <time>2022-09-20T13:36:50Z</time>
      </trkpt>
      <trkpt lat="49.03694" lon="3.96801">
        <ele>141.4</ele>
        <time>2022-09-20T13:36:51Z</time>
      </trkpt>
      <trkpt lat="49.037" lon="3.96801">
        <ele>140.6</ele>
        <time>2022-09-20T13:36:53Z</time>
      </trkpt>
      <trkpt lat="49.037" lon="3.96801">
        <ele>140.4</ele>
        <time>2022-09-20T13:36:54Z</time>
      </trkpt>
      <trkpt lat="49.03703" lon="3.96803">
        <ele>140.2</ele>
        <time>2022-09-20T13:36:55Z</time>
      </trkpt>
      <trkpt lat="49.03716" lon="3.96812">
        <ele>139.6</ele>
        <time>2022-09-20T13:36:58Z</time>
      </trkpt>
      <trkpt lat="49.03728" lon="3.9682">
        <ele>139.4</ele>
        <time>2022-09-20T13:36:59Z</time>
      </trkpt>
      <trkpt lat="49.0374" lon="3.96826">
        <ele>138.8</ele>
        <time>2022-09-20T13:37:02Z</time>
      </trkpt>
      <trkpt lat="49.03765" lon="3.96841">
        <ele>138.2</ele>
        <time>2022-09-20T13:37:04Z</time>
      </trkpt>
      <trkpt lat="49.0378" lon="3.9685">
        <ele>136.6</ele>
        <time>2022-09-20T13:37:07Z</time>
      </trkpt>
      <trkpt lat="49.03806" lon="3.96867">
        <ele>135.4</ele>
        <time>2022-09-20T13:37:09Z</time>
      </trkpt>
      <trkpt lat="49.03813" lon="3.96871">
        <ele>134.2</ele>
        <time>2022-09-20T13:37:11Z</time>
      </trkpt>
      <trkpt lat="49.0382" lon="3.96875">
        <ele>133.4</ele>
        <time>2022-09-20T13:37:12Z</time>
      </trkpt>
      <trkpt lat="49.03833" lon="3.96883">
        <ele>132.4</ele>
        <time>2022-09-20T13:37:13Z</time>
      </trkpt>
      <trkpt lat="49.03833" lon="3.96883">
        <ele>131.2</ele>
        <time>2022-09-20T13:37:14Z</time>
      </trkpt>
      <trkpt lat="49.03857" lon="3.96897">
        <ele>129.8</ele>
        <time>2022-09-20T13:37:17Z</time>
      </trkpt>
      <trkpt lat="49.03869" lon="3.96905">
        <ele>129.4</ele>
        <time>2022-09-20T13:37:18Z</time>
      </trkpt>
      <trkpt lat="49.03869" lon="3.96905">
        <ele>128.6</ele>
        <time>2022-09-20T13:37:19Z</time>
      </trkpt>
      <trkpt lat="49.03881" lon="3.96912">
        <ele>127</ele>
        <time>2022-09-20T13:37:21Z</time>
      </trkpt>
      <trkpt lat="49.03887" lon="3.96916">
        <ele>126.2</ele>
        <time>2022-09-20T13:37:22Z</time>
      </trkpt>
      <trkpt lat="49.03887" lon="3.96916">
        <ele>124.8</ele>
        <time>2022-09-20T13:37:23Z</time>
      </trkpt>
      <trkpt lat="49.03893" lon="3.96917">
        <ele>123.4</ele>
        <time>2022-09-20T13:37:24Z</time>
      </trkpt>
      <trkpt lat="49.03899" lon="3.96908">
        <ele>121.8</ele>
        <time>2022-09-20T13:37:26Z</time>
      </trkpt>
      <trkpt lat="49.03901" lon="3.96901">
        <ele>120.6</ele>
        <time>2022-09-20T13:37:28Z</time>
      </trkpt>
      <trkpt lat="49.03906" lon="3.96881">
        <ele>119.4</ele>
        <time>2022-09-20T13:37:31Z</time>
      </trkpt>
      <trkpt lat="49.03908" lon="3.96869">
        <ele>118.2</ele>
        <time>2022-09-20T13:37:33Z</time>
      </trkpt>
      <trkpt lat="49.0391" lon="3.96862">
        <ele>118</ele>
        <time>2022-09-20T13:37:34Z</time>
      </trkpt>
      <trkpt lat="49.03913" lon="3.96855">
        <ele>117.2</ele>
        <time>2022-09-20T13:37:35Z</time>
      </trkpt>
      <trkpt lat="49.03916" lon="3.96848">
        <ele>116.4</ele>
        <time>2022-09-20T13:37:36Z</time>
      </trkpt>
      <trkpt lat="49.0392" lon="3.96844">
        <ele>116</ele>
        <time>2022-09-20T13:37:37Z</time>
      </trkpt>
      <trkpt lat="49.03925" lon="3.96841">
        <ele>115</ele>
        <time>2022-09-20T13:37:38Z</time>
      </trkpt>
      <trkpt lat="49.03936" lon="3.96843">
        <ele>113.6</ele>
        <time>2022-09-20T13:37:40Z</time>
      </trkpt>
      <trkpt lat="49.03942" lon="3.96847">
        <ele>113.2</ele>
        <time>2022-09-20T13:37:41Z</time>
      </trkpt>
      <trkpt lat="49.03949" lon="3.96853">
        <ele>112.2</ele>
        <time>2022-09-20T13:37:42Z</time>
      </trkpt>
      <trkpt lat="49.03962" lon="3.96861">
        <ele>111.2</ele>
        <time>2022-09-20T13:37:44Z</time>
      </trkpt>
      <trkpt lat="49.03968" lon="3.96865">
        <ele>110.6</ele>
        <time>2022-09-20T13:37:45Z</time>
      </trkpt>
      <trkpt lat="49.03982" lon="3.96873">
        <ele>109.8</ele>
        <time>2022-09-20T13:37:47Z</time>
      </trkpt>
      <trkpt lat="49.04011" lon="3.96893">
        <ele>108.8</ele>
        <time>2022-09-20T13:37:50Z</time>
      </trkpt>
      <trkpt lat="49.0402" lon="3.96899">
        <ele>108.2</ele>
        <time>2022-09-20T13:37:52Z</time>
      </trkpt>
      <trkpt lat="49.04033" lon="3.96908">
        <ele>107.4</ele>
        <time>2022-09-20T13:37:54Z</time>
      </trkpt>
      <trkpt lat="49.04055" lon="3.96923">
        <ele>106.2</ele>
        <time>2022-09-20T13:37:57Z</time>
      </trkpt>
      <trkpt lat="49.04076" lon="3.96937">
        <ele>105.4</ele>
        <time>2022-09-20T13:38:00Z</time>
      </trkpt>
      <trkpt lat="49.04082" lon="3.96941">
        <ele>105</ele>
        <time>2022-09-20T13:38:01Z</time>
      </trkpt>
      <trkpt lat="49.04101" lon="3.96955">
        <ele>103.6</ele>
        <time>2022-09-20T13:38:04Z</time>
      </trkpt>
      <trkpt lat="49.04106" lon="3.96962">
        <ele>103.4</ele>
        <time>2022-09-20T13:38:05Z</time>
      </trkpt>
      <trkpt lat="49.0411" lon="3.96971">
        <ele>103.2</ele>
        <time>2022-09-20T13:38:06Z</time>
      </trkpt>
      <trkpt lat="49.04118" lon="3.96988">
        <ele>102</ele>
        <time>2022-09-20T13:38:08Z</time>
      </trkpt>
      <trkpt lat="49.04129" lon="3.96997">
        <ele>101.6</ele>
        <time>2022-09-20T13:38:10Z</time>
      </trkpt>
      <trkpt lat="49.04135" lon="3.96998">
        <ele>101.4</ele>
        <time>2022-09-20T13:38:11Z</time>
      </trkpt>
      <trkpt lat="49.04139" lon="3.96995">
        <ele>101.2</ele>
        <time>2022-09-20T13:38:12Z</time>
      </trkpt>
      <trkpt lat="49.04143" lon="3.96987">
        <ele>101</ele>
        <time>2022-09-20T13:38:13Z</time>
      </trkpt>
      <trkpt lat="49.04144" lon="3.96978">
        <ele>100.8</ele>
        <time>2022-09-20T13:38:14Z</time>
      </trkpt>
      <trkpt lat="49.04142" lon="3.96959">
        <ele>100.6</ele>
        <time>2022-09-20T13:38:16Z</time>
      </trkpt>
      <trkpt lat="49.04141" lon="3.96949">
        <ele>100.6</ele>
        <time>2022-09-20T13:38:17Z</time>
      </trkpt>
      <trkpt lat="49.04141" lon="3.9693">
        <ele>100.4</ele>
        <time>2022-09-20T13:38:19Z</time>
      </trkpt>
      <trkpt lat="49.04143" lon="3.96919">
        <ele>100.4</ele>
        <time>2022-09-20T13:38:20Z</time>
      </trkpt>
      <trkpt lat="49.04151" lon="3.96862">
        <ele>100.6</ele>
        <time>2022-09-20T13:38:26Z</time>
      </trkpt>
      <trkpt lat="49.04153" lon="3.96853">
        <ele>100.8</ele>
        <time>2022-09-20T13:38:27Z</time>
      </trkpt>
      <trkpt lat="49.04166" lon="3.96772">
        <ele>102</ele>
        <time>2022-09-20T13:38:36Z</time>
      </trkpt>
      <trkpt lat="49.04182" lon="3.96692">
        <ele>103</ele>
        <time>2022-09-20T13:38:45Z</time>
      </trkpt>
      <trkpt lat="49.0419" lon="3.96649">
        <ele>103.2</ele>
        <time>2022-09-20T13:38:50Z</time>
      </trkpt>
      <trkpt lat="49.04195" lon="3.96623">
        <ele>103.4</ele>
        <time>2022-09-20T13:38:53Z</time>
      </trkpt>
      <trkpt lat="49.04207" lon="3.9656">
        <ele>103.6</ele>
        <time>2022-09-20T13:39:00Z</time>
      </trkpt>
      <trkpt lat="49.04215" lon="3.9651">
        <ele>103.8</ele>
        <time>2022-09-20T13:39:06Z</time>
      </trkpt>
      <trkpt lat="49.04225" lon="3.96458">
        <ele>103.8</ele>
        <time>2022-09-20T13:39:12Z</time>
      </trkpt>
      <trkpt lat="49.04235" lon="3.96403">
        <ele>103.6</ele>
        <time>2022-09-20T13:39:19Z</time>
      </trkpt>
      <trkpt lat="49.04244" lon="3.96358">
        <ele>103</ele>
        <time>2022-09-20T13:39:26Z</time>
      </trkpt>
      <trkpt lat="49.04255" lon="3.96307">
        <ele>102</ele>
        <time>2022-09-20T13:39:33Z</time>
      </trkpt>
      <trkpt lat="49.0426" lon="3.96283">
        <ele>101.8</ele>
        <time>2022-09-20T13:39:36Z</time>
      </trkpt>
      <trkpt lat="49.04265" lon="3.96257">
        <ele>101</ele>
        <time>2022-09-20T13:39:39Z</time>
      </trkpt>
      <trkpt lat="49.04272" lon="3.96216">
        <ele>100</ele>
        <time>2022-09-20T13:39:43Z</time>
      </trkpt>
      <trkpt lat="49.04273" lon="3.96208">
        <ele>99.6</ele>
        <time>2022-09-20T13:39:44Z</time>
      </trkpt>
      <trkpt lat="49.04278" lon="3.96183">
        <ele>98.6</ele>
        <time>2022-09-20T13:39:48Z</time>
      </trkpt>
      <trkpt lat="49.04282" lon="3.96163">
        <ele>98.2</ele>
        <time>2022-09-20T13:39:50Z</time>
      </trkpt>
      <trkpt lat="49.04293" lon="3.96108">
        <ele>97.6</ele>
        <time>2022-09-20T13:39:55Z</time>
      </trkpt>
      <trkpt lat="49.04297" lon="3.96085">
        <ele>97.6</ele>
        <time>2022-09-20T13:39:58Z</time>
      </trkpt>
      <trkpt lat="49.04302" lon="3.9605">
        <ele>96.6</ele>
        <time>2022-09-20T13:40:02Z</time>
      </trkpt>
      <trkpt lat="49.04307" lon="3.96023">
        <ele>96.2</ele>
        <time>2022-09-20T13:40:05Z</time>
      </trkpt>
      <trkpt lat="49.04315" lon="3.95982">
        <ele>95.6</ele>
        <time>2022-09-20T13:40:11Z</time>
      </trkpt>
      <trkpt lat="49.04317" lon="3.9597">
        <ele>95</ele>
        <time>2022-09-20T13:40:13Z</time>
      </trkpt>
      <trkpt lat="49.04321" lon="3.95949">
        <ele>94.4</ele>
        <time>2022-09-20T13:40:16Z</time>
      </trkpt>
      <trkpt lat="49.04327" lon="3.95914">
        <ele>94.2</ele>
        <time>2022-09-20T13:40:20Z</time>
      </trkpt>
      <trkpt lat="49.04337" lon="3.95857">
        <ele>93.6</ele>
        <time>2022-09-20T13:40:26Z</time>
      </trkpt>
      <trkpt lat="49.0434" lon="3.95839">
        <ele>93.4</ele>
        <time>2022-09-20T13:40:28Z</time>
      </trkpt>
      <trkpt lat="49.0435" lon="3.95785">
        <ele>92.6</ele>
        <time>2022-09-20T13:40:34Z</time>
      </trkpt>
      <trkpt lat="49.04353" lon="3.95768">
        <ele>92.4</ele>
        <time>2022-09-20T13:40:36Z</time>
      </trkpt>
      <trkpt lat="49.04356" lon="3.95753">
        <ele>92.2</ele>
        <time>2022-09-20T13:40:38Z</time>
      </trkpt>
      <trkpt lat="49.04358" lon="3.95749">
        <ele>92</ele>
        <time>2022-09-20T13:40:39Z</time>
      </trkpt>
      <trkpt lat="49.04362" lon="3.95744">
        <ele>91.8</ele>
        <time>2022-09-20T13:40:40Z</time>
      </trkpt>
      <trkpt lat="49.0437" lon="3.95742">
        <ele>91.6</ele>
        <time>2022-09-20T13:40:42Z</time>
      </trkpt>
      <trkpt lat="49.04379" lon="3.9575">
        <ele>91.4</ele>
        <time>2022-09-20T13:40:44Z</time>
      </trkpt>
      <trkpt lat="49.04383" lon="3.95756">
        <ele>91.4</ele>
        <time>2022-09-20T13:40:45Z</time>
      </trkpt>
      <trkpt lat="49.04403" lon="3.95789">
        <ele>90.8</ele>
        <time>2022-09-20T13:40:50Z</time>
      </trkpt>
      <trkpt lat="49.04411" lon="3.95803">
        <ele>90.8</ele>
        <time>2022-09-20T13:40:52Z</time>
      </trkpt>
      <trkpt lat="49.04428" lon="3.95834">
        <ele>90.6</ele>
        <time>2022-09-20T13:40:56Z</time>
      </trkpt>
      <trkpt lat="49.04448" lon="3.95865">
        <ele>90.2</ele>
        <time>2022-09-20T13:41:00Z</time>
      </trkpt>
      <trkpt lat="49.04464" lon="3.95892">
        <ele>90</ele>
        <time>2022-09-20T13:41:03Z</time>
      </trkpt>
      <trkpt lat="49.04464" lon="3.95892">
        <ele>90</ele>
        <time>2022-09-20T13:41:04Z</time>
      </trkpt>
      <trkpt lat="49.04472" lon="3.95906">
        <ele>90</ele>
        <time>2022-09-20T13:41:06Z</time>
      </trkpt>
      <trkpt lat="49.04475" lon="3.95924">
        <ele>89.8</ele>
        <time>2022-09-20T13:41:08Z</time>
      </trkpt>
      <trkpt lat="49.04477" lon="3.95965">
        <ele>89.6</ele>
        <time>2022-09-20T13:41:12Z</time>
      </trkpt>
      <trkpt lat="49.04477" lon="3.95986">
        <ele>89.6</ele>
        <time>2022-09-20T13:41:14Z</time>
      </trkpt>
      <trkpt lat="49.04478" lon="3.95996">
        <ele>89.6</ele>
        <time>2022-09-20T13:41:15Z</time>
      </trkpt>
      <trkpt lat="49.04479" lon="3.96026">
        <ele>89.2</ele>
        <time>2022-09-20T13:41:18Z</time>
      </trkpt>
      <trkpt lat="49.04483" lon="3.96067">
        <ele>89</ele>
        <time>2022-09-20T13:41:22Z</time>
      </trkpt>
      <trkpt lat="49.04489" lon="3.96127">
        <ele>88.6</ele>
        <time>2022-09-20T13:41:28Z</time>
      </trkpt>
      <trkpt lat="49.04502" lon="3.96145">
        <ele>88.4</ele>
        <time>2022-09-20T13:41:30Z</time>
      </trkpt>
      <trkpt lat="49.04502" lon="3.96145">
        <ele>88.4</ele>
        <time>2022-09-20T13:41:31Z</time>
      </trkpt>
      <trkpt lat="49.04508" lon="3.9615">
        <ele>88.2</ele>
        <time>2022-09-20T13:41:32Z</time>
      </trkpt>
      <trkpt lat="49.04511" lon="3.96152">
        <ele>88</ele>
        <time>2022-09-20T13:41:34Z</time>
      </trkpt>
      <trkpt lat="49.0453" lon="3.96168">
        <ele>88</ele>
        <time>2022-09-20T13:41:41Z</time>
      </trkpt>
      <trkpt lat="49.04542" lon="3.9618">
        <ele>88.2</ele>
        <time>2022-09-20T13:41:44Z</time>
      </trkpt>
      <trkpt lat="49.0455" lon="3.96193">
        <ele>88.4</ele>
        <time>2022-09-20T13:41:46Z</time>
      </trkpt>
      <trkpt lat="49.04565" lon="3.96234">
        <ele>89.2</ele>
        <time>2022-09-20T13:41:51Z</time>
      </trkpt>
      <trkpt lat="49.04567" lon="3.96242">
        <ele>89.6</ele>
        <time>2022-09-20T13:41:52Z</time>
      </trkpt>
      <trkpt lat="49.04586" lon="3.96313">
        <ele>90</ele>
        <time>2022-09-20T13:41:59Z</time>
      </trkpt>
      <trkpt lat="49.04595" lon="3.96342">
        <ele>89.4</ele>
        <time>2022-09-20T13:42:02Z</time>
      </trkpt>
      <trkpt lat="49.046" lon="3.96356">
        <ele>88.8</ele>
        <time>2022-09-20T13:42:04Z</time>
      </trkpt>
      <trkpt lat="49.04604" lon="3.96365">
        <ele>88.2</ele>
        <time>2022-09-20T13:42:06Z</time>
      </trkpt>
      <trkpt lat="49.04607" lon="3.96369">
        <ele>87.8</ele>
        <time>2022-09-20T13:42:08Z</time>
      </trkpt>
      <trkpt lat="49.04609" lon="3.9637">
        <ele>87.2</ele>
        <time>2022-09-20T13:42:13Z</time>
      </trkpt>
      <trkpt lat="49.04609" lon="3.9637">
        <ele>87.2</ele>
        <time>2022-09-20T13:42:15Z</time>
      </trkpt>
      <trkpt lat="49.04609" lon="3.96371">
        <ele>86.8</ele>
        <time>2022-09-20T13:42:33Z</time>
      </trkpt>
      <trkpt lat="49.04612" lon="3.96375">
        <ele>86.8</ele>
        <time>2022-09-20T13:42:35Z</time>
      </trkpt>
      <trkpt lat="49.04617" lon="3.96384">
        <ele>86.8</ele>
        <time>2022-09-20T13:42:37Z</time>
      </trkpt>
      <trkpt lat="49.04634" lon="3.96411">
        <ele>86.8</ele>
        <time>2022-09-20T13:42:41Z</time>
      </trkpt>
      <trkpt lat="49.0467" lon="3.96472">
        <ele>87.2</ele>
        <time>2022-09-20T13:42:49Z</time>
      </trkpt>
      <trkpt lat="49.0468" lon="3.96488">
        <ele>87.4</ele>
        <time>2022-09-20T13:42:51Z</time>
      </trkpt>
      <trkpt lat="49.0469" lon="3.96497">
        <ele>87.4</ele>
        <time>2022-09-20T13:42:53Z</time>
      </trkpt>
      <trkpt lat="49.04719" lon="3.96508">
        <ele>87.2</ele>
        <time>2022-09-20T13:42:57Z</time>
      </trkpt>
      <trkpt lat="49.04763" lon="3.96507">
        <ele>86.4</ele>
        <time>2022-09-20T13:43:03Z</time>
      </trkpt>
      <trkpt lat="49.04777" lon="3.96506">
        <ele>86.2</ele>
        <time>2022-09-20T13:43:05Z</time>
      </trkpt>
      <trkpt lat="49.04812" lon="3.96506">
        <ele>85.4</ele>
        <time>2022-09-20T13:43:10Z</time>
      </trkpt>
      <trkpt lat="49.0486" lon="3.96505">
        <ele>85.2</ele>
        <time>2022-09-20T13:43:17Z</time>
      </trkpt>
      <trkpt lat="49.04888" lon="3.96504">
        <ele>85.2</ele>
        <time>2022-09-20T13:43:22Z</time>
      </trkpt>
      <trkpt lat="49.04899" lon="3.96504">
        <ele>85.2</ele>
        <time>2022-09-20T13:43:26Z</time>
      </trkpt>
      <trkpt lat="49.04907" lon="3.96504">
        <ele>85.4</ele>
        <time>2022-09-20T13:43:32Z</time>
      </trkpt>
      <trkpt lat="49.0492" lon="3.96504">
        <ele>85.4</ele>
        <time>2022-09-20T13:43:35Z</time>
      </trkpt>
      <trkpt lat="49.04924" lon="3.96505">
        <ele>85.4</ele>
        <time>2022-09-20T13:43:36Z</time>
      </trkpt>
      <trkpt lat="49.04952" lon="3.96508">
        <ele>85.4</ele>
        <time>2022-09-20T13:43:41Z</time>
      </trkpt>
      <trkpt lat="49.04992" lon="3.96509">
        <ele>85.4</ele>
        <time>2022-09-20T13:43:47Z</time>
      </trkpt>
      <trkpt lat="49.0504" lon="3.96508">
        <ele>85.4</ele>
        <time>2022-09-20T13:43:54Z</time>
      </trkpt>
      <trkpt lat="49.05097" lon="3.96507">
        <ele>85.8</ele>
        <time>2022-09-20T13:44:02Z</time>
      </trkpt>
      <trkpt lat="49.05167" lon="3.96506">
        <ele>85.8</ele>
        <time>2022-09-20T13:44:10Z</time>
      </trkpt>
      <trkpt lat="49.05182" lon="3.96506">
        <ele>85.8</ele>
        <time>2022-09-20T13:44:12Z</time>
      </trkpt>
      <trkpt lat="49.05242" lon="3.96506">
        <ele>85.8</ele>
        <time>2022-09-20T13:44:20Z</time>
      </trkpt>
      <trkpt lat="49.05264" lon="3.96507">
        <ele>85.8</ele>
        <time>2022-09-20T13:44:23Z</time>
      </trkpt>
      <trkpt lat="49.05324" lon="3.96507">
        <ele>85.6</ele>
        <time>2022-09-20T13:44:31Z</time>
      </trkpt>
      <trkpt lat="49.05331" lon="3.96507">
        <ele>85.6</ele>
        <time>2022-09-20T13:44:32Z</time>
      </trkpt>
      <trkpt lat="49.0539" lon="3.96509">
        <ele>85.8</ele>
        <time>2022-09-20T13:44:40Z</time>
      </trkpt>
      <trkpt lat="49.0545" lon="3.96508">
        <ele>85.8</ele>
        <time>2022-09-20T13:44:48Z</time>
      </trkpt>
      <trkpt lat="49.05465" lon="3.96508">
        <ele>85.8</ele>
        <time>2022-09-20T13:44:51Z</time>
      </trkpt>
      <trkpt lat="49.05525" lon="3.96509">
        <ele>86</ele>
        <time>2022-09-20T13:44:58Z</time>
      </trkpt>
      <trkpt lat="49.05532" lon="3.96509">
        <ele>86</ele>
        <time>2022-09-20T13:44:59Z</time>
      </trkpt>
      <trkpt lat="49.05592" lon="3.96509">
        <ele>85.8</ele>
        <time>2022-09-20T13:45:07Z</time>
      </trkpt>
      <trkpt lat="49.056" lon="3.96509">
        <ele>85.6</ele>
        <time>2022-09-20T13:45:09Z</time>
      </trkpt>
      <trkpt lat="49.05659" lon="3.96509">
        <ele>85.6</ele>
        <time>2022-09-20T13:45:17Z</time>
      </trkpt>
      <trkpt lat="49.05674" lon="3.96509">
        <ele>85.6</ele>
        <time>2022-09-20T13:45:18Z</time>
      </trkpt>
      <trkpt lat="49.05733" lon="3.9651">
        <ele>86.2</ele>
        <time>2022-09-20T13:45:26Z</time>
      </trkpt>
      <trkpt lat="49.05755" lon="3.9651">
        <ele>86.4</ele>
        <time>2022-09-20T13:45:29Z</time>
      </trkpt>
      <trkpt lat="49.05814" lon="3.9651">
        <ele>86.4</ele>
        <time>2022-09-20T13:45:37Z</time>
      </trkpt>
      <trkpt lat="49.05872" lon="3.96508">
        <ele>86.4</ele>
        <time>2022-09-20T13:45:45Z</time>
      </trkpt>
      <trkpt lat="49.0593" lon="3.96509">
        <ele>86.8</ele>
        <time>2022-09-20T13:45:53Z</time>
      </trkpt>
      <trkpt lat="49.0595" lon="3.96509">
        <ele>87.2</ele>
        <time>2022-09-20T13:45:56Z</time>
      </trkpt>
      <trkpt lat="49.06" lon="3.9651">
        <ele>88.2</ele>
        <time>2022-09-20T13:46:03Z</time>
      </trkpt>
      <trkpt lat="49.06044" lon="3.9651">
        <ele>88.4</ele>
        <time>2022-09-20T13:46:09Z</time>
      </trkpt>
      <trkpt lat="49.06058" lon="3.96512">
        <ele>88.4</ele>
        <time>2022-09-20T13:46:11Z</time>
      </trkpt>
      <trkpt lat="49.0607" lon="3.9652">
        <ele>88.2</ele>
        <time>2022-09-20T13:46:13Z</time>
      </trkpt>
      <trkpt lat="49.06081" lon="3.96531">
        <ele>88</ele>
        <time>2022-09-20T13:46:15Z</time>
      </trkpt>
      <trkpt lat="49.06092" lon="3.96531">
        <ele>87.8</ele>
        <time>2022-09-20T13:46:17Z</time>
      </trkpt>
      <trkpt lat="49.06102" lon="3.9652">
        <ele>87.8</ele>
        <time>2022-09-20T13:46:19Z</time>
      </trkpt>
      <trkpt lat="49.06108" lon="3.96516">
        <ele>87.6</ele>
        <time>2022-09-20T13:46:20Z</time>
      </trkpt>
      <trkpt lat="49.06115" lon="3.96514">
        <ele>87.4</ele>
        <time>2022-09-20T13:46:21Z</time>
      </trkpt>
      <trkpt lat="49.06122" lon="3.96513">
        <ele>87.2</ele>
        <time>2022-09-20T13:46:22Z</time>
      </trkpt>
      <trkpt lat="49.06129" lon="3.96513">
        <ele>87.4</ele>
        <time>2022-09-20T13:46:23Z</time>
      </trkpt>
      <trkpt lat="49.06185" lon="3.96513">
        <ele>87.4</ele>
        <time>2022-09-20T13:46:31Z</time>
      </trkpt>
      <trkpt lat="49.062" lon="3.96512">
        <ele>87.6</ele>
        <time>2022-09-20T13:46:33Z</time>
      </trkpt>
      <trkpt lat="49.06256" lon="3.96511">
        <ele>88.2</ele>
        <time>2022-09-20T13:46:41Z</time>
      </trkpt>
      <trkpt lat="49.06269" lon="3.96511">
        <ele>88.4</ele>
        <time>2022-09-20T13:46:43Z</time>
      </trkpt>
      <trkpt lat="49.06276" lon="3.96512">
        <ele>88.4</ele>
        <time>2022-09-20T13:46:44Z</time>
      </trkpt>
      <trkpt lat="49.06321" lon="3.96511">
        <ele>88.8</ele>
        <time>2022-09-20T13:46:52Z</time>
      </trkpt>
      <trkpt lat="49.06332" lon="3.96511">
        <ele>89</ele>
        <time>2022-09-20T13:46:53Z</time>
      </trkpt>
      <trkpt lat="49.06389" lon="3.9651">
        <ele>89.6</ele>
        <time>2022-09-20T13:47:01Z</time>
      </trkpt>
      <trkpt lat="49.06403" lon="3.96511">
        <ele>89.6</ele>
        <time>2022-09-20T13:47:03Z</time>
      </trkpt>
      <trkpt lat="49.06447" lon="3.96509">
        <ele>90.4</ele>
        <time>2022-09-20T13:47:10Z</time>
      </trkpt>
      <trkpt lat="49.06458" lon="3.96508">
        <ele>90.6</ele>
        <time>2022-09-20T13:47:12Z</time>
      </trkpt>
      <trkpt lat="49.06471" lon="3.96508">
        <ele>90.8</ele>
        <time>2022-09-20T13:47:15Z</time>
      </trkpt>
      <trkpt lat="49.06488" lon="3.96509">
        <ele>91.4</ele>
        <time>2022-09-20T13:47:21Z</time>
      </trkpt>
      <trkpt lat="49.06494" lon="3.9651">
        <ele>91.6</ele>
        <time>2022-09-20T13:47:26Z</time>
      </trkpt>
      <trkpt lat="49.06501" lon="3.9651">
        <ele>91.6</ele>
        <time>2022-09-20T13:47:28Z</time>
      </trkpt>
      <trkpt lat="49.06513" lon="3.9651">
        <ele>91.8</ele>
        <time>2022-09-20T13:47:31Z</time>
      </trkpt>
      <trkpt lat="49.06531" lon="3.9651">
        <ele>92</ele>
        <time>2022-09-20T13:47:36Z</time>
      </trkpt>
      <trkpt lat="49.06546" lon="3.96511">
        <ele>92.6</ele>
        <time>2022-09-20T13:47:39Z</time>
      </trkpt>
      <trkpt lat="49.06551" lon="3.96512">
        <ele>92.8</ele>
        <time>2022-09-20T13:47:40Z</time>
      </trkpt>
      <trkpt lat="49.06593" lon="3.9651">
        <ele>93.4</ele>
        <time>2022-09-20T13:47:47Z</time>
      </trkpt>
      <trkpt lat="49.06604" lon="3.9651">
        <ele>94</ele>
        <time>2022-09-20T13:47:49Z</time>
      </trkpt>
      <trkpt lat="49.06625" lon="3.9651">
        <ele>95</ele>
        <time>2022-09-20T13:47:54Z</time>
      </trkpt>
      <trkpt lat="49.06636" lon="3.96511">
        <ele>95.2</ele>
        <time>2022-09-20T13:47:56Z</time>
      </trkpt>
      <trkpt lat="49.06675" lon="3.96511">
        <ele>96.2</ele>
        <time>2022-09-20T13:48:02Z</time>
      </trkpt>
      <trkpt lat="49.06692" lon="3.96511">
        <ele>96.8</ele>
        <time>2022-09-20T13:48:05Z</time>
      </trkpt>
      <trkpt lat="49.06713" lon="3.96511">
        <ele>97.6</ele>
        <time>2022-09-20T13:48:09Z</time>
      </trkpt>
      <trkpt lat="49.06735" lon="3.9651">
        <ele>98</ele>
        <time>2022-09-20T13:48:13Z</time>
      </trkpt>
      <trkpt lat="49.06751" lon="3.9651">
        <ele>98.6</ele>
        <time>2022-09-20T13:48:16Z</time>
      </trkpt>
      <trkpt lat="49.06783" lon="3.9651">
        <ele>99.4</ele>
        <time>2022-09-20T13:48:22Z</time>
      </trkpt>
      <trkpt lat="49.06788" lon="3.9651">
        <ele>99.8</ele>
        <time>2022-09-20T13:48:23Z</time>
      </trkpt>
      <trkpt lat="49.06825" lon="3.9651">
        <ele>101</ele>
        <time>2022-09-20T13:48:30Z</time>
      </trkpt>
      <trkpt lat="49.06831" lon="3.9651">
        <ele>101.2</ele>
        <time>2022-09-20T13:48:31Z</time>
      </trkpt>
      <trkpt lat="49.06836" lon="3.9651">
        <ele>101.4</ele>
        <time>2022-09-20T13:48:32Z</time>
      </trkpt>
      <trkpt lat="49.06858" lon="3.96511">
        <ele>102</ele>
        <time>2022-09-20T13:48:36Z</time>
      </trkpt>
      <trkpt lat="49.0688" lon="3.96512">
        <ele>102.8</ele>
        <time>2022-09-20T13:48:40Z</time>
      </trkpt>
      <trkpt lat="49.06897" lon="3.96511">
        <ele>103</ele>
        <time>2022-09-20T13:48:43Z</time>
      </trkpt>
      <trkpt lat="49.06936" lon="3.96512">
        <ele>104.2</ele>
        <time>2022-09-20T13:48:50Z</time>
      </trkpt>
      <trkpt lat="49.06959" lon="3.96512">
        <ele>105</ele>
        <time>2022-09-20T13:48:54Z</time>
      </trkpt>
      <trkpt lat="49.06964" lon="3.96512">
        <ele>105.2</ele>
        <time>2022-09-20T13:48:55Z</time>
      </trkpt>
      <trkpt lat="49.07003" lon="3.96512">
        <ele>106.2</ele>
        <time>2022-09-20T13:49:02Z</time>
      </trkpt>
      <trkpt lat="49.07036" lon="3.96511">
        <ele>107.4</ele>
        <time>2022-09-20T13:49:08Z</time>
      </trkpt>
      <trkpt lat="49.07058" lon="3.96512">
        <ele>107.8</ele>
        <time>2022-09-20T13:49:12Z</time>
      </trkpt>
      <trkpt lat="49.07074" lon="3.96512">
        <ele>108.4</ele>
        <time>2022-09-20T13:49:15Z</time>
      </trkpt>
      <trkpt lat="49.07105" lon="3.96513">
        <ele>109.4</ele>
        <time>2022-09-20T13:49:21Z</time>
      </trkpt>
      <trkpt lat="49.07105" lon="3.96513">
        <ele>109.6</ele>
        <time>2022-09-20T13:49:22Z</time>
      </trkpt>
      <trkpt lat="49.07142" lon="3.96512">
        <ele>110.4</ele>
        <time>2022-09-20T13:49:29Z</time>
      </trkpt>
      <trkpt lat="49.07158" lon="3.96509">
        <ele>110.6</ele>
        <time>2022-09-20T13:49:31Z</time>
      </trkpt>
      <trkpt lat="49.07158" lon="3.96509">
        <ele>110.8</ele>
        <time>2022-09-20T13:49:32Z</time>
      </trkpt>
      <trkpt lat="49.07178" lon="3.96501">
        <ele>111</ele>
        <time>2022-09-20T13:49:35Z</time>
      </trkpt>
      <trkpt lat="49.07184" lon="3.96501">
        <ele>111.4</ele>
        <time>2022-09-20T13:49:37Z</time>
      </trkpt>
      <trkpt lat="49.07189" lon="3.96503">
        <ele>111.6</ele>
        <time>2022-09-20T13:49:38Z</time>
      </trkpt>
      <trkpt lat="49.0721" lon="3.96511">
        <ele>111.8</ele>
        <time>2022-09-20T13:49:41Z</time>
      </trkpt>
      <trkpt lat="49.07215" lon="3.96512">
        <ele>112</ele>
        <time>2022-09-20T13:49:43Z</time>
      </trkpt>
      <trkpt lat="49.07238" lon="3.96511">
        <ele>112</ele>
        <time>2022-09-20T13:49:47Z</time>
      </trkpt>
      <trkpt lat="49.0727" lon="3.96512">
        <ele>111.6</ele>
        <time>2022-09-20T13:49:52Z</time>
      </trkpt>
      <trkpt lat="49.07328" lon="3.96513">
        <ele>110.6</ele>
        <time>2022-09-20T13:50:01Z</time>
      </trkpt>
      <trkpt lat="49.07342" lon="3.96513">
        <ele>110.4</ele>
        <time>2022-09-20T13:50:02Z</time>
      </trkpt>
      <trkpt lat="49.07399" lon="3.96516">
        <ele>109.8</ele>
        <time>2022-09-20T13:50:11Z</time>
      </trkpt>
      <trkpt lat="49.07452" lon="3.9653">
        <ele>109.6</ele>
        <time>2022-09-20T13:50:20Z</time>
      </trkpt>
      <trkpt lat="49.07464" lon="3.96535">
        <ele>109.4</ele>
        <time>2022-09-20T13:50:21Z</time>
      </trkpt>
      <trkpt lat="49.07471" lon="3.96536">
        <ele>109.4</ele>
        <time>2022-09-20T13:50:22Z</time>
      </trkpt>
      <trkpt lat="49.07518" lon="3.96548">
        <ele>109</ele>
        <time>2022-09-20T13:50:30Z</time>
      </trkpt>
      <trkpt lat="49.07525" lon="3.96549">
        <ele>109</ele>
        <time>2022-09-20T13:50:31Z</time>
      </trkpt>
      <trkpt lat="49.0758" lon="3.9655">
        <ele>109.2</ele>
        <time>2022-09-20T13:50:39Z</time>
      </trkpt>
      <trkpt lat="49.07644" lon="3.96536">
        <ele>110</ele>
        <time>2022-09-20T13:50:48Z</time>
      </trkpt>
      <trkpt lat="49.07668" lon="3.96532">
        <ele>110.4</ele>
        <time>2022-09-20T13:50:52Z</time>
      </trkpt>
      <trkpt lat="49.07684" lon="3.96529">
        <ele>110.8</ele>
        <time>2022-09-20T13:50:55Z</time>
      </trkpt>
      <trkpt lat="49.07699" lon="3.96527">
        <ele>111.2</ele>
        <time>2022-09-20T13:50:58Z</time>
      </trkpt>
      <trkpt lat="49.07704" lon="3.96527">
        <ele>111.4</ele>
        <time>2022-09-20T13:50:59Z</time>
      </trkpt>
      <trkpt lat="49.07715" lon="3.96526">
        <ele>111.8</ele>
        <time>2022-09-20T13:51:01Z</time>
      </trkpt>
      <trkpt lat="49.07735" lon="3.96523">
        <ele>112.6</ele>
        <time>2022-09-20T13:51:05Z</time>
      </trkpt>
      <trkpt lat="49.07755" lon="3.96521">
        <ele>113.6</ele>
        <time>2022-09-20T13:51:10Z</time>
      </trkpt>
      <trkpt lat="49.07775" lon="3.96518">
        <ele>114.4</ele>
        <time>2022-09-20T13:51:13Z</time>
      </trkpt>
      <trkpt lat="49.0778" lon="3.96518">
        <ele>114.8</ele>
        <time>2022-09-20T13:51:14Z</time>
      </trkpt>
      <trkpt lat="49.07805" lon="3.96515">
        <ele>116</ele>
        <time>2022-09-20T13:51:19Z</time>
      </trkpt>
      <trkpt lat="49.07832" lon="3.96515">
        <ele>117.2</ele>
        <time>2022-09-20T13:51:25Z</time>
      </trkpt>
      <trkpt lat="49.07837" lon="3.96515">
        <ele>117.4</ele>
        <time>2022-09-20T13:51:26Z</time>
      </trkpt>
      <trkpt lat="49.07859" lon="3.96515">
        <ele>118.2</ele>
        <time>2022-09-20T13:51:31Z</time>
      </trkpt>
      <trkpt lat="49.07881" lon="3.96515">
        <ele>119.4</ele>
        <time>2022-09-20T13:51:36Z</time>
      </trkpt>
      <trkpt lat="49.0791" lon="3.96516">
        <ele>120.4</ele>
        <time>2022-09-20T13:51:43Z</time>
      </trkpt>
      <trkpt lat="49.07915" lon="3.96515">
        <ele>120.6</ele>
        <time>2022-09-20T13:51:44Z</time>
      </trkpt>
      <trkpt lat="49.07935" lon="3.96516">
        <ele>121.8</ele>
        <time>2022-09-20T13:51:49Z</time>
      </trkpt>
      <trkpt lat="49.07946" lon="3.96516">
        <ele>122.6</ele>
        <time>2022-09-20T13:51:52Z</time>
      </trkpt>
      <trkpt lat="49.07955" lon="3.96515">
        <ele>123</ele>
        <time>2022-09-20T13:51:54Z</time>
      </trkpt>
      <trkpt lat="49.07967" lon="3.96516">
        <ele>124</ele>
        <time>2022-09-20T13:51:57Z</time>
      </trkpt>
      <trkpt lat="49.07982" lon="3.9652">
        <ele>125.2</ele>
        <time>2022-09-20T13:52:01Z</time>
      </trkpt>
      <trkpt lat="49.07987" lon="3.96535">
        <ele>125.8</ele>
        <time>2022-09-20T13:52:04Z</time>
      </trkpt>
      <trkpt lat="49.07986" lon="3.96559">
        <ele>126.2</ele>
        <time>2022-09-20T13:52:07Z</time>
      </trkpt>
      <trkpt lat="49.07985" lon="3.96567">
        <ele>126.2</ele>
        <time>2022-09-20T13:52:08Z</time>
      </trkpt>
      <trkpt lat="49.07979" lon="3.9661">
        <ele>126.4</ele>
        <time>2022-09-20T13:52:13Z</time>
      </trkpt>
      <trkpt lat="49.07979" lon="3.96619">
        <ele>126.2</ele>
        <time>2022-09-20T13:52:14Z</time>
      </trkpt>
      <trkpt lat="49.07981" lon="3.96637">
        <ele>126.2</ele>
        <time>2022-09-20T13:52:16Z</time>
      </trkpt>
      <trkpt lat="49.07988" lon="3.96663">
        <ele>126</ele>
        <time>2022-09-20T13:52:19Z</time>
      </trkpt>
      <trkpt lat="49.08011" lon="3.96741">
        <ele>125.8</ele>
        <time>2022-09-20T13:52:29Z</time>
      </trkpt>
      <trkpt lat="49.08015" lon="3.96755">
        <ele>126.2</ele>
        <time>2022-09-20T13:52:31Z</time>
      </trkpt>
      <trkpt lat="49.08019" lon="3.96778">
        <ele>126.4</ele>
        <time>2022-09-20T13:52:34Z</time>
      </trkpt>
      <trkpt lat="49.0802" lon="3.96785">
        <ele>126.4</ele>
        <time>2022-09-20T13:52:35Z</time>
      </trkpt>
      <trkpt lat="49.08021" lon="3.96812">
        <ele>127.4</ele>
        <time>2022-09-20T13:52:39Z</time>
      </trkpt>
      <trkpt lat="49.08023" lon="3.96825">
        <ele>128</ele>
        <time>2022-09-20T13:52:41Z</time>
      </trkpt>
      <trkpt lat="49.08024" lon="3.96837">
        <ele>128.4</ele>
        <time>2022-09-20T13:52:43Z</time>
      </trkpt>
      <trkpt lat="49.08029" lon="3.96866">
        <ele>129.2</ele>
        <time>2022-09-20T13:52:48Z</time>
      </trkpt>
      <trkpt lat="49.08029" lon="3.96871">
        <ele>129.6</ele>
        <time>2022-09-20T13:52:49Z</time>
      </trkpt>
      <trkpt lat="49.08034" lon="3.96896">
        <ele>130.8</ele>
        <time>2022-09-20T13:52:54Z</time>
      </trkpt>
      <trkpt lat="49.08037" lon="3.9691">
        <ele>131.6</ele>
        <time>2022-09-20T13:52:57Z</time>
      </trkpt>
      <trkpt lat="49.08038" lon="3.96915">
        <ele>132</ele>
        <time>2022-09-20T13:52:58Z</time>
      </trkpt>
      <trkpt lat="49.08047" lon="3.96931">
        <ele>133</ele>
        <time>2022-09-20T13:53:02Z</time>
      </trkpt>
      <trkpt lat="49.0805" lon="3.96934">
        <ele>133.2</ele>
        <time>2022-09-20T13:53:03Z</time>
      </trkpt>
      <trkpt lat="49.0806" lon="3.96941">
        <ele>134</ele>
        <time>2022-09-20T13:53:06Z</time>
      </trkpt>
      <trkpt lat="49.0807" lon="3.96946">
        <ele>135</ele>
        <time>2022-09-20T13:53:10Z</time>
      </trkpt>
      <trkpt lat="49.08085" lon="3.9695">
        <ele>136.2</ele>
        <time>2022-09-20T13:53:14Z</time>
      </trkpt>
      <trkpt lat="49.08105" lon="3.96954">
        <ele>136.8</ele>
        <time>2022-09-20T13:53:18Z</time>
      </trkpt>
      <trkpt lat="49.08113" lon="3.96955">
        <ele>137.2</ele>
        <time>2022-09-20T13:53:20Z</time>
      </trkpt>
      <trkpt lat="49.08148" lon="3.96963">
        <ele>137.6</ele>
        <time>2022-09-20T13:53:28Z</time>
      </trkpt>
      <trkpt lat="49.08165" lon="3.96969">
        <ele>138.6</ele>
        <time>2022-09-20T13:53:32Z</time>
      </trkpt>
      <trkpt lat="49.08196" lon="3.96981">
        <ele>139.4</ele>
        <time>2022-09-20T13:53:40Z</time>
      </trkpt>
      <trkpt lat="49.08203" lon="3.96984">
        <ele>139.6</ele>
        <time>2022-09-20T13:53:42Z</time>
      </trkpt>
      <trkpt lat="49.08226" lon="3.96993">
        <ele>140.6</ele>
        <time>2022-09-20T13:53:48Z</time>
      </trkpt>
      <trkpt lat="49.08233" lon="3.96995">
        <ele>141.2</ele>
        <time>2022-09-20T13:53:50Z</time>
      </trkpt>
      <trkpt lat="49.0824" lon="3.96998">
        <ele>141.6</ele>
        <time>2022-09-20T13:53:52Z</time>
      </trkpt>
      <trkpt lat="49.08256" lon="3.97006">
        <ele>142.4</ele>
        <time>2022-09-20T13:53:57Z</time>
      </trkpt>
      <trkpt lat="49.08263" lon="3.97012">
        <ele>142.8</ele>
        <time>2022-09-20T13:53:59Z</time>
      </trkpt>
      <trkpt lat="49.08282" lon="3.97026">
        <ele>143.8</ele>
        <time>2022-09-20T13:54:05Z</time>
      </trkpt>
      <trkpt lat="49.08293" lon="3.97039">
        <ele>144.6</ele>
        <time>2022-09-20T13:54:09Z</time>
      </trkpt>
      <trkpt lat="49.08296" lon="3.97041">
        <ele>144.8</ele>
        <time>2022-09-20T13:54:10Z</time>
      </trkpt>
      <trkpt lat="49.08304" lon="3.97055">
        <ele>146</ele>
        <time>2022-09-20T13:54:14Z</time>
      </trkpt>
      <trkpt lat="49.08305" lon="3.97058">
        <ele>146</ele>
        <time>2022-09-20T13:54:15Z</time>
      </trkpt>
      <trkpt lat="49.08312" lon="3.97076">
        <ele>147.2</ele>
        <time>2022-09-20T13:54:19Z</time>
      </trkpt>
      <trkpt lat="49.08315" lon="3.97083">
        <ele>147.4</ele>
        <time>2022-09-20T13:54:21Z</time>
      </trkpt>
      <trkpt lat="49.08325" lon="3.97102">
        <ele>148.4</ele>
        <time>2022-09-20T13:54:26Z</time>
      </trkpt>
      <trkpt lat="49.08334" lon="3.97115">
        <ele>149.2</ele>
        <time>2022-09-20T13:54:30Z</time>
      </trkpt>
      <trkpt lat="49.08337" lon="3.97118">
        <ele>149.6</ele>
        <time>2022-09-20T13:54:31Z</time>
      </trkpt>
      <trkpt lat="49.08346" lon="3.97128">
        <ele>150.8</ele>
        <time>2022-09-20T13:54:35Z</time>
      </trkpt>
      <trkpt lat="49.08358" lon="3.9714">
        <ele>152</ele>
        <time>2022-09-20T13:54:40Z</time>
      </trkpt>
      <trkpt lat="49.08359" lon="3.97142">
        <ele>152.2</ele>
        <time>2022-09-20T13:54:41Z</time>
      </trkpt>
      <trkpt lat="49.08369" lon="3.97152">
        <ele>153.4</ele>
        <time>2022-09-20T13:54:45Z</time>
      </trkpt>
      <trkpt lat="49.08378" lon="3.97163">
        <ele>154.2</ele>
        <time>2022-09-20T13:54:49Z</time>
      </trkpt>
      <trkpt lat="49.0838" lon="3.97165">
        <ele>154.6</ele>
        <time>2022-09-20T13:54:50Z</time>
      </trkpt>
      <trkpt lat="49.08396" lon="3.97187">
        <ele>155.6</ele>
        <time>2022-09-20T13:54:57Z</time>
      </trkpt>
      <trkpt lat="49.08405" lon="3.97205">
        <ele>156.8</ele>
        <time>2022-09-20T13:55:02Z</time>
      </trkpt>
      <trkpt lat="49.0841" lon="3.97217">
        <ele>157.2</ele>
        <time>2022-09-20T13:55:05Z</time>
      </trkpt>
      <trkpt lat="49.08414" lon="3.97235">
        <ele>158</ele>
        <time>2022-09-20T13:55:09Z</time>
      </trkpt>
      <trkpt lat="49.08417" lon="3.97254">
        <ele>158.8</ele>
        <time>2022-09-20T13:55:13Z</time>
      </trkpt>
      <trkpt lat="49.08417" lon="3.97257">
        <ele>159</ele>
        <time>2022-09-20T13:55:14Z</time>
      </trkpt>
      <trkpt lat="49.0842" lon="3.9728">
        <ele>160.6</ele>
        <time>2022-09-20T13:55:19Z</time>
      </trkpt>
      <trkpt lat="49.08423" lon="3.97297">
        <ele>161.4</ele>
        <time>2022-09-20T13:55:23Z</time>
      </trkpt>
      <trkpt lat="49.08424" lon="3.973">
        <ele>161.6</ele>
        <time>2022-09-20T13:55:24Z</time>
      </trkpt>
      <trkpt lat="49.08427" lon="3.97318">
        <ele>163</ele>
        <time>2022-09-20T13:55:28Z</time>
      </trkpt>
      <trkpt lat="49.08432" lon="3.97349">
        <ele>164</ele>
        <time>2022-09-20T13:55:35Z</time>
      </trkpt>
      <trkpt lat="49.08435" lon="3.97366">
        <ele>165</ele>
        <time>2022-09-20T13:55:39Z</time>
      </trkpt>
      <trkpt lat="49.08436" lon="3.9737">
        <ele>165.2</ele>
        <time>2022-09-20T13:55:40Z</time>
      </trkpt>
      <trkpt lat="49.08441" lon="3.97391">
        <ele>166.2</ele>
        <time>2022-09-20T13:55:45Z</time>
      </trkpt>
      <trkpt lat="49.08447" lon="3.97408">
        <ele>167</ele>
        <time>2022-09-20T13:55:49Z</time>
      </trkpt>
      <trkpt lat="49.0845" lon="3.97416">
        <ele>167.6</ele>
        <time>2022-09-20T13:55:51Z</time>
      </trkpt>
      <trkpt lat="49.08458" lon="3.97433">
        <ele>168.8</ele>
        <time>2022-09-20T13:55:56Z</time>
      </trkpt>
      <trkpt lat="49.08463" lon="3.97443">
        <ele>169.8</ele>
        <time>2022-09-20T13:55:59Z</time>
      </trkpt>
      <trkpt lat="49.08465" lon="3.97446">
        <ele>169.8</ele>
        <time>2022-09-20T13:56:00Z</time>
      </trkpt>
      <trkpt lat="49.08471" lon="3.97456">
        <ele>170.8</ele>
        <time>2022-09-20T13:56:04Z</time>
      </trkpt>
      <trkpt lat="49.0848" lon="3.9747">
        <ele>172</ele>
        <time>2022-09-20T13:56:09Z</time>
      </trkpt>
      <trkpt lat="49.08488" lon="3.9748">
        <ele>173.2</ele>
        <time>2022-09-20T13:56:13Z</time>
      </trkpt>
      <trkpt lat="49.08492" lon="3.97486">
        <ele>174.4</ele>
        <time>2022-09-20T13:56:16Z</time>
      </trkpt>
      <trkpt lat="49.085" lon="3.97499">
        <ele>175.4</ele>
        <time>2022-09-20T13:56:20Z</time>
      </trkpt>
      <trkpt lat="49.08502" lon="3.97501">
        <ele>175.6</ele>
        <time>2022-09-20T13:56:21Z</time>
      </trkpt>
      <trkpt lat="49.0851" lon="3.9751">
        <ele>176.6</ele>
        <time>2022-09-20T13:56:25Z</time>
      </trkpt>
      <trkpt lat="49.08516" lon="3.97516">
        <ele>178</ele>
        <time>2022-09-20T13:56:28Z</time>
      </trkpt>
      <trkpt lat="49.08518" lon="3.97517">
        <ele>178.4</ele>
        <time>2022-09-20T13:56:29Z</time>
      </trkpt>
      <trkpt lat="49.08524" lon="3.97523">
        <ele>179.2</ele>
        <time>2022-09-20T13:56:32Z</time>
      </trkpt>
      <trkpt lat="49.08531" lon="3.97528">
        <ele>180.4</ele>
        <time>2022-09-20T13:56:35Z</time>
      </trkpt>
      <trkpt lat="49.08538" lon="3.97534">
        <ele>181.2</ele>
        <time>2022-09-20T13:56:38Z</time>
      </trkpt>
      <trkpt lat="49.0854" lon="3.97536">
        <ele>181.6</ele>
        <time>2022-09-20T13:56:39Z</time>
      </trkpt>
      <trkpt lat="49.08546" lon="3.97542">
        <ele>183</ele>
        <time>2022-09-20T13:56:42Z</time>
      </trkpt>
      <trkpt lat="49.08555" lon="3.9755">
        <ele>184.8</ele>
        <time>2022-09-20T13:56:46Z</time>
      </trkpt>
      <trkpt lat="49.08559" lon="3.97554">
        <ele>185.2</ele>
        <time>2022-09-20T13:56:48Z</time>
      </trkpt>
      <trkpt lat="49.08561" lon="3.97556">
        <ele>185.8</ele>
        <time>2022-09-20T13:56:49Z</time>
      </trkpt>
      <trkpt lat="49.08567" lon="3.97562">
        <ele>187</ele>
        <time>2022-09-20T13:56:53Z</time>
      </trkpt>
      <trkpt lat="49.08569" lon="3.97565">
        <ele>187.6</ele>
        <time>2022-09-20T13:56:55Z</time>
      </trkpt>
      <trkpt lat="49.08569" lon="3.97567">
        <ele>188</ele>
        <time>2022-09-20T13:56:56Z</time>
      </trkpt>
      <trkpt lat="49.0857" lon="3.97568">
        <ele>188.2</ele>
        <time>2022-09-20T13:56:57Z</time>
      </trkpt>
      <trkpt lat="49.08573" lon="3.97567">
        <ele>189</ele>
        <time>2022-09-20T13:56:59Z</time>
      </trkpt>
      <trkpt lat="49.08574" lon="3.97564">
        <ele>189.2</ele>
        <time>2022-09-20T13:57:00Z</time>
      </trkpt>
      <trkpt lat="49.08578" lon="3.9755">
        <ele>189.6</ele>
        <time>2022-09-20T13:57:03Z</time>
      </trkpt>
      <trkpt lat="49.08591" lon="3.97531">
        <ele>189.8</ele>
        <time>2022-09-20T13:57:08Z</time>
      </trkpt>
      <trkpt lat="49.08615" lon="3.97513">
        <ele>190.2</ele>
        <time>2022-09-20T13:57:16Z</time>
      </trkpt>
      <trkpt lat="49.08618" lon="3.97513">
        <ele>190.2</ele>
        <time>2022-09-20T13:57:17Z</time>
      </trkpt>
      <trkpt lat="49.08621" lon="3.97515">
        <ele>190.2</ele>
        <time>2022-09-20T13:57:18Z</time>
      </trkpt>
      <trkpt lat="49.08624" lon="3.97519">
        <ele>190.2</ele>
        <time>2022-09-20T13:57:19Z</time>
      </trkpt>
      <trkpt lat="49.08631" lon="3.97541">
        <ele>190.8</ele>
        <time>2022-09-20T13:57:24Z</time>
      </trkpt>
      <trkpt lat="49.08636" lon="3.97557">
        <ele>191.4</ele>
        <time>2022-09-20T13:57:28Z</time>
      </trkpt>
      <trkpt lat="49.0864" lon="3.97564">
        <ele>191.6</ele>
        <time>2022-09-20T13:57:30Z</time>
      </trkpt>
      <trkpt lat="49.08642" lon="3.97565">
        <ele>192</ele>
        <time>2022-09-20T13:57:31Z</time>
      </trkpt>
      <trkpt lat="49.08648" lon="3.97565">
        <ele>192.6</ele>
        <time>2022-09-20T13:57:33Z</time>
      </trkpt>
      <trkpt lat="49.08657" lon="3.97559">
        <ele>193.6</ele>
        <time>2022-09-20T13:57:37Z</time>
      </trkpt>
      <trkpt lat="49.08662" lon="3.97556">
        <ele>194.4</ele>
        <time>2022-09-20T13:57:39Z</time>
      </trkpt>
      <trkpt lat="49.08666" lon="3.97553">
        <ele>194.8</ele>
        <time>2022-09-20T13:57:41Z</time>
      </trkpt>
      <trkpt lat="49.08675" lon="3.97546">
        <ele>196</ele>
        <time>2022-09-20T13:57:45Z</time>
      </trkpt>
      <trkpt lat="49.08682" lon="3.97539">
        <ele>197.2</ele>
        <time>2022-09-20T13:57:48Z</time>
      </trkpt>
      <trkpt lat="49.08683" lon="3.97537">
        <ele>197.2</ele>
        <time>2022-09-20T13:57:49Z</time>
      </trkpt>
      <trkpt lat="49.08686" lon="3.97531">
        <ele>198.2</ele>
        <time>2022-09-20T13:57:51Z</time>
      </trkpt>
      <trkpt lat="49.08692" lon="3.9752">
        <ele>199.4</ele>
        <time>2022-09-20T13:57:55Z</time>
      </trkpt>
      <trkpt lat="49.08695" lon="3.97513">
        <ele>199.8</ele>
        <time>2022-09-20T13:57:57Z</time>
      </trkpt>
      <trkpt lat="49.08698" lon="3.97506">
        <ele>200.4</ele>
        <time>2022-09-20T13:57:59Z</time>
      </trkpt>
      <trkpt lat="49.08701" lon="3.97491">
        <ele>201.6</ele>
        <time>2022-09-20T13:58:03Z</time>
      </trkpt>
      <trkpt lat="49.08704" lon="3.97476">
        <ele>202.4</ele>
        <time>2022-09-20T13:58:07Z</time>
      </trkpt>
      <trkpt lat="49.08706" lon="3.97468">
        <ele>202.8</ele>
        <time>2022-09-20T13:58:09Z</time>
      </trkpt>
      <trkpt lat="49.08712" lon="3.97447">
        <ele>204</ele>
        <time>2022-09-20T13:58:15Z</time>
      </trkpt>
      <trkpt lat="49.08713" lon="3.97443">
        <ele>204.2</ele>
        <time>2022-09-20T13:58:16Z</time>
      </trkpt>
      <trkpt lat="49.08723" lon="3.97417">
        <ele>205</ele>
        <time>2022-09-20T13:58:22Z</time>
      </trkpt>
      <trkpt lat="49.08726" lon="3.97413">
        <ele>205.2</ele>
        <time>2022-09-20T13:58:23Z</time>
      </trkpt>
      <trkpt lat="49.08744" lon="3.97384">
        <ele>205.8</ele>
        <time>2022-09-20T13:58:30Z</time>
      </trkpt>
      <trkpt lat="49.0876" lon="3.97363">
        <ele>206.2</ele>
        <time>2022-09-20T13:58:35Z</time>
      </trkpt>
      <trkpt lat="49.08773" lon="3.97343">
        <ele>206.4</ele>
        <time>2022-09-20T13:58:39Z</time>
      </trkpt>
      <trkpt lat="49.08799" lon="3.97303">
        <ele>206.8</ele>
        <time>2022-09-20T13:58:47Z</time>
      </trkpt>
      <trkpt lat="49.08806" lon="3.9729">
        <ele>207.6</ele>
        <time>2022-09-20T13:58:50Z</time>
      </trkpt>
      <trkpt lat="49.08813" lon="3.97275">
        <ele>208.2</ele>
        <time>2022-09-20T13:58:53Z</time>
      </trkpt>
      <trkpt lat="49.08818" lon="3.97265">
        <ele>208.8</ele>
        <time>2022-09-20T13:58:55Z</time>
      </trkpt>
      <trkpt lat="49.08821" lon="3.97259">
        <ele>208.8</ele>
        <time>2022-09-20T13:58:56Z</time>
      </trkpt>
      <trkpt lat="49.08832" lon="3.97238">
        <ele>209.8</ele>
        <time>2022-09-20T13:59:01Z</time>
      </trkpt>
      <trkpt lat="49.08847" lon="3.97216">
        <ele>211.2</ele>
        <time>2022-09-20T13:59:07Z</time>
      </trkpt>
      <trkpt lat="49.08854" lon="3.972">
        <ele>212</ele>
        <time>2022-09-20T13:59:11Z</time>
      </trkpt>
      <trkpt lat="49.08855" lon="3.97196">
        <ele>212.2</ele>
        <time>2022-09-20T13:59:12Z</time>
      </trkpt>
      <trkpt lat="49.08858" lon="3.97182">
        <ele>213.4</ele>
        <time>2022-09-20T13:59:15Z</time>
      </trkpt>
      <trkpt lat="49.08858" lon="3.97167">
        <ele>214.2</ele>
        <time>2022-09-20T13:59:18Z</time>
      </trkpt>
      <trkpt lat="49.08858" lon="3.97158">
        <ele>214.6</ele>
        <time>2022-09-20T13:59:20Z</time>
      </trkpt>
      <trkpt lat="49.08858" lon="3.97134">
        <ele>215.8</ele>
        <time>2022-09-20T13:59:25Z</time>
      </trkpt>
      <trkpt lat="49.08859" lon="3.97122">
        <ele>216.8</ele>
        <time>2022-09-20T13:59:28Z</time>
      </trkpt>
      <trkpt lat="49.08862" lon="3.97108">
        <ele>217.6</ele>
        <time>2022-09-20T13:59:31Z</time>
      </trkpt>
      <trkpt lat="49.08863" lon="3.97105">
        <ele>218</ele>
        <time>2022-09-20T13:59:32Z</time>
      </trkpt>
      <trkpt lat="49.08866" lon="3.97089">
        <ele>219</ele>
        <time>2022-09-20T13:59:36Z</time>
      </trkpt>
      <trkpt lat="49.0887" lon="3.97071">
        <ele>220.4</ele>
        <time>2022-09-20T13:59:40Z</time>
      </trkpt>
      <trkpt lat="49.08871" lon="3.97067">
        <ele>220.6</ele>
        <time>2022-09-20T13:59:41Z</time>
      </trkpt>
      <trkpt lat="49.08877" lon="3.97045">
        <ele>221.4</ele>
        <time>2022-09-20T13:59:46Z</time>
      </trkpt>
      <trkpt lat="49.08884" lon="3.97029">
        <ele>222.2</ele>
        <time>2022-09-20T13:59:50Z</time>
      </trkpt>
      <trkpt lat="49.08889" lon="3.97026">
        <ele>222.4</ele>
        <time>2022-09-20T13:59:52Z</time>
      </trkpt>
      <trkpt lat="49.08899" lon="3.97027">
        <ele>222.6</ele>
        <time>2022-09-20T13:59:55Z</time>
      </trkpt>
      <trkpt lat="49.08913" lon="3.97043">
        <ele>223.6</ele>
        <time>2022-09-20T14:00:01Z</time>
      </trkpt>
      <trkpt lat="49.08925" lon="3.97057">
        <ele>225</ele>
        <time>2022-09-20T14:00:06Z</time>
      </trkpt>
      <trkpt lat="49.08933" lon="3.97067">
        <ele>226.2</ele>
        <time>2022-09-20T14:00:10Z</time>
      </trkpt>
      <trkpt lat="49.08942" lon="3.97077">
        <ele>227.4</ele>
        <time>2022-09-20T14:00:14Z</time>
      </trkpt>
      <trkpt lat="49.08948" lon="3.97084">
        <ele>228.4</ele>
        <time>2022-09-20T14:00:17Z</time>
      </trkpt>
      <trkpt lat="49.08953" lon="3.97089">
        <ele>229</ele>
        <time>2022-09-20T14:00:19Z</time>
      </trkpt>
      <trkpt lat="49.08957" lon="3.97094">
        <ele>229.6</ele>
        <time>2022-09-20T14:00:21Z</time>
      </trkpt>
      <trkpt lat="49.08966" lon="3.97104">
        <ele>230.8</ele>
        <time>2022-09-20T14:00:25Z</time>
      </trkpt>
      <trkpt lat="49.08968" lon="3.97106">
        <ele>231</ele>
        <time>2022-09-20T14:00:26Z</time>
      </trkpt>
      <trkpt lat="49.08974" lon="3.97113">
        <ele>232.2</ele>
        <time>2022-09-20T14:00:29Z</time>
      </trkpt>
      <trkpt lat="49.08981" lon="3.9712">
        <ele>233.2</ele>
        <time>2022-09-20T14:00:32Z</time>
      </trkpt>
      <trkpt lat="49.08989" lon="3.97131">
        <ele>234.4</ele>
        <time>2022-09-20T14:00:36Z</time>
      </trkpt>
      <trkpt lat="49.08998" lon="3.97142">
        <ele>235.2</ele>
        <time>2022-09-20T14:00:40Z</time>
      </trkpt>
      <trkpt lat="49.09007" lon="3.97152">
        <ele>236.6</ele>
        <time>2022-09-20T14:00:44Z</time>
      </trkpt>
      <trkpt lat="49.09008" lon="3.97155">
        <ele>236.8</ele>
        <time>2022-09-20T14:00:45Z</time>
      </trkpt>
      <trkpt lat="49.09014" lon="3.97162">
        <ele>237.6</ele>
        <time>2022-09-20T14:00:48Z</time>
      </trkpt>
      <trkpt lat="49.09023" lon="3.97175">
        <ele>239</ele>
        <time>2022-09-20T14:00:53Z</time>
      </trkpt>
      <trkpt lat="49.09025" lon="3.97178">
        <ele>239</ele>
        <time>2022-09-20T14:00:54Z</time>
      </trkpt>
      <trkpt lat="49.09032" lon="3.97187">
        <ele>240.2</ele>
        <time>2022-09-20T14:00:58Z</time>
      </trkpt>
      <trkpt lat="49.09034" lon="3.9719">
        <ele>240.4</ele>
        <time>2022-09-20T14:00:59Z</time>
      </trkpt>
      <trkpt lat="49.09038" lon="3.97196">
        <ele>241.2</ele>
        <time>2022-09-20T14:01:01Z</time>
      </trkpt>
      <trkpt lat="49.09046" lon="3.97211">
        <ele>242.2</ele>
        <time>2022-09-20T14:01:06Z</time>
      </trkpt>
      <trkpt lat="49.0905" lon="3.97221">
        <ele>243</ele>
        <time>2022-09-20T14:01:09Z</time>
      </trkpt>
      <trkpt lat="49.09052" lon="3.97224">
        <ele>243.6</ele>
        <time>2022-09-20T14:01:10Z</time>
      </trkpt>
      <trkpt lat="49.09059" lon="3.97241">
        <ele>244.6</ele>
        <time>2022-09-20T14:01:15Z</time>
      </trkpt>
      <trkpt lat="49.09064" lon="3.97251">
        <ele>245.4</ele>
        <time>2022-09-20T14:01:18Z</time>
      </trkpt>
      <trkpt lat="49.09065" lon="3.97255">
        <ele>246</ele>
        <time>2022-09-20T14:01:19Z</time>
      </trkpt>
      <trkpt lat="49.09071" lon="3.97269">
        <ele>247</ele>
        <time>2022-09-20T14:01:23Z</time>
      </trkpt>
      <trkpt lat="49.09074" lon="3.97279">
        <ele>247.6</ele>
        <time>2022-09-20T14:01:26Z</time>
      </trkpt>
      <trkpt lat="49.09077" lon="3.97288">
        <ele>248</ele>
        <time>2022-09-20T14:01:28Z</time>
      </trkpt>
      <trkpt lat="49.09081" lon="3.97303">
        <ele>249</ele>
        <time>2022-09-20T14:01:32Z</time>
      </trkpt>
      <trkpt lat="49.09084" lon="3.97317">
        <ele>250.2</ele>
        <time>2022-09-20T14:01:36Z</time>
      </trkpt>
      <trkpt lat="49.09087" lon="3.97336">
        <ele>251.2</ele>
        <time>2022-09-20T14:01:41Z</time>
      </trkpt>
      <trkpt lat="49.09089" lon="3.97352">
        <ele>252.4</ele>
        <time>2022-09-20T14:01:45Z</time>
      </trkpt>
      <trkpt lat="49.0909" lon="3.97355">
        <ele>252.6</ele>
        <time>2022-09-20T14:01:46Z</time>
      </trkpt>
      <trkpt lat="49.09089" lon="3.9737">
        <ele>253.6</ele>
        <time>2022-09-20T14:01:50Z</time>
      </trkpt>
      <trkpt lat="49.0909" lon="3.97385">
        <ele>254.6</ele>
        <time>2022-09-20T14:01:54Z</time>
      </trkpt>
      <trkpt lat="49.0909" lon="3.97389">
        <ele>254.8</ele>
        <time>2022-09-20T14:01:55Z</time>
      </trkpt>
      <trkpt lat="49.0909" lon="3.97393">
        <ele>254.8</ele>
        <time>2022-09-20T14:01:56Z</time>
      </trkpt>
      <trkpt lat="49.09091" lon="3.9741">
        <ele>255.8</ele>
        <time>2022-09-20T14:02:00Z</time>
      </trkpt>
      <trkpt lat="49.09092" lon="3.97425">
        <ele>256.6</ele>
        <time>2022-09-20T14:02:04Z</time>
      </trkpt>
      <trkpt lat="49.09092" lon="3.97432">
        <ele>257</ele>
        <time>2022-09-20T14:02:06Z</time>
      </trkpt>
      <trkpt lat="49.09092" lon="3.97453">
        <ele>258.2</ele>
        <time>2022-09-20T14:02:11Z</time>
      </trkpt>
      <trkpt lat="49.09092" lon="3.97458">
        <ele>258.6</ele>
        <time>2022-09-20T14:02:12Z</time>
      </trkpt>
      <trkpt lat="49.09092" lon="3.97475">
        <ele>259.2</ele>
        <time>2022-09-20T14:02:16Z</time>
      </trkpt>
      <trkpt lat="49.09091" lon="3.97498">
        <ele>260.6</ele>
        <time>2022-09-20T14:02:21Z</time>
      </trkpt>
      <trkpt lat="49.09091" lon="3.97508">
        <ele>261</ele>
        <time>2022-09-20T14:02:23Z</time>
      </trkpt>
      <trkpt lat="49.09091" lon="3.97521">
        <ele>261.6</ele>
        <time>2022-09-20T14:02:26Z</time>
      </trkpt>
      <trkpt lat="49.0909" lon="3.9755">
        <ele>262</ele>
        <time>2022-09-20T14:02:32Z</time>
      </trkpt>
      <trkpt lat="49.09092" lon="3.97577">
        <ele>262.6</ele>
        <time>2022-09-20T14:02:38Z</time>
      </trkpt>
      <trkpt lat="49.09093" lon="3.9758">
        <ele>262.8</ele>
        <time>2022-09-20T14:02:39Z</time>
      </trkpt>
      <trkpt lat="49.09101" lon="3.97589">
        <ele>263.4</ele>
        <time>2022-09-20T14:02:43Z</time>
      </trkpt>
      <trkpt lat="49.09104" lon="3.9759">
        <ele>263.6</ele>
        <time>2022-09-20T14:02:44Z</time>
      </trkpt>
      <trkpt lat="49.09114" lon="3.97593">
        <ele>264.8</ele>
        <time>2022-09-20T14:02:48Z</time>
      </trkpt>
      <trkpt lat="49.09116" lon="3.97593">
        <ele>265</ele>
        <time>2022-09-20T14:02:49Z</time>
      </trkpt>
      <trkpt lat="49.09124" lon="3.97595">
        <ele>265.8</ele>
        <time>2022-09-20T14:02:52Z</time>
      </trkpt>
      <trkpt lat="49.09132" lon="3.97596">
        <ele>266.8</ele>
        <time>2022-09-20T14:02:55Z</time>
      </trkpt>
      <trkpt lat="49.09144" lon="3.97599">
        <ele>268</ele>
        <time>2022-09-20T14:03:00Z</time>
      </trkpt>
      <trkpt lat="49.09155" lon="3.97602">
        <ele>269.2</ele>
        <time>2022-09-20T14:03:04Z</time>
      </trkpt>
      <trkpt lat="49.09167" lon="3.97609">
        <ele>270.6</ele>
        <time>2022-09-20T14:03:09Z</time>
      </trkpt>
      <trkpt lat="49.09168" lon="3.97613">
        <ele>270.8</ele>
        <time>2022-09-20T14:03:10Z</time>
      </trkpt>
      <trkpt lat="49.09171" lon="3.97625">
        <ele>271.6</ele>
        <time>2022-09-20T14:03:13Z</time>
      </trkpt>
      <trkpt lat="49.09174" lon="3.97643">
        <ele>272.4</ele>
        <time>2022-09-20T14:03:17Z</time>
      </trkpt>
      <trkpt lat="49.09175" lon="3.97647">
        <ele>272.8</ele>
        <time>2022-09-20T14:03:18Z</time>
      </trkpt>
      <trkpt lat="49.09174" lon="3.97661">
        <ele>273.8</ele>
        <time>2022-09-20T14:03:22Z</time>
      </trkpt>
      <trkpt lat="49.09173" lon="3.97664">
        <ele>274</ele>
        <time>2022-09-20T14:03:23Z</time>
      </trkpt>
      <trkpt lat="49.09172" lon="3.97668">
        <ele>274.2</ele>
        <time>2022-09-20T14:03:25Z</time>
      </trkpt>
      <trkpt lat="49.09172" lon="3.97669">
        <ele>274.4</ele>
        <time>2022-09-20T14:03:27Z</time>
      </trkpt>
      <trkpt lat="49.09174" lon="3.97679">
        <ele>274</ele>
        <time>2022-09-20T14:04:07Z</time>
      </trkpt>
      <trkpt lat="49.09189" lon="3.97687">
        <ele>273.8</ele>
        <time>2022-09-20T14:04:11Z</time>
      </trkpt>
      <trkpt lat="49.09208" lon="3.97694">
        <ele>274</ele>
        <time>2022-09-20T14:04:17Z</time>
      </trkpt>
      <trkpt lat="49.0922" lon="3.97698">
        <ele>275</ele>
        <time>2022-09-20T14:04:21Z</time>
      </trkpt>
      <trkpt lat="49.09225" lon="3.977">
        <ele>275.4</ele>
        <time>2022-09-20T14:04:23Z</time>
      </trkpt>
      <trkpt lat="49.09236" lon="3.97704">
        <ele>276</ele>
        <time>2022-09-20T14:04:27Z</time>
      </trkpt>
      <trkpt lat="49.09252" lon="3.9771">
        <ele>276.6</ele>
        <time>2022-09-20T14:04:32Z</time>
      </trkpt>
      <trkpt lat="49.09265" lon="3.97715">
        <ele>277.2</ele>
        <time>2022-09-20T14:04:36Z</time>
      </trkpt>
      <trkpt lat="49.09276" lon="3.9772">
        <ele>277.8</ele>
        <time>2022-09-20T14:04:39Z</time>
      </trkpt>
      <trkpt lat="49.09284" lon="3.97723">
        <ele>278.4</ele>
        <time>2022-09-20T14:04:42Z</time>
      </trkpt>
      <trkpt lat="49.09292" lon="3.97726">
        <ele>279</ele>
        <time>2022-09-20T14:04:44Z</time>
      </trkpt>
      <trkpt lat="49.09299" lon="3.97729">
        <ele>279.4</ele>
        <time>2022-09-20T14:04:46Z</time>
      </trkpt>
      <trkpt lat="49.09303" lon="3.97731">
        <ele>279.6</ele>
        <time>2022-09-20T14:04:47Z</time>
      </trkpt>
      <trkpt lat="49.09328" lon="3.97742">
        <ele>280.6</ele>
        <time>2022-09-20T14:04:53Z</time>
      </trkpt>
      <trkpt lat="49.09338" lon="3.97747">
        <ele>281</ele>
        <time>2022-09-20T14:04:56Z</time>
      </trkpt>
      <trkpt lat="49.09352" lon="3.97752">
        <ele>281.6</ele>
        <time>2022-09-20T14:05:00Z</time>
      </trkpt>
      <trkpt lat="49.09364" lon="3.97756">
        <ele>282</ele>
        <time>2022-09-20T14:05:03Z</time>
      </trkpt>
      <trkpt lat="49.09368" lon="3.97757">
        <ele>282</ele>
        <time>2022-09-20T14:05:04Z</time>
      </trkpt>
      <trkpt lat="49.09376" lon="3.97759">
        <ele>282.4</ele>
        <time>2022-09-20T14:05:06Z</time>
      </trkpt>
      <trkpt lat="49.09387" lon="3.9776">
        <ele>282.8</ele>
        <time>2022-09-20T14:05:09Z</time>
      </trkpt>
      <trkpt lat="49.09395" lon="3.97763">
        <ele>283</ele>
        <time>2022-09-20T14:05:11Z</time>
      </trkpt>
      <trkpt lat="49.09399" lon="3.97766">
        <ele>283.2</ele>
        <time>2022-09-20T14:05:12Z</time>
      </trkpt>
      <trkpt lat="49.09412" lon="3.97772">
        <ele>283.6</ele>
        <time>2022-09-20T14:05:15Z</time>
      </trkpt>
      <trkpt lat="49.09417" lon="3.97773">
        <ele>283.6</ele>
        <time>2022-09-20T14:05:16Z</time>
      </trkpt>
      <trkpt lat="49.09426" lon="3.97777">
        <ele>283.8</ele>
        <time>2022-09-20T14:05:18Z</time>
      </trkpt>
      <trkpt lat="49.09446" lon="3.97783">
        <ele>284.2</ele>
        <time>2022-09-20T14:05:22Z</time>
      </trkpt>
      <trkpt lat="49.0945" lon="3.97783">
        <ele>284.2</ele>
        <time>2022-09-20T14:05:23Z</time>
      </trkpt>
      <trkpt lat="49.09455" lon="3.97785">
        <ele>284.2</ele>
        <time>2022-09-20T14:05:24Z</time>
      </trkpt>
      <trkpt lat="49.09471" lon="3.97793">
        <ele>284.2</ele>
        <time>2022-09-20T14:05:27Z</time>
      </trkpt>
      <trkpt lat="49.09476" lon="3.97796">
        <ele>284.2</ele>
        <time>2022-09-20T14:05:28Z</time>
      </trkpt>
      <trkpt lat="49.09504" lon="3.97804">
        <ele>284.2</ele>
        <time>2022-09-20T14:05:33Z</time>
      </trkpt>
      <trkpt lat="49.09514" lon="3.97809">
        <ele>284</ele>
        <time>2022-09-20T14:05:35Z</time>
      </trkpt>
      <trkpt lat="49.0952" lon="3.97811">
        <ele>283.8</ele>
        <time>2022-09-20T14:05:36Z</time>
      </trkpt>
      <trkpt lat="49.0955" lon="3.97823">
        <ele>283.4</ele>
        <time>2022-09-20T14:05:41Z</time>
      </trkpt>
      <trkpt lat="49.09602" lon="3.97844">
        <ele>283</ele>
        <time>2022-09-20T14:05:49Z</time>
      </trkpt>
      <trkpt lat="49.0964" lon="3.97861">
        <ele>282.8</ele>
        <time>2022-09-20T14:05:55Z</time>
      </trkpt>
      <trkpt lat="49.09666" lon="3.97872">
        <ele>282.2</ele>
        <time>2022-09-20T14:05:59Z</time>
      </trkpt>
      <trkpt lat="49.09722" lon="3.97896">
        <ele>282.2</ele>
        <time>2022-09-20T14:06:08Z</time>
      </trkpt>
      <trkpt lat="49.09728" lon="3.97899">
        <ele>282.2</ele>
        <time>2022-09-20T14:06:09Z</time>
      </trkpt>
      <trkpt lat="49.09774" lon="3.97917">
        <ele>282.2</ele>
        <time>2022-09-20T14:06:16Z</time>
      </trkpt>
      <trkpt lat="49.09821" lon="3.97934">
        <ele>283</ele>
        <time>2022-09-20T14:06:23Z</time>
      </trkpt>
      <trkpt lat="49.09876" lon="3.97955">
        <ele>283.6</ele>
        <time>2022-09-20T14:06:31Z</time>
      </trkpt>
      <trkpt lat="49.09931" lon="3.97973">
        <ele>283.8</ele>
        <time>2022-09-20T14:06:39Z</time>
      </trkpt>
      <trkpt lat="49.09945" lon="3.97977">
        <ele>283.8</ele>
        <time>2022-09-20T14:06:41Z</time>
      </trkpt>
      <trkpt lat="49.09999" lon="3.97995">
        <ele>284.6</ele>
        <time>2022-09-20T14:06:49Z</time>
      </trkpt>
      <trkpt lat="49.10006" lon="3.97997">
        <ele>284.6</ele>
        <time>2022-09-20T14:06:50Z</time>
      </trkpt>
      <trkpt lat="49.1002" lon="3.98003">
        <ele>284.8</ele>
        <time>2022-09-20T14:06:52Z</time>
      </trkpt>
      <trkpt lat="49.10079" lon="3.98024">
        <ele>285.6</ele>
        <time>2022-09-20T14:07:01Z</time>
      </trkpt>
      <trkpt lat="49.10084" lon="3.98026">
        <ele>285.8</ele>
        <time>2022-09-20T14:07:02Z</time>
      </trkpt>
      <trkpt lat="49.10143" lon="3.98049">
        <ele>286.8</ele>
        <time>2022-09-20T14:07:11Z</time>
      </trkpt>
      <trkpt lat="49.10148" lon="3.9805">
        <ele>286.8</ele>
        <time>2022-09-20T14:07:12Z</time>
      </trkpt>
      <trkpt lat="49.10174" lon="3.98061">
        <ele>287</ele>
        <time>2022-09-20T14:07:16Z</time>
      </trkpt>
      <trkpt lat="49.10196" lon="3.98069">
        <ele>287</ele>
        <time>2022-09-20T14:07:19Z</time>
      </trkpt>
      <trkpt lat="49.10248" lon="3.98088">
        <ele>287.4</ele>
        <time>2022-09-20T14:07:27Z</time>
      </trkpt>
      <trkpt lat="49.10255" lon="3.9809">
        <ele>287.6</ele>
        <time>2022-09-20T14:07:28Z</time>
      </trkpt>
      <trkpt lat="49.1031" lon="3.98111">
        <ele>287.8</ele>
        <time>2022-09-20T14:07:36Z</time>
      </trkpt>
      <trkpt lat="49.10332" lon="3.98119">
        <ele>287.8</ele>
        <time>2022-09-20T14:07:39Z</time>
      </trkpt>
      <trkpt lat="49.10339" lon="3.98122">
        <ele>287.8</ele>
        <time>2022-09-20T14:07:40Z</time>
      </trkpt>
      <trkpt lat="49.10353" lon="3.98128">
        <ele>288</ele>
        <time>2022-09-20T14:07:42Z</time>
      </trkpt>
      <trkpt lat="49.10394" lon="3.98143">
        <ele>288.2</ele>
        <time>2022-09-20T14:07:48Z</time>
      </trkpt>
      <trkpt lat="49.1045" lon="3.98163">
        <ele>288</ele>
        <time>2022-09-20T14:07:56Z</time>
      </trkpt>
      <trkpt lat="49.10478" lon="3.98174">
        <ele>287.8</ele>
        <time>2022-09-20T14:08:00Z</time>
      </trkpt>
      <trkpt lat="49.10501" lon="3.98182">
        <ele>288</ele>
        <time>2022-09-20T14:08:03Z</time>
      </trkpt>
      <trkpt lat="49.10522" lon="3.9819">
        <ele>287.4</ele>
        <time>2022-09-20T14:08:06Z</time>
      </trkpt>
      <trkpt lat="49.10579" lon="3.98213">
        <ele>286.8</ele>
        <time>2022-09-20T14:08:13Z</time>
      </trkpt>
      <trkpt lat="49.10585" lon="3.98216">
        <ele>286.8</ele>
        <time>2022-09-20T14:08:14Z</time>
      </trkpt>
      <trkpt lat="49.10645" lon="3.98242">
        <ele>286.4</ele>
        <time>2022-09-20T14:08:22Z</time>
      </trkpt>
      <trkpt lat="49.10697" lon="3.98259">
        <ele>285.8</ele>
        <time>2022-09-20T14:08:29Z</time>
      </trkpt>
      <trkpt lat="49.1071" lon="3.98265">
        <ele>285.6</ele>
        <time>2022-09-20T14:08:31Z</time>
      </trkpt>
      <trkpt lat="49.10721" lon="3.98275">
        <ele>285.4</ele>
        <time>2022-09-20T14:08:33Z</time>
      </trkpt>
      <trkpt lat="49.10739" lon="3.98312">
        <ele>284.6</ele>
        <time>2022-09-20T14:08:37Z</time>
      </trkpt>
      <trkpt lat="49.10742" lon="3.98331">
        <ele>284.4</ele>
        <time>2022-09-20T14:08:39Z</time>
      </trkpt>
      <trkpt lat="49.10744" lon="3.98354">
        <ele>284.2</ele>
        <time>2022-09-20T14:08:41Z</time>
      </trkpt>
      <trkpt lat="49.10745" lon="3.98366">
        <ele>284</ele>
        <time>2022-09-20T14:08:42Z</time>
      </trkpt>
      <trkpt lat="49.10745" lon="3.98404">
        <ele>283.8</ele>
        <time>2022-09-20T14:08:45Z</time>
      </trkpt>
      <trkpt lat="49.10744" lon="3.98418">
        <ele>283.6</ele>
        <time>2022-09-20T14:08:46Z</time>
      </trkpt>
      <trkpt lat="49.10742" lon="3.98427">
        <ele>283.6</ele>
        <time>2022-09-20T14:08:47Z</time>
      </trkpt>
      <trkpt lat="49.1074" lon="3.98438">
        <ele>283.6</ele>
        <time>2022-09-20T14:08:48Z</time>
      </trkpt>
      <trkpt lat="49.10736" lon="3.98448">
        <ele>283.6</ele>
        <time>2022-09-20T14:08:49Z</time>
      </trkpt>
      <trkpt lat="49.10716" lon="3.98495">
        <ele>283.6</ele>
        <time>2022-09-20T14:08:54Z</time>
      </trkpt>
      <trkpt lat="49.10687" lon="3.98557">
        <ele>284.2</ele>
        <time>2022-09-20T14:09:01Z</time>
      </trkpt>
      <trkpt lat="49.10678" lon="3.98574">
        <ele>284.6</ele>
        <time>2022-09-20T14:09:03Z</time>
      </trkpt>
      <trkpt lat="49.1067" lon="3.98592">
        <ele>285</ele>
        <time>2022-09-20T14:09:05Z</time>
      </trkpt>
      <trkpt lat="49.10659" lon="3.9862">
        <ele>285.8</ele>
        <time>2022-09-20T14:09:08Z</time>
      </trkpt>
      <trkpt lat="49.10652" lon="3.98634">
        <ele>286</ele>
        <time>2022-09-20T14:09:10Z</time>
      </trkpt>
      <trkpt lat="49.10636" lon="3.98668">
        <ele>286.8</ele>
        <time>2022-09-20T14:09:14Z</time>
      </trkpt>
      <trkpt lat="49.10625" lon="3.98695">
        <ele>287.2</ele>
        <time>2022-09-20T14:09:17Z</time>
      </trkpt>
      <trkpt lat="49.10613" lon="3.9873">
        <ele>287.4</ele>
        <time>2022-09-20T14:09:21Z</time>
      </trkpt>
      <trkpt lat="49.10608" lon="3.98751">
        <ele>287.4</ele>
        <time>2022-09-20T14:09:23Z</time>
      </trkpt>
      <trkpt lat="49.10604" lon="3.98794">
        <ele>287.4</ele>
        <time>2022-09-20T14:09:27Z</time>
      </trkpt>
      <trkpt lat="49.10604" lon="3.98806">
        <ele>287.4</ele>
        <time>2022-09-20T14:09:28Z</time>
      </trkpt>
      <trkpt lat="49.10607" lon="3.98864">
        <ele>287.4</ele>
        <time>2022-09-20T14:09:33Z</time>
      </trkpt>
      <trkpt lat="49.10611" lon="3.98953">
        <ele>287.2</ele>
        <time>2022-09-20T14:09:40Z</time>
      </trkpt>
      <trkpt lat="49.10619" lon="3.99043">
        <ele>286.4</ele>
        <time>2022-09-20T14:09:47Z</time>
      </trkpt>
      <trkpt lat="49.1062" lon="3.99065">
        <ele>286.2</ele>
        <time>2022-09-20T14:09:49Z</time>
      </trkpt>
      <trkpt lat="49.10618" lon="3.99138">
        <ele>286</ele>
        <time>2022-09-20T14:09:55Z</time>
      </trkpt>
      <trkpt lat="49.1061" lon="3.99214">
        <ele>286</ele>
        <time>2022-09-20T14:10:01Z</time>
      </trkpt>
      <trkpt lat="49.10606" lon="3.99235">
        <ele>285.8</ele>
        <time>2022-09-20T14:10:03Z</time>
      </trkpt>
      <trkpt lat="49.10592" lon="3.99291">
        <ele>285.8</ele>
        <time>2022-09-20T14:10:08Z</time>
      </trkpt>
      <trkpt lat="49.10569" lon="3.99371">
        <ele>286</ele>
        <time>2022-09-20T14:10:15Z</time>
      </trkpt>
      <trkpt lat="49.10559" lon="3.99417">
        <ele>285.8</ele>
        <time>2022-09-20T14:10:19Z</time>
      </trkpt>
      <trkpt lat="49.10558" lon="3.99433">
        <ele>285.8</ele>
        <time>2022-09-20T14:10:20Z</time>
      </trkpt>
      <trkpt lat="49.10553" lon="3.99518">
        <ele>285.8</ele>
        <time>2022-09-20T14:10:27Z</time>
      </trkpt>
      <trkpt lat="49.1055" lon="3.9953">
        <ele>285.8</ele>
        <time>2022-09-20T14:10:28Z</time>
      </trkpt>
      <trkpt lat="49.10546" lon="3.99613">
        <ele>285.8</ele>
        <time>2022-09-20T14:10:35Z</time>
      </trkpt>
      <trkpt lat="49.1054" lon="3.99704">
        <ele>285.6</ele>
        <time>2022-09-20T14:10:42Z</time>
      </trkpt>
      <trkpt lat="49.10542" lon="3.99781">
        <ele>285.6</ele>
        <time>2022-09-20T14:10:48Z</time>
      </trkpt>
      <trkpt lat="49.10543" lon="3.99803">
        <ele>285.8</ele>
        <time>2022-09-20T14:10:50Z</time>
      </trkpt>
      <trkpt lat="49.10546" lon="3.99881">
        <ele>285.6</ele>
        <time>2022-09-20T14:10:56Z</time>
      </trkpt>
      <trkpt lat="49.10537" lon="3.99971">
        <ele>285.2</ele>
        <time>2022-09-20T14:11:03Z</time>
      </trkpt>
      <trkpt lat="49.10525" lon="4.00061">
        <ele>284.6</ele>
        <time>2022-09-20T14:11:10Z</time>
      </trkpt>
      <trkpt lat="49.10521" lon="4.001">
        <ele>284.2</ele>
        <time>2022-09-20T14:11:13Z</time>
      </trkpt>
      <trkpt lat="49.10515" lon="4.00176">
        <ele>283.4</ele>
        <time>2022-09-20T14:11:19Z</time>
      </trkpt>
      <trkpt lat="49.10513" lon="4.0021">
        <ele>283</ele>
        <time>2022-09-20T14:11:22Z</time>
      </trkpt>
      <trkpt lat="49.10511" lon="4.00229">
        <ele>282.8</ele>
        <time>2022-09-20T14:11:24Z</time>
      </trkpt>
      <trkpt lat="49.10509" lon="4.00271">
        <ele>282.8</ele>
        <time>2022-09-20T14:11:28Z</time>
      </trkpt>
      <trkpt lat="49.10508" lon="4.00281">
        <ele>282.8</ele>
        <time>2022-09-20T14:11:29Z</time>
      </trkpt>
      <trkpt lat="49.10511" lon="4.00346">
        <ele>283</ele>
        <time>2022-09-20T14:11:35Z</time>
      </trkpt>
      <trkpt lat="49.10524" lon="4.00414">
        <ele>282.8</ele>
        <time>2022-09-20T14:11:42Z</time>
      </trkpt>
      <trkpt lat="49.1054" lon="4.00485">
        <ele>282.6</ele>
        <time>2022-09-20T14:11:49Z</time>
      </trkpt>
      <trkpt lat="49.10544" lon="4.00529">
        <ele>282.4</ele>
        <time>2022-09-20T14:11:53Z</time>
      </trkpt>
      <trkpt lat="49.10549" lon="4.00586">
        <ele>281.2</ele>
        <time>2022-09-20T14:11:58Z</time>
      </trkpt>
      <trkpt lat="49.10559" lon="4.00669">
        <ele>281</ele>
        <time>2022-09-20T14:12:06Z</time>
      </trkpt>
      <trkpt lat="49.10569" lon="4.00735">
        <ele>280.8</ele>
        <time>2022-09-20T14:12:12Z</time>
      </trkpt>
      <trkpt lat="49.10582" lon="4.00787">
        <ele>280.8</ele>
        <time>2022-09-20T14:12:17Z</time>
      </trkpt>
      <trkpt lat="49.10597" lon="4.00837">
        <ele>280.4</ele>
        <time>2022-09-20T14:12:22Z</time>
      </trkpt>
      <trkpt lat="49.10602" lon="4.0086">
        <ele>280</ele>
        <time>2022-09-20T14:12:24Z</time>
      </trkpt>
      <trkpt lat="49.10603" lon="4.00873">
        <ele>279.8</ele>
        <time>2022-09-20T14:12:25Z</time>
      </trkpt>
      <trkpt lat="49.10607" lon="4.00921">
        <ele>279.4</ele>
        <time>2022-09-20T14:12:29Z</time>
      </trkpt>
      <trkpt lat="49.10613" lon="4.00976">
        <ele>279</ele>
        <time>2022-09-20T14:12:34Z</time>
      </trkpt>
      <trkpt lat="49.10613" lon="4.00998">
        <ele>278.8</ele>
        <time>2022-09-20T14:12:36Z</time>
      </trkpt>
      <trkpt lat="49.10612" lon="4.0104">
        <ele>278.6</ele>
        <time>2022-09-20T14:12:40Z</time>
      </trkpt>
      <trkpt lat="49.10612" lon="4.01053">
        <ele>278.6</ele>
        <time>2022-09-20T14:12:41Z</time>
      </trkpt>
      <trkpt lat="49.10616" lon="4.01073">
        <ele>278.6</ele>
        <time>2022-09-20T14:12:43Z</time>
      </trkpt>
      <trkpt lat="49.10618" lon="4.01085">
        <ele>278.8</ele>
        <time>2022-09-20T14:12:44Z</time>
      </trkpt>
      <trkpt lat="49.10621" lon="4.01105">
        <ele>279</ele>
        <time>2022-09-20T14:12:46Z</time>
      </trkpt>
      <trkpt lat="49.1063" lon="4.01131">
        <ele>278.8</ele>
        <time>2022-09-20T14:12:49Z</time>
      </trkpt>
      <trkpt lat="49.10648" lon="4.01183">
        <ele>278.6</ele>
        <time>2022-09-20T14:12:54Z</time>
      </trkpt>
      <trkpt lat="49.10666" lon="4.01241">
        <ele>278.4</ele>
        <time>2022-09-20T14:12:59Z</time>
      </trkpt>
      <trkpt lat="49.10674" lon="4.01267">
        <ele>277.4</ele>
        <time>2022-09-20T14:13:01Z</time>
      </trkpt>
      <trkpt lat="49.10682" lon="4.01287">
        <ele>276.8</ele>
        <time>2022-09-20T14:13:03Z</time>
      </trkpt>
      <trkpt lat="49.10694" lon="4.01325">
        <ele>276.2</ele>
        <time>2022-09-20T14:13:06Z</time>
      </trkpt>
      <trkpt lat="49.10706" lon="4.0136">
        <ele>275.6</ele>
        <time>2022-09-20T14:13:09Z</time>
      </trkpt>
      <trkpt lat="49.10714" lon="4.01385">
        <ele>275.4</ele>
        <time>2022-09-20T14:13:11Z</time>
      </trkpt>
      <trkpt lat="49.10721" lon="4.01409">
        <ele>274.8</ele>
        <time>2022-09-20T14:13:13Z</time>
      </trkpt>
      <trkpt lat="49.10732" lon="4.01443">
        <ele>274.2</ele>
        <time>2022-09-20T14:13:16Z</time>
      </trkpt>
      <trkpt lat="49.10743" lon="4.01477">
        <ele>273.8</ele>
        <time>2022-09-20T14:13:19Z</time>
      </trkpt>
      <trkpt lat="49.10749" lon="4.01498">
        <ele>273.8</ele>
        <time>2022-09-20T14:13:21Z</time>
      </trkpt>
      <trkpt lat="49.10753" lon="4.01509">
        <ele>273.8</ele>
        <time>2022-09-20T14:13:22Z</time>
      </trkpt>
      <trkpt lat="49.10768" lon="4.0155">
        <ele>273.8</ele>
        <time>2022-09-20T14:13:26Z</time>
      </trkpt>
      <trkpt lat="49.10774" lon="4.0157">
        <ele>273.8</ele>
        <time>2022-09-20T14:13:28Z</time>
      </trkpt>
      <trkpt lat="49.10778" lon="4.0158">
        <ele>273.8</ele>
        <time>2022-09-20T14:13:29Z</time>
      </trkpt>
      <trkpt lat="49.10792" lon="4.01621">
        <ele>273.8</ele>
        <time>2022-09-20T14:13:33Z</time>
      </trkpt>
      <trkpt lat="49.10795" lon="4.01632">
        <ele>273.8</ele>
        <time>2022-09-20T14:13:34Z</time>
      </trkpt>
      <trkpt lat="49.10803" lon="4.01651">
        <ele>273.6</ele>
        <time>2022-09-20T14:13:36Z</time>
      </trkpt>
      <trkpt lat="49.10807" lon="4.0166">
        <ele>273.6</ele>
        <time>2022-09-20T14:13:37Z</time>
      </trkpt>
      <trkpt lat="49.10814" lon="4.01681">
        <ele>273.6</ele>
        <time>2022-09-20T14:13:39Z</time>
      </trkpt>
      <trkpt lat="49.10826" lon="4.01719">
        <ele>273.2</ele>
        <time>2022-09-20T14:13:43Z</time>
      </trkpt>
      <trkpt lat="49.10831" lon="4.01738">
        <ele>273.2</ele>
        <time>2022-09-20T14:13:45Z</time>
      </trkpt>
      <trkpt lat="49.10839" lon="4.01768">
        <ele>273.4</ele>
        <time>2022-09-20T14:13:48Z</time>
      </trkpt>
      <trkpt lat="49.10846" lon="4.01845">
        <ele>273.8</ele>
        <time>2022-09-20T14:13:55Z</time>
      </trkpt>
      <trkpt lat="49.1085" lon="4.01876">
        <ele>274</ele>
        <time>2022-09-20T14:13:58Z</time>
      </trkpt>
      <trkpt lat="49.10851" lon="4.01899">
        <ele>274.2</ele>
        <time>2022-09-20T14:14:00Z</time>
      </trkpt>
      <trkpt lat="49.10856" lon="4.01985">
        <ele>274.4</ele>
        <time>2022-09-20T14:14:08Z</time>
      </trkpt>
      <trkpt lat="49.10862" lon="4.02038">
        <ele>275</ele>
        <time>2022-09-20T14:14:14Z</time>
      </trkpt>
      <trkpt lat="49.10867" lon="4.02089">
        <ele>276</ele>
        <time>2022-09-20T14:14:20Z</time>
      </trkpt>
      <trkpt lat="49.10868" lon="4.02098">
        <ele>276.4</ele>
        <time>2022-09-20T14:14:21Z</time>
      </trkpt>
      <trkpt lat="49.10873" lon="4.02165">
        <ele>277.2</ele>
        <time>2022-09-20T14:14:29Z</time>
      </trkpt>
      <trkpt lat="49.10877" lon="4.02208">
        <ele>277.8</ele>
        <time>2022-09-20T14:14:34Z</time>
      </trkpt>
      <trkpt lat="49.10878" lon="4.02224">
        <ele>278.4</ele>
        <time>2022-09-20T14:14:36Z</time>
      </trkpt>
      <trkpt lat="49.10884" lon="4.02282">
        <ele>279.4</ele>
        <time>2022-09-20T14:14:43Z</time>
      </trkpt>
      <trkpt lat="49.10886" lon="4.02306">
        <ele>280</ele>
        <time>2022-09-20T14:14:46Z</time>
      </trkpt>
      <trkpt lat="49.10889" lon="4.02331">
        <ele>280.2</ele>
        <time>2022-09-20T14:14:49Z</time>
      </trkpt>
      <trkpt lat="49.10893" lon="4.0238">
        <ele>280.6</ele>
        <time>2022-09-20T14:14:55Z</time>
      </trkpt>
      <trkpt lat="49.10898" lon="4.02446">
        <ele>281.2</ele>
        <time>2022-09-20T14:15:03Z</time>
      </trkpt>
      <trkpt lat="49.10901" lon="4.02483">
        <ele>281.2</ele>
        <time>2022-09-20T14:15:07Z</time>
      </trkpt>
      <trkpt lat="49.10903" lon="4.02502">
        <ele>281</ele>
        <time>2022-09-20T14:15:09Z</time>
      </trkpt>
      <trkpt lat="49.10911" lon="4.02576">
        <ele>280.2</ele>
        <time>2022-09-20T14:15:16Z</time>
      </trkpt>
      <trkpt lat="49.10917" lon="4.02626">
        <ele>279.6</ele>
        <time>2022-09-20T14:15:20Z</time>
      </trkpt>
      <trkpt lat="49.1092" lon="4.02652">
        <ele>279</ele>
        <time>2022-09-20T14:15:22Z</time>
      </trkpt>
      <trkpt lat="49.10921" lon="4.02679">
        <ele>277.8</ele>
        <time>2022-09-20T14:15:24Z</time>
      </trkpt>
      <trkpt lat="49.10924" lon="4.02722">
        <ele>276.8</ele>
        <time>2022-09-20T14:15:27Z</time>
      </trkpt>
      <trkpt lat="49.10929" lon="4.02768">
        <ele>275.2</ele>
        <time>2022-09-20T14:15:30Z</time>
      </trkpt>
      <trkpt lat="49.10932" lon="4.02799">
        <ele>273.8</ele>
        <time>2022-09-20T14:15:32Z</time>
      </trkpt>
      <trkpt lat="49.10934" lon="4.02815">
        <ele>273.2</ele>
        <time>2022-09-20T14:15:33Z</time>
      </trkpt>
      <trkpt lat="49.10939" lon="4.02849">
        <ele>272.2</ele>
        <time>2022-09-20T14:15:35Z</time>
      </trkpt>
      <trkpt lat="49.10943" lon="4.02865">
        <ele>271.2</ele>
        <time>2022-09-20T14:15:36Z</time>
      </trkpt>
      <trkpt lat="49.10948" lon="4.02881">
        <ele>270.4</ele>
        <time>2022-09-20T14:15:37Z</time>
      </trkpt>
      <trkpt lat="49.10957" lon="4.02893">
        <ele>269.8</ele>
        <time>2022-09-20T14:15:38Z</time>
      </trkpt>
      <trkpt lat="49.10967" lon="4.02904">
        <ele>269.4</ele>
        <time>2022-09-20T14:15:39Z</time>
      </trkpt>
      <trkpt lat="49.10978" lon="4.02911">
        <ele>268.6</ele>
        <time>2022-09-20T14:15:40Z</time>
      </trkpt>
      <trkpt lat="49.11" lon="4.02924">
        <ele>267.2</ele>
        <time>2022-09-20T14:15:42Z</time>
      </trkpt>
      <trkpt lat="49.11012" lon="4.0293">
        <ele>266.4</ele>
        <time>2022-09-20T14:15:43Z</time>
      </trkpt>
      <trkpt lat="49.11023" lon="4.02935">
        <ele>266</ele>
        <time>2022-09-20T14:15:44Z</time>
      </trkpt>
      <trkpt lat="49.1105" lon="4.02943">
        <ele>265</ele>
        <time>2022-09-20T14:15:46Z</time>
      </trkpt>
      <trkpt lat="49.11059" lon="4.02946">
        <ele>263.4</ele>
        <time>2022-09-20T14:15:47Z</time>
      </trkpt>
      <trkpt lat="49.11071" lon="4.02948">
        <ele>262.6</ele>
        <time>2022-09-20T14:15:48Z</time>
      </trkpt>
      <trkpt lat="49.11086" lon="4.02951">
        <ele>261.8</ele>
        <time>2022-09-20T14:15:49Z</time>
      </trkpt>
      <trkpt lat="49.1111" lon="4.02955">
        <ele>260.6</ele>
        <time>2022-09-20T14:15:51Z</time>
      </trkpt>
      <trkpt lat="49.11122" lon="4.02957">
        <ele>259.2</ele>
        <time>2022-09-20T14:15:52Z</time>
      </trkpt>
      <trkpt lat="49.11147" lon="4.02961">
        <ele>258</ele>
        <time>2022-09-20T14:15:54Z</time>
      </trkpt>
      <trkpt lat="49.11157" lon="4.02963">
        <ele>256.8</ele>
        <time>2022-09-20T14:15:55Z</time>
      </trkpt>
      <trkpt lat="49.11168" lon="4.02965">
        <ele>256.2</ele>
        <time>2022-09-20T14:15:56Z</time>
      </trkpt>
      <trkpt lat="49.1118" lon="4.02967">
        <ele>255.4</ele>
        <time>2022-09-20T14:15:57Z</time>
      </trkpt>
      <trkpt lat="49.11205" lon="4.02972">
        <ele>253</ele>
        <time>2022-09-20T14:15:59Z</time>
      </trkpt>
      <trkpt lat="49.11225" lon="4.02975">
        <ele>251.2</ele>
        <time>2022-09-20T14:16:01Z</time>
      </trkpt>
      <trkpt lat="49.11236" lon="4.02978">
        <ele>250.2</ele>
        <time>2022-09-20T14:16:02Z</time>
      </trkpt>
      <trkpt lat="49.11247" lon="4.0298">
        <ele>249.6</ele>
        <time>2022-09-20T14:16:03Z</time>
      </trkpt>
      <trkpt lat="49.11267" lon="4.02984">
        <ele>248.2</ele>
        <time>2022-09-20T14:16:05Z</time>
      </trkpt>
      <trkpt lat="49.11277" lon="4.02986">
        <ele>247.2</ele>
        <time>2022-09-20T14:16:06Z</time>
      </trkpt>
      <trkpt lat="49.11286" lon="4.02988">
        <ele>246.4</ele>
        <time>2022-09-20T14:16:07Z</time>
      </trkpt>
      <trkpt lat="49.11296" lon="4.0299">
        <ele>245.8</ele>
        <time>2022-09-20T14:16:08Z</time>
      </trkpt>
      <trkpt lat="49.11313" lon="4.02994">
        <ele>244.2</ele>
        <time>2022-09-20T14:16:10Z</time>
      </trkpt>
      <trkpt lat="49.11321" lon="4.02999">
        <ele>243.2</ele>
        <time>2022-09-20T14:16:11Z</time>
      </trkpt>
      <trkpt lat="49.11327" lon="4.03005">
        <ele>242.8</ele>
        <time>2022-09-20T14:16:12Z</time>
      </trkpt>
      <trkpt lat="49.1134" lon="4.03013">
        <ele>241.2</ele>
        <time>2022-09-20T14:16:14Z</time>
      </trkpt>
      <trkpt lat="49.11345" lon="4.03019">
        <ele>241</ele>
        <time>2022-09-20T14:16:15Z</time>
      </trkpt>
      <trkpt lat="49.11348" lon="4.03034">
        <ele>239.8</ele>
        <time>2022-09-20T14:16:17Z</time>
      </trkpt>
      <trkpt lat="49.1135" lon="4.03043">
        <ele>239.4</ele>
        <time>2022-09-20T14:16:18Z</time>
      </trkpt>
      <trkpt lat="49.11352" lon="4.03063">
        <ele>238.4</ele>
        <time>2022-09-20T14:16:20Z</time>
      </trkpt>
      <trkpt lat="49.11357" lon="4.03096">
        <ele>236.8</ele>
        <time>2022-09-20T14:16:23Z</time>
      </trkpt>
      <trkpt lat="49.11362" lon="4.0313">
        <ele>235.2</ele>
        <time>2022-09-20T14:16:26Z</time>
      </trkpt>
      <trkpt lat="49.11368" lon="4.03162">
        <ele>234.4</ele>
        <time>2022-09-20T14:16:29Z</time>
      </trkpt>
      <trkpt lat="49.1137" lon="4.03175">
        <ele>233.8</ele>
        <time>2022-09-20T14:16:30Z</time>
      </trkpt>
      <trkpt lat="49.11377" lon="4.03191">
        <ele>233.2</ele>
        <time>2022-09-20T14:16:32Z</time>
      </trkpt>
      <trkpt lat="49.11383" lon="4.03198">
        <ele>232.6</ele>
        <time>2022-09-20T14:16:33Z</time>
      </trkpt>
      <trkpt lat="49.11404" lon="4.03212">
        <ele>231.4</ele>
        <time>2022-09-20T14:16:36Z</time>
      </trkpt>
      <trkpt lat="49.11419" lon="4.03221">
        <ele>230.6</ele>
        <time>2022-09-20T14:16:38Z</time>
      </trkpt>
      <trkpt lat="49.11427" lon="4.03226">
        <ele>230.2</ele>
        <time>2022-09-20T14:16:39Z</time>
      </trkpt>
      <trkpt lat="49.11443" lon="4.03236">
        <ele>229.2</ele>
        <time>2022-09-20T14:16:41Z</time>
      </trkpt>
      <trkpt lat="49.11452" lon="4.0324">
        <ele>228.4</ele>
        <time>2022-09-20T14:16:42Z</time>
      </trkpt>
      <trkpt lat="49.11461" lon="4.03243">
        <ele>228</ele>
        <time>2022-09-20T14:16:43Z</time>
      </trkpt>
      <trkpt lat="49.1147" lon="4.03244">
        <ele>227.4</ele>
        <time>2022-09-20T14:16:44Z</time>
      </trkpt>
      <trkpt lat="49.11479" lon="4.03241">
        <ele>226.6</ele>
        <time>2022-09-20T14:16:45Z</time>
      </trkpt>
      <trkpt lat="49.11487" lon="4.03236">
        <ele>226.4</ele>
        <time>2022-09-20T14:16:46Z</time>
      </trkpt>
      <trkpt lat="49.115" lon="4.03217">
        <ele>225.6</ele>
        <time>2022-09-20T14:16:48Z</time>
      </trkpt>
      <trkpt lat="49.11505" lon="4.03207">
        <ele>225</ele>
        <time>2022-09-20T14:16:49Z</time>
      </trkpt>
      <trkpt lat="49.11516" lon="4.03185">
        <ele>224</ele>
        <time>2022-09-20T14:16:51Z</time>
      </trkpt>
      <trkpt lat="49.11528" lon="4.03163">
        <ele>222.8</ele>
        <time>2022-09-20T14:16:53Z</time>
      </trkpt>
      <trkpt lat="49.11543" lon="4.03143">
        <ele>222</ele>
        <time>2022-09-20T14:16:55Z</time>
      </trkpt>
      <trkpt lat="49.1155" lon="4.03136">
        <ele>220.4</ele>
        <time>2022-09-20T14:16:56Z</time>
      </trkpt>
      <trkpt lat="49.11558" lon="4.03129">
        <ele>219.2</ele>
        <time>2022-09-20T14:16:57Z</time>
      </trkpt>
      <trkpt lat="49.11575" lon="4.03115">
        <ele>218.2</ele>
        <time>2022-09-20T14:16:59Z</time>
      </trkpt>
      <trkpt lat="49.11586" lon="4.03108">
        <ele>217.8</ele>
        <time>2022-09-20T14:17:00Z</time>
      </trkpt>
      <trkpt lat="49.11593" lon="4.03103">
        <ele>217.2</ele>
        <time>2022-09-20T14:17:01Z</time>
      </trkpt>
      <trkpt lat="49.11611" lon="4.03092">
        <ele>216.2</ele>
        <time>2022-09-20T14:17:03Z</time>
      </trkpt>
      <trkpt lat="49.11632" lon="4.03084">
        <ele>215</ele>
        <time>2022-09-20T14:17:05Z</time>
      </trkpt>
      <trkpt lat="49.1164" lon="4.03082">
        <ele>214</ele>
        <time>2022-09-20T14:17:06Z</time>
      </trkpt>
      <trkpt lat="49.1165" lon="4.0308">
        <ele>213.4</ele>
        <time>2022-09-20T14:17:07Z</time>
      </trkpt>
      <trkpt lat="49.11681" lon="4.03076">
        <ele>212</ele>
        <time>2022-09-20T14:17:10Z</time>
      </trkpt>
      <trkpt lat="49.11689" lon="4.03077">
        <ele>210.8</ele>
        <time>2022-09-20T14:17:11Z</time>
      </trkpt>
      <trkpt lat="49.11709" lon="4.03082">
        <ele>209.8</ele>
        <time>2022-09-20T14:17:13Z</time>
      </trkpt>
      <trkpt lat="49.11737" lon="4.0309">
        <ele>208.4</ele>
        <time>2022-09-20T14:17:16Z</time>
      </trkpt>
      <trkpt lat="49.11747" lon="4.03093">
        <ele>208.2</ele>
        <time>2022-09-20T14:17:17Z</time>
      </trkpt>
      <trkpt lat="49.11756" lon="4.03096">
        <ele>207.6</ele>
        <time>2022-09-20T14:17:18Z</time>
      </trkpt>
      <trkpt lat="49.11765" lon="4.03098">
        <ele>207.4</ele>
        <time>2022-09-20T14:17:19Z</time>
      </trkpt>
      <trkpt lat="49.11784" lon="4.03104">
        <ele>206.4</ele>
        <time>2022-09-20T14:17:21Z</time>
      </trkpt>
      <trkpt lat="49.11801" lon="4.03109">
        <ele>205.4</ele>
        <time>2022-09-20T14:17:23Z</time>
      </trkpt>
      <trkpt lat="49.1181" lon="4.03111">
        <ele>205.2</ele>
        <time>2022-09-20T14:17:24Z</time>
      </trkpt>
      <trkpt lat="49.11827" lon="4.03115">
        <ele>204.4</ele>
        <time>2022-09-20T14:17:26Z</time>
      </trkpt>
      <trkpt lat="49.11836" lon="4.03116">
        <ele>204</ele>
        <time>2022-09-20T14:17:27Z</time>
      </trkpt>
      <trkpt lat="49.11845" lon="4.03115">
        <ele>203.8</ele>
        <time>2022-09-20T14:17:28Z</time>
      </trkpt>
      <trkpt lat="49.11874" lon="4.03111">
        <ele>202.8</ele>
        <time>2022-09-20T14:17:31Z</time>
      </trkpt>
      <trkpt lat="49.11894" lon="4.03109">
        <ele>201.8</ele>
        <time>2022-09-20T14:17:33Z</time>
      </trkpt>
      <trkpt lat="49.11903" lon="4.03108">
        <ele>201.2</ele>
        <time>2022-09-20T14:17:34Z</time>
      </trkpt>
      <trkpt lat="49.11914" lon="4.03107">
        <ele>200.6</ele>
        <time>2022-09-20T14:17:35Z</time>
      </trkpt>
      <trkpt lat="49.11934" lon="4.03104">
        <ele>199.4</ele>
        <time>2022-09-20T14:17:37Z</time>
      </trkpt>
      <trkpt lat="49.11955" lon="4.03102">
        <ele>198.2</ele>
        <time>2022-09-20T14:17:39Z</time>
      </trkpt>
      <trkpt lat="49.11976" lon="4.031">
        <ele>197.2</ele>
        <time>2022-09-20T14:17:41Z</time>
      </trkpt>
      <trkpt lat="49.11998" lon="4.03097">
        <ele>195.8</ele>
        <time>2022-09-20T14:17:43Z</time>
      </trkpt>
      <trkpt lat="49.12019" lon="4.03094">
        <ele>194.6</ele>
        <time>2022-09-20T14:17:45Z</time>
      </trkpt>
      <trkpt lat="49.1203" lon="4.03093">
        <ele>193.6</ele>
        <time>2022-09-20T14:17:46Z</time>
      </trkpt>
      <trkpt lat="49.1204" lon="4.03092">
        <ele>192.8</ele>
        <time>2022-09-20T14:17:47Z</time>
      </trkpt>
      <trkpt lat="49.12062" lon="4.03089">
        <ele>191.8</ele>
        <time>2022-09-20T14:17:49Z</time>
      </trkpt>
      <trkpt lat="49.12083" lon="4.03086">
        <ele>190.6</ele>
        <time>2022-09-20T14:17:51Z</time>
      </trkpt>
      <trkpt lat="49.12104" lon="4.03084">
        <ele>189.4</ele>
        <time>2022-09-20T14:17:53Z</time>
      </trkpt>
      <trkpt lat="49.12114" lon="4.03085">
        <ele>188.2</ele>
        <time>2022-09-20T14:17:54Z</time>
      </trkpt>
      <trkpt lat="49.12123" lon="4.03089">
        <ele>188.2</ele>
        <time>2022-09-20T14:17:55Z</time>
      </trkpt>
      <trkpt lat="49.12132" lon="4.03096">
        <ele>187.6</ele>
        <time>2022-09-20T14:17:56Z</time>
      </trkpt>
      <trkpt lat="49.1214" lon="4.03105">
        <ele>187.2</ele>
        <time>2022-09-20T14:17:57Z</time>
      </trkpt>
      <trkpt lat="49.12147" lon="4.03114">
        <ele>186.2</ele>
        <time>2022-09-20T14:17:58Z</time>
      </trkpt>
      <trkpt lat="49.12153" lon="4.03124">
        <ele>185.8</ele>
        <time>2022-09-20T14:17:59Z</time>
      </trkpt>
      <trkpt lat="49.12177" lon="4.03163">
        <ele>184.4</ele>
        <time>2022-09-20T14:18:03Z</time>
      </trkpt>
      <trkpt lat="49.12184" lon="4.03175">
        <ele>184.4</ele>
        <time>2022-09-20T14:18:04Z</time>
      </trkpt>
      <trkpt lat="49.12193" lon="4.03193">
        <ele>183.2</ele>
        <time>2022-09-20T14:18:06Z</time>
      </trkpt>
      <trkpt lat="49.1221" lon="4.03229">
        <ele>182.8</ele>
        <time>2022-09-20T14:18:10Z</time>
      </trkpt>
      <trkpt lat="49.1223" lon="4.03275">
        <ele>182.6</ele>
        <time>2022-09-20T14:18:16Z</time>
      </trkpt>
      <trkpt lat="49.12251" lon="4.03329">
        <ele>183.6</ele>
        <time>2022-09-20T14:18:23Z</time>
      </trkpt>
      <trkpt lat="49.12258" lon="4.03346">
        <ele>184.2</ele>
        <time>2022-09-20T14:18:25Z</time>
      </trkpt>
      <trkpt lat="49.12283" lon="4.03405">
        <ele>184.6</ele>
        <time>2022-09-20T14:18:33Z</time>
      </trkpt>
      <trkpt lat="49.12295" lon="4.03431">
        <ele>185.2</ele>
        <time>2022-09-20T14:18:37Z</time>
      </trkpt>
      <trkpt lat="49.12301" lon="4.03443">
        <ele>185.6</ele>
        <time>2022-09-20T14:18:39Z</time>
      </trkpt>
      <trkpt lat="49.12315" lon="4.03474">
        <ele>186.4</ele>
        <time>2022-09-20T14:18:44Z</time>
      </trkpt>
      <trkpt lat="49.12327" lon="4.03496">
        <ele>186.8</ele>
        <time>2022-09-20T14:18:48Z</time>
      </trkpt>
      <trkpt lat="49.12337" lon="4.03512">
        <ele>187.4</ele>
        <time>2022-09-20T14:18:51Z</time>
      </trkpt>
      <trkpt lat="49.12359" lon="4.03539">
        <ele>188.4</ele>
        <time>2022-09-20T14:18:57Z</time>
      </trkpt>
      <trkpt lat="49.12362" lon="4.03543">
        <ele>188.6</ele>
        <time>2022-09-20T14:18:58Z</time>
      </trkpt>
      <trkpt lat="49.12376" lon="4.03563">
        <ele>189.6</ele>
        <time>2022-09-20T14:19:02Z</time>
      </trkpt>
      <trkpt lat="49.12381" lon="4.03576">
        <ele>190</ele>
        <time>2022-09-20T14:19:04Z</time>
      </trkpt>
      <trkpt lat="49.12384" lon="4.03589">
        <ele>190.2</ele>
        <time>2022-09-20T14:19:06Z</time>
      </trkpt>
      <trkpt lat="49.12384" lon="4.03607">
        <ele>190.4</ele>
        <time>2022-09-20T14:19:08Z</time>
      </trkpt>
      <trkpt lat="49.12382" lon="4.03652">
        <ele>190.6</ele>
        <time>2022-09-20T14:19:14Z</time>
      </trkpt>
      <trkpt lat="49.12382" lon="4.03667">
        <ele>191</ele>
        <time>2022-09-20T14:19:16Z</time>
      </trkpt>
      <trkpt lat="49.1238" lon="4.03702">
        <ele>191.8</ele>
        <time>2022-09-20T14:19:21Z</time>
      </trkpt>
      <trkpt lat="49.1238" lon="4.03718">
        <ele>192.6</ele>
        <time>2022-09-20T14:19:24Z</time>
      </trkpt>
      <trkpt lat="49.12379" lon="4.03729">
        <ele>193</ele>
        <time>2022-09-20T14:19:26Z</time>
      </trkpt>
      <trkpt lat="49.12375" lon="4.03748">
        <ele>194.2</ele>
        <time>2022-09-20T14:19:30Z</time>
      </trkpt>
      <trkpt lat="49.12368" lon="4.03764">
        <ele>195.2</ele>
        <time>2022-09-20T14:19:34Z</time>
      </trkpt>
      <trkpt lat="49.12364" lon="4.03771">
        <ele>195.8</ele>
        <time>2022-09-20T14:19:37Z</time>
      </trkpt>
      <trkpt lat="49.12353" lon="4.0379">
        <ele>196.6</ele>
        <time>2022-09-20T14:19:41Z</time>
      </trkpt>
      <trkpt lat="49.12342" lon="4.03807">
        <ele>197.8</ele>
        <time>2022-09-20T14:19:46Z</time>
      </trkpt>
      <trkpt lat="49.12339" lon="4.0381">
        <ele>198</ele>
        <time>2022-09-20T14:19:47Z</time>
      </trkpt>
      <trkpt lat="49.12327" lon="4.03819">
        <ele>199</ele>
        <time>2022-09-20T14:19:51Z</time>
      </trkpt>
      <trkpt lat="49.12323" lon="4.03819">
        <ele>199.2</ele>
        <time>2022-09-20T14:19:52Z</time>
      </trkpt>
      <trkpt lat="49.12304" lon="4.03811">
        <ele>200.4</ele>
        <time>2022-09-20T14:19:58Z</time>
      </trkpt>
      <trkpt lat="49.12288" lon="4.03793">
        <ele>201.4</ele>
        <time>2022-09-20T14:20:04Z</time>
      </trkpt>
      <trkpt lat="49.1228" lon="4.0378">
        <ele>201.4</ele>
        <time>2022-09-20T14:20:06Z</time>
      </trkpt>
      <trkpt lat="49.1226" lon="4.03758">
        <ele>202.6</ele>
        <time>2022-09-20T14:20:12Z</time>
      </trkpt>
      <trkpt lat="49.12257" lon="4.03755">
        <ele>202.6</ele>
        <time>2022-09-20T14:20:13Z</time>
      </trkpt>
      <trkpt lat="49.12235" lon="4.03745">
        <ele>203.6</ele>
        <time>2022-09-20T14:20:19Z</time>
      </trkpt>
      <trkpt lat="49.12231" lon="4.03746">
        <ele>203.6</ele>
        <time>2022-09-20T14:20:20Z</time>
      </trkpt>
      <trkpt lat="49.12217" lon="4.03754">
        <ele>204.6</ele>
        <time>2022-09-20T14:20:24Z</time>
      </trkpt>
      <trkpt lat="49.12211" lon="4.03761">
        <ele>204.8</ele>
        <time>2022-09-20T14:20:26Z</time>
      </trkpt>
      <trkpt lat="49.12206" lon="4.03773">
        <ele>205.2</ele>
        <time>2022-09-20T14:20:29Z</time>
      </trkpt>
      <trkpt lat="49.12202" lon="4.03783">
        <ele>205.8</ele>
        <time>2022-09-20T14:20:31Z</time>
      </trkpt>
      <trkpt lat="49.122" lon="4.03805">
        <ele>207</ele>
        <time>2022-09-20T14:20:35Z</time>
      </trkpt>
      <trkpt lat="49.12199" lon="4.03832">
        <ele>208.8</ele>
        <time>2022-09-20T14:20:40Z</time>
      </trkpt>
      <trkpt lat="49.12199" lon="4.03837">
        <ele>209.8</ele>
        <time>2022-09-20T14:20:41Z</time>
      </trkpt>
      <trkpt lat="49.12199" lon="4.03842">
        <ele>211</ele>
        <time>2022-09-20T14:20:43Z</time>
      </trkpt>
      <trkpt lat="49.12199" lon="4.03852">
        <ele>211.2</ele>
        <time>2022-09-20T14:20:44Z</time>
      </trkpt>
      <trkpt lat="49.12198" lon="4.03868">
        <ele>212</ele>
        <time>2022-09-20T14:20:47Z</time>
      </trkpt>
      <trkpt lat="49.12198" lon="4.03894">
        <ele>212.6</ele>
        <time>2022-09-20T14:20:52Z</time>
      </trkpt>
      <trkpt lat="49.12199" lon="4.0391">
        <ele>213.2</ele>
        <time>2022-09-20T14:20:55Z</time>
      </trkpt>
      <trkpt lat="49.12199" lon="4.03925">
        <ele>213.8</ele>
        <time>2022-09-20T14:20:58Z</time>
      </trkpt>
      <trkpt lat="49.12199" lon="4.03935">
        <ele>214.4</ele>
        <time>2022-09-20T14:21:00Z</time>
      </trkpt>
      <trkpt lat="49.12199" lon="4.03956">
        <ele>214.6</ele>
        <time>2022-09-20T14:21:05Z</time>
      </trkpt>
      <trkpt lat="49.12196" lon="4.03982">
        <ele>215.4</ele>
        <time>2022-09-20T14:21:11Z</time>
      </trkpt>
      <trkpt lat="49.12194" lon="4.03997">
        <ele>216.6</ele>
        <time>2022-09-20T14:21:15Z</time>
      </trkpt>
      <trkpt lat="49.12193" lon="4.04006">
        <ele>217</ele>
        <time>2022-09-20T14:21:17Z</time>
      </trkpt>
      <trkpt lat="49.12188" lon="4.04034">
        <ele>217.6</ele>
        <time>2022-09-20T14:21:23Z</time>
      </trkpt>
      <trkpt lat="49.12187" lon="4.04045">
        <ele>218</ele>
        <time>2022-09-20T14:21:25Z</time>
      </trkpt>
      <trkpt lat="49.12184" lon="4.04069">
        <ele>218.6</ele>
        <time>2022-09-20T14:21:29Z</time>
      </trkpt>
      <trkpt lat="49.12184" lon="4.04076">
        <ele>218.8</ele>
        <time>2022-09-20T14:21:30Z</time>
      </trkpt>
      <trkpt lat="49.12178" lon="4.04106">
        <ele>219.4</ele>
        <time>2022-09-20T14:21:35Z</time>
      </trkpt>
      <trkpt lat="49.12177" lon="4.04118">
        <ele>220</ele>
        <time>2022-09-20T14:21:37Z</time>
      </trkpt>
      <trkpt lat="49.12174" lon="4.04138">
        <ele>220.6</ele>
        <time>2022-09-20T14:21:41Z</time>
      </trkpt>
      <trkpt lat="49.12174" lon="4.04157">
        <ele>221.2</ele>
        <time>2022-09-20T14:21:44Z</time>
      </trkpt>
      <trkpt lat="49.12176" lon="4.04186">
        <ele>222.4</ele>
        <time>2022-09-20T14:21:49Z</time>
      </trkpt>
      <trkpt lat="49.12177" lon="4.04209">
        <ele>223.4</ele>
        <time>2022-09-20T14:21:53Z</time>
      </trkpt>
      <trkpt lat="49.12179" lon="4.04231">
        <ele>224.4</ele>
        <time>2022-09-20T14:21:57Z</time>
      </trkpt>
      <trkpt lat="49.12181" lon="4.04244">
        <ele>224.6</ele>
        <time>2022-09-20T14:21:59Z</time>
      </trkpt>
      <trkpt lat="49.12184" lon="4.04279">
        <ele>225.4</ele>
        <time>2022-09-20T14:22:05Z</time>
      </trkpt>
      <trkpt lat="49.12187" lon="4.043">
        <ele>226.4</ele>
        <time>2022-09-20T14:22:09Z</time>
      </trkpt>
      <trkpt lat="49.1219" lon="4.04322">
        <ele>227.2</ele>
        <time>2022-09-20T14:22:13Z</time>
      </trkpt>
      <trkpt lat="49.12192" lon="4.04337">
        <ele>227.6</ele>
        <time>2022-09-20T14:22:16Z</time>
      </trkpt>
      <trkpt lat="49.12197" lon="4.04358">
        <ele>229</ele>
        <time>2022-09-20T14:22:20Z</time>
      </trkpt>
      <trkpt lat="49.12204" lon="4.04384">
        <ele>230.2</ele>
        <time>2022-09-20T14:22:25Z</time>
      </trkpt>
      <trkpt lat="49.12204" lon="4.04387">
        <ele>230.2</ele>
        <time>2022-09-20T14:22:26Z</time>
      </trkpt>
      <trkpt lat="49.12215" lon="4.04405">
        <ele>231.2</ele>
        <time>2022-09-20T14:22:31Z</time>
      </trkpt>
      <trkpt lat="49.12217" lon="4.04408">
        <ele>231.4</ele>
        <time>2022-09-20T14:22:32Z</time>
      </trkpt>
      <trkpt lat="49.12227" lon="4.04419">
        <ele>232.4</ele>
        <time>2022-09-20T14:22:36Z</time>
      </trkpt>
      <trkpt lat="49.12235" lon="4.0443">
        <ele>233.2</ele>
        <time>2022-09-20T14:22:39Z</time>
      </trkpt>
      <trkpt lat="49.1224" lon="4.04438">
        <ele>234</ele>
        <time>2022-09-20T14:22:41Z</time>
      </trkpt>
      <trkpt lat="49.12254" lon="4.04457">
        <ele>235.2</ele>
        <time>2022-09-20T14:22:46Z</time>
      </trkpt>
      <trkpt lat="49.12268" lon="4.0447">
        <ele>236.4</ele>
        <time>2022-09-20T14:22:51Z</time>
      </trkpt>
      <trkpt lat="49.1227" lon="4.04474">
        <ele>236.4</ele>
        <time>2022-09-20T14:22:52Z</time>
      </trkpt>
      <trkpt lat="49.12282" lon="4.04488">
        <ele>237.4</ele>
        <time>2022-09-20T14:22:56Z</time>
      </trkpt>
      <trkpt lat="49.12295" lon="4.04505">
        <ele>238.8</ele>
        <time>2022-09-20T14:23:00Z</time>
      </trkpt>
      <trkpt lat="49.12299" lon="4.0451">
        <ele>239</ele>
        <time>2022-09-20T14:23:01Z</time>
      </trkpt>
      <trkpt lat="49.12304" lon="4.04517">
        <ele>239.4</ele>
        <time>2022-09-20T14:23:03Z</time>
      </trkpt>
      <trkpt lat="49.1231" lon="4.04528">
        <ele>239.8</ele>
        <time>2022-09-20T14:23:05Z</time>
      </trkpt>
      <trkpt lat="49.12312" lon="4.04534">
        <ele>239.8</ele>
        <time>2022-09-20T14:23:06Z</time>
      </trkpt>
      <trkpt lat="49.12316" lon="4.04545">
        <ele>239.8</ele>
        <time>2022-09-20T14:23:08Z</time>
      </trkpt>
      <trkpt lat="49.12321" lon="4.04565">
        <ele>240.4</ele>
        <time>2022-09-20T14:23:11Z</time>
      </trkpt>
      <trkpt lat="49.12324" lon="4.04591">
        <ele>240.6</ele>
        <time>2022-09-20T14:23:15Z</time>
      </trkpt>
      <trkpt lat="49.12324" lon="4.04609">
        <ele>241.4</ele>
        <time>2022-09-20T14:23:18Z</time>
      </trkpt>
      <trkpt lat="49.12325" lon="4.04619">
        <ele>242</ele>
        <time>2022-09-20T14:23:20Z</time>
      </trkpt>
      <trkpt lat="49.12329" lon="4.04649">
        <ele>242.8</ele>
        <time>2022-09-20T14:23:25Z</time>
      </trkpt>
      <trkpt lat="49.12333" lon="4.04665">
        <ele>243</ele>
        <time>2022-09-20T14:23:28Z</time>
      </trkpt>
      <trkpt lat="49.12338" lon="4.04686">
        <ele>244</ele>
        <time>2022-09-20T14:23:32Z</time>
      </trkpt>
      <trkpt lat="49.12346" lon="4.04712">
        <ele>245.4</ele>
        <time>2022-09-20T14:23:37Z</time>
      </trkpt>
      <trkpt lat="49.12355" lon="4.04737">
        <ele>246.6</ele>
        <time>2022-09-20T14:23:42Z</time>
      </trkpt>
      <trkpt lat="49.12361" lon="4.04764">
        <ele>247.6</ele>
        <time>2022-09-20T14:23:47Z</time>
      </trkpt>
      <trkpt lat="49.12364" lon="4.04774">
        <ele>248</ele>
        <time>2022-09-20T14:23:49Z</time>
      </trkpt>
      <trkpt lat="49.12366" lon="4.04785">
        <ele>248.8</ele>
        <time>2022-09-20T14:23:51Z</time>
      </trkpt>
      <trkpt lat="49.12367" lon="4.04809">
        <ele>250</ele>
        <time>2022-09-20T14:23:56Z</time>
      </trkpt>
      <trkpt lat="49.12367" lon="4.04832">
        <ele>251.4</ele>
        <time>2022-09-20T14:24:00Z</time>
      </trkpt>
      <trkpt lat="49.12368" lon="4.04842">
        <ele>251.6</ele>
        <time>2022-09-20T14:24:02Z</time>
      </trkpt>
      <trkpt lat="49.12371" lon="4.0487">
        <ele>252.6</ele>
        <time>2022-09-20T14:24:07Z</time>
      </trkpt>
      <trkpt lat="49.12375" lon="4.04896">
        <ele>254</ele>
        <time>2022-09-20T14:24:12Z</time>
      </trkpt>
      <trkpt lat="49.1238" lon="4.04914">
        <ele>255</ele>
        <time>2022-09-20T14:24:15Z</time>
      </trkpt>
      <trkpt lat="49.12387" lon="4.04939">
        <ele>255.8</ele>
        <time>2022-09-20T14:24:20Z</time>
      </trkpt>
      <trkpt lat="49.1239" lon="4.0495">
        <ele>256.4</ele>
        <time>2022-09-20T14:24:22Z</time>
      </trkpt>
      <trkpt lat="49.12396" lon="4.04969">
        <ele>257</ele>
        <time>2022-09-20T14:24:26Z</time>
      </trkpt>
      <trkpt lat="49.12404" lon="4.04995">
        <ele>258</ele>
        <time>2022-09-20T14:24:31Z</time>
      </trkpt>
      <trkpt lat="49.12406" lon="4.04999">
        <ele>258.2</ele>
        <time>2022-09-20T14:24:32Z</time>
      </trkpt>
      <trkpt lat="49.12413" lon="4.05019">
        <ele>259.2</ele>
        <time>2022-09-20T14:24:36Z</time>
      </trkpt>
      <trkpt lat="49.1242" lon="4.05039">
        <ele>260.4</ele>
        <time>2022-09-20T14:24:40Z</time>
      </trkpt>
      <trkpt lat="49.12427" lon="4.05059">
        <ele>261.6</ele>
        <time>2022-09-20T14:24:44Z</time>
      </trkpt>
      <trkpt lat="49.12436" lon="4.05084">
        <ele>262.4</ele>
        <time>2022-09-20T14:24:49Z</time>
      </trkpt>
      <trkpt lat="49.12438" lon="4.0509">
        <ele>262.6</ele>
        <time>2022-09-20T14:24:50Z</time>
      </trkpt>
      <trkpt lat="49.12455" lon="4.05134">
        <ele>263.6</ele>
        <time>2022-09-20T14:24:58Z</time>
      </trkpt>
      <trkpt lat="49.12457" lon="4.05139">
        <ele>263.8</ele>
        <time>2022-09-20T14:24:59Z</time>
      </trkpt>
      <trkpt lat="49.12464" lon="4.05165">
        <ele>264</ele>
        <time>2022-09-20T14:25:03Z</time>
      </trkpt>
      <trkpt lat="49.12469" lon="4.05188">
        <ele>264</ele>
        <time>2022-09-20T14:25:06Z</time>
      </trkpt>
      <trkpt lat="49.12479" lon="4.05238">
        <ele>264</ele>
        <time>2022-09-20T14:25:12Z</time>
      </trkpt>
      <trkpt lat="49.12484" lon="4.05291">
        <ele>263.8</ele>
        <time>2022-09-20T14:25:18Z</time>
      </trkpt>
      <trkpt lat="49.12484" lon="4.05299">
        <ele>263.8</ele>
        <time>2022-09-20T14:25:19Z</time>
      </trkpt>
      <trkpt lat="49.1248" lon="4.05324">
        <ele>264.2</ele>
        <time>2022-09-20T14:25:22Z</time>
      </trkpt>
      <trkpt lat="49.12474" lon="4.05372">
        <ele>264.8</ele>
        <time>2022-09-20T14:25:28Z</time>
      </trkpt>
      <trkpt lat="49.12473" lon="4.05388">
        <ele>264.6</ele>
        <time>2022-09-20T14:25:30Z</time>
      </trkpt>
      <trkpt lat="49.12474" lon="4.05403">
        <ele>265</ele>
        <time>2022-09-20T14:25:32Z</time>
      </trkpt>
      <trkpt lat="49.12476" lon="4.05425">
        <ele>265.8</ele>
        <time>2022-09-20T14:25:35Z</time>
      </trkpt>
      <trkpt lat="49.12482" lon="4.05457">
        <ele>267</ele>
        <time>2022-09-20T14:25:40Z</time>
      </trkpt>
      <trkpt lat="49.12484" lon="4.05463">
        <ele>267.4</ele>
        <time>2022-09-20T14:25:41Z</time>
      </trkpt>
      <trkpt lat="49.12488" lon="4.05474">
        <ele>268.2</ele>
        <time>2022-09-20T14:25:43Z</time>
      </trkpt>
      <trkpt lat="49.1249" lon="4.05479">
        <ele>268.4</ele>
        <time>2022-09-20T14:25:44Z</time>
      </trkpt>
      <trkpt lat="49.12498" lon="4.05494">
        <ele>268.8</ele>
        <time>2022-09-20T14:25:47Z</time>
      </trkpt>
      <trkpt lat="49.12503" lon="4.05503">
        <ele>269.4</ele>
        <time>2022-09-20T14:25:49Z</time>
      </trkpt>
      <trkpt lat="49.12515" lon="4.0552">
        <ele>270.4</ele>
        <time>2022-09-20T14:25:53Z</time>
      </trkpt>
      <trkpt lat="49.12521" lon="4.05529">
        <ele>271.2</ele>
        <time>2022-09-20T14:25:55Z</time>
      </trkpt>
      <trkpt lat="49.12526" lon="4.05539">
        <ele>271.6</ele>
        <time>2022-09-20T14:25:57Z</time>
      </trkpt>
      <trkpt lat="49.12538" lon="4.05557">
        <ele>272.8</ele>
        <time>2022-09-20T14:26:01Z</time>
      </trkpt>
      <trkpt lat="49.12541" lon="4.05562">
        <ele>272.8</ele>
        <time>2022-09-20T14:26:02Z</time>
      </trkpt>
      <trkpt lat="49.12549" lon="4.05576">
        <ele>273.8</ele>
        <time>2022-09-20T14:26:05Z</time>
      </trkpt>
      <trkpt lat="49.12564" lon="4.05599">
        <ele>274.8</ele>
        <time>2022-09-20T14:26:10Z</time>
      </trkpt>
      <trkpt lat="49.12566" lon="4.05604">
        <ele>275</ele>
        <time>2022-09-20T14:26:11Z</time>
      </trkpt>
      <trkpt lat="49.1259" lon="4.05642">
        <ele>276</ele>
        <time>2022-09-20T14:26:19Z</time>
      </trkpt>
      <trkpt lat="49.12593" lon="4.05646">
        <ele>276</ele>
        <time>2022-09-20T14:26:20Z</time>
      </trkpt>
      <trkpt lat="49.12595" lon="4.0565">
        <ele>276.2</ele>
        <time>2022-09-20T14:26:21Z</time>
      </trkpt>
      <trkpt lat="49.12608" lon="4.05681">
        <ele>277.2</ele>
        <time>2022-09-20T14:26:27Z</time>
      </trkpt>
      <trkpt lat="49.12612" lon="4.05692">
        <ele>277.6</ele>
        <time>2022-09-20T14:26:29Z</time>
      </trkpt>
      <trkpt lat="49.12618" lon="4.0572">
        <ele>278.4</ele>
        <time>2022-09-20T14:26:33Z</time>
      </trkpt>
      <trkpt lat="49.12619" lon="4.05727">
        <ele>278.4</ele>
        <time>2022-09-20T14:26:34Z</time>
      </trkpt>
      <trkpt lat="49.12621" lon="4.05769">
        <ele>279</ele>
        <time>2022-09-20T14:26:40Z</time>
      </trkpt>
      <trkpt lat="49.12618" lon="4.05805">
        <ele>279.4</ele>
        <time>2022-09-20T14:26:46Z</time>
      </trkpt>
      <trkpt lat="49.12617" lon="4.0582">
        <ele>279.4</ele>
        <time>2022-09-20T14:26:47Z</time>
      </trkpt>
      <trkpt lat="49.12616" lon="4.05834">
        <ele>279.6</ele>
        <time>2022-09-20T14:26:49Z</time>
      </trkpt>
      <trkpt lat="49.1261" lon="4.05889">
        <ele>280.4</ele>
        <time>2022-09-20T14:26:56Z</time>
      </trkpt>
      <trkpt lat="49.12603" lon="4.0596">
        <ele>281.4</ele>
        <time>2022-09-20T14:27:04Z</time>
      </trkpt>
      <trkpt lat="49.126" lon="4.05996">
        <ele>281.6</ele>
        <time>2022-09-20T14:27:08Z</time>
      </trkpt>
      <trkpt lat="49.12595" lon="4.06052">
        <ele>281.6</ele>
        <time>2022-09-20T14:27:15Z</time>
      </trkpt>
      <trkpt lat="49.12587" lon="4.06143">
        <ele>281.6</ele>
        <time>2022-09-20T14:27:23Z</time>
      </trkpt>
      <trkpt lat="49.12581" lon="4.06221">
        <ele>282.2</ele>
        <time>2022-09-20T14:27:31Z</time>
      </trkpt>
      <trkpt lat="49.12578" lon="4.06249">
        <ele>282.8</ele>
        <time>2022-09-20T14:27:34Z</time>
      </trkpt>
      <trkpt lat="49.12574" lon="4.06294">
        <ele>283.6</ele>
        <time>2022-09-20T14:27:39Z</time>
      </trkpt>
      <trkpt lat="49.12572" lon="4.06311">
        <ele>283.8</ele>
        <time>2022-09-20T14:27:41Z</time>
      </trkpt>
      <trkpt lat="49.12568" lon="4.06357">
        <ele>284.6</ele>
        <time>2022-09-20T14:27:46Z</time>
      </trkpt>
      <trkpt lat="49.12564" lon="4.06441">
        <ele>284.6</ele>
        <time>2022-09-20T14:27:55Z</time>
      </trkpt>
      <trkpt lat="49.12564" lon="4.06451">
        <ele>284.8</ele>
        <time>2022-09-20T14:27:56Z</time>
      </trkpt>
      <trkpt lat="49.12564" lon="4.06524">
        <ele>284.4</ele>
        <time>2022-09-20T14:28:03Z</time>
      </trkpt>
      <trkpt lat="49.12567" lon="4.066">
        <ele>283.8</ele>
        <time>2022-09-20T14:28:10Z</time>
      </trkpt>
      <trkpt lat="49.12568" lon="4.06681">
        <ele>283</ele>
        <time>2022-09-20T14:28:17Z</time>
      </trkpt>
      <trkpt lat="49.12567" lon="4.06726">
        <ele>282.8</ele>
        <time>2022-09-20T14:28:21Z</time>
      </trkpt>
      <trkpt lat="49.12563" lon="4.06766">
        <ele>282.4</ele>
        <time>2022-09-20T14:28:24Z</time>
      </trkpt>
      <trkpt lat="49.12557" lon="4.06802">
        <ele>281.8</ele>
        <time>2022-09-20T14:28:27Z</time>
      </trkpt>
      <trkpt lat="49.12551" lon="4.06825">
        <ele>281.4</ele>
        <time>2022-09-20T14:28:29Z</time>
      </trkpt>
      <trkpt lat="49.12529" lon="4.06906">
        <ele>280.4</ele>
        <time>2022-09-20T14:28:36Z</time>
      </trkpt>
      <trkpt lat="49.12526" lon="4.06918">
        <ele>280.2</ele>
        <time>2022-09-20T14:28:37Z</time>
      </trkpt>
      <trkpt lat="49.12518" lon="4.0697">
        <ele>279.2</ele>
        <time>2022-09-20T14:28:41Z</time>
      </trkpt>
      <trkpt lat="49.12517" lon="4.06984">
        <ele>278.8</ele>
        <time>2022-09-20T14:28:42Z</time>
      </trkpt>
      <trkpt lat="49.12517" lon="4.07011">
        <ele>278</ele>
        <time>2022-09-20T14:28:44Z</time>
      </trkpt>
      <trkpt lat="49.12518" lon="4.07078">
        <ele>276.6</ele>
        <time>2022-09-20T14:28:49Z</time>
      </trkpt>
      <trkpt lat="49.12518" lon="4.0709">
        <ele>276.4</ele>
        <time>2022-09-20T14:28:50Z</time>
      </trkpt>
      <trkpt lat="49.12521" lon="4.07161">
        <ele>275.4</ele>
        <time>2022-09-20T14:28:56Z</time>
      </trkpt>
      <trkpt lat="49.12522" lon="4.07172">
        <ele>275.4</ele>
        <time>2022-09-20T14:28:57Z</time>
      </trkpt>
      <trkpt lat="49.12525" lon="4.07267">
        <ele>275</ele>
        <time>2022-09-20T14:29:05Z</time>
      </trkpt>
      <trkpt lat="49.12527" lon="4.0735">
        <ele>274.8</ele>
        <time>2022-09-20T14:29:12Z</time>
      </trkpt>
      <trkpt lat="49.12525" lon="4.07373">
        <ele>274.8</ele>
        <time>2022-09-20T14:29:14Z</time>
      </trkpt>
      <trkpt lat="49.12521" lon="4.07395">
        <ele>274.8</ele>
        <time>2022-09-20T14:29:16Z</time>
      </trkpt>
      <trkpt lat="49.125" lon="4.07449">
        <ele>274.8</ele>
        <time>2022-09-20T14:29:21Z</time>
      </trkpt>
      <trkpt lat="49.12469" lon="4.07512">
        <ele>274.4</ele>
        <time>2022-09-20T14:29:27Z</time>
      </trkpt>
      <trkpt lat="49.12464" lon="4.07523">
        <ele>274.2</ele>
        <time>2022-09-20T14:29:28Z</time>
      </trkpt>
      <trkpt lat="49.12448" lon="4.07555">
        <ele>273.2</ele>
        <time>2022-09-20T14:29:31Z</time>
      </trkpt>
      <trkpt lat="49.12432" lon="4.07591">
        <ele>272.6</ele>
        <time>2022-09-20T14:29:34Z</time>
      </trkpt>
      <trkpt lat="49.12426" lon="4.07604">
        <ele>272</ele>
        <time>2022-09-20T14:29:36Z</time>
      </trkpt>
      <trkpt lat="49.12405" lon="4.07657">
        <ele>270.8</ele>
        <time>2022-09-20T14:29:39Z</time>
      </trkpt>
      <trkpt lat="49.124" lon="4.07671">
        <ele>270.6</ele>
        <time>2022-09-20T14:29:40Z</time>
      </trkpt>
      <trkpt lat="49.12389" lon="4.07698">
        <ele>269.8</ele>
        <time>2022-09-20T14:29:42Z</time>
      </trkpt>
      <trkpt lat="49.12372" lon="4.07741">
        <ele>268.2</ele>
        <time>2022-09-20T14:29:45Z</time>
      </trkpt>
      <trkpt lat="49.12366" lon="4.07755">
        <ele>267</ele>
        <time>2022-09-20T14:29:46Z</time>
      </trkpt>
      <trkpt lat="49.12361" lon="4.07768">
        <ele>266.4</ele>
        <time>2022-09-20T14:29:47Z</time>
      </trkpt>
      <trkpt lat="49.12356" lon="4.07782">
        <ele>265.8</ele>
        <time>2022-09-20T14:29:48Z</time>
      </trkpt>
      <trkpt lat="49.12351" lon="4.07812">
        <ele>264.8</ele>
        <time>2022-09-20T14:29:50Z</time>
      </trkpt>
      <trkpt lat="49.12351" lon="4.07827">
        <ele>264</ele>
        <time>2022-09-20T14:29:51Z</time>
      </trkpt>
      <trkpt lat="49.12353" lon="4.07843">
        <ele>263.8</ele>
        <time>2022-09-20T14:29:52Z</time>
      </trkpt>
      <trkpt lat="49.12356" lon="4.07857">
        <ele>262.8</ele>
        <time>2022-09-20T14:29:53Z</time>
      </trkpt>
      <trkpt lat="49.12361" lon="4.07871">
        <ele>262.4</ele>
        <time>2022-09-20T14:29:54Z</time>
      </trkpt>
      <trkpt lat="49.12366" lon="4.07884">
        <ele>261.6</ele>
        <time>2022-09-20T14:29:55Z</time>
      </trkpt>
      <trkpt lat="49.12377" lon="4.07911">
        <ele>260.4</ele>
        <time>2022-09-20T14:29:57Z</time>
      </trkpt>
      <trkpt lat="49.12382" lon="4.07925">
        <ele>259.8</ele>
        <time>2022-09-20T14:29:58Z</time>
      </trkpt>
      <trkpt lat="49.12393" lon="4.07952">
        <ele>259.2</ele>
        <time>2022-09-20T14:30:00Z</time>
      </trkpt>
      <trkpt lat="49.12404" lon="4.07979">
        <ele>257.6</ele>
        <time>2022-09-20T14:30:02Z</time>
      </trkpt>
      <trkpt lat="49.12414" lon="4.08004">
        <ele>256.2</ele>
        <time>2022-09-20T14:30:04Z</time>
      </trkpt>
      <trkpt lat="49.1242" lon="4.08019">
        <ele>255.6</ele>
        <time>2022-09-20T14:30:05Z</time>
      </trkpt>
      <trkpt lat="49.1243" lon="4.08044">
        <ele>254.6</ele>
        <time>2022-09-20T14:30:07Z</time>
      </trkpt>
      <trkpt lat="49.12441" lon="4.08062">
        <ele>252.8</ele>
        <time>2022-09-20T14:30:09Z</time>
      </trkpt>
      <trkpt lat="49.12455" lon="4.08077">
        <ele>251.8</ele>
        <time>2022-09-20T14:30:11Z</time>
      </trkpt>
      <trkpt lat="49.12463" lon="4.08079">
        <ele>251.4</ele>
        <time>2022-09-20T14:30:12Z</time>
      </trkpt>
      <trkpt lat="49.12471" lon="4.08078">
        <ele>251</ele>
        <time>2022-09-20T14:30:13Z</time>
      </trkpt>
      <trkpt lat="49.12479" lon="4.08077">
        <ele>250.2</ele>
        <time>2022-09-20T14:30:14Z</time>
      </trkpt>
      <trkpt lat="49.12485" lon="4.08074">
        <ele>249.8</ele>
        <time>2022-09-20T14:30:15Z</time>
      </trkpt>
      <trkpt lat="49.12492" lon="4.0807">
        <ele>249.2</ele>
        <time>2022-09-20T14:30:16Z</time>
      </trkpt>
      <trkpt lat="49.12508" lon="4.0806">
        <ele>247.6</ele>
        <time>2022-09-20T14:30:19Z</time>
      </trkpt>
      <trkpt lat="49.12514" lon="4.08056">
        <ele>247.2</ele>
        <time>2022-09-20T14:30:20Z</time>
      </trkpt>
      <trkpt lat="49.12518" lon="4.08055">
        <ele>247</ele>
        <time>2022-09-20T14:30:21Z</time>
      </trkpt>
      <trkpt lat="49.12522" lon="4.08062">
        <ele>246.4</ele>
        <time>2022-09-20T14:30:22Z</time>
      </trkpt>
      <trkpt lat="49.1253" lon="4.08094">
        <ele>245.4</ele>
        <time>2022-09-20T14:30:25Z</time>
      </trkpt>
      <trkpt lat="49.12534" lon="4.08105">
        <ele>244.8</ele>
        <time>2022-09-20T14:30:26Z</time>
      </trkpt>
      <trkpt lat="49.1254" lon="4.08125">
        <ele>243.8</ele>
        <time>2022-09-20T14:30:28Z</time>
      </trkpt>
      <trkpt lat="49.12546" lon="4.08143">
        <ele>243</ele>
        <time>2022-09-20T14:30:30Z</time>
      </trkpt>
      <trkpt lat="49.12549" lon="4.08148">
        <ele>242.2</ele>
        <time>2022-09-20T14:30:31Z</time>
      </trkpt>
      <trkpt lat="49.12555" lon="4.08152">
        <ele>242</ele>
        <time>2022-09-20T14:30:32Z</time>
      </trkpt>
      <trkpt lat="49.1256" lon="4.08154">
        <ele>241</ele>
        <time>2022-09-20T14:30:33Z</time>
      </trkpt>
      <trkpt lat="49.12566" lon="4.08153">
        <ele>240.4</ele>
        <time>2022-09-20T14:30:34Z</time>
      </trkpt>
      <trkpt lat="49.12572" lon="4.08152">
        <ele>240.2</ele>
        <time>2022-09-20T14:30:35Z</time>
      </trkpt>
      <trkpt lat="49.12578" lon="4.0815">
        <ele>239.6</ele>
        <time>2022-09-20T14:30:36Z</time>
      </trkpt>
      <trkpt lat="49.12591" lon="4.08146">
        <ele>239</ele>
        <time>2022-09-20T14:30:38Z</time>
      </trkpt>
      <trkpt lat="49.12598" lon="4.08144">
        <ele>238.8</ele>
        <time>2022-09-20T14:30:39Z</time>
      </trkpt>
      <trkpt lat="49.12605" lon="4.08141">
        <ele>238.6</ele>
        <time>2022-09-20T14:30:40Z</time>
      </trkpt>
      <trkpt lat="49.12615" lon="4.08128">
        <ele>238</ele>
        <time>2022-09-20T14:30:42Z</time>
      </trkpt>
      <trkpt lat="49.1263" lon="4.08107">
        <ele>237.4</ele>
        <time>2022-09-20T14:30:45Z</time>
      </trkpt>
      <trkpt lat="49.1264" lon="4.08095">
        <ele>237.2</ele>
        <time>2022-09-20T14:30:47Z</time>
      </trkpt>
      <trkpt lat="49.12663" lon="4.08074">
        <ele>237</ele>
        <time>2022-09-20T14:30:51Z</time>
      </trkpt>
      <trkpt lat="49.12676" lon="4.08068">
        <ele>236.8</ele>
        <time>2022-09-20T14:30:53Z</time>
      </trkpt>
      <trkpt lat="49.1269" lon="4.08065">
        <ele>236.6</ele>
        <time>2022-09-20T14:30:55Z</time>
      </trkpt>
      <trkpt lat="49.12706" lon="4.08067">
        <ele>236.4</ele>
        <time>2022-09-20T14:30:57Z</time>
      </trkpt>
      <trkpt lat="49.12713" lon="4.0807">
        <ele>236.2</ele>
        <time>2022-09-20T14:30:58Z</time>
      </trkpt>
      <trkpt lat="49.12736" lon="4.08083">
        <ele>235.6</ele>
        <time>2022-09-20T14:31:01Z</time>
      </trkpt>
      <trkpt lat="49.12742" lon="4.08087">
        <ele>235.2</ele>
        <time>2022-09-20T14:31:02Z</time>
      </trkpt>
      <trkpt lat="49.12755" lon="4.08091">
        <ele>234.4</ele>
        <time>2022-09-20T14:31:04Z</time>
      </trkpt>
      <trkpt lat="49.1276" lon="4.0809">
        <ele>233.8</ele>
        <time>2022-09-20T14:31:05Z</time>
      </trkpt>
      <trkpt lat="49.12765" lon="4.08089">
        <ele>233.4</ele>
        <time>2022-09-20T14:31:06Z</time>
      </trkpt>
      <trkpt lat="49.12775" lon="4.08083">
        <ele>232.6</ele>
        <time>2022-09-20T14:31:08Z</time>
      </trkpt>
      <trkpt lat="49.12792" lon="4.08069">
        <ele>232.2</ele>
        <time>2022-09-20T14:31:13Z</time>
      </trkpt>
      <trkpt lat="49.12808" lon="4.08058">
        <ele>233.8</ele>
        <time>2022-09-20T14:31:19Z</time>
      </trkpt>
      <trkpt lat="49.12817" lon="4.08053">
        <ele>234.8</ele>
        <time>2022-09-20T14:31:22Z</time>
      </trkpt>
      <trkpt lat="49.1282" lon="4.08052">
        <ele>235.2</ele>
        <time>2022-09-20T14:31:23Z</time>
      </trkpt>
      <trkpt lat="49.12828" lon="4.08049">
        <ele>236.4</ele>
        <time>2022-09-20T14:31:26Z</time>
      </trkpt>
      <trkpt lat="49.12834" lon="4.08046">
        <ele>236.8</ele>
        <time>2022-09-20T14:31:28Z</time>
      </trkpt>
      <trkpt lat="49.1284" lon="4.08044">
        <ele>237.4</ele>
        <time>2022-09-20T14:31:30Z</time>
      </trkpt>
      <trkpt lat="49.12848" lon="4.08041">
        <ele>238.4</ele>
        <time>2022-09-20T14:31:33Z</time>
      </trkpt>
      <trkpt lat="49.12853" lon="4.08036">
        <ele>239</ele>
        <time>2022-09-20T14:31:35Z</time>
      </trkpt>
      <trkpt lat="49.12858" lon="4.08025">
        <ele>239.6</ele>
        <time>2022-09-20T14:31:38Z</time>
      </trkpt>
      <trkpt lat="49.12861" lon="4.08012">
        <ele>240.2</ele>
        <time>2022-09-20T14:31:41Z</time>
      </trkpt>
      <trkpt lat="49.12861" lon="4.08009">
        <ele>240.6</ele>
        <time>2022-09-20T14:31:42Z</time>
      </trkpt>
      <trkpt lat="49.12864" lon="4.07987">
        <ele>241.8</ele>
        <time>2022-09-20T14:31:47Z</time>
      </trkpt>
      <trkpt lat="49.12868" lon="4.07974">
        <ele>242.6</ele>
        <time>2022-09-20T14:31:50Z</time>
      </trkpt>
      <trkpt lat="49.1287" lon="4.0797">
        <ele>242.8</ele>
        <time>2022-09-20T14:31:51Z</time>
      </trkpt>
      <trkpt lat="49.12875" lon="4.07955">
        <ele>244</ele>
        <time>2022-09-20T14:31:55Z</time>
      </trkpt>
      <trkpt lat="49.12881" lon="4.0794">
        <ele>245.2</ele>
        <time>2022-09-20T14:31:59Z</time>
      </trkpt>
      <trkpt lat="49.12884" lon="4.07933">
        <ele>245.8</ele>
        <time>2022-09-20T14:32:01Z</time>
      </trkpt>
      <trkpt lat="49.12889" lon="4.07922">
        <ele>246.2</ele>
        <time>2022-09-20T14:32:04Z</time>
      </trkpt>
      <trkpt lat="49.12899" lon="4.07901">
        <ele>247.4</ele>
        <time>2022-09-20T14:32:10Z</time>
      </trkpt>
      <trkpt lat="49.12901" lon="4.07898">
        <ele>247.8</ele>
        <time>2022-09-20T14:32:11Z</time>
      </trkpt>
      <trkpt lat="49.12906" lon="4.07888">
        <ele>248.6</ele>
        <time>2022-09-20T14:32:14Z</time>
      </trkpt>
      <trkpt lat="49.12913" lon="4.07876">
        <ele>249.2</ele>
        <time>2022-09-20T14:32:18Z</time>
      </trkpt>
      <trkpt lat="49.12916" lon="4.07869">
        <ele>249.6</ele>
        <time>2022-09-20T14:32:20Z</time>
      </trkpt>
      <trkpt lat="49.12923" lon="4.07855">
        <ele>250.6</ele>
        <time>2022-09-20T14:32:25Z</time>
      </trkpt>
      <trkpt lat="49.12925" lon="4.07852">
        <ele>250.8</ele>
        <time>2022-09-20T14:32:26Z</time>
      </trkpt>
      <trkpt lat="49.1293" lon="4.07842">
        <ele>251.8</ele>
        <time>2022-09-20T14:32:29Z</time>
      </trkpt>
      <trkpt lat="49.12935" lon="4.07832">
        <ele>253</ele>
        <time>2022-09-20T14:32:32Z</time>
      </trkpt>
      <trkpt lat="49.12938" lon="4.07821">
        <ele>253.8</ele>
        <time>2022-09-20T14:32:35Z</time>
      </trkpt>
      <trkpt lat="49.1294" lon="4.07817">
        <ele>254</ele>
        <time>2022-09-20T14:32:36Z</time>
      </trkpt>
      <trkpt lat="49.12947" lon="4.078">
        <ele>255</ele>
        <time>2022-09-20T14:32:41Z</time>
      </trkpt>
      <trkpt lat="49.12951" lon="4.07789">
        <ele>256</ele>
        <time>2022-09-20T14:32:44Z</time>
      </trkpt>
      <trkpt lat="49.12952" lon="4.07785">
        <ele>256.2</ele>
        <time>2022-09-20T14:32:45Z</time>
      </trkpt>
      <trkpt lat="49.12957" lon="4.07767">
        <ele>257.2</ele>
        <time>2022-09-20T14:32:50Z</time>
      </trkpt>
      <trkpt lat="49.1296" lon="4.07756">
        <ele>257.8</ele>
        <time>2022-09-20T14:32:53Z</time>
      </trkpt>
      <trkpt lat="49.12963" lon="4.07749">
        <ele>258.2</ele>
        <time>2022-09-20T14:32:55Z</time>
      </trkpt>
      <trkpt lat="49.1297" lon="4.07732">
        <ele>259.2</ele>
        <time>2022-09-20T14:33:00Z</time>
      </trkpt>
      <trkpt lat="49.12972" lon="4.07724">
        <ele>259.8</ele>
        <time>2022-09-20T14:33:02Z</time>
      </trkpt>
      <trkpt lat="49.12978" lon="4.07709">
        <ele>260.2</ele>
        <time>2022-09-20T14:33:06Z</time>
      </trkpt>
      <trkpt lat="49.1298" lon="4.07702">
        <ele>260.8</ele>
        <time>2022-09-20T14:33:08Z</time>
      </trkpt>
      <trkpt lat="49.12984" lon="4.0769">
        <ele>261.4</ele>
        <time>2022-09-20T14:33:11Z</time>
      </trkpt>
      <trkpt lat="49.12992" lon="4.07667">
        <ele>262.8</ele>
        <time>2022-09-20T14:33:17Z</time>
      </trkpt>
      <trkpt lat="49.12993" lon="4.07663">
        <ele>263.4</ele>
        <time>2022-09-20T14:33:18Z</time>
      </trkpt>
      <trkpt lat="49.12995" lon="4.07656">
        <ele>263.8</ele>
        <time>2022-09-20T14:33:20Z</time>
      </trkpt>
      <trkpt lat="49.13004" lon="4.07634">
        <ele>264.8</ele>
        <time>2022-09-20T14:33:26Z</time>
      </trkpt>
      <trkpt lat="49.13005" lon="4.0763">
        <ele>265</ele>
        <time>2022-09-20T14:33:27Z</time>
      </trkpt>
      <trkpt lat="49.13012" lon="4.07612">
        <ele>266</ele>
        <time>2022-09-20T14:33:32Z</time>
      </trkpt>
      <trkpt lat="49.13018" lon="4.07595">
        <ele>266.6</ele>
        <time>2022-09-20T14:33:36Z</time>
      </trkpt>
      <trkpt lat="49.13023" lon="4.07586">
        <ele>267.2</ele>
        <time>2022-09-20T14:33:38Z</time>
      </trkpt>
      <trkpt lat="49.13027" lon="4.07574">
        <ele>268.2</ele>
        <time>2022-09-20T14:33:41Z</time>
      </trkpt>
      <trkpt lat="49.13031" lon="4.07562">
        <ele>268.8</ele>
        <time>2022-09-20T14:33:44Z</time>
      </trkpt>
      <trkpt lat="49.13035" lon="4.07545">
        <ele>269.4</ele>
        <time>2022-09-20T14:33:48Z</time>
      </trkpt>
      <trkpt lat="49.13039" lon="4.07528">
        <ele>269.8</ele>
        <time>2022-09-20T14:33:52Z</time>
      </trkpt>
      <trkpt lat="49.13042" lon="4.07515">
        <ele>270.4</ele>
        <time>2022-09-20T14:33:55Z</time>
      </trkpt>
      <trkpt lat="49.13043" lon="4.07488">
        <ele>271.6</ele>
        <time>2022-09-20T14:34:01Z</time>
      </trkpt>
      <trkpt lat="49.13046" lon="4.0746">
        <ele>272.6</ele>
        <time>2022-09-20T14:34:07Z</time>
      </trkpt>
      <trkpt lat="49.13046" lon="4.07454">
        <ele>272.8</ele>
        <time>2022-09-20T14:34:08Z</time>
      </trkpt>
      <trkpt lat="49.1305" lon="4.07432">
        <ele>273.8</ele>
        <time>2022-09-20T14:34:12Z</time>
      </trkpt>
      <trkpt lat="49.13051" lon="4.07427">
        <ele>274</ele>
        <time>2022-09-20T14:34:13Z</time>
      </trkpt>
      <trkpt lat="49.1306" lon="4.07395">
        <ele>275</ele>
        <time>2022-09-20T14:34:19Z</time>
      </trkpt>
      <trkpt lat="49.1307" lon="4.07362">
        <ele>276</ele>
        <time>2022-09-20T14:34:26Z</time>
      </trkpt>
      <trkpt lat="49.13073" lon="4.07354">
        <ele>276.4</ele>
        <time>2022-09-20T14:34:28Z</time>
      </trkpt>
      <trkpt lat="49.13078" lon="4.07337">
        <ele>277.2</ele>
        <time>2022-09-20T14:34:32Z</time>
      </trkpt>
      <trkpt lat="49.13082" lon="4.07314">
        <ele>278.2</ele>
        <time>2022-09-20T14:34:37Z</time>
      </trkpt>
      <trkpt lat="49.13082" lon="4.07297">
        <ele>279.4</ele>
        <time>2022-09-20T14:34:41Z</time>
      </trkpt>
      <trkpt lat="49.1308" lon="4.07288">
        <ele>279.6</ele>
        <time>2022-09-20T14:34:43Z</time>
      </trkpt>
      <trkpt lat="49.1308" lon="4.07264">
        <ele>280.6</ele>
        <time>2022-09-20T14:34:48Z</time>
      </trkpt>
      <trkpt lat="49.13084" lon="4.07222">
        <ele>281.4</ele>
        <time>2022-09-20T14:34:55Z</time>
      </trkpt>
      <trkpt lat="49.13085" lon="4.07217">
        <ele>281.4</ele>
        <time>2022-09-20T14:34:56Z</time>
      </trkpt>
      <trkpt lat="49.13086" lon="4.07209">
        <ele>281.6</ele>
        <time>2022-09-20T14:34:57Z</time>
      </trkpt>
      <trkpt lat="49.13088" lon="4.07203">
        <ele>281.8</ele>
        <time>2022-09-20T14:34:58Z</time>
      </trkpt>
      <trkpt lat="49.13095" lon="4.07182">
        <ele>282</ele>
        <time>2022-09-20T14:35:01Z</time>
      </trkpt>
      <trkpt lat="49.13104" lon="4.07172">
        <ele>282.2</ele>
        <time>2022-09-20T14:35:03Z</time>
      </trkpt>
      <trkpt lat="49.13109" lon="4.0717">
        <ele>282.4</ele>
        <time>2022-09-20T14:35:04Z</time>
      </trkpt>
      <trkpt lat="49.13118" lon="4.07168">
        <ele>282.6</ele>
        <time>2022-09-20T14:35:06Z</time>
      </trkpt>
      <trkpt lat="49.13133" lon="4.07167">
        <ele>282.8</ele>
        <time>2022-09-20T14:35:09Z</time>
      </trkpt>
      <trkpt lat="49.1315" lon="4.0717">
        <ele>282.8</ele>
        <time>2022-09-20T14:35:13Z</time>
      </trkpt>
      <trkpt lat="49.13162" lon="4.07171">
        <ele>282.8</ele>
        <time>2022-09-20T14:35:16Z</time>
      </trkpt>
      <trkpt lat="49.13189" lon="4.07172">
        <ele>283</ele>
        <time>2022-09-20T14:35:21Z</time>
      </trkpt>
      <trkpt lat="49.13201" lon="4.07173">
        <ele>283.2</ele>
        <time>2022-09-20T14:35:23Z</time>
      </trkpt>
      <trkpt lat="49.13212" lon="4.07173">
        <ele>283.2</ele>
        <time>2022-09-20T14:35:25Z</time>
      </trkpt>
      <trkpt lat="49.13222" lon="4.07172">
        <ele>283.4</ele>
        <time>2022-09-20T14:35:27Z</time>
      </trkpt>
      <trkpt lat="49.13228" lon="4.07173">
        <ele>283.4</ele>
        <time>2022-09-20T14:35:28Z</time>
      </trkpt>
      <trkpt lat="49.13277" lon="4.07182">
        <ele>283</ele>
        <time>2022-09-20T14:35:36Z</time>
      </trkpt>
      <trkpt lat="49.13283" lon="4.07183">
        <ele>283</ele>
        <time>2022-09-20T14:35:37Z</time>
      </trkpt>
      <trkpt lat="49.13301" lon="4.07185">
        <ele>282.8</ele>
        <time>2022-09-20T14:35:40Z</time>
      </trkpt>
      <trkpt lat="49.13321" lon="4.07191">
        <ele>282.8</ele>
        <time>2022-09-20T14:35:44Z</time>
      </trkpt>
      <trkpt lat="49.13353" lon="4.07199">
        <ele>283</ele>
        <time>2022-09-20T14:35:50Z</time>
      </trkpt>
      <trkpt lat="49.13366" lon="4.07204">
        <ele>283</ele>
        <time>2022-09-20T14:35:52Z</time>
      </trkpt>
      <trkpt lat="49.1338" lon="4.07206">
        <ele>283</ele>
        <time>2022-09-20T14:35:54Z</time>
      </trkpt>
      <trkpt lat="49.13404" lon="4.07208">
        <ele>283</ele>
        <time>2022-09-20T14:35:58Z</time>
      </trkpt>
      <trkpt lat="49.13422" lon="4.07212">
        <ele>283.2</ele>
        <time>2022-09-20T14:36:01Z</time>
      </trkpt>
      <trkpt lat="49.13465" lon="4.07221">
        <ele>283.6</ele>
        <time>2022-09-20T14:36:09Z</time>
      </trkpt>
      <trkpt lat="49.1347" lon="4.07221">
        <ele>283.8</ele>
        <time>2022-09-20T14:36:10Z</time>
      </trkpt>
      <trkpt lat="49.1351" lon="4.07227">
        <ele>284.4</ele>
        <time>2022-09-20T14:36:18Z</time>
      </trkpt>
      <trkpt lat="49.13534" lon="4.07232">
        <ele>284.6</ele>
        <time>2022-09-20T14:36:23Z</time>
      </trkpt>
      <trkpt lat="49.13557" lon="4.07235">
        <ele>285.4</ele>
        <time>2022-09-20T14:36:28Z</time>
      </trkpt>
      <trkpt lat="49.13567" lon="4.07238">
        <ele>285.4</ele>
        <time>2022-09-20T14:36:30Z</time>
      </trkpt>
      <trkpt lat="49.13582" lon="4.07238">
        <ele>285.8</ele>
        <time>2022-09-20T14:36:33Z</time>
      </trkpt>
      <trkpt lat="49.13587" lon="4.07239">
        <ele>285.8</ele>
        <time>2022-09-20T14:36:34Z</time>
      </trkpt>
      <trkpt lat="49.13641" lon="4.07246">
        <ele>286.4</ele>
        <time>2022-09-20T14:36:44Z</time>
      </trkpt>
      <trkpt lat="49.13652" lon="4.07248">
        <ele>286.8</ele>
        <time>2022-09-20T14:36:46Z</time>
      </trkpt>
      <trkpt lat="49.13657" lon="4.07248">
        <ele>287</ele>
        <time>2022-09-20T14:36:47Z</time>
      </trkpt>
      <trkpt lat="49.13685" lon="4.07253">
        <ele>287.6</ele>
        <time>2022-09-20T14:36:52Z</time>
      </trkpt>
      <trkpt lat="49.13713" lon="4.07257">
        <ele>288.2</ele>
        <time>2022-09-20T14:36:57Z</time>
      </trkpt>
      <trkpt lat="49.13732" lon="4.07262">
        <ele>288.4</ele>
        <time>2022-09-20T14:37:00Z</time>
      </trkpt>
      <trkpt lat="49.13749" lon="4.07266">
        <ele>288.6</ele>
        <time>2022-09-20T14:37:03Z</time>
      </trkpt>
      <trkpt lat="49.13765" lon="4.0727">
        <ele>288.8</ele>
        <time>2022-09-20T14:37:06Z</time>
      </trkpt>
      <trkpt lat="49.1381" lon="4.07278">
        <ele>289</ele>
        <time>2022-09-20T14:37:14Z</time>
      </trkpt>
      <trkpt lat="49.13816" lon="4.07279">
        <ele>289</ele>
        <time>2022-09-20T14:37:15Z</time>
      </trkpt>
      <trkpt lat="49.13834" lon="4.07282">
        <ele>289.2</ele>
        <time>2022-09-20T14:37:18Z</time>
      </trkpt>
      <trkpt lat="49.13846" lon="4.07284">
        <ele>289.8</ele>
        <time>2022-09-20T14:37:21Z</time>
      </trkpt>
      <trkpt lat="49.13887" lon="4.07288">
        <ele>290.2</ele>
        <time>2022-09-20T14:37:27Z</time>
      </trkpt>
      <trkpt lat="49.13893" lon="4.07289">
        <ele>290.4</ele>
        <time>2022-09-20T14:37:28Z</time>
      </trkpt>
      <trkpt lat="49.13946" lon="4.07299">
        <ele>291.2</ele>
        <time>2022-09-20T14:37:37Z</time>
      </trkpt>
      <trkpt lat="49.13959" lon="4.07301">
        <ele>291.2</ele>
        <time>2022-09-20T14:37:39Z</time>
      </trkpt>
      <trkpt lat="49.13996" lon="4.07308">
        <ele>291.6</ele>
        <time>2022-09-20T14:37:45Z</time>
      </trkpt>
      <trkpt lat="49.14045" lon="4.07317">
        <ele>291.8</ele>
        <time>2022-09-20T14:37:53Z</time>
      </trkpt>
      <trkpt lat="49.14096" lon="4.07326">
        <ele>291.8</ele>
        <time>2022-09-20T14:38:01Z</time>
      </trkpt>
      <trkpt lat="49.14148" lon="4.07333">
        <ele>291.8</ele>
        <time>2022-09-20T14:38:09Z</time>
      </trkpt>
      <trkpt lat="49.14173" lon="4.07339">
        <ele>292.2</ele>
        <time>2022-09-20T14:38:13Z</time>
      </trkpt>
      <trkpt lat="49.14191" lon="4.07341">
        <ele>292.4</ele>
        <time>2022-09-20T14:38:16Z</time>
      </trkpt>
      <trkpt lat="49.14224" lon="4.07347">
        <ele>292.8</ele>
        <time>2022-09-20T14:38:22Z</time>
      </trkpt>
      <trkpt lat="49.14234" lon="4.07352">
        <ele>293</ele>
        <time>2022-09-20T14:38:24Z</time>
      </trkpt>
      <trkpt lat="49.14249" lon="4.07365">
        <ele>293.4</ele>
        <time>2022-09-20T14:38:27Z</time>
      </trkpt>
      <trkpt lat="49.14265" lon="4.07387">
        <ele>293.8</ele>
        <time>2022-09-20T14:38:31Z</time>
      </trkpt>
      <trkpt lat="49.14269" lon="4.07392">
        <ele>293.8</ele>
        <time>2022-09-20T14:38:33Z</time>
      </trkpt>
      <trkpt lat="49.14279" lon="4.07407">
        <ele>294</ele>
        <time>2022-09-20T14:38:35Z</time>
      </trkpt>
      <trkpt lat="49.14285" lon="4.07415">
        <ele>294.4</ele>
        <time>2022-09-20T14:38:37Z</time>
      </trkpt>
      <trkpt lat="49.14292" lon="4.07426">
        <ele>294.4</ele>
        <time>2022-09-20T14:38:39Z</time>
      </trkpt>
      <trkpt lat="49.143" lon="4.07438">
        <ele>294.4</ele>
        <time>2022-09-20T14:38:41Z</time>
      </trkpt>
      <trkpt lat="49.14307" lon="4.0745">
        <ele>294.4</ele>
        <time>2022-09-20T14:38:43Z</time>
      </trkpt>
      <trkpt lat="49.14311" lon="4.07456">
        <ele>294.4</ele>
        <time>2022-09-20T14:38:44Z</time>
      </trkpt>
      <trkpt lat="49.14321" lon="4.07471">
        <ele>294.2</ele>
        <time>2022-09-20T14:38:47Z</time>
      </trkpt>
      <trkpt lat="49.14325" lon="4.07479">
        <ele>294</ele>
        <time>2022-09-20T14:38:48Z</time>
      </trkpt>
      <trkpt lat="49.14334" lon="4.07494">
        <ele>293.8</ele>
        <time>2022-09-20T14:38:50Z</time>
      </trkpt>
      <trkpt lat="49.14343" lon="4.07508">
        <ele>293.6</ele>
        <time>2022-09-20T14:38:52Z</time>
      </trkpt>
      <trkpt lat="49.14348" lon="4.07515">
        <ele>293.2</ele>
        <time>2022-09-20T14:38:53Z</time>
      </trkpt>
      <trkpt lat="49.14358" lon="4.07533">
        <ele>292.8</ele>
        <time>2022-09-20T14:38:55Z</time>
      </trkpt>
      <trkpt lat="49.14364" lon="4.07541">
        <ele>292.6</ele>
        <time>2022-09-20T14:38:56Z</time>
      </trkpt>
      <trkpt lat="49.14383" lon="4.07568">
        <ele>292.2</ele>
        <time>2022-09-20T14:38:59Z</time>
      </trkpt>
      <trkpt lat="49.1439" lon="4.07574">
        <ele>291.8</ele>
        <time>2022-09-20T14:39:01Z</time>
      </trkpt>
      <trkpt lat="49.14404" lon="4.07595">
        <ele>291.2</ele>
        <time>2022-09-20T14:39:03Z</time>
      </trkpt>
      <trkpt lat="49.14427" lon="4.07629">
        <ele>290.8</ele>
        <time>2022-09-20T14:39:07Z</time>
      </trkpt>
      <trkpt lat="49.1444" lon="4.0765">
        <ele>290.6</ele>
        <time>2022-09-20T14:39:09Z</time>
      </trkpt>
      <trkpt lat="49.14449" lon="4.07674">
        <ele>290.8</ele>
        <time>2022-09-20T14:39:11Z</time>
      </trkpt>
      <trkpt lat="49.14469" lon="4.07748">
        <ele>290.4</ele>
        <time>2022-09-20T14:39:18Z</time>
      </trkpt>
      <trkpt lat="49.14471" lon="4.07759">
        <ele>290</ele>
        <time>2022-09-20T14:39:19Z</time>
      </trkpt>
      <trkpt lat="49.14491" lon="4.07835">
        <ele>289.4</ele>
        <time>2022-09-20T14:39:26Z</time>
      </trkpt>
      <trkpt lat="49.14494" lon="4.07845">
        <ele>289.4</ele>
        <time>2022-09-20T14:39:27Z</time>
      </trkpt>
      <trkpt lat="49.14505" lon="4.07888">
        <ele>289</ele>
        <time>2022-09-20T14:39:31Z</time>
      </trkpt>
      <trkpt lat="49.14511" lon="4.07912">
        <ele>288.2</ele>
        <time>2022-09-20T14:39:33Z</time>
      </trkpt>
      <trkpt lat="49.14515" lon="4.07924">
        <ele>287.8</ele>
        <time>2022-09-20T14:39:34Z</time>
      </trkpt>
      <trkpt lat="49.14527" lon="4.07973">
        <ele>286.8</ele>
        <time>2022-09-20T14:39:38Z</time>
      </trkpt>
      <trkpt lat="49.14534" lon="4.08001">
        <ele>286.2</ele>
        <time>2022-09-20T14:39:40Z</time>
      </trkpt>
      <trkpt lat="49.14537" lon="4.08015">
        <ele>285.6</ele>
        <time>2022-09-20T14:39:41Z</time>
      </trkpt>
      <trkpt lat="49.14546" lon="4.08044">
        <ele>284.4</ele>
        <time>2022-09-20T14:39:43Z</time>
      </trkpt>
      <trkpt lat="49.14553" lon="4.08056">
        <ele>284.2</ele>
        <time>2022-09-20T14:39:44Z</time>
      </trkpt>
      <trkpt lat="49.14561" lon="4.08066">
        <ele>283.8</ele>
        <time>2022-09-20T14:39:45Z</time>
      </trkpt>
      <trkpt lat="49.1457" lon="4.08076">
        <ele>282.8</ele>
        <time>2022-09-20T14:39:46Z</time>
      </trkpt>
      <trkpt lat="49.1458" lon="4.08084">
        <ele>282.2</ele>
        <time>2022-09-20T14:39:47Z</time>
      </trkpt>
      <trkpt lat="49.1459" lon="4.08091">
        <ele>280.6</ele>
        <time>2022-09-20T14:39:48Z</time>
      </trkpt>
      <trkpt lat="49.14612" lon="4.08104">
        <ele>279</ele>
        <time>2022-09-20T14:39:50Z</time>
      </trkpt>
      <trkpt lat="49.14622" lon="4.08109">
        <ele>278.2</ele>
        <time>2022-09-20T14:39:51Z</time>
      </trkpt>
      <trkpt lat="49.14631" lon="4.08112">
        <ele>277</ele>
        <time>2022-09-20T14:39:52Z</time>
      </trkpt>
      <trkpt lat="49.14641" lon="4.08115">
        <ele>275.4</ele>
        <time>2022-09-20T14:39:53Z</time>
      </trkpt>
      <trkpt lat="49.14651" lon="4.08114">
        <ele>274.6</ele>
        <time>2022-09-20T14:39:54Z</time>
      </trkpt>
      <trkpt lat="49.14661" lon="4.0811">
        <ele>273.4</ele>
        <time>2022-09-20T14:39:55Z</time>
      </trkpt>
      <trkpt lat="49.14681" lon="4.08099">
        <ele>271.6</ele>
        <time>2022-09-20T14:39:57Z</time>
      </trkpt>
      <trkpt lat="49.14701" lon="4.08081">
        <ele>269.4</ele>
        <time>2022-09-20T14:39:59Z</time>
      </trkpt>
      <trkpt lat="49.14711" lon="4.08073">
        <ele>267.8</ele>
        <time>2022-09-20T14:40:00Z</time>
      </trkpt>
      <trkpt lat="49.14721" lon="4.08065">
        <ele>267</ele>
        <time>2022-09-20T14:40:01Z</time>
      </trkpt>
      <trkpt lat="49.1473" lon="4.08057">
        <ele>265.2</ele>
        <time>2022-09-20T14:40:02Z</time>
      </trkpt>
      <trkpt lat="49.14741" lon="4.0805">
        <ele>264.6</ele>
        <time>2022-09-20T14:40:03Z</time>
      </trkpt>
      <trkpt lat="49.14751" lon="4.08045">
        <ele>263.8</ele>
        <time>2022-09-20T14:40:04Z</time>
      </trkpt>
      <trkpt lat="49.1476" lon="4.08043">
        <ele>262.8</ele>
        <time>2022-09-20T14:40:05Z</time>
      </trkpt>
      <trkpt lat="49.1477" lon="4.08044">
        <ele>262.2</ele>
        <time>2022-09-20T14:40:06Z</time>
      </trkpt>
      <trkpt lat="49.1478" lon="4.08047">
        <ele>260.8</ele>
        <time>2022-09-20T14:40:07Z</time>
      </trkpt>
      <trkpt lat="49.14791" lon="4.08052">
        <ele>260.2</ele>
        <time>2022-09-20T14:40:08Z</time>
      </trkpt>
      <trkpt lat="49.14803" lon="4.08058">
        <ele>258.6</ele>
        <time>2022-09-20T14:40:09Z</time>
      </trkpt>
      <trkpt lat="49.14826" lon="4.08071">
        <ele>256.6</ele>
        <time>2022-09-20T14:40:11Z</time>
      </trkpt>
      <trkpt lat="49.14838" lon="4.08076">
        <ele>255.2</ele>
        <time>2022-09-20T14:40:12Z</time>
      </trkpt>
      <trkpt lat="49.14849" lon="4.08081">
        <ele>253.8</ele>
        <time>2022-09-20T14:40:13Z</time>
      </trkpt>
      <trkpt lat="49.14861" lon="4.08086">
        <ele>252</ele>
        <time>2022-09-20T14:40:14Z</time>
      </trkpt>
      <trkpt lat="49.14882" lon="4.08095">
        <ele>250</ele>
        <time>2022-09-20T14:40:16Z</time>
      </trkpt>
      <trkpt lat="49.149" lon="4.08103">
        <ele>247</ele>
        <time>2022-09-20T14:40:18Z</time>
      </trkpt>
      <trkpt lat="49.14909" lon="4.08108">
        <ele>245.6</ele>
        <time>2022-09-20T14:40:19Z</time>
      </trkpt>
      <trkpt lat="49.14918" lon="4.08112">
        <ele>244.6</ele>
        <time>2022-09-20T14:40:20Z</time>
      </trkpt>
      <trkpt lat="49.14926" lon="4.08115">
        <ele>242.8</ele>
        <time>2022-09-20T14:40:21Z</time>
      </trkpt>
      <trkpt lat="49.14941" lon="4.0812">
        <ele>239.6</ele>
        <time>2022-09-20T14:40:23Z</time>
      </trkpt>
      <trkpt lat="49.14949" lon="4.0812">
        <ele>237.6</ele>
        <time>2022-09-20T14:40:24Z</time>
      </trkpt>
      <trkpt lat="49.14958" lon="4.08117">
        <ele>236.8</ele>
        <time>2022-09-20T14:40:25Z</time>
      </trkpt>
      <trkpt lat="49.14966" lon="4.08112">
        <ele>235.6</ele>
        <time>2022-09-20T14:40:26Z</time>
      </trkpt>
      <trkpt lat="49.14974" lon="4.08106">
        <ele>235.2</ele>
        <time>2022-09-20T14:40:27Z</time>
      </trkpt>
      <trkpt lat="49.14981" lon="4.08098">
        <ele>233.6</ele>
        <time>2022-09-20T14:40:28Z</time>
      </trkpt>
      <trkpt lat="49.14987" lon="4.08089">
        <ele>232.6</ele>
        <time>2022-09-20T14:40:29Z</time>
      </trkpt>
      <trkpt lat="49.14993" lon="4.08081">
        <ele>231.2</ele>
        <time>2022-09-20T14:40:30Z</time>
      </trkpt>
      <trkpt lat="49.14998" lon="4.08073">
        <ele>230</ele>
        <time>2022-09-20T14:40:31Z</time>
      </trkpt>
      <trkpt lat="49.15009" lon="4.08059">
        <ele>228.2</ele>
        <time>2022-09-20T14:40:33Z</time>
      </trkpt>
      <trkpt lat="49.15013" lon="4.08053">
        <ele>227.6</ele>
        <time>2022-09-20T14:40:34Z</time>
      </trkpt>
      <trkpt lat="49.15018" lon="4.08048">
        <ele>226.6</ele>
        <time>2022-09-20T14:40:35Z</time>
      </trkpt>
      <trkpt lat="49.15027" lon="4.08042">
        <ele>224.6</ele>
        <time>2022-09-20T14:40:37Z</time>
      </trkpt>
      <trkpt lat="49.15033" lon="4.0804">
        <ele>223.4</ele>
        <time>2022-09-20T14:40:38Z</time>
      </trkpt>
      <trkpt lat="49.15045" lon="4.08047">
        <ele>221.2</ele>
        <time>2022-09-20T14:40:40Z</time>
      </trkpt>
      <trkpt lat="49.15051" lon="4.08055">
        <ele>220.2</ele>
        <time>2022-09-20T14:40:41Z</time>
      </trkpt>
      <trkpt lat="49.15058" lon="4.08065">
        <ele>219.2</ele>
        <time>2022-09-20T14:40:42Z</time>
      </trkpt>
      <trkpt lat="49.15065" lon="4.08075">
        <ele>217.8</ele>
        <time>2022-09-20T14:40:43Z</time>
      </trkpt>
      <trkpt lat="49.15072" lon="4.08086">
        <ele>216.8</ele>
        <time>2022-09-20T14:40:44Z</time>
      </trkpt>
      <trkpt lat="49.15079" lon="4.08097">
        <ele>215.6</ele>
        <time>2022-09-20T14:40:45Z</time>
      </trkpt>
      <trkpt lat="49.15096" lon="4.08121">
        <ele>213.4</ele>
        <time>2022-09-20T14:40:47Z</time>
      </trkpt>
      <trkpt lat="49.15103" lon="4.0813">
        <ele>212</ele>
        <time>2022-09-20T14:40:48Z</time>
      </trkpt>
      <trkpt lat="49.1511" lon="4.0814">
        <ele>210.4</ele>
        <time>2022-09-20T14:40:49Z</time>
      </trkpt>
      <trkpt lat="49.15119" lon="4.08151">
        <ele>208.4</ele>
        <time>2022-09-20T14:40:50Z</time>
      </trkpt>
      <trkpt lat="49.15126" lon="4.08157">
        <ele>207.4</ele>
        <time>2022-09-20T14:40:51Z</time>
      </trkpt>
      <trkpt lat="49.15133" lon="4.08164">
        <ele>205.2</ele>
        <time>2022-09-20T14:40:52Z</time>
      </trkpt>
      <trkpt lat="49.15142" lon="4.08169">
        <ele>204.4</ele>
        <time>2022-09-20T14:40:53Z</time>
      </trkpt>
      <trkpt lat="49.15151" lon="4.08171">
        <ele>202.8</ele>
        <time>2022-09-20T14:40:54Z</time>
      </trkpt>
      <trkpt lat="49.1516" lon="4.08171">
        <ele>201.8</ele>
        <time>2022-09-20T14:40:55Z</time>
      </trkpt>
      <trkpt lat="49.15169" lon="4.0817">
        <ele>200</ele>
        <time>2022-09-20T14:40:56Z</time>
      </trkpt>
      <trkpt lat="49.15177" lon="4.08169">
        <ele>198.8</ele>
        <time>2022-09-20T14:40:57Z</time>
      </trkpt>
      <trkpt lat="49.15193" lon="4.08162">
        <ele>196.6</ele>
        <time>2022-09-20T14:40:59Z</time>
      </trkpt>
      <trkpt lat="49.152" lon="4.08156">
        <ele>195.8</ele>
        <time>2022-09-20T14:41:00Z</time>
      </trkpt>
      <trkpt lat="49.15207" lon="4.0815">
        <ele>194.6</ele>
        <time>2022-09-20T14:41:01Z</time>
      </trkpt>
      <trkpt lat="49.15214" lon="4.08145">
        <ele>193.2</ele>
        <time>2022-09-20T14:41:02Z</time>
      </trkpt>
      <trkpt lat="49.15224" lon="4.08138">
        <ele>191.4</ele>
        <time>2022-09-20T14:41:04Z</time>
      </trkpt>
      <trkpt lat="49.15232" lon="4.08132">
        <ele>189.8</ele>
        <time>2022-09-20T14:41:06Z</time>
      </trkpt>
      <trkpt lat="49.15237" lon="4.08126">
        <ele>189</ele>
        <time>2022-09-20T14:41:08Z</time>
      </trkpt>
      <trkpt lat="49.15239" lon="4.08123">
        <ele>187.6</ele>
        <time>2022-09-20T14:41:09Z</time>
      </trkpt>
      <trkpt lat="49.15243" lon="4.08113">
        <ele>186</ele>
        <time>2022-09-20T14:41:11Z</time>
      </trkpt>
      <trkpt lat="49.15246" lon="4.08099">
        <ele>185</ele>
        <time>2022-09-20T14:41:13Z</time>
      </trkpt>
      <trkpt lat="49.15249" lon="4.0809">
        <ele>184.6</ele>
        <time>2022-09-20T14:41:14Z</time>
      </trkpt>
      <trkpt lat="49.15257" lon="4.08074">
        <ele>184</ele>
        <time>2022-09-20T14:41:16Z</time>
      </trkpt>
      <trkpt lat="49.15261" lon="4.08066">
        <ele>183.6</ele>
        <time>2022-09-20T14:41:17Z</time>
      </trkpt>
      <trkpt lat="49.15273" lon="4.08046">
        <ele>181.8</ele>
        <time>2022-09-20T14:41:20Z</time>
      </trkpt>
      <trkpt lat="49.15278" lon="4.08041">
        <ele>181</ele>
        <time>2022-09-20T14:41:21Z</time>
      </trkpt>
      <trkpt lat="49.15283" lon="4.08037">
        <ele>180.6</ele>
        <time>2022-09-20T14:41:22Z</time>
      </trkpt>
      <trkpt lat="49.15296" lon="4.08033">
        <ele>179.6</ele>
        <time>2022-09-20T14:41:24Z</time>
      </trkpt>
      <trkpt lat="49.15319" lon="4.0803">
        <ele>177.8</ele>
        <time>2022-09-20T14:41:27Z</time>
      </trkpt>
      <trkpt lat="49.15335" lon="4.08027">
        <ele>176.6</ele>
        <time>2022-09-20T14:41:29Z</time>
      </trkpt>
      <trkpt lat="49.1535" lon="4.08022">
        <ele>175.4</ele>
        <time>2022-09-20T14:41:31Z</time>
      </trkpt>
      <trkpt lat="49.15365" lon="4.08015">
        <ele>174.2</ele>
        <time>2022-09-20T14:41:33Z</time>
      </trkpt>
      <trkpt lat="49.15372" lon="4.08011">
        <ele>173.6</ele>
        <time>2022-09-20T14:41:34Z</time>
      </trkpt>
      <trkpt lat="49.1538" lon="4.08007">
        <ele>172.4</ele>
        <time>2022-09-20T14:41:35Z</time>
      </trkpt>
      <trkpt lat="49.15396" lon="4.07996">
        <ele>170.8</ele>
        <time>2022-09-20T14:41:37Z</time>
      </trkpt>
      <trkpt lat="49.15403" lon="4.07992">
        <ele>170.4</ele>
        <time>2022-09-20T14:41:38Z</time>
      </trkpt>
      <trkpt lat="49.15409" lon="4.07989">
        <ele>169.4</ele>
        <time>2022-09-20T14:41:39Z</time>
      </trkpt>
      <trkpt lat="49.15417" lon="4.07987">
        <ele>168.2</ele>
        <time>2022-09-20T14:41:40Z</time>
      </trkpt>
      <trkpt lat="49.15434" lon="4.07988">
        <ele>166.6</ele>
        <time>2022-09-20T14:41:42Z</time>
      </trkpt>
      <trkpt lat="49.1545" lon="4.07993">
        <ele>165.2</ele>
        <time>2022-09-20T14:41:44Z</time>
      </trkpt>
      <trkpt lat="49.15465" lon="4.07999">
        <ele>164.4</ele>
        <time>2022-09-20T14:41:46Z</time>
      </trkpt>
      <trkpt lat="49.15473" lon="4.08003">
        <ele>163.4</ele>
        <time>2022-09-20T14:41:47Z</time>
      </trkpt>
      <trkpt lat="49.15477" lon="4.08005">
        <ele>163</ele>
        <time>2022-09-20T14:41:48Z</time>
      </trkpt>
      <trkpt lat="49.15481" lon="4.08007">
        <ele>162.2</ele>
        <time>2022-09-20T14:41:49Z</time>
      </trkpt>
      <trkpt lat="49.15489" lon="4.08009">
        <ele>160.8</ele>
        <time>2022-09-20T14:41:51Z</time>
      </trkpt>
      <trkpt lat="49.15501" lon="4.08007">
        <ele>159.6</ele>
        <time>2022-09-20T14:41:54Z</time>
      </trkpt>
      <trkpt lat="49.15507" lon="4.08005">
        <ele>159.4</ele>
        <time>2022-09-20T14:41:55Z</time>
      </trkpt>
      <trkpt lat="49.15516" lon="4.07999">
        <ele>158.8</ele>
        <time>2022-09-20T14:41:57Z</time>
      </trkpt>
      <trkpt lat="49.1552" lon="4.07993">
        <ele>158.4</ele>
        <time>2022-09-20T14:41:58Z</time>
      </trkpt>
      <trkpt lat="49.15521" lon="4.07985">
        <ele>158</ele>
        <time>2022-09-20T14:41:59Z</time>
      </trkpt>
      <trkpt lat="49.15522" lon="4.07977">
        <ele>158</ele>
        <time>2022-09-20T14:42:00Z</time>
      </trkpt>
      <trkpt lat="49.15528" lon="4.07923">
        <ele>157.6</ele>
        <time>2022-09-20T14:42:06Z</time>
      </trkpt>
      <trkpt lat="49.15537" lon="4.0786">
        <ele>157.8</ele>
        <time>2022-09-20T14:42:13Z</time>
      </trkpt>
      <trkpt lat="49.1555" lon="4.07798">
        <ele>158.2</ele>
        <time>2022-09-20T14:42:20Z</time>
      </trkpt>
      <trkpt lat="49.15566" lon="4.0772">
        <ele>158.8</ele>
        <time>2022-09-20T14:42:29Z</time>
      </trkpt>
      <trkpt lat="49.15578" lon="4.07657">
        <ele>159.4</ele>
        <time>2022-09-20T14:42:36Z</time>
      </trkpt>
      <trkpt lat="49.15583" lon="4.0763">
        <ele>159.8</ele>
        <time>2022-09-20T14:42:39Z</time>
      </trkpt>
      <trkpt lat="49.15601" lon="4.07543">
        <ele>160.6</ele>
        <time>2022-09-20T14:42:49Z</time>
      </trkpt>
      <trkpt lat="49.15603" lon="4.07535">
        <ele>160.6</ele>
        <time>2022-09-20T14:42:50Z</time>
      </trkpt>
      <trkpt lat="49.1561" lon="4.07497">
        <ele>160.6</ele>
        <time>2022-09-20T14:42:54Z</time>
      </trkpt>
      <trkpt lat="49.15613" lon="4.07466">
        <ele>160.6</ele>
        <time>2022-09-20T14:42:57Z</time>
      </trkpt>
      <trkpt lat="49.15625" lon="4.07383">
        <ele>159.8</ele>
        <time>2022-09-20T14:43:05Z</time>
      </trkpt>
      <trkpt lat="49.15638" lon="4.07299">
        <ele>159</ele>
        <time>2022-09-20T14:43:13Z</time>
      </trkpt>
      <trkpt lat="49.1564" lon="4.07289">
        <ele>158.8</ele>
        <time>2022-09-20T14:43:14Z</time>
      </trkpt>
      <trkpt lat="49.15649" lon="4.07235">
        <ele>159</ele>
        <time>2022-09-20T14:43:20Z</time>
      </trkpt>
      <trkpt lat="49.15658" lon="4.07181">
        <ele>160.8</ele>
        <time>2022-09-20T14:43:27Z</time>
      </trkpt>
      <trkpt lat="49.15662" lon="4.07155">
        <ele>162</ele>
        <time>2022-09-20T14:43:31Z</time>
      </trkpt>
      <trkpt lat="49.15663" lon="4.07148">
        <ele>162</ele>
        <time>2022-09-20T14:43:32Z</time>
      </trkpt>
      <trkpt lat="49.15665" lon="4.07135">
        <ele>162.6</ele>
        <time>2022-09-20T14:43:34Z</time>
      </trkpt>
      <trkpt lat="49.15667" lon="4.07122">
        <ele>163.2</ele>
        <time>2022-09-20T14:43:36Z</time>
      </trkpt>
      <trkpt lat="49.15672" lon="4.07083">
        <ele>164.4</ele>
        <time>2022-09-20T14:43:42Z</time>
      </trkpt>
      <trkpt lat="49.15674" lon="4.0707">
        <ele>164.8</ele>
        <time>2022-09-20T14:43:44Z</time>
      </trkpt>
      <trkpt lat="49.15679" lon="4.07044">
        <ele>165.4</ele>
        <time>2022-09-20T14:43:48Z</time>
      </trkpt>
      <trkpt lat="49.1568" lon="4.07038">
        <ele>165.4</ele>
        <time>2022-09-20T14:43:49Z</time>
      </trkpt>
      <trkpt lat="49.15682" lon="4.07019">
        <ele>166.2</ele>
        <time>2022-09-20T14:43:52Z</time>
      </trkpt>
      <trkpt lat="49.15684" lon="4.07007">
        <ele>166.6</ele>
        <time>2022-09-20T14:43:54Z</time>
      </trkpt>
      <trkpt lat="49.15687" lon="4.06989">
        <ele>167.2</ele>
        <time>2022-09-20T14:43:57Z</time>
      </trkpt>
      <trkpt lat="49.15689" lon="4.06977">
        <ele>167.4</ele>
        <time>2022-09-20T14:43:59Z</time>
      </trkpt>
      <trkpt lat="49.15691" lon="4.06965">
        <ele>167.8</ele>
        <time>2022-09-20T14:44:01Z</time>
      </trkpt>
      <trkpt lat="49.15695" lon="4.06935">
        <ele>169.2</ele>
        <time>2022-09-20T14:44:06Z</time>
      </trkpt>
      <trkpt lat="49.15698" lon="4.06919">
        <ele>170.2</ele>
        <time>2022-09-20T14:44:09Z</time>
      </trkpt>
      <trkpt lat="49.157" lon="4.06908">
        <ele>170.6</ele>
        <time>2022-09-20T14:44:11Z</time>
      </trkpt>
      <trkpt lat="49.15702" lon="4.06891">
        <ele>171.4</ele>
        <time>2022-09-20T14:44:14Z</time>
      </trkpt>
      <trkpt lat="49.15706" lon="4.06863">
        <ele>172.6</ele>
        <time>2022-09-20T14:44:19Z</time>
      </trkpt>
      <trkpt lat="49.15708" lon="4.06853">
        <ele>172.8</ele>
        <time>2022-09-20T14:44:21Z</time>
      </trkpt>
      <trkpt lat="49.15711" lon="4.06832">
        <ele>173.6</ele>
        <time>2022-09-20T14:44:25Z</time>
      </trkpt>
      <trkpt lat="49.15713" lon="4.0682">
        <ele>174</ele>
        <time>2022-09-20T14:44:27Z</time>
      </trkpt>
      <trkpt lat="49.15715" lon="4.06804">
        <ele>174.8</ele>
        <time>2022-09-20T14:44:30Z</time>
      </trkpt>
      <trkpt lat="49.15716" lon="4.06799">
        <ele>174.8</ele>
        <time>2022-09-20T14:44:31Z</time>
      </trkpt>
      <trkpt lat="49.1572" lon="4.06774">
        <ele>175.8</ele>
        <time>2022-09-20T14:44:36Z</time>
      </trkpt>
      <trkpt lat="49.15724" lon="4.06746">
        <ele>176.8</ele>
        <time>2022-09-20T14:44:41Z</time>
      </trkpt>
      <trkpt lat="49.15725" lon="4.06739">
        <ele>177.2</ele>
        <time>2022-09-20T14:44:42Z</time>
      </trkpt>
      <trkpt lat="49.15732" lon="4.06686">
        <ele>178.2</ele>
        <time>2022-09-20T14:44:50Z</time>
      </trkpt>
      <trkpt lat="49.15734" lon="4.06679">
        <ele>178.2</ele>
        <time>2022-09-20T14:44:51Z</time>
      </trkpt>
      <trkpt lat="49.15741" lon="4.06639">
        <ele>178.4</ele>
        <time>2022-09-20T14:44:56Z</time>
      </trkpt>
      <trkpt lat="49.15749" lon="4.06576">
        <ele>177.8</ele>
        <time>2022-09-20T14:45:02Z</time>
      </trkpt>
      <trkpt lat="49.15751" lon="4.06538">
        <ele>177</ele>
        <time>2022-09-20T14:45:05Z</time>
      </trkpt>
      <trkpt lat="49.1575" lon="4.06525">
        <ele>176.6</ele>
        <time>2022-09-20T14:45:06Z</time>
      </trkpt>
      <trkpt lat="49.1575" lon="4.065">
        <ele>176.2</ele>
        <time>2022-09-20T14:45:08Z</time>
      </trkpt>
      <trkpt lat="49.1575" lon="4.06487">
        <ele>176</ele>
        <time>2022-09-20T14:45:09Z</time>
      </trkpt>
      <trkpt lat="49.1575" lon="4.06458">
        <ele>174.4</ele>
        <time>2022-09-20T14:45:12Z</time>
      </trkpt>
      <trkpt lat="49.15751" lon="4.0645">
        <ele>173.8</ele>
        <time>2022-09-20T14:45:13Z</time>
      </trkpt>
      <trkpt lat="49.15752" lon="4.0644">
        <ele>173.4</ele>
        <time>2022-09-20T14:45:14Z</time>
      </trkpt>
      <trkpt lat="49.15755" lon="4.06425">
        <ele>172</ele>
        <time>2022-09-20T14:45:16Z</time>
      </trkpt>
      <trkpt lat="49.15753" lon="4.0641">
        <ele>170.6</ele>
        <time>2022-09-20T14:45:18Z</time>
      </trkpt>
      <trkpt lat="49.15749" lon="4.06405">
        <ele>170</ele>
        <time>2022-09-20T14:45:19Z</time>
      </trkpt>
      <trkpt lat="49.15744" lon="4.06403">
        <ele>169.4</ele>
        <time>2022-09-20T14:45:20Z</time>
      </trkpt>
      <trkpt lat="49.15739" lon="4.064">
        <ele>169.2</ele>
        <time>2022-09-20T14:45:21Z</time>
      </trkpt>
      <trkpt lat="49.15723" lon="4.06385">
        <ele>168</ele>
        <time>2022-09-20T14:45:24Z</time>
      </trkpt>
      <trkpt lat="49.15696" lon="4.06358">
        <ele>166.8</ele>
        <time>2022-09-20T14:45:29Z</time>
      </trkpt>
      <trkpt lat="49.15691" lon="4.06353">
        <ele>166.8</ele>
        <time>2022-09-20T14:45:30Z</time>
      </trkpt>
      <trkpt lat="49.15686" lon="4.06348">
        <ele>166.6</ele>
        <time>2022-09-20T14:45:31Z</time>
      </trkpt>
      <trkpt lat="49.15667" lon="4.0633">
        <ele>166.2</ele>
        <time>2022-09-20T14:45:35Z</time>
      </trkpt>
      <trkpt lat="49.15664" lon="4.06317">
        <ele>166.2</ele>
        <time>2022-09-20T14:45:37Z</time>
      </trkpt>
      <trkpt lat="49.15665" lon="4.06309">
        <ele>166.6</ele>
        <time>2022-09-20T14:45:38Z</time>
      </trkpt>
      <trkpt lat="49.1567" lon="4.06296">
        <ele>166.8</ele>
        <time>2022-09-20T14:45:40Z</time>
      </trkpt>
      <trkpt lat="49.15678" lon="4.06285">
        <ele>167.4</ele>
        <time>2022-09-20T14:45:42Z</time>
      </trkpt>
      <trkpt lat="49.15694" lon="4.06273">
        <ele>167.6</ele>
        <time>2022-09-20T14:45:45Z</time>
      </trkpt>
      <trkpt lat="49.15705" lon="4.06263">
        <ele>167.8</ele>
        <time>2022-09-20T14:45:47Z</time>
      </trkpt>
      <trkpt lat="49.15735" lon="4.06222">
        <ele>167.6</ele>
        <time>2022-09-20T14:45:53Z</time>
      </trkpt>
      <trkpt lat="49.15767" lon="4.06175">
        <ele>166.8</ele>
        <time>2022-09-20T14:45:59Z</time>
      </trkpt>
      <trkpt lat="49.15788" lon="4.06138">
        <ele>165.8</ele>
        <time>2022-09-20T14:46:03Z</time>
      </trkpt>
      <trkpt lat="49.15792" lon="4.06128">
        <ele>165.4</ele>
        <time>2022-09-20T14:46:04Z</time>
      </trkpt>
      <trkpt lat="49.15801" lon="4.06109">
        <ele>164.8</ele>
        <time>2022-09-20T14:46:06Z</time>
      </trkpt>
      <trkpt lat="49.15805" lon="4.061">
        <ele>164.4</ele>
        <time>2022-09-20T14:46:07Z</time>
      </trkpt>
      <trkpt lat="49.1582" lon="4.06075">
        <ele>163.8</ele>
        <time>2022-09-20T14:46:10Z</time>
      </trkpt>
      <trkpt lat="49.15825" lon="4.06066">
        <ele>163.6</ele>
        <time>2022-09-20T14:46:11Z</time>
      </trkpt>
      <trkpt lat="49.15838" lon="4.06039">
        <ele>162.6</ele>
        <time>2022-09-20T14:46:14Z</time>
      </trkpt>
      <trkpt lat="49.15842" lon="4.0603">
        <ele>162.6</ele>
        <time>2022-09-20T14:46:15Z</time>
      </trkpt>
      <trkpt lat="49.15846" lon="4.06021">
        <ele>162.2</ele>
        <time>2022-09-20T14:46:16Z</time>
      </trkpt>
      <trkpt lat="49.15878" lon="4.05957">
        <ele>162</ele>
        <time>2022-09-20T14:46:24Z</time>
      </trkpt>
      <trkpt lat="49.15905" lon="4.05895">
        <ele>162.6</ele>
        <time>2022-09-20T14:46:32Z</time>
      </trkpt>
      <trkpt lat="49.15922" lon="4.0585">
        <ele>163.6</ele>
        <time>2022-09-20T14:46:38Z</time>
      </trkpt>
      <trkpt lat="49.15927" lon="4.05835">
        <ele>164.4</ele>
        <time>2022-09-20T14:46:40Z</time>
      </trkpt>
      <trkpt lat="49.15929" lon="4.05827">
        <ele>164.6</ele>
        <time>2022-09-20T14:46:41Z</time>
      </trkpt>
      <trkpt lat="49.15941" lon="4.0579">
        <ele>165.6</ele>
        <time>2022-09-20T14:46:46Z</time>
      </trkpt>
      <trkpt lat="49.15952" lon="4.05754">
        <ele>166.4</ele>
        <time>2022-09-20T14:46:51Z</time>
      </trkpt>
      <trkpt lat="49.15957" lon="4.05739">
        <ele>166.6</ele>
        <time>2022-09-20T14:46:53Z</time>
      </trkpt>
      <trkpt lat="49.15981" lon="4.0568">
        <ele>167.4</ele>
        <time>2022-09-20T14:47:01Z</time>
      </trkpt>
      <trkpt lat="49.16014" lon="4.05617">
        <ele>167.4</ele>
        <time>2022-09-20T14:47:09Z</time>
      </trkpt>
      <trkpt lat="49.16046" lon="4.05556">
        <ele>166.8</ele>
        <time>2022-09-20T14:47:16Z</time>
      </trkpt>
      <trkpt lat="49.16083" lon="4.05487">
        <ele>166.4</ele>
        <time>2022-09-20T14:47:25Z</time>
      </trkpt>
      <trkpt lat="49.16092" lon="4.05472">
        <ele>166.4</ele>
        <time>2022-09-20T14:47:27Z</time>
      </trkpt>
      <trkpt lat="49.16129" lon="4.05402">
        <ele>168</ele>
        <time>2022-09-20T14:47:37Z</time>
      </trkpt>
      <trkpt lat="49.16146" lon="4.05369">
        <ele>169.4</ele>
        <time>2022-09-20T14:47:42Z</time>
      </trkpt>
      <trkpt lat="49.16159" lon="4.05345">
        <ele>170</ele>
        <time>2022-09-20T14:47:46Z</time>
      </trkpt>
      <trkpt lat="49.16162" lon="4.05339">
        <ele>170.6</ele>
        <time>2022-09-20T14:47:47Z</time>
      </trkpt>
      <trkpt lat="49.16177" lon="4.0531">
        <ele>171.8</ele>
        <time>2022-09-20T14:47:52Z</time>
      </trkpt>
      <trkpt lat="49.16186" lon="4.05293">
        <ele>172.6</ele>
        <time>2022-09-20T14:47:55Z</time>
      </trkpt>
      <trkpt lat="49.16195" lon="4.05276">
        <ele>172.8</ele>
        <time>2022-09-20T14:47:58Z</time>
      </trkpt>
      <trkpt lat="49.16207" lon="4.05254">
        <ele>174</ele>
        <time>2022-09-20T14:48:02Z</time>
      </trkpt>
      <trkpt lat="49.16215" lon="4.05237">
        <ele>174.8</ele>
        <time>2022-09-20T14:48:05Z</time>
      </trkpt>
      <trkpt lat="49.16224" lon="4.05221">
        <ele>175.2</ele>
        <time>2022-09-20T14:48:08Z</time>
      </trkpt>
      <trkpt lat="49.16243" lon="4.05184">
        <ele>176.6</ele>
        <time>2022-09-20T14:48:15Z</time>
      </trkpt>
      <trkpt lat="49.16257" lon="4.05158">
        <ele>177.8</ele>
        <time>2022-09-20T14:48:20Z</time>
      </trkpt>
      <trkpt lat="49.16267" lon="4.05137">
        <ele>179.2</ele>
        <time>2022-09-20T14:48:24Z</time>
      </trkpt>
      <trkpt lat="49.1628" lon="4.05111">
        <ele>180.4</ele>
        <time>2022-09-20T14:48:29Z</time>
      </trkpt>
      <trkpt lat="49.16287" lon="4.05097">
        <ele>181.2</ele>
        <time>2022-09-20T14:48:32Z</time>
      </trkpt>
      <trkpt lat="49.1629" lon="4.05092">
        <ele>181.4</ele>
        <time>2022-09-20T14:48:33Z</time>
      </trkpt>
      <trkpt lat="49.16298" lon="4.05076">
        <ele>182.4</ele>
        <time>2022-09-20T14:48:36Z</time>
      </trkpt>
      <trkpt lat="49.16314" lon="4.05049">
        <ele>183.6</ele>
        <time>2022-09-20T14:48:41Z</time>
      </trkpt>
      <trkpt lat="49.16327" lon="4.05019">
        <ele>184.6</ele>
        <time>2022-09-20T14:48:46Z</time>
      </trkpt>
      <trkpt lat="49.1634" lon="4.04987">
        <ele>185.2</ele>
        <time>2022-09-20T14:48:51Z</time>
      </trkpt>
      <trkpt lat="49.16343" lon="4.04974">
        <ele>185.2</ele>
        <time>2022-09-20T14:48:53Z</time>
      </trkpt>
      <trkpt lat="49.16351" lon="4.04921">
        <ele>185</ele>
        <time>2022-09-20T14:48:59Z</time>
      </trkpt>
      <trkpt lat="49.16356" lon="4.04868">
        <ele>184.4</ele>
        <time>2022-09-20T14:49:04Z</time>
      </trkpt>
      <trkpt lat="49.1636" lon="4.04832">
        <ele>183.2</ele>
        <time>2022-09-20T14:49:07Z</time>
      </trkpt>
      <trkpt lat="49.16361" lon="4.04793">
        <ele>182</ele>
        <time>2022-09-20T14:49:10Z</time>
      </trkpt>
      <trkpt lat="49.16361" lon="4.04784">
        <ele>181.8</ele>
        <time>2022-09-20T14:49:11Z</time>
      </trkpt>
      <trkpt lat="49.16361" lon="4.0475">
        <ele>181</ele>
        <time>2022-09-20T14:49:14Z</time>
      </trkpt>
      <trkpt lat="49.16357" lon="4.04718">
        <ele>180.8</ele>
        <time>2022-09-20T14:49:17Z</time>
      </trkpt>
      <trkpt lat="49.16354" lon="4.04681">
        <ele>180.8</ele>
        <time>2022-09-20T14:49:21Z</time>
      </trkpt>
      <trkpt lat="49.16354" lon="4.04634">
        <ele>181.4</ele>
        <time>2022-09-20T14:49:26Z</time>
      </trkpt>
      <trkpt lat="49.16357" lon="4.04601">
        <ele>181.8</ele>
        <time>2022-09-20T14:49:30Z</time>
      </trkpt>
      <trkpt lat="49.16359" lon="4.04597">
        <ele>182.2</ele>
        <time>2022-09-20T14:49:31Z</time>
      </trkpt>
      <trkpt lat="49.16363" lon="4.04595">
        <ele>182.2</ele>
        <time>2022-09-20T14:49:32Z</time>
      </trkpt>
      <trkpt lat="49.16375" lon="4.04595">
        <ele>182.4</ele>
        <time>2022-09-20T14:49:34Z</time>
      </trkpt>
      <trkpt lat="49.16385" lon="4.04595">
        <ele>182.4</ele>
        <time>2022-09-20T14:49:36Z</time>
      </trkpt>
      <trkpt lat="49.16391" lon="4.04595">
        <ele>182.4</ele>
        <time>2022-09-20T14:49:37Z</time>
      </trkpt>
      <trkpt lat="49.16399" lon="4.04595">
        <ele>182.2</ele>
        <time>2022-09-20T14:49:38Z</time>
      </trkpt>
      <trkpt lat="49.16418" lon="4.04595">
        <ele>181.6</ele>
        <time>2022-09-20T14:49:41Z</time>
      </trkpt>
      <trkpt lat="49.16439" lon="4.046">
        <ele>181</ele>
        <time>2022-09-20T14:49:44Z</time>
      </trkpt>
      <trkpt lat="49.16452" lon="4.04607">
        <ele>180.8</ele>
        <time>2022-09-20T14:49:46Z</time>
      </trkpt>
      <trkpt lat="49.16457" lon="4.0461">
        <ele>180</ele>
        <time>2022-09-20T14:49:47Z</time>
      </trkpt>
      <trkpt lat="49.16473" lon="4.04618">
        <ele>178.6</ele>
        <time>2022-09-20T14:49:50Z</time>
      </trkpt>
      <trkpt lat="49.16477" lon="4.0462">
        <ele>178.2</ele>
        <time>2022-09-20T14:49:51Z</time>
      </trkpt>
      <trkpt lat="49.16487" lon="4.04624">
        <ele>177.2</ele>
        <time>2022-09-20T14:49:53Z</time>
      </trkpt>
      <trkpt lat="49.16496" lon="4.04627">
        <ele>176.4</ele>
        <time>2022-09-20T14:49:55Z</time>
      </trkpt>
      <trkpt lat="49.16501" lon="4.0463">
        <ele>176.2</ele>
        <time>2022-09-20T14:49:56Z</time>
      </trkpt>
      <trkpt lat="49.16507" lon="4.04633">
        <ele>175.8</ele>
        <time>2022-09-20T14:49:57Z</time>
      </trkpt>
      <trkpt lat="49.16519" lon="4.04642">
        <ele>174.8</ele>
        <time>2022-09-20T14:49:59Z</time>
      </trkpt>
      <trkpt lat="49.16537" lon="4.04653">
        <ele>173.8</ele>
        <time>2022-09-20T14:50:02Z</time>
      </trkpt>
      <trkpt lat="49.16566" lon="4.04671">
        <ele>172.8</ele>
        <time>2022-09-20T14:50:06Z</time>
      </trkpt>
      <trkpt lat="49.16595" lon="4.0469">
        <ele>171.6</ele>
        <time>2022-09-20T14:50:10Z</time>
      </trkpt>
      <trkpt lat="49.1661" lon="4.04698">
        <ele>171.2</ele>
        <time>2022-09-20T14:50:12Z</time>
      </trkpt>
      <trkpt lat="49.16618" lon="4.04703">
        <ele>170.6</ele>
        <time>2022-09-20T14:50:13Z</time>
      </trkpt>
      <trkpt lat="49.16639" lon="4.04717">
        <ele>169.4</ele>
        <time>2022-09-20T14:50:16Z</time>
      </trkpt>
      <trkpt lat="49.16672" lon="4.04737">
        <ele>168.2</ele>
        <time>2022-09-20T14:50:21Z</time>
      </trkpt>
      <trkpt lat="49.167" lon="4.04754">
        <ele>167.6</ele>
        <time>2022-09-20T14:50:26Z</time>
      </trkpt>
      <trkpt lat="49.16704" lon="4.04756">
        <ele>167.2</ele>
        <time>2022-09-20T14:50:27Z</time>
      </trkpt>
      <trkpt lat="49.16723" lon="4.04768">
        <ele>166.4</ele>
        <time>2022-09-20T14:50:31Z</time>
      </trkpt>
      <trkpt lat="49.16728" lon="4.04772">
        <ele>166.2</ele>
        <time>2022-09-20T14:50:32Z</time>
      </trkpt>
      <trkpt lat="49.16746" lon="4.04784">
        <ele>165</ele>
        <time>2022-09-20T14:50:35Z</time>
      </trkpt>
      <trkpt lat="49.16751" lon="4.04787">
        <ele>164.8</ele>
        <time>2022-09-20T14:50:36Z</time>
      </trkpt>
      <trkpt lat="49.16779" lon="4.04806">
        <ele>163.8</ele>
        <time>2022-09-20T14:50:40Z</time>
      </trkpt>
      <trkpt lat="49.16787" lon="4.04811">
        <ele>163.6</ele>
        <time>2022-09-20T14:50:41Z</time>
      </trkpt>
      <trkpt lat="49.16813" lon="4.0483">
        <ele>162.2</ele>
        <time>2022-09-20T14:50:44Z</time>
      </trkpt>
      <trkpt lat="49.16838" lon="4.04847">
        <ele>161</ele>
        <time>2022-09-20T14:50:47Z</time>
      </trkpt>
      <trkpt lat="49.16855" lon="4.04859">
        <ele>159.8</ele>
        <time>2022-09-20T14:50:49Z</time>
      </trkpt>
      <trkpt lat="49.16873" lon="4.04872">
        <ele>158.8</ele>
        <time>2022-09-20T14:50:51Z</time>
      </trkpt>
      <trkpt lat="49.169" lon="4.04891">
        <ele>157.6</ele>
        <time>2022-09-20T14:50:54Z</time>
      </trkpt>
      <trkpt lat="49.16918" lon="4.04903">
        <ele>156.2</ele>
        <time>2022-09-20T14:50:56Z</time>
      </trkpt>
      <trkpt lat="49.16936" lon="4.04916">
        <ele>155.2</ele>
        <time>2022-09-20T14:50:58Z</time>
      </trkpt>
      <trkpt lat="49.16963" lon="4.04933">
        <ele>153.6</ele>
        <time>2022-09-20T14:51:01Z</time>
      </trkpt>
      <trkpt lat="49.16981" lon="4.04943">
        <ele>152.4</ele>
        <time>2022-09-20T14:51:03Z</time>
      </trkpt>
      <trkpt lat="49.16999" lon="4.04951">
        <ele>152</ele>
        <time>2022-09-20T14:51:05Z</time>
      </trkpt>
      <trkpt lat="49.17008" lon="4.04955">
        <ele>151.2</ele>
        <time>2022-09-20T14:51:06Z</time>
      </trkpt>
      <trkpt lat="49.17035" lon="4.04966">
        <ele>150</ele>
        <time>2022-09-20T14:51:09Z</time>
      </trkpt>
      <trkpt lat="49.1706" lon="4.04976">
        <ele>149</ele>
        <time>2022-09-20T14:51:12Z</time>
      </trkpt>
      <trkpt lat="49.17078" lon="4.04984">
        <ele>148.2</ele>
        <time>2022-09-20T14:51:14Z</time>
      </trkpt>
      <trkpt lat="49.17087" lon="4.04987">
        <ele>148</ele>
        <time>2022-09-20T14:51:15Z</time>
      </trkpt>
      <trkpt lat="49.17113" lon="4.05001">
        <ele>146.8</ele>
        <time>2022-09-20T14:51:18Z</time>
      </trkpt>
      <trkpt lat="49.17147" lon="4.05019">
        <ele>145.8</ele>
        <time>2022-09-20T14:51:22Z</time>
      </trkpt>
      <trkpt lat="49.17196" lon="4.05049">
        <ele>144.8</ele>
        <time>2022-09-20T14:51:28Z</time>
      </trkpt>
      <trkpt lat="49.17223" lon="4.05065">
        <ele>144.2</ele>
        <time>2022-09-20T14:51:31Z</time>
      </trkpt>
      <trkpt lat="49.17265" lon="4.0509">
        <ele>143.6</ele>
        <time>2022-09-20T14:51:36Z</time>
      </trkpt>
      <trkpt lat="49.17299" lon="4.05106">
        <ele>143</ele>
        <time>2022-09-20T14:51:40Z</time>
      </trkpt>
      <trkpt lat="49.17358" lon="4.05128">
        <ele>142.6</ele>
        <time>2022-09-20T14:51:47Z</time>
      </trkpt>
      <trkpt lat="49.17401" lon="4.05143">
        <ele>142</ele>
        <time>2022-09-20T14:51:52Z</time>
      </trkpt>
      <trkpt lat="49.17425" lon="4.05152">
        <ele>141.4</ele>
        <time>2022-09-20T14:51:55Z</time>
      </trkpt>
      <trkpt lat="49.17484" lon="4.05174">
        <ele>140.4</ele>
        <time>2022-09-20T14:52:02Z</time>
      </trkpt>
      <trkpt lat="49.17492" lon="4.05177">
        <ele>140.2</ele>
        <time>2022-09-20T14:52:03Z</time>
      </trkpt>
      <trkpt lat="49.17548" lon="4.05199">
        <ele>139.8</ele>
        <time>2022-09-20T14:52:10Z</time>
      </trkpt>
      <trkpt lat="49.17571" lon="4.0521">
        <ele>140</ele>
        <time>2022-09-20T14:52:13Z</time>
      </trkpt>
      <trkpt lat="49.17626" lon="4.05241">
        <ele>140</ele>
        <time>2022-09-20T14:52:21Z</time>
      </trkpt>
      <trkpt lat="49.17681" lon="4.05273">
        <ele>140.2</ele>
        <time>2022-09-20T14:52:29Z</time>
      </trkpt>
      <trkpt lat="49.17694" lon="4.0528">
        <ele>140.4</ele>
        <time>2022-09-20T14:52:31Z</time>
      </trkpt>
      <trkpt lat="49.17752" lon="4.05314">
        <ele>140.2</ele>
        <time>2022-09-20T14:52:39Z</time>
      </trkpt>
      <trkpt lat="49.17774" lon="4.05327">
        <ele>140.2</ele>
        <time>2022-09-20T14:52:42Z</time>
      </trkpt>
      <trkpt lat="49.17831" lon="4.0536">
        <ele>139.4</ele>
        <time>2022-09-20T14:52:50Z</time>
      </trkpt>
      <trkpt lat="49.17859" lon="4.05377">
        <ele>139.4</ele>
        <time>2022-09-20T14:52:54Z</time>
      </trkpt>
      <trkpt lat="49.17916" lon="4.0541">
        <ele>139.4</ele>
        <time>2022-09-20T14:53:02Z</time>
      </trkpt>
      <trkpt lat="49.17973" lon="4.05443">
        <ele>139.8</ele>
        <time>2022-09-20T14:53:10Z</time>
      </trkpt>
      <trkpt lat="49.17994" lon="4.05455">
        <ele>139.8</ele>
        <time>2022-09-20T14:53:13Z</time>
      </trkpt>
      <trkpt lat="49.18048" lon="4.05486">
        <ele>139.8</ele>
        <time>2022-09-20T14:53:21Z</time>
      </trkpt>
      <trkpt lat="49.18061" lon="4.05494">
        <ele>140.2</ele>
        <time>2022-09-20T14:53:23Z</time>
      </trkpt>
      <trkpt lat="49.1811" lon="4.05522">
        <ele>140.6</ele>
        <time>2022-09-20T14:53:31Z</time>
      </trkpt>
      <trkpt lat="49.18124" lon="4.05528">
        <ele>141</ele>
        <time>2022-09-20T14:53:33Z</time>
      </trkpt>
      <trkpt lat="49.1817" lon="4.05542">
        <ele>141.6</ele>
        <time>2022-09-20T14:53:41Z</time>
      </trkpt>
      <trkpt lat="49.18175" lon="4.05543">
        <ele>142</ele>
        <time>2022-09-20T14:53:42Z</time>
      </trkpt>
      <trkpt lat="49.182" lon="4.0555">
        <ele>143.2</ele>
        <time>2022-09-20T14:53:47Z</time>
      </trkpt>
      <trkpt lat="49.18209" lon="4.05553">
        <ele>143.8</ele>
        <time>2022-09-20T14:53:49Z</time>
      </trkpt>
      <trkpt lat="49.18224" lon="4.05556">
        <ele>144.4</ele>
        <time>2022-09-20T14:53:52Z</time>
      </trkpt>
      <trkpt lat="49.18246" lon="4.05557">
        <ele>145.4</ele>
        <time>2022-09-20T14:53:57Z</time>
      </trkpt>
      <trkpt lat="49.18271" lon="4.05554">
        <ele>146.6</ele>
        <time>2022-09-20T14:54:03Z</time>
      </trkpt>
      <trkpt lat="49.18275" lon="4.05552">
        <ele>146.8</ele>
        <time>2022-09-20T14:54:04Z</time>
      </trkpt>
      <trkpt lat="49.18279" lon="4.0555">
        <ele>147.4</ele>
        <time>2022-09-20T14:54:05Z</time>
      </trkpt>
      <trkpt lat="49.18283" lon="4.05548">
        <ele>148</ele>
        <time>2022-09-20T14:54:06Z</time>
      </trkpt>
      <trkpt lat="49.18308" lon="4.05532">
        <ele>149.2</ele>
        <time>2022-09-20T14:54:13Z</time>
      </trkpt>
      <trkpt lat="49.18312" lon="4.05529">
        <ele>149.4</ele>
        <time>2022-09-20T14:54:14Z</time>
      </trkpt>
      <trkpt lat="49.18322" lon="4.0552">
        <ele>150.2</ele>
        <time>2022-09-20T14:54:17Z</time>
      </trkpt>
      <trkpt lat="49.18331" lon="4.05511">
        <ele>151.4</ele>
        <time>2022-09-20T14:54:20Z</time>
      </trkpt>
      <trkpt lat="49.18343" lon="4.05498">
        <ele>152.2</ele>
        <time>2022-09-20T14:54:24Z</time>
      </trkpt>
      <trkpt lat="49.18349" lon="4.05491">
        <ele>152.6</ele>
        <time>2022-09-20T14:54:26Z</time>
      </trkpt>
      <trkpt lat="49.18356" lon="4.05481">
        <ele>153.2</ele>
        <time>2022-09-20T14:54:29Z</time>
      </trkpt>
      <trkpt lat="49.1836" lon="4.05474">
        <ele>153.8</ele>
        <time>2022-09-20T14:54:31Z</time>
      </trkpt>
      <trkpt lat="49.18368" lon="4.05449">
        <ele>155</ele>
        <time>2022-09-20T14:54:36Z</time>
      </trkpt>
      <trkpt lat="49.18376" lon="4.0543">
        <ele>156</ele>
        <time>2022-09-20T14:54:40Z</time>
      </trkpt>
      <trkpt lat="49.18381" lon="4.05421">
        <ele>156.4</ele>
        <time>2022-09-20T14:54:42Z</time>
      </trkpt>
      <trkpt lat="49.18388" lon="4.05408">
        <ele>157.2</ele>
        <time>2022-09-20T14:54:45Z</time>
      </trkpt>
      <trkpt lat="49.18402" lon="4.05383">
        <ele>157.6</ele>
        <time>2022-09-20T14:54:51Z</time>
      </trkpt>
      <trkpt lat="49.18418" lon="4.05355">
        <ele>158.2</ele>
        <time>2022-09-20T14:54:58Z</time>
      </trkpt>
      <trkpt lat="49.18423" lon="4.05346">
        <ele>158.4</ele>
        <time>2022-09-20T14:55:00Z</time>
      </trkpt>
      <trkpt lat="49.18432" lon="4.05329">
        <ele>159.4</ele>
        <time>2022-09-20T14:55:04Z</time>
      </trkpt>
      <trkpt lat="49.18445" lon="4.05308">
        <ele>160.6</ele>
        <time>2022-09-20T14:55:09Z</time>
      </trkpt>
      <trkpt lat="49.18458" lon="4.0529">
        <ele>161.8</ele>
        <time>2022-09-20T14:55:14Z</time>
      </trkpt>
      <trkpt lat="49.18469" lon="4.05278">
        <ele>163</ele>
        <time>2022-09-20T14:55:18Z</time>
      </trkpt>
      <trkpt lat="49.18472" lon="4.05274">
        <ele>163.2</ele>
        <time>2022-09-20T14:55:19Z</time>
      </trkpt>
      <trkpt lat="49.18492" lon="4.05256">
        <ele>164</ele>
        <time>2022-09-20T14:55:25Z</time>
      </trkpt>
      <trkpt lat="49.18499" lon="4.0525">
        <ele>164.4</ele>
        <time>2022-09-20T14:55:27Z</time>
      </trkpt>
      <trkpt lat="49.18511" lon="4.05239">
        <ele>165</ele>
        <time>2022-09-20T14:55:31Z</time>
      </trkpt>
      <trkpt lat="49.1853" lon="4.05224">
        <ele>165.6</ele>
        <time>2022-09-20T14:55:36Z</time>
      </trkpt>
      <trkpt lat="49.1856" lon="4.05195">
        <ele>166</ele>
        <time>2022-09-20T14:55:43Z</time>
      </trkpt>
      <trkpt lat="49.18583" lon="4.05154">
        <ele>165.4</ele>
        <time>2022-09-20T14:55:49Z</time>
      </trkpt>
      <trkpt lat="49.18611" lon="4.05102">
        <ele>164</ele>
        <time>2022-09-20T14:55:55Z</time>
      </trkpt>
      <trkpt lat="49.18616" lon="4.05093">
        <ele>163.8</ele>
        <time>2022-09-20T14:55:56Z</time>
      </trkpt>
      <trkpt lat="49.18636" lon="4.05056">
        <ele>162.6</ele>
        <time>2022-09-20T14:56:00Z</time>
      </trkpt>
      <trkpt lat="49.18649" lon="4.05031">
        <ele>161.6</ele>
        <time>2022-09-20T14:56:03Z</time>
      </trkpt>
      <trkpt lat="49.18664" lon="4.05005">
        <ele>160.8</ele>
        <time>2022-09-20T14:56:06Z</time>
      </trkpt>
      <trkpt lat="49.18699" lon="4.04944">
        <ele>160.8</ele>
        <time>2022-09-20T14:56:14Z</time>
      </trkpt>
      <trkpt lat="49.18728" lon="4.04895">
        <ele>161.4</ele>
        <time>2022-09-20T14:56:21Z</time>
      </trkpt>
      <trkpt lat="49.18737" lon="4.0488">
        <ele>161.8</ele>
        <time>2022-09-20T14:56:23Z</time>
      </trkpt>
      <trkpt lat="49.18756" lon="4.04846">
        <ele>162.8</ele>
        <time>2022-09-20T14:56:28Z</time>
      </trkpt>
      <trkpt lat="49.18761" lon="4.04838">
        <ele>162.6</ele>
        <time>2022-09-20T14:56:29Z</time>
      </trkpt>
      <trkpt lat="49.18787" lon="4.04792">
        <ele>163.2</ele>
        <time>2022-09-20T14:56:35Z</time>
      </trkpt>
      <trkpt lat="49.1882" lon="4.04737">
        <ele>162.6</ele>
        <time>2022-09-20T14:56:42Z</time>
      </trkpt>
      <trkpt lat="49.18854" lon="4.04678">
        <ele>162</ele>
        <time>2022-09-20T14:56:49Z</time>
      </trkpt>
      <trkpt lat="49.18864" lon="4.04661">
        <ele>161.8</ele>
        <time>2022-09-20T14:56:51Z</time>
      </trkpt>
      <trkpt lat="49.18893" lon="4.04614">
        <ele>161.6</ele>
        <time>2022-09-20T14:56:57Z</time>
      </trkpt>
      <trkpt lat="49.18924" lon="4.04566">
        <ele>161.2</ele>
        <time>2022-09-20T14:57:03Z</time>
      </trkpt>
      <trkpt lat="49.18934" lon="4.0455">
        <ele>160.8</ele>
        <time>2022-09-20T14:57:05Z</time>
      </trkpt>
      <trkpt lat="49.18964" lon="4.04503">
        <ele>159.4</ele>
        <time>2022-09-20T14:57:10Z</time>
      </trkpt>
      <trkpt lat="49.1897" lon="4.04494">
        <ele>159.2</ele>
        <time>2022-09-20T14:57:11Z</time>
      </trkpt>
      <trkpt lat="49.18988" lon="4.04465">
        <ele>157.6</ele>
        <time>2022-09-20T14:57:14Z</time>
      </trkpt>
      <trkpt lat="49.19003" lon="4.04442">
        <ele>156.6</ele>
        <time>2022-09-20T14:57:16Z</time>
      </trkpt>
      <trkpt lat="49.19015" lon="4.04424">
        <ele>155.2</ele>
        <time>2022-09-20T14:57:18Z</time>
      </trkpt>
      <trkpt lat="49.19037" lon="4.04396">
        <ele>153.2</ele>
        <time>2022-09-20T14:57:21Z</time>
      </trkpt>
      <trkpt lat="49.19045" lon="4.04389">
        <ele>152.2</ele>
        <time>2022-09-20T14:57:22Z</time>
      </trkpt>
      <trkpt lat="49.19061" lon="4.04379">
        <ele>150.4</ele>
        <time>2022-09-20T14:57:24Z</time>
      </trkpt>
      <trkpt lat="49.19068" lon="4.04375">
        <ele>150</ele>
        <time>2022-09-20T14:57:25Z</time>
      </trkpt>
      <trkpt lat="49.19076" lon="4.04371">
        <ele>149.2</ele>
        <time>2022-09-20T14:57:26Z</time>
      </trkpt>
      <trkpt lat="49.19092" lon="4.04361">
        <ele>148</ele>
        <time>2022-09-20T14:57:28Z</time>
      </trkpt>
      <trkpt lat="49.191" lon="4.04352">
        <ele>147.2</ele>
        <time>2022-09-20T14:57:29Z</time>
      </trkpt>
      <trkpt lat="49.19106" lon="4.04342">
        <ele>146.8</ele>
        <time>2022-09-20T14:57:30Z</time>
      </trkpt>
      <trkpt lat="49.19112" lon="4.04333">
        <ele>145.6</ele>
        <time>2022-09-20T14:57:31Z</time>
      </trkpt>
      <trkpt lat="49.19121" lon="4.04316">
        <ele>144.2</ele>
        <time>2022-09-20T14:57:33Z</time>
      </trkpt>
      <trkpt lat="49.19126" lon="4.04306">
        <ele>144</ele>
        <time>2022-09-20T14:57:34Z</time>
      </trkpt>
      <trkpt lat="49.19129" lon="4.043">
        <ele>143.2</ele>
        <time>2022-09-20T14:57:35Z</time>
      </trkpt>
      <trkpt lat="49.19132" lon="4.04294">
        <ele>142.6</ele>
        <time>2022-09-20T14:57:36Z</time>
      </trkpt>
      <trkpt lat="49.19136" lon="4.04289">
        <ele>142.4</ele>
        <time>2022-09-20T14:57:37Z</time>
      </trkpt>
      <trkpt lat="49.19139" lon="4.04285">
        <ele>142</ele>
        <time>2022-09-20T14:57:38Z</time>
      </trkpt>
      <trkpt lat="49.19146" lon="4.04284">
        <ele>141.4</ele>
        <time>2022-09-20T14:57:40Z</time>
      </trkpt>
      <trkpt lat="49.19155" lon="4.0429">
        <ele>140.8</ele>
        <time>2022-09-20T14:57:42Z</time>
      </trkpt>
      <trkpt lat="49.19167" lon="4.04295">
        <ele>140</ele>
        <time>2022-09-20T14:57:44Z</time>
      </trkpt>
      <trkpt lat="49.19175" lon="4.04299">
        <ele>139.4</ele>
        <time>2022-09-20T14:57:45Z</time>
      </trkpt>
      <trkpt lat="49.19186" lon="4.04312">
        <ele>138.8</ele>
        <time>2022-09-20T14:57:47Z</time>
      </trkpt>
      <trkpt lat="49.19198" lon="4.04328">
        <ele>138</ele>
        <time>2022-09-20T14:57:49Z</time>
      </trkpt>
      <trkpt lat="49.19205" lon="4.0433">
        <ele>137.6</ele>
        <time>2022-09-20T14:57:50Z</time>
      </trkpt>
      <trkpt lat="49.19211" lon="4.04328">
        <ele>137.4</ele>
        <time>2022-09-20T14:57:51Z</time>
      </trkpt>
      <trkpt lat="49.19217" lon="4.04324">
        <ele>136.8</ele>
        <time>2022-09-20T14:57:52Z</time>
      </trkpt>
      <trkpt lat="49.19224" lon="4.04316">
        <ele>136.8</ele>
        <time>2022-09-20T14:57:53Z</time>
      </trkpt>
      <trkpt lat="49.19241" lon="4.04298">
        <ele>135.6</ele>
        <time>2022-09-20T14:57:56Z</time>
      </trkpt>
      <trkpt lat="49.1926" lon="4.04279">
        <ele>134.4</ele>
        <time>2022-09-20T14:57:59Z</time>
      </trkpt>
      <trkpt lat="49.19271" lon="4.0427">
        <ele>134</ele>
        <time>2022-09-20T14:58:01Z</time>
      </trkpt>
      <trkpt lat="49.19276" lon="4.04266">
        <ele>133.8</ele>
        <time>2022-09-20T14:58:02Z</time>
      </trkpt>
      <trkpt lat="49.19281" lon="4.04265">
        <ele>133.4</ele>
        <time>2022-09-20T14:58:03Z</time>
      </trkpt>
      <trkpt lat="49.19286" lon="4.04265">
        <ele>133.2</ele>
        <time>2022-09-20T14:58:04Z</time>
      </trkpt>
      <trkpt lat="49.19292" lon="4.04272">
        <ele>132.6</ele>
        <time>2022-09-20T14:58:06Z</time>
      </trkpt>
      <trkpt lat="49.19296" lon="4.04274">
        <ele>132.6</ele>
        <time>2022-09-20T14:58:07Z</time>
      </trkpt>
      <trkpt lat="49.193" lon="4.04273">
        <ele>132.4</ele>
        <time>2022-09-20T14:58:08Z</time>
      </trkpt>
      <trkpt lat="49.19303" lon="4.04269">
        <ele>132.2</ele>
        <time>2022-09-20T14:58:09Z</time>
      </trkpt>
      <trkpt lat="49.19306" lon="4.04262">
        <ele>132.2</ele>
        <time>2022-09-20T14:58:10Z</time>
      </trkpt>
      <trkpt lat="49.19309" lon="4.04246">
        <ele>132</ele>
        <time>2022-09-20T14:58:12Z</time>
      </trkpt>
      <trkpt lat="49.19318" lon="4.0423">
        <ele>132</ele>
        <time>2022-09-20T14:58:14Z</time>
      </trkpt>
      <trkpt lat="49.19322" lon="4.04226">
        <ele>131.8</ele>
        <time>2022-09-20T14:58:15Z</time>
      </trkpt>
      <trkpt lat="49.19329" lon="4.04221">
        <ele>131.8</ele>
        <time>2022-09-20T14:58:16Z</time>
      </trkpt>
      <trkpt lat="49.19347" lon="4.04211">
        <ele>131.6</ele>
        <time>2022-09-20T14:58:19Z</time>
      </trkpt>
      <trkpt lat="49.19377" lon="4.04195">
        <ele>132.4</ele>
        <time>2022-09-20T14:58:25Z</time>
      </trkpt>
      <trkpt lat="49.19401" lon="4.0418">
        <ele>133.6</ele>
        <time>2022-09-20T14:58:30Z</time>
      </trkpt>
      <trkpt lat="49.19412" lon="4.04173">
        <ele>133.8</ele>
        <time>2022-09-20T14:58:32Z</time>
      </trkpt>
      <trkpt lat="49.19437" lon="4.04158">
        <ele>134.6</ele>
        <time>2022-09-20T14:58:37Z</time>
      </trkpt>
      <trkpt lat="49.19457" lon="4.04145">
        <ele>135.2</ele>
        <time>2022-09-20T14:58:41Z</time>
      </trkpt>
      <trkpt lat="49.19468" lon="4.04139">
        <ele>135.6</ele>
        <time>2022-09-20T14:58:43Z</time>
      </trkpt>
      <trkpt lat="49.19503" lon="4.04117">
        <ele>136.6</ele>
        <time>2022-09-20T14:58:50Z</time>
      </trkpt>
      <trkpt lat="49.19513" lon="4.04112">
        <ele>136.8</ele>
        <time>2022-09-20T14:58:52Z</time>
      </trkpt>
      <trkpt lat="49.19528" lon="4.04107">
        <ele>137.4</ele>
        <time>2022-09-20T14:58:55Z</time>
      </trkpt>
      <trkpt lat="49.19546" lon="4.04105">
        <ele>137.6</ele>
        <time>2022-09-20T14:58:58Z</time>
      </trkpt>
      <trkpt lat="49.19552" lon="4.04104">
        <ele>137.8</ele>
        <time>2022-09-20T14:58:59Z</time>
      </trkpt>
      <trkpt lat="49.19602" lon="4.04095">
        <ele>138.2</ele>
        <time>2022-09-20T14:59:08Z</time>
      </trkpt>
      <trkpt lat="49.19657" lon="4.04072">
        <ele>138.4</ele>
        <time>2022-09-20T14:59:17Z</time>
      </trkpt>
      <trkpt lat="49.19703" lon="4.04069">
        <ele>138.8</ele>
        <time>2022-09-20T14:59:24Z</time>
      </trkpt>
      <trkpt lat="49.19753" lon="4.0407">
        <ele>138.8</ele>
        <time>2022-09-20T14:59:31Z</time>
      </trkpt>
      <trkpt lat="49.19811" lon="4.04074">
        <ele>138.8</ele>
        <time>2022-09-20T14:59:39Z</time>
      </trkpt>
      <trkpt lat="49.19818" lon="4.04075">
        <ele>138.8</ele>
        <time>2022-09-20T14:59:40Z</time>
      </trkpt>
      <trkpt lat="49.19876" lon="4.04075">
        <ele>138.8</ele>
        <time>2022-09-20T14:59:48Z</time>
      </trkpt>
      <trkpt lat="49.19899" lon="4.04075">
        <ele>138.8</ele>
        <time>2022-09-20T14:59:51Z</time>
      </trkpt>
      <trkpt lat="49.19956" lon="4.04077">
        <ele>139</ele>
        <time>2022-09-20T14:59:59Z</time>
      </trkpt>
      <trkpt lat="49.19971" lon="4.04079">
        <ele>139.2</ele>
        <time>2022-09-20T15:00:01Z</time>
      </trkpt>
      <trkpt lat="49.20028" lon="4.0409">
        <ele>138.8</ele>
        <time>2022-09-20T15:00:08Z</time>
      </trkpt>
      <trkpt lat="49.20077" lon="4.04104">
        <ele>137.8</ele>
        <time>2022-09-20T15:00:14Z</time>
      </trkpt>
      <trkpt lat="49.20088" lon="4.04108">
        <ele>137.8</ele>
        <time>2022-09-20T15:00:15Z</time>
      </trkpt>
      <trkpt lat="49.20134" lon="4.04122">
        <ele>136.4</ele>
        <time>2022-09-20T15:00:20Z</time>
      </trkpt>
      <trkpt lat="49.20152" lon="4.04131">
        <ele>135.8</ele>
        <time>2022-09-20T15:00:22Z</time>
      </trkpt>
      <trkpt lat="49.20161" lon="4.04136">
        <ele>135</ele>
        <time>2022-09-20T15:00:23Z</time>
      </trkpt>
      <trkpt lat="49.20186" lon="4.04156">
        <ele>134</ele>
        <time>2022-09-20T15:00:26Z</time>
      </trkpt>
      <trkpt lat="49.20194" lon="4.04162">
        <ele>133.6</ele>
        <time>2022-09-20T15:00:27Z</time>
      </trkpt>
      <trkpt lat="49.2021" lon="4.04177">
        <ele>133.2</ele>
        <time>2022-09-20T15:00:29Z</time>
      </trkpt>
      <trkpt lat="49.20232" lon="4.04198">
        <ele>131.8</ele>
        <time>2022-09-20T15:00:32Z</time>
      </trkpt>
      <trkpt lat="49.20257" lon="4.04221">
        <ele>130.4</ele>
        <time>2022-09-20T15:00:35Z</time>
      </trkpt>
      <trkpt lat="49.20265" lon="4.04228">
        <ele>130.2</ele>
        <time>2022-09-20T15:00:36Z</time>
      </trkpt>
      <trkpt lat="49.20288" lon="4.04248">
        <ele>129.2</ele>
        <time>2022-09-20T15:00:39Z</time>
      </trkpt>
      <trkpt lat="49.2032" lon="4.0427">
        <ele>128.4</ele>
        <time>2022-09-20T15:00:43Z</time>
      </trkpt>
      <trkpt lat="49.20335" lon="4.0428">
        <ele>128.2</ele>
        <time>2022-09-20T15:00:45Z</time>
      </trkpt>
      <trkpt lat="49.20388" lon="4.04313">
        <ele>127.6</ele>
        <time>2022-09-20T15:00:52Z</time>
      </trkpt>
      <trkpt lat="49.20397" lon="4.04319">
        <ele>127.4</ele>
        <time>2022-09-20T15:00:53Z</time>
      </trkpt>
      <trkpt lat="49.20424" lon="4.04335">
        <ele>127.2</ele>
        <time>2022-09-20T15:00:57Z</time>
      </trkpt>
      <trkpt lat="49.20444" lon="4.04347">
        <ele>126.6</ele>
        <time>2022-09-20T15:01:00Z</time>
      </trkpt>
      <trkpt lat="49.20451" lon="4.04351">
        <ele>126</ele>
        <time>2022-09-20T15:01:01Z</time>
      </trkpt>
      <trkpt lat="49.20483" lon="4.0437">
        <ele>125</ele>
        <time>2022-09-20T15:01:06Z</time>
      </trkpt>
      <trkpt lat="49.20505" lon="4.0438">
        <ele>124</ele>
        <time>2022-09-20T15:01:11Z</time>
      </trkpt>
      <trkpt lat="49.20509" lon="4.04382">
        <ele>123.6</ele>
        <time>2022-09-20T15:01:13Z</time>
      </trkpt>
      <trkpt lat="49.20515" lon="4.04384">
        <ele>123.2</ele>
        <time>2022-09-20T15:01:15Z</time>
      </trkpt>
      <trkpt lat="49.20531" lon="4.04393">
        <ele>122.8</ele>
        <time>2022-09-20T15:01:19Z</time>
      </trkpt>
      <trkpt lat="49.2054" lon="4.04402">
        <ele>122.6</ele>
        <time>2022-09-20T15:01:21Z</time>
      </trkpt>
      <trkpt lat="49.20545" lon="4.04407">
        <ele>122.6</ele>
        <time>2022-09-20T15:01:22Z</time>
      </trkpt>
      <trkpt lat="49.20551" lon="4.04412">
        <ele>122.4</ele>
        <time>2022-09-20T15:01:23Z</time>
      </trkpt>
      <trkpt lat="49.20588" lon="4.04447">
        <ele>121.6</ele>
        <time>2022-09-20T15:01:29Z</time>
      </trkpt>
      <trkpt lat="49.20636" lon="4.04491">
        <ele>120.6</ele>
        <time>2022-09-20T15:01:36Z</time>
      </trkpt>
      <trkpt lat="49.20655" lon="4.04511">
        <ele>120.4</ele>
        <time>2022-09-20T15:01:39Z</time>
      </trkpt>
      <trkpt lat="49.20689" lon="4.04544">
        <ele>120.6</ele>
        <time>2022-09-20T15:01:44Z</time>
      </trkpt>
      <trkpt lat="49.20737" lon="4.04592">
        <ele>120.2</ele>
        <time>2022-09-20T15:01:51Z</time>
      </trkpt>
      <trkpt lat="49.20786" lon="4.04644">
        <ele>119.4</ele>
        <time>2022-09-20T15:01:58Z</time>
      </trkpt>
      <trkpt lat="49.20794" lon="4.04652">
        <ele>119.4</ele>
        <time>2022-09-20T15:01:59Z</time>
      </trkpt>
      <trkpt lat="49.20808" lon="4.04668">
        <ele>118.8</ele>
        <time>2022-09-20T15:02:01Z</time>
      </trkpt>
      <trkpt lat="49.20832" lon="4.04692">
        <ele>118.2</ele>
        <time>2022-09-20T15:02:04Z</time>
      </trkpt>
      <trkpt lat="49.20873" lon="4.04736">
        <ele>117.2</ele>
        <time>2022-09-20T15:02:09Z</time>
      </trkpt>
      <trkpt lat="49.20907" lon="4.04772">
        <ele>116</ele>
        <time>2022-09-20T15:02:13Z</time>
      </trkpt>
      <trkpt lat="49.20921" lon="4.04792">
        <ele>115.8</ele>
        <time>2022-09-20T15:02:15Z</time>
      </trkpt>
      <trkpt lat="49.20939" lon="4.04827">
        <ele>115</ele>
        <time>2022-09-20T15:02:18Z</time>
      </trkpt>
      <trkpt lat="49.20943" lon="4.0484">
        <ele>114.8</ele>
        <time>2022-09-20T15:02:19Z</time>
      </trkpt>
      <trkpt lat="49.20947" lon="4.04854">
        <ele>114.8</ele>
        <time>2022-09-20T15:02:20Z</time>
      </trkpt>
      <trkpt lat="49.20953" lon="4.04896">
        <ele>114.4</ele>
        <time>2022-09-20T15:02:23Z</time>
      </trkpt>
      <trkpt lat="49.20954" lon="4.04957">
        <ele>114.4</ele>
        <time>2022-09-20T15:02:28Z</time>
      </trkpt>
      <trkpt lat="49.20954" lon="4.05015">
        <ele>115</ele>
        <time>2022-09-20T15:02:34Z</time>
      </trkpt>
      <trkpt lat="49.20954" lon="4.05055">
        <ele>116</ele>
        <time>2022-09-20T15:02:39Z</time>
      </trkpt>
      <trkpt lat="49.20953" lon="4.05062">
        <ele>116.2</ele>
        <time>2022-09-20T15:02:40Z</time>
      </trkpt>
      <trkpt lat="49.20952" lon="4.05075">
        <ele>116.8</ele>
        <time>2022-09-20T15:02:43Z</time>
      </trkpt>
      <trkpt lat="49.20952" lon="4.05078">
        <ele>117.2</ele>
        <time>2022-09-20T15:02:47Z</time>
      </trkpt>
      <trkpt lat="49.20952" lon="4.05078">
        <ele>117.2</ele>
        <time>2022-09-20T15:03:00Z</time>
      </trkpt>
      <trkpt lat="49.2095" lon="4.05083">
        <ele>117.2</ele>
        <time>2022-09-20T15:03:02Z</time>
      </trkpt>
      <trkpt lat="49.20945" lon="4.05102">
        <ele>117.6</ele>
        <time>2022-09-20T15:03:07Z</time>
      </trkpt>
      <trkpt lat="49.20946" lon="4.05106">
        <ele>117.6</ele>
        <time>2022-09-20T15:03:08Z</time>
      </trkpt>
      <trkpt lat="49.20954" lon="4.05116">
        <ele>117.8</ele>
        <time>2022-09-20T15:03:10Z</time>
      </trkpt>
      <trkpt lat="49.20958" lon="4.05117">
        <ele>117.8</ele>
        <time>2022-09-20T15:03:11Z</time>
      </trkpt>
      <trkpt lat="49.20964" lon="4.05116">
        <ele>117.8</ele>
        <time>2022-09-20T15:03:12Z</time>
      </trkpt>
      <trkpt lat="49.20975" lon="4.0511">
        <ele>117.8</ele>
        <time>2022-09-20T15:03:14Z</time>
      </trkpt>
      <trkpt lat="49.20983" lon="4.05107">
        <ele>117.8</ele>
        <time>2022-09-20T15:03:15Z</time>
      </trkpt>
      <trkpt lat="49.21002" lon="4.05104">
        <ele>117.8</ele>
        <time>2022-09-20T15:03:18Z</time>
      </trkpt>
      <trkpt lat="49.21059" lon="4.05101">
        <ele>118.2</ele>
        <time>2022-09-20T15:03:26Z</time>
      </trkpt>
      <trkpt lat="49.21124" lon="4.051">
        <ele>118.2</ele>
        <time>2022-09-20T15:03:35Z</time>
      </trkpt>
      <trkpt lat="49.21146" lon="4.05104">
        <ele>118.2</ele>
        <time>2022-09-20T15:03:38Z</time>
      </trkpt>
      <trkpt lat="49.21153" lon="4.05108">
        <ele>118</ele>
        <time>2022-09-20T15:03:39Z</time>
      </trkpt>
      <trkpt lat="49.21172" lon="4.05116">
        <ele>117.8</ele>
        <time>2022-09-20T15:03:42Z</time>
      </trkpt>
      <trkpt lat="49.21181" lon="4.05114">
        <ele>117.6</ele>
        <time>2022-09-20T15:03:43Z</time>
      </trkpt>
      <trkpt lat="49.21194" lon="4.05106">
        <ele>117.4</ele>
        <time>2022-09-20T15:03:45Z</time>
      </trkpt>
      <trkpt lat="49.21211" lon="4.05103">
        <ele>117</ele>
        <time>2022-09-20T15:03:47Z</time>
      </trkpt>
      <trkpt lat="49.2124" lon="4.05099">
        <ele>116.4</ele>
        <time>2022-09-20T15:03:51Z</time>
      </trkpt>
      <trkpt lat="49.21272" lon="4.05099">
        <ele>115.8</ele>
        <time>2022-09-20T15:03:55Z</time>
      </trkpt>
      <trkpt lat="49.21314" lon="4.05098">
        <ele>115.2</ele>
        <time>2022-09-20T15:04:00Z</time>
      </trkpt>
      <trkpt lat="49.21333" lon="4.05099">
        <ele>114.4</ele>
        <time>2022-09-20T15:04:02Z</time>
      </trkpt>
      <trkpt lat="49.21342" lon="4.05099">
        <ele>113.8</ele>
        <time>2022-09-20T15:04:03Z</time>
      </trkpt>
      <trkpt lat="49.21376" lon="4.05099">
        <ele>112.8</ele>
        <time>2022-09-20T15:04:07Z</time>
      </trkpt>
      <trkpt lat="49.21402" lon="4.051">
        <ele>111.6</ele>
        <time>2022-09-20T15:04:10Z</time>
      </trkpt>
      <trkpt lat="49.21427" lon="4.051">
        <ele>110.6</ele>
        <time>2022-09-20T15:04:13Z</time>
      </trkpt>
      <trkpt lat="49.21445" lon="4.05101">
        <ele>109.4</ele>
        <time>2022-09-20T15:04:15Z</time>
      </trkpt>
      <trkpt lat="49.2146" lon="4.05102">
        <ele>108.4</ele>
        <time>2022-09-20T15:04:17Z</time>
      </trkpt>
      <trkpt lat="49.21473" lon="4.05105">
        <ele>107.6</ele>
        <time>2022-09-20T15:04:19Z</time>
      </trkpt>
      <trkpt lat="49.21481" lon="4.05108">
        <ele>107.2</ele>
        <time>2022-09-20T15:04:20Z</time>
      </trkpt>
      <trkpt lat="49.21487" lon="4.05111">
        <ele>106.8</ele>
        <time>2022-09-20T15:04:21Z</time>
      </trkpt>
      <trkpt lat="49.215" lon="4.0511">
        <ele>106.2</ele>
        <time>2022-09-20T15:04:23Z</time>
      </trkpt>
      <trkpt lat="49.21538" lon="4.051">
        <ele>104.8</ele>
        <time>2022-09-20T15:04:28Z</time>
      </trkpt>
      <trkpt lat="49.21585" lon="4.05098">
        <ele>103.8</ele>
        <time>2022-09-20T15:04:34Z</time>
      </trkpt>
      <trkpt lat="49.21591" lon="4.05098">
        <ele>103.6</ele>
        <time>2022-09-20T15:04:35Z</time>
      </trkpt>
      <trkpt lat="49.21602" lon="4.05099">
        <ele>103.6</ele>
        <time>2022-09-20T15:04:37Z</time>
      </trkpt>
      <trkpt lat="49.21608" lon="4.05101">
        <ele>103.6</ele>
        <time>2022-09-20T15:04:39Z</time>
      </trkpt>
      <trkpt lat="49.21626" lon="4.05116">
        <ele>103.6</ele>
        <time>2022-09-20T15:04:43Z</time>
      </trkpt>
      <trkpt lat="49.21632" lon="4.0512">
        <ele>103.6</ele>
        <time>2022-09-20T15:04:44Z</time>
      </trkpt>
      <trkpt lat="49.21644" lon="4.05121">
        <ele>103.4</ele>
        <time>2022-09-20T15:04:46Z</time>
      </trkpt>
      <trkpt lat="49.21655" lon="4.05114">
        <ele>103.4</ele>
        <time>2022-09-20T15:04:48Z</time>
      </trkpt>
      <trkpt lat="49.21663" lon="4.05106">
        <ele>103.4</ele>
        <time>2022-09-20T15:04:50Z</time>
      </trkpt>
      <trkpt lat="49.21691" lon="4.0509">
        <ele>103.8</ele>
        <time>2022-09-20T15:04:55Z</time>
      </trkpt>
      <trkpt lat="49.21696" lon="4.05089">
        <ele>104</ele>
        <time>2022-09-20T15:04:56Z</time>
      </trkpt>
      <trkpt lat="49.21702" lon="4.05088">
        <ele>104.2</ele>
        <time>2022-09-20T15:04:57Z</time>
      </trkpt>
      <trkpt lat="49.21737" lon="4.05086">
        <ele>104.6</ele>
        <time>2022-09-20T15:05:03Z</time>
      </trkpt>
      <trkpt lat="49.21754" lon="4.05085">
        <ele>104.8</ele>
        <time>2022-09-20T15:05:06Z</time>
      </trkpt>
      <trkpt lat="49.21791" lon="4.05085">
        <ele>105.6</ele>
        <time>2022-09-20T15:05:13Z</time>
      </trkpt>
      <trkpt lat="49.21804" lon="4.05084">
        <ele>106.2</ele>
        <time>2022-09-20T15:05:15Z</time>
      </trkpt>
      <trkpt lat="49.21831" lon="4.05084">
        <ele>107.2</ele>
        <time>2022-09-20T15:05:20Z</time>
      </trkpt>
      <trkpt lat="49.21837" lon="4.05084">
        <ele>107.2</ele>
        <time>2022-09-20T15:05:21Z</time>
      </trkpt>
      <trkpt lat="49.21843" lon="4.05084">
        <ele>107.6</ele>
        <time>2022-09-20T15:05:22Z</time>
      </trkpt>
      <trkpt lat="49.21859" lon="4.05084">
        <ele>108.4</ele>
        <time>2022-09-20T15:05:25Z</time>
      </trkpt>
      <trkpt lat="49.2189" lon="4.05083">
        <ele>109</ele>
        <time>2022-09-20T15:05:31Z</time>
      </trkpt>
      <trkpt lat="49.21916" lon="4.05082">
        <ele>109.6</ele>
        <time>2022-09-20T15:05:36Z</time>
      </trkpt>
      <trkpt lat="49.21931" lon="4.05082">
        <ele>110.2</ele>
        <time>2022-09-20T15:05:39Z</time>
      </trkpt>
      <trkpt lat="49.2195" lon="4.05081">
        <ele>110.8</ele>
        <time>2022-09-20T15:05:43Z</time>
      </trkpt>
      <trkpt lat="49.21969" lon="4.05081">
        <ele>111.4</ele>
        <time>2022-09-20T15:05:47Z</time>
      </trkpt>
      <trkpt lat="49.22009" lon="4.05079">
        <ele>111.8</ele>
        <time>2022-09-20T15:05:55Z</time>
      </trkpt>
      <trkpt lat="49.22021" lon="4.05079">
        <ele>112.2</ele>
        <time>2022-09-20T15:05:57Z</time>
      </trkpt>
      <trkpt lat="49.22051" lon="4.05079">
        <ele>112.8</ele>
        <time>2022-09-20T15:06:02Z</time>
      </trkpt>
      <trkpt lat="49.2209" lon="4.05076">
        <ele>112.6</ele>
        <time>2022-09-20T15:06:08Z</time>
      </trkpt>
      <trkpt lat="49.22141" lon="4.05075">
        <ele>111.4</ele>
        <time>2022-09-20T15:06:15Z</time>
      </trkpt>
      <trkpt lat="49.22157" lon="4.05075">
        <ele>110.8</ele>
        <time>2022-09-20T15:06:17Z</time>
      </trkpt>
      <trkpt lat="49.22187" lon="4.05073">
        <ele>109.6</ele>
        <time>2022-09-20T15:06:21Z</time>
      </trkpt>
      <trkpt lat="49.22201" lon="4.05072">
        <ele>109</ele>
        <time>2022-09-20T15:06:23Z</time>
      </trkpt>
      <trkpt lat="49.22212" lon="4.05073">
        <ele>108.4</ele>
        <time>2022-09-20T15:06:25Z</time>
      </trkpt>
      <trkpt lat="49.22219" lon="4.05073">
        <ele>107.8</ele>
        <time>2022-09-20T15:06:27Z</time>
      </trkpt>
      <trkpt lat="49.22222" lon="4.05073">
        <ele>107.2</ele>
        <time>2022-09-20T15:06:28Z</time>
      </trkpt>
      <trkpt lat="49.22224" lon="4.05073">
        <ele>107</ele>
        <time>2022-09-20T15:06:29Z</time>
      </trkpt>
      <trkpt lat="49.22227" lon="4.05074">
        <ele>106.2</ele>
        <time>2022-09-20T15:06:32Z</time>
      </trkpt>
      <trkpt lat="49.22229" lon="4.05074">
        <ele>105.2</ele>
        <time>2022-09-20T15:06:37Z</time>
      </trkpt>
      <trkpt lat="49.22229" lon="4.05074">
        <ele>104.8</ele>
        <time>2022-09-20T15:06:39Z</time>
      </trkpt>
      <trkpt lat="49.2224" lon="4.05073">
        <ele>104.2</ele>
        <time>2022-09-20T15:06:44Z</time>
      </trkpt>
      <trkpt lat="49.22244" lon="4.05074">
        <ele>104</ele>
        <time>2022-09-20T15:06:45Z</time>
      </trkpt>
      <trkpt lat="49.22255" lon="4.05077">
        <ele>104</ele>
        <time>2022-09-20T15:06:47Z</time>
      </trkpt>
      <trkpt lat="49.22283" lon="4.05092">
        <ele>103.4</ele>
        <time>2022-09-20T15:06:51Z</time>
      </trkpt>
      <trkpt lat="49.22298" lon="4.05101">
        <ele>103</ele>
        <time>2022-09-20T15:06:53Z</time>
      </trkpt>
      <trkpt lat="49.22329" lon="4.05121">
        <ele>101.8</ele>
        <time>2022-09-20T15:06:57Z</time>
      </trkpt>
      <trkpt lat="49.22337" lon="4.05126">
        <ele>101.6</ele>
        <time>2022-09-20T15:06:58Z</time>
      </trkpt>
      <trkpt lat="49.22367" lon="4.05145">
        <ele>100.6</ele>
        <time>2022-09-20T15:07:02Z</time>
      </trkpt>
      <trkpt lat="49.22382" lon="4.05154">
        <ele>99.6</ele>
        <time>2022-09-20T15:07:04Z</time>
      </trkpt>
      <trkpt lat="49.22388" lon="4.05157">
        <ele>99.4</ele>
        <time>2022-09-20T15:07:05Z</time>
      </trkpt>
      <trkpt lat="49.22395" lon="4.05161">
        <ele>98.4</ele>
        <time>2022-09-20T15:07:07Z</time>
      </trkpt>
      <trkpt lat="49.22398" lon="4.05163">
        <ele>97.8</ele>
        <time>2022-09-20T15:07:09Z</time>
      </trkpt>
      <trkpt lat="49.22398" lon="4.05163">
        <ele>97.6</ele>
        <time>2022-09-20T15:07:10Z</time>
      </trkpt>
      <trkpt lat="49.22398" lon="4.05163">
        <ele>97.2</ele>
        <time>2022-09-20T15:07:11Z</time>
      </trkpt>
      <trkpt lat="49.22398" lon="4.05163">
        <ele>96.8</ele>
        <time>2022-09-20T15:07:15Z</time>
      </trkpt>
      <trkpt lat="49.22399" lon="4.05163">
        <ele>96.4</ele>
        <time>2022-09-20T15:07:31Z</time>
      </trkpt>
      <trkpt lat="49.22401" lon="4.05164">
        <ele>96.4</ele>
        <time>2022-09-20T15:07:32Z</time>
      </trkpt>
      <trkpt lat="49.22415" lon="4.05174">
        <ele>96.4</ele>
        <time>2022-09-20T15:07:36Z</time>
      </trkpt>
      <trkpt lat="49.22438" lon="4.05186">
        <ele>96.6</ele>
        <time>2022-09-20T15:07:40Z</time>
      </trkpt>
      <trkpt lat="49.22455" lon="4.05201">
        <ele>96.4</ele>
        <time>2022-09-20T15:07:43Z</time>
      </trkpt>
      <trkpt lat="49.22461" lon="4.05206">
        <ele>96.2</ele>
        <time>2022-09-20T15:07:44Z</time>
      </trkpt>
      <trkpt lat="49.22502" lon="4.05236">
        <ele>96.2</ele>
        <time>2022-09-20T15:07:50Z</time>
      </trkpt>
      <trkpt lat="49.22543" lon="4.05263">
        <ele>96</ele>
        <time>2022-09-20T15:07:56Z</time>
      </trkpt>
      <trkpt lat="49.22573" lon="4.05283">
        <ele>96.4</ele>
        <time>2022-09-20T15:08:01Z</time>
      </trkpt>
      <trkpt lat="49.226" lon="4.05311">
        <ele>96.6</ele>
        <time>2022-09-20T15:08:06Z</time>
      </trkpt>
      <trkpt lat="49.22615" lon="4.05327">
        <ele>96.8</ele>
        <time>2022-09-20T15:08:09Z</time>
      </trkpt>
      <trkpt lat="49.22633" lon="4.05343">
        <ele>97</ele>
        <time>2022-09-20T15:08:12Z</time>
      </trkpt>
      <trkpt lat="49.2267" lon="4.05361">
        <ele>97.6</ele>
        <time>2022-09-20T15:08:18Z</time>
      </trkpt>
      <trkpt lat="49.22686" lon="4.05363">
        <ele>98.4</ele>
        <time>2022-09-20T15:08:21Z</time>
      </trkpt>
      <trkpt lat="49.22691" lon="4.05362">
        <ele>98.8</ele>
        <time>2022-09-20T15:08:22Z</time>
      </trkpt>
      <trkpt lat="49.22696" lon="4.05361">
        <ele>99</ele>
        <time>2022-09-20T15:08:23Z</time>
      </trkpt>
      <trkpt lat="49.22707" lon="4.05358">
        <ele>99.8</ele>
        <time>2022-09-20T15:08:25Z</time>
      </trkpt>
      <trkpt lat="49.22732" lon="4.05349">
        <ele>101</ele>
        <time>2022-09-20T15:08:29Z</time>
      </trkpt>
      <trkpt lat="49.22738" lon="4.05347">
        <ele>101.4</ele>
        <time>2022-09-20T15:08:30Z</time>
      </trkpt>
      <trkpt lat="49.22764" lon="4.05338">
        <ele>102.2</ele>
        <time>2022-09-20T15:08:34Z</time>
      </trkpt>
      <trkpt lat="49.2277" lon="4.05335">
        <ele>102.2</ele>
        <time>2022-09-20T15:08:35Z</time>
      </trkpt>
      <trkpt lat="49.22809" lon="4.05321">
        <ele>102.6</ele>
        <time>2022-09-20T15:08:41Z</time>
      </trkpt>
      <trkpt lat="49.22856" lon="4.05287">
        <ele>101.6</ele>
        <time>2022-09-20T15:08:48Z</time>
      </trkpt>
      <trkpt lat="49.2288" lon="4.05268">
        <ele>101</ele>
        <time>2022-09-20T15:08:51Z</time>
      </trkpt>
      <trkpt lat="49.22903" lon="4.05249">
        <ele>99.6</ele>
        <time>2022-09-20T15:08:54Z</time>
      </trkpt>
      <trkpt lat="49.22918" lon="4.05237">
        <ele>98.8</ele>
        <time>2022-09-20T15:08:56Z</time>
      </trkpt>
      <trkpt lat="49.22925" lon="4.05231">
        <ele>98.4</ele>
        <time>2022-09-20T15:08:57Z</time>
      </trkpt>
      <trkpt lat="49.22947" lon="4.05212">
        <ele>97.6</ele>
        <time>2022-09-20T15:09:00Z</time>
      </trkpt>
      <trkpt lat="49.22961" lon="4.05199">
        <ele>97.4</ele>
        <time>2022-09-20T15:09:02Z</time>
      </trkpt>
      <trkpt lat="49.22979" lon="4.05177">
        <ele>97.2</ele>
        <time>2022-09-20T15:09:05Z</time>
      </trkpt>
      <trkpt lat="49.22984" lon="4.05168">
        <ele>97.2</ele>
        <time>2022-09-20T15:09:06Z</time>
      </trkpt>
      <trkpt lat="49.23018" lon="4.05102">
        <ele>97</ele>
        <time>2022-09-20T15:09:13Z</time>
      </trkpt>
      <trkpt lat="49.23053" lon="4.05029">
        <ele>96.6</ele>
        <time>2022-09-20T15:09:21Z</time>
      </trkpt>
      <trkpt lat="49.23074" lon="4.0497">
        <ele>96.6</ele>
        <time>2022-09-20T15:09:27Z</time>
      </trkpt>
      <trkpt lat="49.23089" lon="4.04909">
        <ele>96.6</ele>
        <time>2022-09-20T15:09:33Z</time>
      </trkpt>
      <trkpt lat="49.23101" lon="4.0487">
        <ele>97</ele>
        <time>2022-09-20T15:09:37Z</time>
      </trkpt>
      <trkpt lat="49.23106" lon="4.04863">
        <ele>97</ele>
        <time>2022-09-20T15:09:38Z</time>
      </trkpt>
      <trkpt lat="49.23111" lon="4.04855">
        <ele>97</ele>
        <time>2022-09-20T15:09:39Z</time>
      </trkpt>
      <trkpt lat="49.23122" lon="4.04849">
        <ele>97.2</ele>
        <time>2022-09-20T15:09:41Z</time>
      </trkpt>
      <trkpt lat="49.23132" lon="4.04846">
        <ele>97.4</ele>
        <time>2022-09-20T15:09:43Z</time>
      </trkpt>
      <trkpt lat="49.23146" lon="4.04847">
        <ele>97.6</ele>
        <time>2022-09-20T15:09:45Z</time>
      </trkpt>
      <trkpt lat="49.23201" lon="4.04847">
        <ele>98.6</ele>
        <time>2022-09-20T15:09:54Z</time>
      </trkpt>
      <trkpt lat="49.23207" lon="4.04847">
        <ele>98.6</ele>
        <time>2022-09-20T15:09:55Z</time>
      </trkpt>
      <trkpt lat="49.23228" lon="4.04846">
        <ele>99.2</ele>
        <time>2022-09-20T15:09:59Z</time>
      </trkpt>
      <trkpt lat="49.23233" lon="4.04846">
        <ele>99.6</ele>
        <time>2022-09-20T15:10:00Z</time>
      </trkpt>
      <trkpt lat="49.23237" lon="4.04846">
        <ele>100</ele>
        <time>2022-09-20T15:10:01Z</time>
      </trkpt>
      <trkpt lat="49.23251" lon="4.04845">
        <ele>101</ele>
        <time>2022-09-20T15:10:04Z</time>
      </trkpt>
      <trkpt lat="49.2326" lon="4.04847">
        <ele>101.2</ele>
        <time>2022-09-20T15:10:06Z</time>
      </trkpt>
      <trkpt lat="49.23274" lon="4.04852">
        <ele>101.6</ele>
        <time>2022-09-20T15:10:09Z</time>
      </trkpt>
      <trkpt lat="49.23283" lon="4.04856">
        <ele>102</ele>
        <time>2022-09-20T15:10:11Z</time>
      </trkpt>
      <trkpt lat="49.23293" lon="4.04862">
        <ele>102.4</ele>
        <time>2022-09-20T15:10:13Z</time>
      </trkpt>
      <trkpt lat="49.23321" lon="4.04878">
        <ele>102.8</ele>
        <time>2022-09-20T15:10:18Z</time>
      </trkpt>
      <trkpt lat="49.23334" lon="4.04883">
        <ele>102.6</ele>
        <time>2022-09-20T15:10:20Z</time>
      </trkpt>
      <trkpt lat="49.23346" lon="4.04881">
        <ele>102.4</ele>
        <time>2022-09-20T15:10:22Z</time>
      </trkpt>
      <trkpt lat="49.23358" lon="4.04875">
        <ele>102.2</ele>
        <time>2022-09-20T15:10:24Z</time>
      </trkpt>
      <trkpt lat="49.2338" lon="4.04862">
        <ele>102</ele>
        <time>2022-09-20T15:10:28Z</time>
      </trkpt>
      <trkpt lat="49.23403" lon="4.04848">
        <ele>102.2</ele>
        <time>2022-09-20T15:10:32Z</time>
      </trkpt>
      <trkpt lat="49.23419" lon="4.04839">
        <ele>102.4</ele>
        <time>2022-09-20T15:10:35Z</time>
      </trkpt>
      <trkpt lat="49.23444" lon="4.04825">
        <ele>103</ele>
        <time>2022-09-20T15:10:40Z</time>
      </trkpt>
      <trkpt lat="49.23468" lon="4.04812">
        <ele>104</ele>
        <time>2022-09-20T15:10:45Z</time>
      </trkpt>
      <trkpt lat="49.23472" lon="4.04809">
        <ele>104</ele>
        <time>2022-09-20T15:10:46Z</time>
      </trkpt>
      <trkpt lat="49.23505" lon="4.04787">
        <ele>104.6</ele>
        <time>2022-09-20T15:10:53Z</time>
      </trkpt>
      <trkpt lat="49.23513" lon="4.04782">
        <ele>104.8</ele>
        <time>2022-09-20T15:10:55Z</time>
      </trkpt>
      <trkpt lat="49.23522" lon="4.04776">
        <ele>104.8</ele>
        <time>2022-09-20T15:10:57Z</time>
      </trkpt>
      <trkpt lat="49.23526" lon="4.04775">
        <ele>105</ele>
        <time>2022-09-20T15:10:58Z</time>
      </trkpt>
      <trkpt lat="49.2353" lon="4.04773">
        <ele>105</ele>
        <time>2022-09-20T15:10:59Z</time>
      </trkpt>
      <trkpt lat="49.23538" lon="4.04769">
        <ele>105.6</ele>
        <time>2022-09-20T15:11:01Z</time>
      </trkpt>
      <trkpt lat="49.23547" lon="4.04767">
        <ele>105.8</ele>
        <time>2022-09-20T15:11:03Z</time>
      </trkpt>
      <trkpt lat="49.2355" lon="4.04765">
        <ele>106</ele>
        <time>2022-09-20T15:11:04Z</time>
      </trkpt>
      <trkpt lat="49.23559" lon="4.04759">
        <ele>106.2</ele>
        <time>2022-09-20T15:11:06Z</time>
      </trkpt>
      <trkpt lat="49.23568" lon="4.04755">
        <ele>106.8</ele>
        <time>2022-09-20T15:11:08Z</time>
      </trkpt>
      <trkpt lat="49.2358" lon="4.0475">
        <ele>107.2</ele>
        <time>2022-09-20T15:11:11Z</time>
      </trkpt>
      <trkpt lat="49.23584" lon="4.04751">
        <ele>107.4</ele>
        <time>2022-09-20T15:11:12Z</time>
      </trkpt>
      <trkpt lat="49.23587" lon="4.04755">
        <ele>107.6</ele>
        <time>2022-09-20T15:11:13Z</time>
      </trkpt>
      <trkpt lat="49.23604" lon="4.04779">
        <ele>108.4</ele>
        <time>2022-09-20T15:11:18Z</time>
      </trkpt>
      <trkpt lat="49.23608" lon="4.04784">
        <ele>108.6</ele>
        <time>2022-09-20T15:11:19Z</time>
      </trkpt>
      <trkpt lat="49.23625" lon="4.04808">
        <ele>109.4</ele>
        <time>2022-09-20T15:11:24Z</time>
      </trkpt>
      <trkpt lat="49.23638" lon="4.04825">
        <ele>110.4</ele>
        <time>2022-09-20T15:11:28Z</time>
      </trkpt>
      <trkpt lat="49.23641" lon="4.0483">
        <ele>110.6</ele>
        <time>2022-09-20T15:11:29Z</time>
      </trkpt>
      <trkpt lat="49.2365" lon="4.04843">
        <ele>111.4</ele>
        <time>2022-09-20T15:11:32Z</time>
      </trkpt>
      <trkpt lat="49.23662" lon="4.0486">
        <ele>112.4</ele>
        <time>2022-09-20T15:11:36Z</time>
      </trkpt>
      <trkpt lat="49.23665" lon="4.04864">
        <ele>112.6</ele>
        <time>2022-09-20T15:11:37Z</time>
      </trkpt>
      <trkpt lat="49.23675" lon="4.0488">
        <ele>113.8</ele>
        <time>2022-09-20T15:11:41Z</time>
      </trkpt>
      <trkpt lat="49.23683" lon="4.04892">
        <ele>114.4</ele>
        <time>2022-09-20T15:11:44Z</time>
      </trkpt>
      <trkpt lat="49.2369" lon="4.04903">
        <ele>114.8</ele>
        <time>2022-09-20T15:11:47Z</time>
      </trkpt>
      <trkpt lat="49.23702" lon="4.04921">
        <ele>115.6</ele>
        <time>2022-09-20T15:11:52Z</time>
      </trkpt>
      <trkpt lat="49.23709" lon="4.04921">
        <ele>115.8</ele>
        <time>2022-09-20T15:11:54Z</time>
      </trkpt>
      <trkpt lat="49.23712" lon="4.0492">
        <ele>116</ele>
        <time>2022-09-20T15:11:55Z</time>
      </trkpt>
      <trkpt lat="49.23715" lon="4.04918">
        <ele>116.2</ele>
        <time>2022-09-20T15:11:56Z</time>
      </trkpt>
      <trkpt lat="49.23732" lon="4.04895">
        <ele>117.2</ele>
        <time>2022-09-20T15:12:02Z</time>
      </trkpt>
      <trkpt lat="49.23735" lon="4.04891">
        <ele>117.4</ele>
        <time>2022-09-20T15:12:03Z</time>
      </trkpt>
      <trkpt lat="49.23747" lon="4.04875">
        <ele>118.4</ele>
        <time>2022-09-20T15:12:07Z</time>
      </trkpt>
      <trkpt lat="49.23756" lon="4.04863">
        <ele>118.8</ele>
        <time>2022-09-20T15:12:10Z</time>
      </trkpt>
      <trkpt lat="49.23764" lon="4.04851">
        <ele>119.4</ele>
        <time>2022-09-20T15:12:13Z</time>
      </trkpt>
      <trkpt lat="49.23786" lon="4.04819">
        <ele>120.4</ele>
        <time>2022-09-20T15:12:21Z</time>
      </trkpt>
      <trkpt lat="49.23789" lon="4.04815">
        <ele>120.4</ele>
        <time>2022-09-20T15:12:22Z</time>
      </trkpt>
      <trkpt lat="49.23814" lon="4.04778">
        <ele>121.2</ele>
        <time>2022-09-20T15:12:31Z</time>
      </trkpt>
      <trkpt lat="49.23848" lon="4.04724">
        <ele>121.2</ele>
        <time>2022-09-20T15:12:42Z</time>
      </trkpt>
      <trkpt lat="49.23857" lon="4.04709">
        <ele>121.2</ele>
        <time>2022-09-20T15:12:45Z</time>
      </trkpt>
      <trkpt lat="49.23871" lon="4.04692">
        <ele>121</ele>
        <time>2022-09-20T15:12:49Z</time>
      </trkpt>
      <trkpt lat="49.23878" lon="4.04684">
        <ele>121</ele>
        <time>2022-09-20T15:12:51Z</time>
      </trkpt>
      <trkpt lat="49.23893" lon="4.04669">
        <ele>120.8</ele>
        <time>2022-09-20T15:12:55Z</time>
      </trkpt>
      <trkpt lat="49.23923" lon="4.04637">
        <ele>120.4</ele>
        <time>2022-09-20T15:13:02Z</time>
      </trkpt>
      <trkpt lat="49.23937" lon="4.04621">
        <ele>120</ele>
        <time>2022-09-20T15:13:05Z</time>
      </trkpt>
      <trkpt lat="49.23942" lon="4.04616">
        <ele>119.8</ele>
        <time>2022-09-20T15:13:06Z</time>
      </trkpt>
      <trkpt lat="49.23952" lon="4.04605">
        <ele>119.6</ele>
        <time>2022-09-20T15:13:08Z</time>
      </trkpt>
      <trkpt lat="49.23961" lon="4.04594">
        <ele>119.4</ele>
        <time>2022-09-20T15:13:10Z</time>
      </trkpt>
      <trkpt lat="49.24" lon="4.04554">
        <ele>118.2</ele>
        <time>2022-09-20T15:13:18Z</time>
      </trkpt>
      <trkpt lat="49.24035" lon="4.04524">
        <ele>117.2</ele>
        <time>2022-09-20T15:13:25Z</time>
      </trkpt>
      <trkpt lat="49.24038" lon="4.04522">
        <ele>117</ele>
        <time>2022-09-20T15:13:26Z</time>
      </trkpt>
      <trkpt lat="49.24043" lon="4.04522">
        <ele>116.8</ele>
        <time>2022-09-20T15:13:28Z</time>
      </trkpt>
      <trkpt lat="49.24044" lon="4.04524">
        <ele>116.8</ele>
        <time>2022-09-20T15:13:29Z</time>
      </trkpt>
      <trkpt lat="49.24047" lon="4.04542">
        <ele>116.4</ele>
        <time>2022-09-20T15:13:33Z</time>
      </trkpt>
      <trkpt lat="49.24048" lon="4.04571">
        <ele>116.2</ele>
        <time>2022-09-20T15:13:37Z</time>
      </trkpt>
      <trkpt lat="49.24048" lon="4.04579">
        <ele>116.2</ele>
        <time>2022-09-20T15:13:38Z</time>
      </trkpt>
      <trkpt lat="49.2405" lon="4.04618">
        <ele>116.8</ele>
        <time>2022-09-20T15:13:43Z</time>
      </trkpt>
      <trkpt lat="49.24052" lon="4.04661">
        <ele>118.4</ele>
        <time>2022-09-20T15:13:49Z</time>
      </trkpt>
      <trkpt lat="49.24052" lon="4.04673">
        <ele>118.8</ele>
        <time>2022-09-20T15:13:51Z</time>
      </trkpt>
      <trkpt lat="49.24053" lon="4.04685">
        <ele>119.4</ele>
        <time>2022-09-20T15:13:53Z</time>
      </trkpt>
      <trkpt lat="49.24053" lon="4.04707">
        <ele>120.4</ele>
        <time>2022-09-20T15:13:57Z</time>
      </trkpt>
      <trkpt lat="49.24053" lon="4.04712">
        <ele>120.8</ele>
        <time>2022-09-20T15:13:58Z</time>
      </trkpt>
      <trkpt lat="49.24054" lon="4.04736">
        <ele>121.8</ele>
        <time>2022-09-20T15:14:02Z</time>
      </trkpt>
      <trkpt lat="49.24054" lon="4.04743">
        <ele>122.2</ele>
        <time>2022-09-20T15:14:03Z</time>
      </trkpt>
      <trkpt lat="49.24055" lon="4.04755">
        <ele>122.8</ele>
        <time>2022-09-20T15:14:05Z</time>
      </trkpt>
      <trkpt lat="49.24055" lon="4.04774">
        <ele>124</ele>
        <time>2022-09-20T15:14:08Z</time>
      </trkpt>
      <trkpt lat="49.24056" lon="4.04785">
        <ele>124.4</ele>
        <time>2022-09-20T15:14:10Z</time>
      </trkpt>
      <trkpt lat="49.24056" lon="4.04797">
        <ele>124.6</ele>
        <time>2022-09-20T15:14:12Z</time>
      </trkpt>
      <trkpt lat="49.24057" lon="4.04809">
        <ele>125</ele>
        <time>2022-09-20T15:14:14Z</time>
      </trkpt>
      <trkpt lat="49.24058" lon="4.04828">
        <ele>126.2</ele>
        <time>2022-09-20T15:14:17Z</time>
      </trkpt>
      <trkpt lat="49.24059" lon="4.04835">
        <ele>126.2</ele>
        <time>2022-09-20T15:14:18Z</time>
      </trkpt>
      <trkpt lat="49.24059" lon="4.04848">
        <ele>126.6</ele>
        <time>2022-09-20T15:14:20Z</time>
      </trkpt>
      <trkpt lat="49.2406" lon="4.0486">
        <ele>127.4</ele>
        <time>2022-09-20T15:14:22Z</time>
      </trkpt>
      <trkpt lat="49.24061" lon="4.04875">
        <ele>127.8</ele>
        <time>2022-09-20T15:14:24Z</time>
      </trkpt>
      <trkpt lat="49.24062" lon="4.04888">
        <ele>128.4</ele>
        <time>2022-09-20T15:14:26Z</time>
      </trkpt>
      <trkpt lat="49.24063" lon="4.04911">
        <ele>129.6</ele>
        <time>2022-09-20T15:14:29Z</time>
      </trkpt>
      <trkpt lat="49.24064" lon="4.04924">
        <ele>130.2</ele>
        <time>2022-09-20T15:14:31Z</time>
      </trkpt>
      <trkpt lat="49.24064" lon="4.04935">
        <ele>130.8</ele>
        <time>2022-09-20T15:14:33Z</time>
      </trkpt>
      <trkpt lat="49.24065" lon="4.04966">
        <ele>131.8</ele>
        <time>2022-09-20T15:14:38Z</time>
      </trkpt>
      <trkpt lat="49.24065" lon="4.04973">
        <ele>132</ele>
        <time>2022-09-20T15:14:39Z</time>
      </trkpt>
      <trkpt lat="49.24066" lon="4.04987">
        <ele>132.8</ele>
        <time>2022-09-20T15:14:41Z</time>
      </trkpt>
      <trkpt lat="49.24066" lon="4.04999">
        <ele>133.2</ele>
        <time>2022-09-20T15:14:43Z</time>
      </trkpt>
      <trkpt lat="49.24067" lon="4.05006">
        <ele>133.4</ele>
        <time>2022-09-20T15:14:44Z</time>
      </trkpt>
      <trkpt lat="49.24067" lon="4.05042">
        <ele>134.6</ele>
        <time>2022-09-20T15:14:50Z</time>
      </trkpt>
      <trkpt lat="49.24067" lon="4.05054">
        <ele>135</ele>
        <time>2022-09-20T15:14:52Z</time>
      </trkpt>
      <trkpt lat="49.24068" lon="4.05068">
        <ele>135.4</ele>
        <time>2022-09-20T15:14:54Z</time>
      </trkpt>
      <trkpt lat="49.24068" lon="4.05075">
        <ele>135.6</ele>
        <time>2022-09-20T15:14:55Z</time>
      </trkpt>
      <trkpt lat="49.24068" lon="4.05082">
        <ele>135.8</ele>
        <time>2022-09-20T15:14:56Z</time>
      </trkpt>
      <trkpt lat="49.2407" lon="4.05096">
        <ele>136.2</ele>
        <time>2022-09-20T15:14:58Z</time>
      </trkpt>
      <trkpt lat="49.2407" lon="4.05104">
        <ele>136.4</ele>
        <time>2022-09-20T15:14:59Z</time>
      </trkpt>
      <trkpt lat="49.2407" lon="4.05117">
        <ele>136.8</ele>
        <time>2022-09-20T15:15:01Z</time>
      </trkpt>
      <trkpt lat="49.2407" lon="4.05124">
        <ele>137.2</ele>
        <time>2022-09-20T15:15:02Z</time>
      </trkpt>
      <trkpt lat="49.2407" lon="4.05142">
        <ele>137.8</ele>
        <time>2022-09-20T15:15:05Z</time>
      </trkpt>
      <trkpt lat="49.2407" lon="4.05149">
        <ele>138</ele>
        <time>2022-09-20T15:15:06Z</time>
      </trkpt>
      <trkpt lat="49.24072" lon="4.0517">
        <ele>139</ele>
        <time>2022-09-20T15:15:09Z</time>
      </trkpt>
      <trkpt lat="49.24073" lon="4.05196">
        <ele>139.8</ele>
        <time>2022-09-20T15:15:13Z</time>
      </trkpt>
      <trkpt lat="49.24073" lon="4.05202">
        <ele>140.2</ele>
        <time>2022-09-20T15:15:14Z</time>
      </trkpt>
      <trkpt lat="49.24074" lon="4.05225">
        <ele>141.2</ele>
        <time>2022-09-20T15:15:18Z</time>
      </trkpt>
      <trkpt lat="49.24076" lon="4.05254">
        <ele>142.4</ele>
        <time>2022-09-20T15:15:23Z</time>
      </trkpt>
      <trkpt lat="49.24078" lon="4.05288">
        <ele>143.4</ele>
        <time>2022-09-20T15:15:29Z</time>
      </trkpt>
      <trkpt lat="49.24078" lon="4.05293">
        <ele>143.4</ele>
        <time>2022-09-20T15:15:30Z</time>
      </trkpt>
      <trkpt lat="49.24084" lon="4.05314">
        <ele>144</ele>
        <time>2022-09-20T15:15:34Z</time>
      </trkpt>
      <trkpt lat="49.24086" lon="4.05317">
        <ele>144</ele>
        <time>2022-09-20T15:15:35Z</time>
      </trkpt>
      <trkpt lat="49.24092" lon="4.05317">
        <ele>144.2</ele>
        <time>2022-09-20T15:15:37Z</time>
      </trkpt>
      <trkpt lat="49.24099" lon="4.05309">
        <ele>144.2</ele>
        <time>2022-09-20T15:15:39Z</time>
      </trkpt>
      <trkpt lat="49.24106" lon="4.05296">
        <ele>144.2</ele>
        <time>2022-09-20T15:15:41Z</time>
      </trkpt>
      <trkpt lat="49.24119" lon="4.05277">
        <ele>144</ele>
        <time>2022-09-20T15:15:44Z</time>
      </trkpt>
      <trkpt lat="49.24133" lon="4.05262">
        <ele>143.8</ele>
        <time>2022-09-20T15:15:47Z</time>
      </trkpt>
      <trkpt lat="49.24167" lon="4.05229">
        <ele>143.2</ele>
        <time>2022-09-20T15:15:53Z</time>
      </trkpt>
      <trkpt lat="49.24196" lon="4.05197">
        <ele>142.8</ele>
        <time>2022-09-20T15:15:58Z</time>
      </trkpt>
      <trkpt lat="49.24215" lon="4.05176">
        <ele>142.4</ele>
        <time>2022-09-20T15:16:01Z</time>
      </trkpt>
      <trkpt lat="49.24241" lon="4.05149">
        <ele>141.8</ele>
        <time>2022-09-20T15:16:05Z</time>
      </trkpt>
      <trkpt lat="49.24247" lon="4.05142">
        <ele>141.2</ele>
        <time>2022-09-20T15:16:06Z</time>
      </trkpt>
      <trkpt lat="49.24268" lon="4.0512">
        <ele>140</ele>
        <time>2022-09-20T15:16:10Z</time>
      </trkpt>
      <trkpt lat="49.24278" lon="4.05108">
        <ele>138.8</ele>
        <time>2022-09-20T15:16:13Z</time>
      </trkpt>
      <trkpt lat="49.24281" lon="4.05104">
        <ele>138.6</ele>
        <time>2022-09-20T15:16:14Z</time>
      </trkpt>
      <trkpt lat="49.2429" lon="4.05093">
        <ele>137.4</ele>
        <time>2022-09-20T15:16:17Z</time>
      </trkpt>
      <trkpt lat="49.24303" lon="4.05081">
        <ele>136.8</ele>
        <time>2022-09-20T15:16:20Z</time>
      </trkpt>
      <trkpt lat="49.24317" lon="4.05067">
        <ele>136.4</ele>
        <time>2022-09-20T15:16:23Z</time>
      </trkpt>
      <trkpt lat="49.24328" lon="4.05055">
        <ele>135.6</ele>
        <time>2022-09-20T15:16:26Z</time>
      </trkpt>
      <trkpt lat="49.24334" lon="4.05049">
        <ele>135.2</ele>
        <time>2022-09-20T15:16:28Z</time>
      </trkpt>
      <trkpt lat="49.24345" lon="4.05037">
        <ele>134.2</ele>
        <time>2022-09-20T15:16:31Z</time>
      </trkpt>
      <trkpt lat="49.24349" lon="4.05032">
        <ele>134</ele>
        <time>2022-09-20T15:16:32Z</time>
      </trkpt>
      <trkpt lat="49.24354" lon="4.05028">
        <ele>134</ele>
        <time>2022-09-20T15:16:33Z</time>
      </trkpt>
      <trkpt lat="49.24377" lon="4.05004">
        <ele>133</ele>
        <time>2022-09-20T15:16:38Z</time>
      </trkpt>
      <trkpt lat="49.24385" lon="4.04995">
        <ele>132.6</ele>
        <time>2022-09-20T15:16:40Z</time>
      </trkpt>
      <trkpt lat="49.24399" lon="4.0498">
        <ele>132</ele>
        <time>2022-09-20T15:16:43Z</time>
      </trkpt>
      <trkpt lat="49.24405" lon="4.04976">
        <ele>131.8</ele>
        <time>2022-09-20T15:16:44Z</time>
      </trkpt>
      <trkpt lat="49.24418" lon="4.04966">
        <ele>131.2</ele>
        <time>2022-09-20T15:16:46Z</time>
      </trkpt>
      <trkpt lat="49.24424" lon="4.0496">
        <ele>131</ele>
        <time>2022-09-20T15:16:47Z</time>
      </trkpt>
      <trkpt lat="49.2443" lon="4.04952">
        <ele>130.6</ele>
        <time>2022-09-20T15:16:48Z</time>
      </trkpt>
      <trkpt lat="49.24442" lon="4.04936">
        <ele>130.2</ele>
        <time>2022-09-20T15:16:50Z</time>
      </trkpt>
      <trkpt lat="49.24471" lon="4.04891">
        <ele>129</ele>
        <time>2022-09-20T15:16:55Z</time>
      </trkpt>
      <trkpt lat="49.24483" lon="4.04873">
        <ele>128</ele>
        <time>2022-09-20T15:16:57Z</time>
      </trkpt>
      <trkpt lat="49.24489" lon="4.04863">
        <ele>127.6</ele>
        <time>2022-09-20T15:16:58Z</time>
      </trkpt>
      <trkpt lat="49.24514" lon="4.04825">
        <ele>126.4</ele>
        <time>2022-09-20T15:17:02Z</time>
      </trkpt>
      <trkpt lat="49.24532" lon="4.04798">
        <ele>125</ele>
        <time>2022-09-20T15:17:05Z</time>
      </trkpt>
      <trkpt lat="49.24562" lon="4.04753">
        <ele>123.6</ele>
        <time>2022-09-20T15:17:10Z</time>
      </trkpt>
      <trkpt lat="49.24584" lon="4.0472">
        <ele>122.6</ele>
        <time>2022-09-20T15:17:14Z</time>
      </trkpt>
      <trkpt lat="49.24593" lon="4.04705">
        <ele>121.4</ele>
        <time>2022-09-20T15:17:17Z</time>
      </trkpt>
      <trkpt lat="49.24596" lon="4.04702">
        <ele>121.2</ele>
        <time>2022-09-20T15:17:18Z</time>
      </trkpt>
      <trkpt lat="49.24598" lon="4.047">
        <ele>120.2</ele>
        <time>2022-09-20T15:17:21Z</time>
      </trkpt>
      <trkpt lat="49.24598" lon="4.047">
        <ele>119.8</ele>
        <time>2022-09-20T15:17:22Z</time>
      </trkpt>
      <trkpt lat="49.24598" lon="4.047">
        <ele>119.2</ele>
        <time>2022-09-20T15:17:26Z</time>
      </trkpt>
      <trkpt lat="49.24598" lon="4.047">
        <ele>119</ele>
        <time>2022-09-20T15:17:32Z</time>
      </trkpt>
      <trkpt lat="49.24602" lon="4.04692">
        <ele>118.6</ele>
        <time>2022-09-20T15:17:43Z</time>
      </trkpt>
      <trkpt lat="49.24616" lon="4.0467">
        <ele>118.4</ele>
        <time>2022-09-20T15:17:47Z</time>
      </trkpt>
      <trkpt lat="49.24641" lon="4.04632">
        <ele>118</ele>
        <time>2022-09-20T15:17:52Z</time>
      </trkpt>
      <trkpt lat="49.24669" lon="4.04592">
        <ele>117.6</ele>
        <time>2022-09-20T15:17:57Z</time>
      </trkpt>
      <trkpt lat="49.24674" lon="4.04583">
        <ele>117.6</ele>
        <time>2022-09-20T15:17:58Z</time>
      </trkpt>
      <trkpt lat="49.24697" lon="4.04548">
        <ele>116.8</ele>
        <time>2022-09-20T15:18:02Z</time>
      </trkpt>
      <trkpt lat="49.24715" lon="4.04522">
        <ele>115.8</ele>
        <time>2022-09-20T15:18:05Z</time>
      </trkpt>
      <trkpt lat="49.24739" lon="4.04486">
        <ele>114.6</ele>
        <time>2022-09-20T15:18:09Z</time>
      </trkpt>
      <trkpt lat="49.24769" lon="4.04442">
        <ele>113.4</ele>
        <time>2022-09-20T15:18:14Z</time>
      </trkpt>
      <trkpt lat="49.24794" lon="4.04409">
        <ele>112.4</ele>
        <time>2022-09-20T15:18:18Z</time>
      </trkpt>
      <trkpt lat="49.24801" lon="4.04403">
        <ele>112</ele>
        <time>2022-09-20T15:18:19Z</time>
      </trkpt>
      <trkpt lat="49.24835" lon="4.04374">
        <ele>111.2</ele>
        <time>2022-09-20T15:18:24Z</time>
      </trkpt>
      <trkpt lat="49.24857" lon="4.04356">
        <ele>110.6</ele>
        <time>2022-09-20T15:18:27Z</time>
      </trkpt>
      <trkpt lat="49.24871" lon="4.04345">
        <ele>110.2</ele>
        <time>2022-09-20T15:18:29Z</time>
      </trkpt>
      <trkpt lat="49.24917" lon="4.0431">
        <ele>109.2</ele>
        <time>2022-09-20T15:18:35Z</time>
      </trkpt>
      <trkpt lat="49.24925" lon="4.04306">
        <ele>109</ele>
        <time>2022-09-20T15:18:36Z</time>
      </trkpt>
      <trkpt lat="49.24953" lon="4.04294">
        <ele>108.4</ele>
        <time>2022-09-20T15:18:40Z</time>
      </trkpt>
      <trkpt lat="49.24973" lon="4.04284">
        <ele>108</ele>
        <time>2022-09-20T15:18:43Z</time>
      </trkpt>
      <trkpt lat="49.24991" lon="4.04276">
        <ele>107.6</ele>
        <time>2022-09-20T15:18:46Z</time>
      </trkpt>
      <trkpt lat="49.25028" lon="4.04255">
        <ele>107.2</ele>
        <time>2022-09-20T15:18:52Z</time>
      </trkpt>
      <trkpt lat="49.25041" lon="4.0425">
        <ele>107</ele>
        <time>2022-09-20T15:18:55Z</time>
      </trkpt>
      <trkpt lat="49.25045" lon="4.04249">
        <ele>107</ele>
        <time>2022-09-20T15:18:56Z</time>
      </trkpt>
      <trkpt lat="49.25054" lon="4.04247">
        <ele>107</ele>
        <time>2022-09-20T15:19:00Z</time>
      </trkpt>
      <trkpt lat="49.25054" lon="4.04246">
        <ele>107</ele>
        <time>2022-09-20T15:19:03Z</time>
      </trkpt>
      <trkpt lat="49.25054" lon="4.04246">
        <ele>106.8</ele>
        <time>2022-09-20T15:19:06Z</time>
      </trkpt>
      <trkpt lat="49.25063" lon="4.04243">
        <ele>106.6</ele>
        <time>2022-09-20T15:19:31Z</time>
      </trkpt>
      <trkpt lat="49.25067" lon="4.04241">
        <ele>106.6</ele>
        <time>2022-09-20T15:19:32Z</time>
      </trkpt>
      <trkpt lat="49.25087" lon="4.04232">
        <ele>106.4</ele>
        <time>2022-09-20T15:19:36Z</time>
      </trkpt>
      <trkpt lat="49.25095" lon="4.04228">
        <ele>106.4</ele>
        <time>2022-09-20T15:19:38Z</time>
      </trkpt>
      <trkpt lat="49.25105" lon="4.04222">
        <ele>106.6</ele>
        <time>2022-09-20T15:19:41Z</time>
      </trkpt>
      <trkpt lat="49.25114" lon="4.0422">
        <ele>106.6</ele>
        <time>2022-09-20T15:19:46Z</time>
      </trkpt>
      <trkpt lat="49.25123" lon="4.04217">
        <ele>106.2</ele>
        <time>2022-09-20T15:19:53Z</time>
      </trkpt>
      <trkpt lat="49.25123" lon="4.04217">
        <ele>106.2</ele>
        <time>2022-09-20T15:20:31Z</time>
      </trkpt>
      <trkpt lat="49.25127" lon="4.04215">
        <ele>106.2</ele>
        <time>2022-09-20T15:20:50Z</time>
      </trkpt>
      <trkpt lat="49.25133" lon="4.04215">
        <ele>106.2</ele>
        <time>2022-09-20T15:20:52Z</time>
      </trkpt>
      <trkpt lat="49.25142" lon="4.0421">
        <ele>106</ele>
        <time>2022-09-20T15:20:54Z</time>
      </trkpt>
      <trkpt lat="49.25167" lon="4.04197">
        <ele>106</ele>
        <time>2022-09-20T15:20:58Z</time>
      </trkpt>
      <trkpt lat="49.25207" lon="4.04179">
        <ele>105.8</ele>
        <time>2022-09-20T15:21:04Z</time>
      </trkpt>
      <trkpt lat="49.25221" lon="4.0417">
        <ele>105.8</ele>
        <time>2022-09-20T15:21:06Z</time>
      </trkpt>
      <trkpt lat="49.25236" lon="4.04162">
        <ele>106</ele>
        <time>2022-09-20T15:21:08Z</time>
      </trkpt>
      <trkpt lat="49.25275" lon="4.04145">
        <ele>106</ele>
        <time>2022-09-20T15:21:13Z</time>
      </trkpt>
      <trkpt lat="49.25282" lon="4.0414">
        <ele>106</ele>
        <time>2022-09-20T15:21:14Z</time>
      </trkpt>
      <trkpt lat="49.25326" lon="4.04119">
        <ele>106</ele>
        <time>2022-09-20T15:21:20Z</time>
      </trkpt>
      <trkpt lat="49.25366" lon="4.04099">
        <ele>106</ele>
        <time>2022-09-20T15:21:27Z</time>
      </trkpt>
      <trkpt lat="49.25375" lon="4.04093">
        <ele>106</ele>
        <time>2022-09-20T15:21:31Z</time>
      </trkpt>
      <trkpt lat="49.25387" lon="4.04086">
        <ele>105.8</ele>
        <time>2022-09-20T15:21:39Z</time>
      </trkpt>
      <trkpt lat="49.25387" lon="4.04086">
        <ele>105.8</ele>
        <time>2022-09-20T15:21:44Z</time>
      </trkpt>
      <trkpt lat="49.25387" lon="4.04086">
        <ele>105.6</ele>
        <time>2022-09-20T15:21:45Z</time>
      </trkpt>
      <trkpt lat="49.25387" lon="4.04086">
        <ele>105.2</ele>
        <time>2022-09-20T15:21:53Z</time>
      </trkpt>
      <trkpt lat="49.25387" lon="4.04081">
        <ele>105.2</ele>
        <time>2022-09-20T15:21:55Z</time>
      </trkpt>
      <trkpt lat="49.25384" lon="4.04071">
        <ele>105.2</ele>
        <time>2022-09-20T15:21:57Z</time>
      </trkpt>
      <trkpt lat="49.2538" lon="4.04058">
        <ele>105</ele>
        <time>2022-09-20T15:21:59Z</time>
      </trkpt>
      <trkpt lat="49.25368" lon="4.04004">
        <ele>105</ele>
        <time>2022-09-20T15:22:06Z</time>
      </trkpt>
      <trkpt lat="49.25364" lon="4.03977">
        <ele>105.6</ele>
        <time>2022-09-20T15:22:09Z</time>
      </trkpt>
      <trkpt lat="49.25367" lon="4.0396">
        <ele>105.8</ele>
        <time>2022-09-20T15:22:11Z</time>
      </trkpt>
      <trkpt lat="49.25368" lon="4.03953">
        <ele>106</ele>
        <time>2022-09-20T15:22:12Z</time>
      </trkpt>
      <trkpt lat="49.25373" lon="4.03939">
        <ele>106.2</ele>
        <time>2022-09-20T15:22:14Z</time>
      </trkpt>
      <trkpt lat="49.25377" lon="4.03932">
        <ele>106.4</ele>
        <time>2022-09-20T15:22:15Z</time>
      </trkpt>
      <trkpt lat="49.25406" lon="4.03882">
        <ele>106.4</ele>
        <time>2022-09-20T15:22:21Z</time>
      </trkpt>
      <trkpt lat="49.2541" lon="4.03873">
        <ele>106.4</ele>
        <time>2022-09-20T15:22:22Z</time>
      </trkpt>
      <trkpt lat="49.25424" lon="4.03843">
        <ele>106.2</ele>
        <time>2022-09-20T15:22:26Z</time>
      </trkpt>
      <trkpt lat="49.25443" lon="4.03806">
        <ele>106</ele>
        <time>2022-09-20T15:22:31Z</time>
      </trkpt>
      <trkpt lat="49.25452" lon="4.03797">
        <ele>105.8</ele>
        <time>2022-09-20T15:22:33Z</time>
      </trkpt>
      <trkpt lat="49.25472" lon="4.03782">
        <ele>105.4</ele>
        <time>2022-09-20T15:22:38Z</time>
      </trkpt>
      <trkpt lat="49.25479" lon="4.03777">
        <ele>105</ele>
        <time>2022-09-20T15:22:42Z</time>
      </trkpt>
      <trkpt lat="49.25479" lon="4.03777">
        <ele>104.6</ele>
        <time>2022-09-20T15:22:47Z</time>
      </trkpt>
      <trkpt lat="49.25479" lon="4.03777">
        <ele>104.6</ele>
        <time>2022-09-20T15:22:48Z</time>
      </trkpt>
      <trkpt lat="49.25479" lon="4.03777">
        <ele>104.6</ele>
        <time>2022-09-20T15:23:01Z</time>
      </trkpt>
      <trkpt lat="49.25487" lon="4.03771">
        <ele>104.6</ele>
        <time>2022-09-20T15:23:07Z</time>
      </trkpt>
      <trkpt lat="49.255" lon="4.03757">
        <ele>104.4</ele>
        <time>2022-09-20T15:23:10Z</time>
      </trkpt>
      <trkpt lat="49.25505" lon="4.03752">
        <ele>104.4</ele>
        <time>2022-09-20T15:23:11Z</time>
      </trkpt>
      <trkpt lat="49.2553" lon="4.03722">
        <ele>104.4</ele>
        <time>2022-09-20T15:23:17Z</time>
      </trkpt>
      <trkpt lat="49.25541" lon="4.03714">
        <ele>103.6</ele>
        <time>2022-09-20T15:23:20Z</time>
      </trkpt>
      <trkpt lat="49.25544" lon="4.0371">
        <ele>103.4</ele>
        <time>2022-09-20T15:23:21Z</time>
      </trkpt>
      <trkpt lat="49.25549" lon="4.03703">
        <ele>103.6</ele>
        <time>2022-09-20T15:23:25Z</time>
      </trkpt>
      <trkpt lat="49.25549" lon="4.03703">
        <ele>103.6</ele>
        <time>2022-09-20T15:23:30Z</time>
      </trkpt>
      <trkpt lat="49.25547" lon="4.03701">
        <ele>103.4</ele>
        <time>2022-09-20T15:23:33Z</time>
      </trkpt>
      <trkpt lat="49.2554" lon="4.03696">
        <ele>103.4</ele>
        <time>2022-09-20T15:23:35Z</time>
      </trkpt>
      <trkpt lat="49.25533" lon="4.03685">
        <ele>103.2</ele>
        <time>2022-09-20T15:23:37Z</time>
      </trkpt>
      <trkpt lat="49.25526" lon="4.03671">
        <ele>103</ele>
        <time>2022-09-20T15:23:39Z</time>
      </trkpt>
      <trkpt lat="49.25507" lon="4.0363">
        <ele>103</ele>
        <time>2022-09-20T15:23:44Z</time>
      </trkpt>
      <trkpt lat="49.25493" lon="4.03603">
        <ele>103.2</ele>
        <time>2022-09-20T15:23:48Z</time>
      </trkpt>
      <trkpt lat="49.25492" lon="4.03587">
        <ele>103.4</ele>
        <time>2022-09-20T15:23:50Z</time>
      </trkpt>
      <trkpt lat="49.25489" lon="4.03572">
        <ele>103.2</ele>
        <time>2022-09-20T15:23:52Z</time>
      </trkpt>
      <trkpt lat="49.25483" lon="4.03548">
        <ele>103</ele>
        <time>2022-09-20T15:23:55Z</time>
      </trkpt>
      <trkpt lat="49.25483" lon="4.03543">
        <ele>103</ele>
        <time>2022-09-20T15:23:56Z</time>
      </trkpt>
      <trkpt lat="49.25487" lon="4.0353">
        <ele>103</ele>
        <time>2022-09-20T15:23:58Z</time>
      </trkpt>
      <trkpt lat="49.25492" lon="4.03526">
        <ele>102.8</ele>
        <time>2022-09-20T15:23:59Z</time>
      </trkpt>
      <trkpt lat="49.25503" lon="4.03518">
        <ele>102.6</ele>
        <time>2022-09-20T15:24:01Z</time>
      </trkpt>
      <trkpt lat="49.25513" lon="4.03505">
        <ele>102.4</ele>
        <time>2022-09-20T15:24:03Z</time>
      </trkpt>
      <trkpt lat="49.25518" lon="4.03495">
        <ele>102.2</ele>
        <time>2022-09-20T15:24:04Z</time>
      </trkpt>
      <trkpt lat="49.25532" lon="4.03481">
        <ele>102.2</ele>
        <time>2022-09-20T15:24:07Z</time>
      </trkpt>
      <trkpt lat="49.25543" lon="4.03472">
        <ele>102.2</ele>
        <time>2022-09-20T15:24:09Z</time>
      </trkpt>
      <trkpt lat="49.25562" lon="4.0345">
        <ele>102.4</ele>
        <time>2022-09-20T15:24:13Z</time>
      </trkpt>
      <trkpt lat="49.25568" lon="4.03439">
        <ele>102.4</ele>
        <time>2022-09-20T15:24:15Z</time>
      </trkpt>
      <trkpt lat="49.25572" lon="4.0343">
        <ele>102.6</ele>
        <time>2022-09-20T15:24:17Z</time>
      </trkpt>
      <trkpt lat="49.25574" lon="4.03424">
        <ele>102.6</ele>
        <time>2022-09-20T15:24:18Z</time>
      </trkpt>
      <trkpt lat="49.25575" lon="4.03407">
        <ele>102</ele>
        <time>2022-09-20T15:24:21Z</time>
      </trkpt>
      <trkpt lat="49.25581" lon="4.03388">
        <ele>102.4</ele>
        <time>2022-09-20T15:24:25Z</time>
      </trkpt>
      <trkpt lat="49.25596" lon="4.03375">
        <ele>101.8</ele>
        <time>2022-09-20T15:24:30Z</time>
      </trkpt>
      <trkpt lat="49.25609" lon="4.03365">
        <ele>101.6</ele>
        <time>2022-09-20T15:24:35Z</time>
      </trkpt>
      <trkpt lat="49.25612" lon="4.0336">
        <ele>101.4</ele>
        <time>2022-09-20T15:24:38Z</time>
      </trkpt>
      <trkpt lat="49.25613" lon="4.0336">
        <ele>101.4</ele>
        <time>2022-09-20T15:24:40Z</time>
      </trkpt>
      <trkpt lat="49.25613" lon="4.0336">
        <ele>101.2</ele>
        <time>2022-09-20T15:24:44Z</time>
      </trkpt>
      <trkpt lat="49.25613" lon="4.0336">
        <ele>101</ele>
        <time>2022-09-20T15:24:55Z</time>
      </trkpt>
      <trkpt lat="49.25613" lon="4.03357">
        <ele>100.8</ele>
        <time>2022-09-20T15:25:04Z</time>
      </trkpt>
      <trkpt lat="49.25613" lon="4.03355">
        <ele>100.8</ele>
        <time>2022-09-20T15:25:05Z</time>
      </trkpt>
      <trkpt lat="49.25626" lon="4.03342">
        <ele>100.8</ele>
        <time>2022-09-20T15:25:11Z</time>
      </trkpt>
      <trkpt lat="49.25646" lon="4.03326">
        <ele>100.8</ele>
        <time>2022-09-20T15:25:19Z</time>
      </trkpt>
      <trkpt lat="49.25651" lon="4.03323">
        <ele>100.6</ele>
        <time>2022-09-20T15:25:25Z</time>
      </trkpt>
      <trkpt lat="49.25657" lon="4.03318">
        <ele>100.8</ele>
        <time>2022-09-20T15:25:38Z</time>
      </trkpt>
      <trkpt lat="49.25672" lon="4.03305">
        <ele>100.6</ele>
        <time>2022-09-20T15:25:42Z</time>
      </trkpt>
      <trkpt lat="49.25702" lon="4.03277">
        <ele>100.6</ele>
        <time>2022-09-20T15:25:49Z</time>
      </trkpt>
      <trkpt lat="49.25705" lon="4.03274">
        <ele>100.6</ele>
        <time>2022-09-20T15:25:50Z</time>
      </trkpt>
      <trkpt lat="49.25729" lon="4.03256">
        <ele>101.2</ele>
        <time>2022-09-20T15:25:55Z</time>
      </trkpt>
      <trkpt lat="49.25733" lon="4.03251">
        <ele>101.4</ele>
        <time>2022-09-20T15:25:56Z</time>
      </trkpt>
      <trkpt lat="49.25743" lon="4.03243">
        <ele>101.4</ele>
        <time>2022-09-20T15:25:58Z</time>
      </trkpt>
      <trkpt lat="49.25748" lon="4.0324">
        <ele>101.4</ele>
        <time>2022-09-20T15:25:59Z</time>
      </trkpt>
      <trkpt lat="49.25753" lon="4.03234">
        <ele>101.6</ele>
        <time>2022-09-20T15:26:00Z</time>
      </trkpt>
      <trkpt lat="49.25769" lon="4.03215">
        <ele>101.6</ele>
        <time>2022-09-20T15:26:04Z</time>
      </trkpt>
      <trkpt lat="49.25771" lon="4.03214">
        <ele>101.6</ele>
        <time>2022-09-20T15:26:05Z</time>
      </trkpt>
      <trkpt lat="49.25774" lon="4.03215">
        <ele>101.6</ele>
        <time>2022-09-20T15:26:06Z</time>
      </trkpt>
      <trkpt lat="49.25777" lon="4.03224">
        <ele>101.6</ele>
        <time>2022-09-20T15:26:08Z</time>
      </trkpt>
      <trkpt lat="49.25781" lon="4.03236">
        <ele>101.6</ele>
        <time>2022-09-20T15:26:10Z</time>
      </trkpt>
      <trkpt lat="49.25785" lon="4.03246">
        <ele>101.6</ele>
        <time>2022-09-20T15:26:12Z</time>
      </trkpt>
      <trkpt lat="49.25789" lon="4.03249">
        <ele>101.6</ele>
        <time>2022-09-20T15:26:13Z</time>
      </trkpt>
      <trkpt lat="49.25793" lon="4.03251">
        <ele>101.4</ele>
        <time>2022-09-20T15:26:14Z</time>
      </trkpt>
      <trkpt lat="49.25796" lon="4.03268">
        <ele>101.6</ele>
        <time>2022-09-20T15:26:16Z</time>
      </trkpt>
      <trkpt lat="49.25795" lon="4.03297">
        <ele>101.8</ele>
        <time>2022-09-20T15:26:20Z</time>
      </trkpt>
      <trkpt lat="49.25794" lon="4.03304">
        <ele>101.8</ele>
        <time>2022-09-20T15:26:21Z</time>
      </trkpt>
      <trkpt lat="49.25792" lon="4.03365">
        <ele>101.8</ele>
        <time>2022-09-20T15:26:29Z</time>
      </trkpt>
      <trkpt lat="49.25792" lon="4.03373">
        <ele>101.8</ele>
        <time>2022-09-20T15:26:30Z</time>
      </trkpt>
      <trkpt lat="49.25797" lon="4.03395">
        <ele>102</ele>
        <time>2022-09-20T15:26:33Z</time>
      </trkpt>
      <trkpt lat="49.25799" lon="4.03402">
        <ele>102</ele>
        <time>2022-09-20T15:26:34Z</time>
      </trkpt>
      <trkpt lat="49.25805" lon="4.03415">
        <ele>102.4</ele>
        <time>2022-09-20T15:26:36Z</time>
      </trkpt>
      <trkpt lat="49.25812" lon="4.03428">
        <ele>102.6</ele>
        <time>2022-09-20T15:26:38Z</time>
      </trkpt>
      <trkpt lat="49.25819" lon="4.03443">
        <ele>103</ele>
        <time>2022-09-20T15:26:41Z</time>
      </trkpt>
      <trkpt lat="49.25827" lon="4.03461">
        <ele>103.4</ele>
        <time>2022-09-20T15:26:45Z</time>
      </trkpt>
      <trkpt lat="49.25828" lon="4.03465">
        <ele>103.6</ele>
        <time>2022-09-20T15:26:46Z</time>
      </trkpt>
      <trkpt lat="49.25829" lon="4.03469">
        <ele>104</ele>
        <time>2022-09-20T15:26:47Z</time>
      </trkpt>
      <trkpt lat="49.25831" lon="4.03471">
        <ele>104.6</ele>
        <time>2022-09-20T15:26:48Z</time>
      </trkpt>
      <trkpt lat="49.25835" lon="4.03476">
        <ele>105</ele>
        <time>2022-09-20T15:26:50Z</time>
      </trkpt>
      <trkpt lat="49.2585" lon="4.03496">
        <ele>105</ele>
        <time>2022-09-20T15:26:56Z</time>
      </trkpt>
      <trkpt lat="49.25861" lon="4.03526">
        <ele>104.6</ele>
        <time>2022-09-20T15:27:02Z</time>
      </trkpt>
      <trkpt lat="49.25873" lon="4.03551">
        <ele>104.6</ele>
        <time>2022-09-20T15:27:08Z</time>
      </trkpt>
      <trkpt lat="49.25875" lon="4.03554">
        <ele>104.4</ele>
        <time>2022-09-20T15:27:09Z</time>
      </trkpt>
    </trkseg>
  </trk>
</gpx>